<?xml version="1.0" encoding="UTF-8" standalone="no" ?>
<gpx xmlns="http://www.topografix.com/GPX/1/1" xmlns:xsi="http://www.w3.org/2001/XMLSchema-instance" xsi:schemaLocation="http://www.topografix.com/GPX/1/1 http://www.topografix.com/GPX/1/1/gpx.xsd" version="1.1" creator="VisuGPX - https://www.visugpx.com">
  <metadata>
    <name>EVX - Aubusson</name>
  </metadata>
  <trk>
    <name><![CDATA[EVX - Aubusson]]></name>
    <extensions>
      <line xmlns="http://www.topografix.com/GPX/gpx_style/0/2">
        <color>0000FF</color>
        <width>4</width>
      </line>
    </extensions>
    <trkseg>
      <trkpt lat="46.18852" lon="2.42441">
        <ele>330.180361</ele>
        <time>2024-06-27T18:40:40.491Z</time>
      </trkpt>
      <trkpt lat="46.1886" lon="2.42369">
        <ele>330.180361</ele>
        <time>2024-06-27T18:40:47.062Z</time>
      </trkpt>
      <trkpt lat="46.18866" lon="2.4232">
        <ele>330.180361</ele>
        <time>2024-06-27T18:40:51.784Z</time>
      </trkpt>
      <trkpt lat="46.18884" lon="2.42151">
        <ele>330.511166</ele>
        <time>2024-06-27T18:41:10.183Z</time>
      </trkpt>
      <trkpt lat="46.18885" lon="2.42139">
        <ele>330.535766</ele>
        <time>2024-06-27T18:41:11.527Z</time>
      </trkpt>
      <trkpt lat="46.18891" lon="2.42097">
        <ele>330.621872</ele>
        <time>2024-06-27T18:41:16.254Z</time>
      </trkpt>
      <trkpt lat="46.18892" lon="2.42082">
        <ele>330.653046</ele>
        <time>2024-06-27T18:41:17.963Z</time>
      </trkpt>
      <trkpt lat="46.18898" lon="2.42029">
        <ele>330.88026</ele>
        <time>2024-06-27T18:41:23.835Z</time>
      </trkpt>
      <trkpt lat="46.18894" lon="2.42027">
        <ele>330.920183</ele>
        <time>2024-06-27T18:41:24.519Z</time>
      </trkpt>
      <trkpt lat="46.18831" lon="2.41818">
        <ele>332.397073</ele>
        <time>2024-06-27T18:41:50.908Z</time>
      </trkpt>
      <trkpt lat="46.1883" lon="2.41816">
        <ele>332.406836</ele>
        <time>2024-06-27T18:41:51.103Z</time>
      </trkpt>
      <trkpt lat="46.18799" lon="2.41712">
        <ele>333.040215</ele>
        <time>2024-06-27T18:42:03.726Z</time>
      </trkpt>
      <trkpt lat="46.18785" lon="2.41656">
        <ele>333.367143</ele>
        <time>2024-06-27T18:42:10.387Z</time>
      </trkpt>
      <trkpt lat="46.18782" lon="2.41628">
        <ele>333.528339</ele>
        <time>2024-06-27T18:42:13.616Z</time>
      </trkpt>
      <trkpt lat="46.18786" lon="2.41576">
        <ele>333.816471</ele>
        <time>2024-06-27T18:42:19.459Z</time>
      </trkpt>
      <trkpt lat="46.18792" lon="2.41529">
        <ele>333.94627</ele>
        <time>2024-06-27T18:42:24.820Z</time>
      </trkpt>
      <trkpt lat="46.18792" lon="2.41503">
        <ele>334.009029</ele>
        <time>2024-06-27T18:42:27.619Z</time>
      </trkpt>
      <trkpt lat="46.18788" lon="2.41452">
        <ele>334.13876</ele>
        <time>2024-06-27T18:42:33.398Z</time>
      </trkpt>
      <trkpt lat="46.18758" lon="2.4115">
        <ele>334.68105</ele>
        <time>2024-06-27T18:43:06.320Z</time>
      </trkpt>
      <trkpt lat="46.18738" lon="2.41061">
        <ele>334.793709</ele>
        <time>2024-06-27T18:43:16.134Z</time>
      </trkpt>
      <trkpt lat="46.18734" lon="2.41032">
        <ele>334.824645</ele>
        <time>2024-06-27T18:43:19.199Z</time>
      </trkpt>
      <trkpt lat="46.18739" lon="2.40969">
        <ele>334.891866</ele>
        <time>2024-06-27T18:43:26.009Z</time>
      </trkpt>
      <trkpt lat="46.18757" lon="2.40871">
        <ele>334.998505</ele>
        <time>2024-06-27T18:43:36.949Z</time>
      </trkpt>
      <trkpt lat="46.1876" lon="2.40676">
        <ele>335.524998</ele>
        <time>2024-06-27T18:43:57.971Z</time>
      </trkpt>
      <trkpt lat="46.1876" lon="2.4067">
        <ele>335.545697</ele>
        <time>2024-06-27T18:43:58.550Z</time>
      </trkpt>
      <trkpt lat="46.18759" lon="2.40661">
        <ele>335.575128</ele>
        <time>2024-06-27T18:43:59.491Z</time>
      </trkpt>
      <trkpt lat="46.18756" lon="2.40632">
        <ele>335.678743</ele>
        <time>2024-06-27T18:44:02.804Z</time>
      </trkpt>
      <trkpt lat="46.18739" lon="2.40571">
        <ele>335.910141</ele>
        <time>2024-06-27T18:44:10.129Z</time>
      </trkpt>
      <trkpt lat="46.1872" lon="2.4052">
        <ele>336.403911</ele>
        <time>2024-06-27T18:44:16.700Z</time>
      </trkpt>
      <trkpt lat="46.18574" lon="2.40214">
        <ele>340.847816</ele>
        <time>2024-06-27T18:45:02.599Z</time>
      </trkpt>
      <trkpt lat="46.18549" lon="2.40172">
        <ele>341.593253</ele>
        <time>2024-06-27T18:45:09.797Z</time>
      </trkpt>
      <trkpt lat="46.18464" lon="2.40071">
        <ele>343.249916</ele>
        <time>2024-06-27T18:45:29.856Z</time>
      </trkpt>
      <trkpt lat="46.1843" lon="2.40038">
        <ele>343.77177</ele>
        <time>2024-06-27T18:45:36.811Z</time>
      </trkpt>
      <trkpt lat="46.18391" lon="2.40013">
        <ele>344.315081</ele>
        <time>2024-06-27T18:45:43.600Z</time>
      </trkpt>
      <trkpt lat="46.1827" lon="2.39948">
        <ele>345.119774</ele>
        <time>2024-06-27T18:46:04.278Z</time>
      </trkpt>
      <trkpt lat="46.18239" lon="2.39926">
        <ele>345.284531</ele>
        <time>2024-06-27T18:46:09.815Z</time>
      </trkpt>
      <trkpt lat="46.18119" lon="2.39817">
        <ele>346.843132</ele>
        <time>2024-06-27T18:46:32.831Z</time>
      </trkpt>
      <trkpt lat="46.18081" lon="2.3977">
        <ele>347.509111</ele>
        <time>2024-06-27T18:46:41.738Z</time>
      </trkpt>
      <trkpt lat="46.18" lon="2.39588">
        <ele>351.250427</ele>
        <time>2024-06-27T18:47:09.725Z</time>
      </trkpt>
      <trkpt lat="46.17983" lon="2.39543">
        <ele>352.208026</ele>
        <time>2024-06-27T18:47:16.837Z</time>
      </trkpt>
      <trkpt lat="46.17971" lon="2.39502">
        <ele>353.087063</ele>
        <time>2024-06-27T18:47:23.327Z</time>
      </trkpt>
      <trkpt lat="46.17935" lon="2.39361">
        <ele>356.290233</ele>
        <time>2024-06-27T18:47:44.555Z</time>
      </trkpt>
      <trkpt lat="46.17922" lon="2.39337">
        <ele>356.93818</ele>
        <time>2024-06-27T18:47:48.633Z</time>
      </trkpt>
      <trkpt lat="46.17914" lon="2.39329">
        <ele>357.250946</ele>
        <time>2024-06-27T18:47:50.534Z</time>
      </trkpt>
      <trkpt lat="46.17903" lon="2.39322">
        <ele>357.608985</ele>
        <time>2024-06-27T18:47:52.660Z</time>
      </trkpt>
      <trkpt lat="46.17886" lon="2.39318">
        <ele>358.146302</ele>
        <time>2024-06-27T18:47:55.919Z</time>
      </trkpt>
      <trkpt lat="46.17809" lon="2.3931">
        <ele>359.448124</ele>
        <time>2024-06-27T18:48:09.555Z</time>
      </trkpt>
      <trkpt lat="46.17787" lon="2.39301">
        <ele>359.819935</ele>
        <time>2024-06-27T18:48:13.589Z</time>
      </trkpt>
      <trkpt lat="46.17754" lon="2.3928">
        <ele>360.374108</ele>
        <time>2024-06-27T18:48:19.417Z</time>
      </trkpt>
      <trkpt lat="46.17741" lon="2.39261">
        <ele>360.662675</ele>
        <time>2024-06-27T18:48:22.377Z</time>
      </trkpt>
      <trkpt lat="46.17622" lon="2.38968">
        <ele>364.896752</ele>
        <time>2024-06-27T18:49:04.590Z</time>
      </trkpt>
      <trkpt lat="46.17607" lon="2.38944">
        <ele>365.458015</ele>
        <time>2024-06-27T18:49:08.562Z</time>
      </trkpt>
      <trkpt lat="46.17576" lon="2.38909">
        <ele>366.424157</ele>
        <time>2024-06-27T18:49:15.410Z</time>
      </trkpt>
      <trkpt lat="46.17563" lon="2.38897">
        <ele>366.795549</ele>
        <time>2024-06-27T18:49:18.203Z</time>
      </trkpt>
      <trkpt lat="46.17522" lon="2.38872">
        <ele>367.896205</ele>
        <time>2024-06-27T18:49:26.841Z</time>
      </trkpt>
      <trkpt lat="46.17508" lon="2.38857">
        <ele>368.339736</ele>
        <time>2024-06-27T18:49:30.514Z</time>
      </trkpt>
      <trkpt lat="46.17496" lon="2.3884">
        <ele>368.732964</ele>
        <time>2024-06-27T18:49:33.838Z</time>
      </trkpt>
      <trkpt lat="46.17487" lon="2.38822">
        <ele>369.338477</ele>
        <time>2024-06-27T18:49:37.143Z</time>
      </trkpt>
      <trkpt lat="46.17476" lon="2.38779">
        <ele>370.593655</ele>
        <time>2024-06-27T18:49:43.651Z</time>
      </trkpt>
      <trkpt lat="46.17475" lon="2.38733">
        <ele>371.854917</ele>
        <time>2024-06-27T18:49:50.144Z</time>
      </trkpt>
      <trkpt lat="46.17478" lon="2.38714">
        <ele>372.401398</ele>
        <time>2024-06-27T18:49:52.947Z</time>
      </trkpt>
      <trkpt lat="46.17494" lon="2.38669">
        <ele>373.780251</ele>
        <time>2024-06-27T18:50:00.021Z</time>
      </trkpt>
      <trkpt lat="46.17495" lon="2.38652">
        <ele>374.233051</ele>
        <time>2024-06-27T18:50:02.439Z</time>
      </trkpt>
      <trkpt lat="46.17494" lon="2.38636">
        <ele>374.689069</ele>
        <time>2024-06-27T18:50:04.802Z</time>
      </trkpt>
      <trkpt lat="46.17483" lon="2.38611">
        <ele>375.498612</ele>
        <time>2024-06-27T18:50:09.330Z</time>
      </trkpt>
      <trkpt lat="46.17438" lon="2.38572">
        <ele>377.806968</ele>
        <time>2024-06-27T18:50:21.150Z</time>
      </trkpt>
      <trkpt lat="46.17424" lon="2.38548">
        <ele>378.811262</ele>
        <time>2024-06-27T18:50:26.336Z</time>
      </trkpt>
      <trkpt lat="46.17417" lon="2.38528">
        <ele>379.513019</ele>
        <time>2024-06-27T18:50:29.849Z</time>
      </trkpt>
      <trkpt lat="46.17407" lon="2.38472">
        <ele>381.321778</ele>
        <time>2024-06-27T18:50:38.650Z</time>
      </trkpt>
      <trkpt lat="46.17405" lon="2.38452">
        <ele>381.95645</ele>
        <time>2024-06-27T18:50:41.722Z</time>
      </trkpt>
      <trkpt lat="46.17407" lon="2.38436">
        <ele>382.474561</ele>
        <time>2024-06-27T18:50:44.155Z</time>
      </trkpt>
      <trkpt lat="46.17414" lon="2.38404">
        <ele>383.531509</ele>
        <time>2024-06-27T18:50:48.919Z</time>
      </trkpt>
      <trkpt lat="46.17452" lon="2.3835">
        <ele>385.173535</ele>
        <time>2024-06-27T18:50:59.643Z</time>
      </trkpt>
      <trkpt lat="46.17457" lon="2.38337">
        <ele>385.456053</ele>
        <time>2024-06-27T18:51:01.743Z</time>
      </trkpt>
      <trkpt lat="46.17459" lon="2.3832">
        <ele>385.772399</ele>
        <time>2024-06-27T18:51:04.061Z</time>
      </trkpt>
      <trkpt lat="46.17457" lon="2.38304">
        <ele>386.066947</ele>
        <time>2024-06-27T18:51:06.262Z</time>
      </trkpt>
      <trkpt lat="46.17454" lon="2.38291">
        <ele>386.332415</ele>
        <time>2024-06-27T18:51:08.201Z</time>
      </trkpt>
      <trkpt lat="46.17439" lon="2.38266">
        <ele>386.957805</ele>
        <time>2024-06-27T18:51:12.726Z</time>
      </trkpt>
      <trkpt lat="46.17428" lon="2.3826">
        <ele>387.271586</ele>
        <time>2024-06-27T18:51:14.977Z</time>
      </trkpt>
      <trkpt lat="46.17415" lon="2.38259">
        <ele>387.612378</ele>
        <time>2024-06-27T18:51:17.287Z</time>
      </trkpt>
      <trkpt lat="46.17389" lon="2.38262">
        <ele>388.302022</ele>
        <time>2024-06-27T18:51:22.001Z</time>
      </trkpt>
      <trkpt lat="46.17377" lon="2.38264">
        <ele>388.651368</ele>
        <time>2024-06-27T18:51:24.222Z</time>
      </trkpt>
      <trkpt lat="46.1736" lon="2.3826">
        <ele>389.012233</ele>
        <time>2024-06-27T18:51:27.090Z</time>
      </trkpt>
      <trkpt lat="46.17347" lon="2.38254">
        <ele>389.210099</ele>
        <time>2024-06-27T18:51:29.216Z</time>
      </trkpt>
      <trkpt lat="46.17332" lon="2.3824">
        <ele>389.476257</ele>
        <time>2024-06-27T18:51:32.070Z</time>
      </trkpt>
      <trkpt lat="46.17265" lon="2.38159">
        <ele>390.792258</ele>
        <time>2024-06-27T18:51:46.190Z</time>
      </trkpt>
      <trkpt lat="46.17244" lon="2.38122">
        <ele>391.291463</ele>
        <time>2024-06-27T18:51:52.184Z</time>
      </trkpt>
      <trkpt lat="46.17234" lon="2.38098">
        <ele>391.582154</ele>
        <time>2024-06-27T18:51:55.922Z</time>
      </trkpt>
      <trkpt lat="46.17228" lon="2.38071">
        <ele>392.249852</ele>
        <time>2024-06-27T18:51:59.791Z</time>
      </trkpt>
      <trkpt lat="46.17224" lon="2.38044">
        <ele>392.900524</ele>
        <time>2024-06-27T18:52:03.559Z</time>
      </trkpt>
      <trkpt lat="46.17225" lon="2.38011">
        <ele>393.690371</ele>
        <time>2024-06-27T18:52:08.173Z</time>
      </trkpt>
      <trkpt lat="46.17237" lon="2.37905">
        <ele>396.250791</ele>
        <time>2024-06-27T18:52:23.700Z</time>
      </trkpt>
      <trkpt lat="46.17237" lon="2.37875">
        <ele>396.976154</ele>
        <time>2024-06-27T18:52:28.070Z</time>
      </trkpt>
      <trkpt lat="46.17224" lon="2.37799">
        <ele>398.603933</ele>
        <time>2024-06-27T18:52:39.043Z</time>
      </trkpt>
      <trkpt lat="46.17221" lon="2.37768">
        <ele>399.167826</ele>
        <time>2024-06-27T18:52:43.227Z</time>
      </trkpt>
      <trkpt lat="46.17229" lon="2.37718">
        <ele>400.119352</ele>
        <time>2024-06-27T18:52:50.112Z</time>
      </trkpt>
      <trkpt lat="46.17236" lon="2.37697">
        <ele>400.566653</ele>
        <time>2024-06-27T18:52:53.287Z</time>
      </trkpt>
      <trkpt lat="46.17254" lon="2.37663">
        <ele>401.344199</ele>
        <time>2024-06-27T18:52:58.693Z</time>
      </trkpt>
      <trkpt lat="46.17444" lon="2.37367">
        <ele>407.08525</ele>
        <time>2024-06-27T18:53:49.275Z</time>
      </trkpt>
      <trkpt lat="46.1748" lon="2.37306">
        <ele>408.140325</ele>
        <time>2024-06-27T18:53:59.248Z</time>
      </trkpt>
      <trkpt lat="46.17494" lon="2.37276">
        <ele>408.617605</ele>
        <time>2024-06-27T18:54:03.734Z</time>
      </trkpt>
      <trkpt lat="46.17497" lon="2.3727">
        <ele>408.719505</ele>
        <time>2024-06-27T18:54:04.708Z</time>
      </trkpt>
      <trkpt lat="46.17593" lon="2.37063">
        <ele>412.065967</ele>
        <time>2024-06-27T18:54:35.760Z</time>
      </trkpt>
      <trkpt lat="46.17604" lon="2.37033">
        <ele>412.524318</ele>
        <time>2024-06-27T18:54:40.050Z</time>
      </trkpt>
      <trkpt lat="46.17617" lon="2.36982">
        <ele>413.281289</ele>
        <time>2024-06-27T18:54:46.961Z</time>
      </trkpt>
      <trkpt lat="46.17622" lon="2.36925">
        <ele>414.111129</ele>
        <time>2024-06-27T18:54:54.177Z</time>
      </trkpt>
      <trkpt lat="46.17622" lon="2.36901">
        <ele>414.462595</ele>
        <time>2024-06-27T18:54:57.306Z</time>
      </trkpt>
      <trkpt lat="46.17614" lon="2.36839">
        <ele>415.387257</ele>
        <time>2024-06-27T18:55:05.341Z</time>
      </trkpt>
      <trkpt lat="46.17577" lon="2.36659">
        <ele>418.247079</ele>
        <time>2024-06-27T18:55:29.122Z</time>
      </trkpt>
      <trkpt lat="46.17576" lon="2.36653">
        <ele>418.342271</ele>
        <time>2024-06-27T18:55:29.891Z</time>
      </trkpt>
      <trkpt lat="46.17536" lon="2.3645">
        <ele>421.832065</ele>
        <time>2024-06-27T18:55:57.394Z</time>
      </trkpt>
      <trkpt lat="46.17485" lon="2.36197">
        <ele>426.15018</ele>
        <time>2024-06-27T18:56:32.646Z</time>
      </trkpt>
      <trkpt lat="46.17308" lon="2.3532">
        <ele>433.77358</ele>
        <time>2024-06-27T18:58:17.622Z</time>
      </trkpt>
      <trkpt lat="46.17298" lon="2.3529">
        <ele>434.081081</ele>
        <time>2024-06-27T18:58:21.800Z</time>
      </trkpt>
      <trkpt lat="46.17287" lon="2.35263">
        <ele>434.365064</ele>
        <time>2024-06-27T18:58:25.710Z</time>
      </trkpt>
      <trkpt lat="46.1726" lon="2.35216">
        <ele>435.232687</ele>
        <time>2024-06-27T18:58:33.410Z</time>
      </trkpt>
      <trkpt lat="46.17243" lon="2.35195">
        <ele>435.720531</ele>
        <time>2024-06-27T18:58:37.550Z</time>
      </trkpt>
      <trkpt lat="46.17182" lon="2.35137">
        <ele>437.337993</ele>
        <time>2024-06-27T18:58:51.312Z</time>
      </trkpt>
      <trkpt lat="46.17125" lon="2.35069">
        <ele>438.863876</ele>
        <time>2024-06-27T18:59:04.927Z</time>
      </trkpt>
      <trkpt lat="46.17069" lon="2.34983">
        <ele>440.360895</ele>
        <time>2024-06-27T18:59:19.624Z</time>
      </trkpt>
      <trkpt lat="46.17013" lon="2.34886">
        <ele>441.746597</ele>
        <time>2024-06-27T18:59:35.306Z</time>
      </trkpt>
      <trkpt lat="46.17042" lon="2.34858">
        <ele>441.855614</ele>
        <time>2024-06-27T18:59:42.749Z</time>
      </trkpt>
      <trkpt lat="46.17123" lon="2.34793">
        <ele>442.142052</ele>
        <time>2024-06-27T19:00:01.488Z</time>
      </trkpt>
      <trkpt lat="46.1742" lon="2.34576">
        <ele>436.988779</ele>
        <time>2024-06-27T19:00:55.065Z</time>
      </trkpt>
      <trkpt lat="46.1754" lon="2.34492">
        <ele>433.87933</ele>
        <time>2024-06-27T19:01:15.354Z</time>
      </trkpt>
      <trkpt lat="46.17656" lon="2.34414">
        <ele>430.504224</ele>
        <time>2024-06-27T19:01:34.551Z</time>
      </trkpt>
      <trkpt lat="46.17656" lon="2.34413">
        <ele>430.495773</ele>
        <time>2024-06-27T19:01:34.603Z</time>
      </trkpt>
      <trkpt lat="46.17733" lon="2.3438">
        <ele>428.276168</ele>
        <time>2024-06-27T19:01:46.662Z</time>
      </trkpt>
      <trkpt lat="46.17896" lon="2.3428">
        <ele>423.725263</ele>
        <time>2024-06-27T19:02:13.100Z</time>
      </trkpt>
      <trkpt lat="46.17946" lon="2.34236">
        <ele>422.311118</ele>
        <time>2024-06-27T19:02:21.985Z</time>
      </trkpt>
      <trkpt lat="46.17975" lon="2.34215">
        <ele>421.607768</ele>
        <time>2024-06-27T19:02:27.201Z</time>
      </trkpt>
      <trkpt lat="46.18025" lon="2.34193">
        <ele>421.202849</ele>
        <time>2024-06-27T19:02:35.836Z</time>
      </trkpt>
      <trkpt lat="46.18041" lon="2.34185">
        <ele>421.066514</ele>
        <time>2024-06-27T19:02:38.926Z</time>
      </trkpt>
      <trkpt lat="46.18075" lon="2.34179">
        <ele>420.801963</ele>
        <time>2024-06-27T19:02:45.039Z</time>
      </trkpt>
      <trkpt lat="46.18095" lon="2.34186">
        <ele>420.641741</ele>
        <time>2024-06-27T19:02:48.921Z</time>
      </trkpt>
      <trkpt lat="46.18112" lon="2.34195">
        <ele>420.499196</ele>
        <time>2024-06-27T19:02:52.524Z</time>
      </trkpt>
      <trkpt lat="46.18139" lon="2.34216">
        <ele>420.262075</ele>
        <time>2024-06-27T19:02:58.384Z</time>
      </trkpt>
      <trkpt lat="46.18151" lon="2.34223">
        <ele>420.132388</ele>
        <time>2024-06-27T19:03:00.978Z</time>
      </trkpt>
      <trkpt lat="46.18188" lon="2.34232">
        <ele>419.765196</ele>
        <time>2024-06-27T19:03:08.000Z</time>
      </trkpt>
      <trkpt lat="46.18211" lon="2.34232">
        <ele>419.541472</ele>
        <time>2024-06-27T19:03:12.075Z</time>
      </trkpt>
      <trkpt lat="46.18241" lon="2.3422">
        <ele>419.240938</ele>
        <time>2024-06-27T19:03:17.520Z</time>
      </trkpt>
      <trkpt lat="46.18258" lon="2.34209">
        <ele>419.051328</ele>
        <time>2024-06-27T19:03:20.832Z</time>
      </trkpt>
      <trkpt lat="46.18256" lon="2.34199">
        <ele>418.981636</ele>
        <time>2024-06-27T19:03:21.742Z</time>
      </trkpt>
      <trkpt lat="46.18257" lon="2.34191">
        <ele>418.925905</ele>
        <time>2024-06-27T19:03:22.441Z</time>
      </trkpt>
      <trkpt lat="46.18261" lon="2.34185">
        <ele>418.868333</ele>
        <time>2024-06-27T19:03:23.118Z</time>
      </trkpt>
      <trkpt lat="46.18257" lon="2.34176">
        <ele>418.791795</ele>
        <time>2024-06-27T19:03:23.976Z</time>
      </trkpt>
      <trkpt lat="46.18251" lon="2.34147">
        <ele>418.591716</ele>
        <time>2024-06-27T19:03:26.330Z</time>
      </trkpt>
      <trkpt lat="46.18248" lon="2.34109">
        <ele>418.023453</ele>
        <time>2024-06-27T19:03:29.195Z</time>
      </trkpt>
      <trkpt lat="46.18243" lon="2.3408">
        <ele>417.400867</ele>
        <time>2024-06-27T19:03:31.422Z</time>
      </trkpt>
      <trkpt lat="46.18244" lon="2.34061">
        <ele>417.017165</ele>
        <time>2024-06-27T19:03:32.741Z</time>
      </trkpt>
      <trkpt lat="46.18195" lon="2.34022">
        <ele>415.335033</ele>
        <time>2024-06-27T19:03:38.343Z</time>
      </trkpt>
      <trkpt lat="46.18187" lon="2.34014">
        <ele>415.040857</ele>
        <time>2024-06-27T19:03:39.295Z</time>
      </trkpt>
      <trkpt lat="46.18177" lon="2.33994">
        <ele>414.530734</ele>
        <time>2024-06-27T19:03:40.981Z</time>
      </trkpt>
      <trkpt lat="46.18159" lon="2.33909">
        <ele>412.891064</ele>
        <time>2024-06-27T19:03:47.125Z</time>
      </trkpt>
      <trkpt lat="46.18154" lon="2.33891">
        <ele>412.673264</ele>
        <time>2024-06-27T19:03:48.604Z</time>
      </trkpt>
      <trkpt lat="46.18139" lon="2.3386">
        <ele>412.264371</ele>
        <time>2024-06-27T19:03:51.344Z</time>
      </trkpt>
      <trkpt lat="46.18025" lon="2.33759">
        <ele>410.18786</ele>
        <time>2024-06-27T19:04:07.432Z</time>
      </trkpt>
      <trkpt lat="46.18002" lon="2.33738">
        <ele>409.975603</ele>
        <time>2024-06-27T19:04:11.332Z</time>
      </trkpt>
      <trkpt lat="46.17948" lon="2.33689">
        <ele>409.487255</ele>
        <time>2024-06-27T19:04:20.286Z</time>
      </trkpt>
      <trkpt lat="46.1793" lon="2.33668">
        <ele>409.312449</ele>
        <time>2024-06-27T19:04:23.256Z</time>
      </trkpt>
      <trkpt lat="46.17833" lon="2.33497">
        <ele>407.213359</ele>
        <time>2024-06-27T19:04:41.476Z</time>
      </trkpt>
      <trkpt lat="46.17808" lon="2.33476">
        <ele>406.719516</ele>
        <time>2024-06-27T19:04:44.570Z</time>
      </trkpt>
      <trkpt lat="46.17754" lon="2.33444">
        <ele>405.672047</ele>
        <time>2024-06-27T19:04:50.915Z</time>
      </trkpt>
      <trkpt lat="46.1768" lon="2.33333">
        <ele>402.636116</ele>
        <time>2024-06-27T19:05:01.996Z</time>
      </trkpt>
      <trkpt lat="46.17629" lon="2.33296">
        <ele>401.016398</ele>
        <time>2024-06-27T19:05:07.778Z</time>
      </trkpt>
      <trkpt lat="46.17613" lon="2.33275">
        <ele>400.367431</ele>
        <time>2024-06-27T19:05:09.981Z</time>
      </trkpt>
      <trkpt lat="46.17601" lon="2.33245">
        <ele>399.602268</ele>
        <time>2024-06-27T19:05:12.348Z</time>
      </trkpt>
      <trkpt lat="46.17508" lon="2.32859">
        <ele>390.675082</ele>
        <time>2024-06-27T19:05:41.033Z</time>
      </trkpt>
      <trkpt lat="46.17499" lon="2.32831">
        <ele>390.030507</ele>
        <time>2024-06-27T19:05:43.241Z</time>
      </trkpt>
      <trkpt lat="46.17431" lon="2.32725">
        <ele>388.102526</ele>
        <time>2024-06-27T19:05:53.833Z</time>
      </trkpt>
      <trkpt lat="46.17377" lon="2.32634">
        <ele>386.779575</ele>
        <time>2024-06-27T19:06:03.578Z</time>
      </trkpt>
      <trkpt lat="46.17313" lon="2.3256">
        <ele>386.787211</ele>
        <time>2024-06-27T19:06:15.158Z</time>
      </trkpt>
      <trkpt lat="46.1729" lon="2.3252">
        <ele>386.985746</ele>
        <time>2024-06-27T19:06:20.921Z</time>
      </trkpt>
      <trkpt lat="46.17177" lon="2.32257">
        <ele>388.479733</ele>
        <time>2024-06-27T19:06:57.443Z</time>
      </trkpt>
      <trkpt lat="46.17081" lon="2.32043">
        <ele>388.089003</ele>
        <time>2024-06-27T19:07:21.695Z</time>
      </trkpt>
      <trkpt lat="46.16959" lon="2.31753">
        <ele>385.516324</ele>
        <time>2024-06-27T19:07:49.312Z</time>
      </trkpt>
      <trkpt lat="46.16936" lon="2.31706">
        <ele>385.243665</ele>
        <time>2024-06-27T19:07:54.099Z</time>
      </trkpt>
      <trkpt lat="46.16837" lon="2.31476">
        <ele>384.465931</ele>
        <time>2024-06-27T19:08:18.850Z</time>
      </trkpt>
      <trkpt lat="46.16819" lon="2.31444">
        <ele>384.552942</ele>
        <time>2024-06-27T19:08:23.422Z</time>
      </trkpt>
      <trkpt lat="46.16788" lon="2.31415">
        <ele>384.665513</ele>
        <time>2024-06-27T19:08:29.336Z</time>
      </trkpt>
      <trkpt lat="46.1677" lon="2.31404">
        <ele>384.725081</ele>
        <time>2024-06-27T19:08:32.465Z</time>
      </trkpt>
      <trkpt lat="46.16589" lon="2.31308">
        <ele>386.190405</ele>
        <time>2024-06-27T19:09:04.242Z</time>
      </trkpt>
      <trkpt lat="46.16583" lon="2.31305">
        <ele>386.244222</ele>
        <time>2024-06-27T19:09:05.232Z</time>
      </trkpt>
      <trkpt lat="46.16257" lon="2.31073">
        <ele>388.734084</ele>
        <time>2024-06-27T19:10:03.493Z</time>
      </trkpt>
      <trkpt lat="46.15709" lon="2.30681">
        <ele>390.166997</ele>
        <time>2024-06-27T19:11:38.165Z</time>
      </trkpt>
      <trkpt lat="46.15618" lon="2.30614">
        <ele>390.815624</ele>
        <time>2024-06-27T19:11:54.699Z</time>
      </trkpt>
      <trkpt lat="46.15611" lon="2.30608">
        <ele>390.86403</ele>
        <time>2024-06-27T19:11:55.920Z</time>
      </trkpt>
      <trkpt lat="46.155" lon="2.30531">
        <ele>391.935035</ele>
        <time>2024-06-27T19:12:16.648Z</time>
      </trkpt>
      <trkpt lat="46.15427" lon="2.30467">
        <ele>392.678002</ele>
        <time>2024-06-27T19:12:30.274Z</time>
      </trkpt>
      <trkpt lat="46.1541" lon="2.3045">
        <ele>392.81082</ele>
        <time>2024-06-27T19:12:33.570Z</time>
      </trkpt>
      <trkpt lat="46.15391" lon="2.3043">
        <ele>392.962208</ele>
        <time>2024-06-27T19:12:37.317Z</time>
      </trkpt>
      <trkpt lat="46.15309" lon="2.30339">
        <ele>393.630422</ele>
        <time>2024-06-27T19:12:53.912Z</time>
      </trkpt>
      <trkpt lat="46.15188" lon="2.30234">
        <ele>394.765152</ele>
        <time>2024-06-27T19:13:16.526Z</time>
      </trkpt>
      <trkpt lat="46.15104" lon="2.30147">
        <ele>395.987087</ele>
        <time>2024-06-27T19:13:33.861Z</time>
      </trkpt>
      <trkpt lat="46.15081" lon="2.30115">
        <ele>396.522367</ele>
        <time>2024-06-27T19:13:39.274Z</time>
      </trkpt>
      <trkpt lat="46.14987" lon="2.29954">
        <ele>399.507175</ele>
        <time>2024-06-27T19:14:05.770Z</time>
      </trkpt>
      <trkpt lat="46.14819" lon="2.29622">
        <ele>408.57349</ele>
        <time>2024-06-27T19:15:02.960Z</time>
      </trkpt>
      <trkpt lat="46.148" lon="2.29563">
        <ele>410.087632</ele>
        <time>2024-06-27T19:15:12.041Z</time>
      </trkpt>
      <trkpt lat="46.14787" lon="2.29514">
        <ele>411.263189</ele>
        <time>2024-06-27T19:15:19.253Z</time>
      </trkpt>
      <trkpt lat="46.1476" lon="2.29439">
        <ele>413.17334</ele>
        <time>2024-06-27T19:15:30.962Z</time>
      </trkpt>
      <trkpt lat="46.14737" lon="2.29385">
        <ele>414.594503</ele>
        <time>2024-06-27T19:15:39.621Z</time>
      </trkpt>
      <trkpt lat="46.14687" lon="2.29289">
        <ele>417.066367</ele>
        <time>2024-06-27T19:15:56.019Z</time>
      </trkpt>
      <trkpt lat="46.14672" lon="2.2925">
        <ele>417.953677</ele>
        <time>2024-06-27T19:16:02.191Z</time>
      </trkpt>
      <trkpt lat="46.14634" lon="2.29108">
        <ele>420.824495</ele>
        <time>2024-06-27T19:16:22.415Z</time>
      </trkpt>
      <trkpt lat="46.14583" lon="2.28985">
        <ele>422.48735</ele>
        <time>2024-06-27T19:16:40.245Z</time>
      </trkpt>
      <trkpt lat="46.14543" lon="2.28914">
        <ele>423.536662</ele>
        <time>2024-06-27T19:16:50.904Z</time>
      </trkpt>
      <trkpt lat="46.14523" lon="2.2887">
        <ele>423.900173</ele>
        <time>2024-06-27T19:16:56.877Z</time>
      </trkpt>
      <trkpt lat="46.14505" lon="2.2882">
        <ele>424.220762</ele>
        <time>2024-06-27T19:17:03.159Z</time>
      </trkpt>
      <trkpt lat="46.14479" lon="2.28725">
        <ele>424.799617</ele>
        <time>2024-06-27T19:17:14.483Z</time>
      </trkpt>
      <trkpt lat="46.14458" lon="2.28579">
        <ele>426.262147</ele>
        <time>2024-06-27T19:17:31.573Z</time>
      </trkpt>
      <trkpt lat="46.14448" lon="2.28552">
        <ele>426.633456</ele>
        <time>2024-06-27T19:17:35.156Z</time>
      </trkpt>
      <trkpt lat="46.1442" lon="2.28502">
        <ele>427.448466</ele>
        <time>2024-06-27T19:17:43.289Z</time>
      </trkpt>
      <trkpt lat="46.14412" lon="2.28475">
        <ele>427.822862</ele>
        <time>2024-06-27T19:17:47.149Z</time>
      </trkpt>
      <trkpt lat="46.14368" lon="2.28356">
        <ele>430.584136</ele>
        <time>2024-06-27T19:18:05.372Z</time>
      </trkpt>
      <trkpt lat="46.14264" lon="2.28197">
        <ele>435.879758</ele>
        <time>2024-06-27T19:18:37.048Z</time>
      </trkpt>
      <trkpt lat="46.14205" lon="2.2813">
        <ele>438.395391</ele>
        <time>2024-06-27T19:18:52.356Z</time>
      </trkpt>
      <trkpt lat="46.14154" lon="2.28029">
        <ele>441.062892</ele>
        <time>2024-06-27T19:19:09.255Z</time>
      </trkpt>
      <trkpt lat="46.14079" lon="2.2787">
        <ele>443.392949</ele>
        <time>2024-06-27T19:19:33.130Z</time>
      </trkpt>
      <trkpt lat="46.14036" lon="2.27772">
        <ele>443.910621</ele>
        <time>2024-06-27T19:19:46.052Z</time>
      </trkpt>
      <trkpt lat="46.14003" lon="2.27717">
        <ele>443.87227</ele>
        <time>2024-06-27T19:19:53.551Z</time>
      </trkpt>
      <trkpt lat="46.13961" lon="2.27672">
        <ele>443.832899</ele>
        <time>2024-06-27T19:20:00.531Z</time>
      </trkpt>
      <trkpt lat="46.13893" lon="2.27616">
        <ele>442.972848</ele>
        <time>2024-06-27T19:20:10.086Z</time>
      </trkpt>
      <trkpt lat="46.13846" lon="2.27575">
        <ele>442.062813</ele>
        <time>2024-06-27T19:20:16.286Z</time>
      </trkpt>
      <trkpt lat="46.13836" lon="2.27566">
        <ele>441.882936</ele>
        <time>2024-06-27T19:20:17.489Z</time>
      </trkpt>
      <trkpt lat="46.13801" lon="2.27515">
        <ele>441.048222</ele>
        <time>2024-06-27T19:20:22.977Z</time>
      </trkpt>
      <trkpt lat="46.13765" lon="2.27438">
        <ele>439.616745</ele>
        <time>2024-06-27T19:20:29.873Z</time>
      </trkpt>
      <trkpt lat="46.13641" lon="2.27137">
        <ele>434.364569</ele>
        <time>2024-06-27T19:20:55.683Z</time>
      </trkpt>
      <trkpt lat="46.13628" lon="2.27161">
        <ele>433.964717</ele>
        <time>2024-06-27T19:20:58.010Z</time>
      </trkpt>
      <trkpt lat="46.13433" lon="2.27451">
        <ele>431.350372</ele>
        <time>2024-06-27T19:21:32.331Z</time>
      </trkpt>
      <trkpt lat="46.13416" lon="2.27477">
        <ele>431.373097</ele>
        <time>2024-06-27T19:21:36.267Z</time>
      </trkpt>
      <trkpt lat="46.13387" lon="2.27502">
        <ele>431.404954</ele>
        <time>2024-06-27T19:21:41.780Z</time>
      </trkpt>
      <trkpt lat="46.13255" lon="2.27573">
        <ele>431.770481</ele>
        <time>2024-06-27T19:22:04.329Z</time>
      </trkpt>
      <trkpt lat="46.13221" lon="2.27589">
        <ele>431.913751</ele>
        <time>2024-06-27T19:22:09.972Z</time>
      </trkpt>
      <trkpt lat="46.13193" lon="2.27591">
        <ele>432.030666</ele>
        <time>2024-06-27T19:22:14.362Z</time>
      </trkpt>
      <trkpt lat="46.13178" lon="2.27585">
        <ele>432.092577</ele>
        <time>2024-06-27T19:22:16.591Z</time>
      </trkpt>
      <trkpt lat="46.13148" lon="2.2756">
        <ele>432.274175</ele>
        <time>2024-06-27T19:22:21.534Z</time>
      </trkpt>
      <trkpt lat="46.13045" lon="2.27409">
        <ele>433.534232</ele>
        <time>2024-06-27T19:22:45.055Z</time>
      </trkpt>
      <trkpt lat="46.13001" lon="2.27369">
        <ele>434.512287</ele>
        <time>2024-06-27T19:22:54.707Z</time>
      </trkpt>
      <trkpt lat="46.12652" lon="2.27159">
        <ele>443.987053</ele>
        <time>2024-06-27T19:24:08.840Z</time>
      </trkpt>
      <trkpt lat="46.12642" lon="2.27153">
        <ele>443.994629</ele>
        <time>2024-06-27T19:24:10.558Z</time>
      </trkpt>
      <trkpt lat="46.12588" lon="2.27128">
        <ele>444.034663</ele>
        <time>2024-06-27T19:24:18.705Z</time>
      </trkpt>
      <trkpt lat="46.12559" lon="2.27119">
        <ele>444.055771</ele>
        <time>2024-06-27T19:24:22.315Z</time>
      </trkpt>
      <trkpt lat="46.12412" lon="2.27081">
        <ele>440.942204</ele>
        <time>2024-06-27T19:24:37.976Z</time>
      </trkpt>
      <trkpt lat="46.123" lon="2.27055">
        <ele>437.78007</ele>
        <time>2024-06-27T19:24:49.467Z</time>
      </trkpt>
      <trkpt lat="46.12279" lon="2.27048">
        <ele>437.198489</ele>
        <time>2024-06-27T19:24:51.603Z</time>
      </trkpt>
      <trkpt lat="46.1226" lon="2.27037">
        <ele>436.613868</ele>
        <time>2024-06-27T19:24:53.767Z</time>
      </trkpt>
      <trkpt lat="46.12253" lon="2.2703">
        <ele>436.36275</ele>
        <time>2024-06-27T19:24:54.697Z</time>
      </trkpt>
      <trkpt lat="46.12235" lon="2.27008">
        <ele>435.707808</ele>
        <time>2024-06-27T19:24:57.130Z</time>
      </trkpt>
      <trkpt lat="46.1221" lon="2.26966">
        <ele>434.632161</ele>
        <time>2024-06-27T19:25:01.190Z</time>
      </trkpt>
      <trkpt lat="46.12195" lon="2.26948">
        <ele>434.100086</ele>
        <time>2024-06-27T19:25:03.198Z</time>
      </trkpt>
      <trkpt lat="46.12181" lon="2.26936">
        <ele>433.76741</ele>
        <time>2024-06-27T19:25:04.934Z</time>
      </trkpt>
      <trkpt lat="46.12166" lon="2.26929">
        <ele>433.457895</ele>
        <time>2024-06-27T19:25:06.615Z</time>
      </trkpt>
      <trkpt lat="46.12142" lon="2.26924">
        <ele>432.972585</ele>
        <time>2024-06-27T19:25:09.262Z</time>
      </trkpt>
      <trkpt lat="46.12061" lon="2.26918">
        <ele>431.38221</ele>
        <time>2024-06-27T19:25:18.207Z</time>
      </trkpt>
      <trkpt lat="46.11984" lon="2.26938">
        <ele>430.005804</ele>
        <time>2024-06-27T19:25:27.288Z</time>
      </trkpt>
      <trkpt lat="46.11973" lon="2.26941">
        <ele>429.849371</ele>
        <time>2024-06-27T19:25:28.510Z</time>
      </trkpt>
      <trkpt lat="46.11969" lon="2.26942">
        <ele>429.777945</ele>
        <time>2024-06-27T19:25:29.073Z</time>
      </trkpt>
      <trkpt lat="46.11931" lon="2.26941">
        <ele>429.21814</ele>
        <time>2024-06-27T19:25:33.467Z</time>
      </trkpt>
      <trkpt lat="46.11906" lon="2.26937">
        <ele>428.837802</ele>
        <time>2024-06-27T19:25:36.319Z</time>
      </trkpt>
      <trkpt lat="46.11867" lon="2.26925">
        <ele>428.239497</ele>
        <time>2024-06-27T19:25:40.879Z</time>
      </trkpt>
      <trkpt lat="46.11837" lon="2.26919">
        <ele>427.786282</ele>
        <time>2024-06-27T19:25:44.276Z</time>
      </trkpt>
      <trkpt lat="46.11808" lon="2.2692">
        <ele>427.314388</ele>
        <time>2024-06-27T19:25:47.760Z</time>
      </trkpt>
      <trkpt lat="46.11794" lon="2.26919">
        <ele>427.084505</ele>
        <time>2024-06-27T19:25:49.613Z</time>
      </trkpt>
      <trkpt lat="46.11785" lon="2.26918">
        <ele>426.940965</ele>
        <time>2024-06-27T19:25:50.606Z</time>
      </trkpt>
      <trkpt lat="46.11768" lon="2.2691">
        <ele>426.653113</ele>
        <time>2024-06-27T19:25:52.701Z</time>
      </trkpt>
      <trkpt lat="46.11751" lon="2.26889">
        <ele>426.295825</ele>
        <time>2024-06-27T19:25:55.301Z</time>
      </trkpt>
      <trkpt lat="46.1175" lon="2.26871">
        <ele>426.084016</ele>
        <time>2024-06-27T19:25:56.857Z</time>
      </trkpt>
      <trkpt lat="46.11743" lon="2.26849">
        <ele>425.814684</ele>
        <time>2024-06-27T19:25:58.788Z</time>
      </trkpt>
      <trkpt lat="46.11739" lon="2.26825">
        <ele>425.53232</ele>
        <time>2024-06-27T19:26:00.734Z</time>
      </trkpt>
      <trkpt lat="46.11739" lon="2.26807">
        <ele>425.330409</ele>
        <time>2024-06-27T19:26:02.163Z</time>
      </trkpt>
      <trkpt lat="46.11743" lon="2.26797">
        <ele>425.200608</ele>
        <time>2024-06-27T19:26:03.000Z</time>
      </trkpt>
      <trkpt lat="46.11761" lon="2.26777">
        <ele>424.724001</ele>
        <time>2024-06-27T19:26:05.504Z</time>
      </trkpt>
      <trkpt lat="46.11745" lon="2.26727">
        <ele>423.410134</ele>
        <time>2024-06-27T19:26:09.442Z</time>
      </trkpt>
      <trkpt lat="46.11734" lon="2.26687">
        <ele>422.397061</ele>
        <time>2024-06-27T19:26:12.432Z</time>
      </trkpt>
      <trkpt lat="46.11723" lon="2.26643">
        <ele>421.291816</ele>
        <time>2024-06-27T19:26:15.641Z</time>
      </trkpt>
      <trkpt lat="46.1171" lon="2.26586">
        <ele>419.837919</ele>
        <time>2024-06-27T19:26:19.837Z</time>
      </trkpt>
      <trkpt lat="46.1169" lon="2.2653">
        <ele>418.278258</ele>
        <time>2024-06-27T19:26:24.000Z</time>
      </trkpt>
      <trkpt lat="46.11661" lon="2.26488">
        <ele>416.644073</ele>
        <time>2024-06-27T19:26:27.899Z</time>
      </trkpt>
      <trkpt lat="46.11643" lon="2.26473">
        <ele>415.818868</ele>
        <time>2024-06-27T19:26:29.872Z</time>
      </trkpt>
      <trkpt lat="46.11621" lon="2.26462">
        <ele>414.881159</ele>
        <time>2024-06-27T19:26:32.095Z</time>
      </trkpt>
      <trkpt lat="46.11573" lon="2.2645">
        <ele>412.955856</ele>
        <time>2024-06-27T19:26:36.758Z</time>
      </trkpt>
      <trkpt lat="46.11533" lon="2.26429">
        <ele>411.551999</ele>
        <time>2024-06-27T19:26:41.102Z</time>
      </trkpt>
      <trkpt lat="46.11487" lon="2.26391">
        <ele>411.448257</ele>
        <time>2024-06-27T19:26:47.327Z</time>
      </trkpt>
      <trkpt lat="46.11468" lon="2.26372">
        <ele>411.401478</ele>
        <time>2024-06-27T19:26:50.513Z</time>
      </trkpt>
      <trkpt lat="46.11451" lon="2.26361">
        <ele>411.364479</ele>
        <time>2024-06-27T19:26:53.501Z</time>
      </trkpt>
      <trkpt lat="46.11433" lon="2.26355">
        <ele>411.328032</ele>
        <time>2024-06-27T19:26:56.447Z</time>
      </trkpt>
      <trkpt lat="46.11395" lon="2.26352">
        <ele>411.252473</ele>
        <time>2024-06-27T19:27:02.771Z</time>
      </trkpt>
      <trkpt lat="46.11379" lon="2.26342">
        <ele>411.217525</ele>
        <time>2024-06-27T19:27:05.932Z</time>
      </trkpt>
      <trkpt lat="46.11367" lon="2.26328">
        <ele>411.495234</ele>
        <time>2024-06-27T19:27:08.641Z</time>
      </trkpt>
      <trkpt lat="46.1136" lon="2.26324">
        <ele>411.665128</ele>
        <time>2024-06-27T19:27:09.976Z</time>
      </trkpt>
      <trkpt lat="46.11355" lon="2.26321">
        <ele>411.802265</ele>
        <time>2024-06-27T19:27:11.070Z</time>
      </trkpt>
      <trkpt lat="46.11345" lon="2.26323">
        <ele>412.050776</ele>
        <time>2024-06-27T19:27:13.033Z</time>
      </trkpt>
      <trkpt lat="46.1129" lon="2.26365">
        <ele>413.522639</ele>
        <time>2024-06-27T19:27:24.947Z</time>
      </trkpt>
      <trkpt lat="46.11268" lon="2.26375">
        <ele>414.060354</ele>
        <time>2024-06-27T19:27:29.335Z</time>
      </trkpt>
      <trkpt lat="46.11238" lon="2.2637">
        <ele>414.786662</ele>
        <time>2024-06-27T19:27:35.310Z</time>
      </trkpt>
      <trkpt lat="46.112" lon="2.26342">
        <ele>415.722059</ele>
        <time>2024-06-27T19:27:43.166Z</time>
      </trkpt>
      <trkpt lat="46.11182" lon="2.26332">
        <ele>416.093836</ele>
        <time>2024-06-27T19:27:46.653Z</time>
      </trkpt>
      <trkpt lat="46.11022" lon="2.26265">
        <ele>419.193956</ele>
        <time>2024-06-27T19:28:16.701Z</time>
      </trkpt>
      <trkpt lat="46.11005" lon="2.26258">
        <ele>419.401665</ele>
        <time>2024-06-27T19:28:19.792Z</time>
      </trkpt>
      <trkpt lat="46.10862" lon="2.26227">
        <ele>421.088219</ele>
        <time>2024-06-27T19:28:43.740Z</time>
      </trkpt>
      <trkpt lat="46.10795" lon="2.26192">
        <ele>421.514628</ele>
        <time>2024-06-27T19:28:55.157Z</time>
      </trkpt>
      <trkpt lat="46.10709" lon="2.26141">
        <ele>422.070253</ele>
        <time>2024-06-27T19:29:10.026Z</time>
      </trkpt>
      <trkpt lat="46.10569" lon="2.26063">
        <ele>422.817242</ele>
        <time>2024-06-27T19:29:34.085Z</time>
      </trkpt>
      <trkpt lat="46.10539" lon="2.2605">
        <ele>422.968799</ele>
        <time>2024-06-27T19:29:39.059Z</time>
      </trkpt>
      <trkpt lat="46.1018" lon="2.25925">
        <ele>425.265883</ele>
        <time>2024-06-27T19:30:38.255Z</time>
      </trkpt>
      <trkpt lat="46.10048" lon="2.25897">
        <ele>429.449196</ele>
        <time>2024-06-27T19:31:04.907Z</time>
      </trkpt>
      <trkpt lat="46.10019" lon="2.2589">
        <ele>430.363889</ele>
        <time>2024-06-27T19:31:10.995Z</time>
      </trkpt>
      <trkpt lat="46.09998" lon="2.25891">
        <ele>431.022131</ele>
        <time>2024-06-27T19:31:15.405Z</time>
      </trkpt>
      <trkpt lat="46.09955" lon="2.25902">
        <ele>432.366064</ele>
        <time>2024-06-27T19:31:24.536Z</time>
      </trkpt>
      <trkpt lat="46.0994" lon="2.25901">
        <ele>432.824413</ele>
        <time>2024-06-27T19:31:27.591Z</time>
      </trkpt>
      <trkpt lat="46.09927" lon="2.25896">
        <ele>433.251282</ele>
        <time>2024-06-27T19:31:30.393Z</time>
      </trkpt>
      <trkpt lat="46.09823" lon="2.25836">
        <ele>436.596555</ele>
        <time>2024-06-27T19:31:51.876Z</time>
      </trkpt>
      <trkpt lat="46.09799" lon="2.25828">
        <ele>436.941364</ele>
        <time>2024-06-27T19:31:56.366Z</time>
      </trkpt>
      <trkpt lat="46.09705" lon="2.2583">
        <ele>438.268535</ele>
        <time>2024-06-27T19:32:12.968Z</time>
      </trkpt>
      <trkpt lat="46.09687" lon="2.25835">
        <ele>438.535318</ele>
        <time>2024-06-27T19:32:16.123Z</time>
      </trkpt>
      <trkpt lat="46.09672" lon="2.25845">
        <ele>438.771053</ele>
        <time>2024-06-27T19:32:18.877Z</time>
      </trkpt>
      <trkpt lat="46.09527" lon="2.25999">
        <ele>438.455775</ele>
        <time>2024-06-27T19:32:44.190Z</time>
      </trkpt>
      <trkpt lat="46.09511" lon="2.26009">
        <ele>438.390834</ele>
        <time>2024-06-27T19:32:46.181Z</time>
      </trkpt>
      <trkpt lat="46.09496" lon="2.26014">
        <ele>438.225229</ele>
        <time>2024-06-27T19:32:47.914Z</time>
      </trkpt>
      <trkpt lat="46.09478" lon="2.26014">
        <ele>438.003343</ele>
        <time>2024-06-27T19:32:49.916Z</time>
      </trkpt>
      <trkpt lat="46.09453" lon="2.26008">
        <ele>437.684529</ele>
        <time>2024-06-27T19:32:52.769Z</time>
      </trkpt>
      <trkpt lat="46.0939" lon="2.25993">
        <ele>436.884878</ele>
        <time>2024-06-27T19:32:59.997Z</time>
      </trkpt>
      <trkpt lat="46.09338" lon="2.25976">
        <ele>436.219836</ele>
        <time>2024-06-27T19:33:06.201Z</time>
      </trkpt>
      <trkpt lat="46.09321" lon="2.25965">
        <ele>436.195412</ele>
        <time>2024-06-27T19:33:08.337Z</time>
      </trkpt>
      <trkpt lat="46.08999" lon="2.25712">
        <ele>439.515767</ele>
        <time>2024-06-27T19:34:07.966Z</time>
      </trkpt>
      <trkpt lat="46.08989" lon="2.25708">
        <ele>439.875708</ele>
        <time>2024-06-27T19:34:09.907Z</time>
      </trkpt>
      <trkpt lat="46.08977" lon="2.25713">
        <ele>440.339232</ele>
        <time>2024-06-27T19:34:12.418Z</time>
      </trkpt>
      <trkpt lat="46.08921" lon="2.25751">
        <ele>442.523852</ele>
        <time>2024-06-27T19:34:24.830Z</time>
      </trkpt>
      <trkpt lat="46.08906" lon="2.25717">
        <ele>443.492785</ele>
        <time>2024-06-27T19:34:31.536Z</time>
      </trkpt>
      <trkpt lat="46.08878" lon="2.25618">
        <ele>446.406423</ele>
        <time>2024-06-27T19:34:50.988Z</time>
      </trkpt>
      <trkpt lat="46.08809" lon="2.25588">
        <ele>449.688023</ele>
        <time>2024-06-27T19:35:09.212Z</time>
      </trkpt>
      <trkpt lat="46.08785" lon="2.25578">
        <ele>450.814918</ele>
        <time>2024-06-27T19:35:15.626Z</time>
      </trkpt>
      <trkpt lat="46.08787" lon="2.25564">
        <ele>451.278269</ele>
        <time>2024-06-27T19:35:18.133Z</time>
      </trkpt>
      <trkpt lat="46.08795" lon="2.25538">
        <ele>452.168842</ele>
        <time>2024-06-27T19:35:23.053Z</time>
      </trkpt>
      <trkpt lat="46.08788" lon="2.25533">
        <ele>452.499524</ele>
        <time>2024-06-27T19:35:24.849Z</time>
      </trkpt>
      <trkpt lat="46.08787" lon="2.25538">
        <ele>452.672931</ele>
        <time>2024-06-27T19:35:25.623Z</time>
      </trkpt>
      <trkpt lat="46.08777" lon="2.25566">
        <ele>453.468038</ele>
        <time>2024-06-27T19:35:30.150Z</time>
      </trkpt>
      <trkpt lat="46.08774" lon="2.25582">
        <ele>453.527171</ele>
        <time>2024-06-27T19:35:32.404Z</time>
      </trkpt>
      <trkpt lat="46.08772" lon="2.25597">
        <ele>453.584164</ele>
        <time>2024-06-27T19:35:34.432Z</time>
      </trkpt>
      <trkpt lat="46.08764" lon="2.25593">
        <ele>453.631725</ele>
        <time>2024-06-27T19:35:36.480Z</time>
      </trkpt>
      <trkpt lat="46.08742" lon="2.2556">
        <ele>453.799787</ele>
        <time>2024-06-27T19:35:43.303Z</time>
      </trkpt>
      <trkpt lat="46.08704" lon="2.25515">
        <ele>454.063698</ele>
        <time>2024-06-27T19:35:52.984Z</time>
      </trkpt>
      <trkpt lat="46.08654" lon="2.25496">
        <ele>454.340913</ele>
        <time>2024-06-27T19:36:01.688Z</time>
      </trkpt>
      <trkpt lat="46.08639" lon="2.25486">
        <ele>454.2822</ele>
        <time>2024-06-27T19:36:04.375Z</time>
      </trkpt>
      <trkpt lat="46.08533" lon="2.25397">
        <ele>450.901332</ele>
        <time>2024-06-27T19:36:22.773Z</time>
      </trkpt>
      <trkpt lat="46.08501" lon="2.25377">
        <ele>449.968407</ele>
        <time>2024-06-27T19:36:27.636Z</time>
      </trkpt>
      <trkpt lat="46.0848" lon="2.25379">
        <ele>449.407054</ele>
        <time>2024-06-27T19:36:30.750Z</time>
      </trkpt>
      <trkpt lat="46.08457" lon="2.25386">
        <ele>448.980032</ele>
        <time>2024-06-27T19:36:34.217Z</time>
      </trkpt>
      <trkpt lat="46.08413" lon="2.25405">
        <ele>448.161739</ele>
        <time>2024-06-27T19:36:41.035Z</time>
      </trkpt>
      <trkpt lat="46.08398" lon="2.25407">
        <ele>447.872481</ele>
        <time>2024-06-27T19:36:43.594Z</time>
      </trkpt>
      <trkpt lat="46.08379" lon="2.25405">
        <ele>447.533055</ele>
        <time>2024-06-27T19:36:46.563Z</time>
      </trkpt>
      <trkpt lat="46.08353" lon="2.25394">
        <ele>447.037009</ele>
        <time>2024-06-27T19:36:51.250Z</time>
      </trkpt>
      <trkpt lat="46.08331" lon="2.2538">
        <ele>446.597558</ele>
        <time>2024-06-27T19:36:55.474Z</time>
      </trkpt>
      <trkpt lat="46.08312" lon="2.25364">
        <ele>446.22449</ele>
        <time>2024-06-27T19:36:59.267Z</time>
      </trkpt>
      <trkpt lat="46.08266" lon="2.25313">
        <ele>447.022286</ele>
        <time>2024-06-27T19:37:10.656Z</time>
      </trkpt>
      <trkpt lat="46.08184" lon="2.25218">
        <ele>448.47836</ele>
        <time>2024-06-27T19:37:33.623Z</time>
      </trkpt>
      <trkpt lat="46.08164" lon="2.25191">
        <ele>449.289153</ele>
        <time>2024-06-27T19:37:39.764Z</time>
      </trkpt>
      <trkpt lat="46.08137" lon="2.25143">
        <ele>451.603645</ele>
        <time>2024-06-27T19:37:49.922Z</time>
      </trkpt>
      <trkpt lat="46.08124" lon="2.25098">
        <ele>453.441348</ele>
        <time>2024-06-27T19:37:58.616Z</time>
      </trkpt>
      <trkpt lat="46.0811" lon="2.25023">
        <ele>456.333578</ele>
        <time>2024-06-27T19:38:13.593Z</time>
      </trkpt>
      <trkpt lat="46.08095" lon="2.24987">
        <ele>457.912943</ele>
        <time>2024-06-27T19:38:22.269Z</time>
      </trkpt>
      <trkpt lat="46.08079" lon="2.24968">
        <ele>459.223652</ele>
        <time>2024-06-27T19:38:28.560Z</time>
      </trkpt>
      <trkpt lat="46.0806" lon="2.24955">
        <ele>460.741626</ele>
        <time>2024-06-27T19:38:34.891Z</time>
      </trkpt>
      <trkpt lat="46.0802" lon="2.24939">
        <ele>463.716497</ele>
        <time>2024-06-27T19:38:47.569Z</time>
      </trkpt>
      <trkpt lat="46.07981" lon="2.24951">
        <ele>466.545452</ele>
        <time>2024-06-27T19:38:59.566Z</time>
      </trkpt>
      <trkpt lat="46.07956" lon="2.24977">
        <ele>468.795277</ele>
        <time>2024-06-27T19:39:09.030Z</time>
      </trkpt>
      <trkpt lat="46.07944" lon="2.24984">
        <ele>469.701789</ele>
        <time>2024-06-27T19:39:12.776Z</time>
      </trkpt>
      <trkpt lat="46.078" lon="2.25031">
        <ele>477.090665</ele>
        <time>2024-06-27T19:39:51.162Z</time>
      </trkpt>
      <trkpt lat="46.07778" lon="2.25035">
        <ele>478.120459</ele>
        <time>2024-06-27T19:39:56.356Z</time>
      </trkpt>
      <trkpt lat="46.07622" lon="2.25045">
        <ele>482.1252</ele>
        <time>2024-06-27T19:40:31.407Z</time>
      </trkpt>
      <trkpt lat="46.07581" lon="2.25031">
        <ele>482.986769</ele>
        <time>2024-06-27T19:40:40.260Z</time>
      </trkpt>
      <trkpt lat="46.07554" lon="2.25017">
        <ele>483.334219</ele>
        <time>2024-06-27T19:40:46.215Z</time>
      </trkpt>
      <trkpt lat="46.07518" lon="2.25013">
        <ele>483.492757</ele>
        <time>2024-06-27T19:40:53.466Z</time>
      </trkpt>
      <trkpt lat="46.0744" lon="2.25029">
        <ele>483.839063</ele>
        <time>2024-06-27T19:41:08.834Z</time>
      </trkpt>
      <trkpt lat="46.07415" lon="2.2503">
        <ele>483.950983</ele>
        <time>2024-06-27T19:41:13.701Z</time>
      </trkpt>
      <trkpt lat="46.0735" lon="2.25016">
        <ele>484.452879</ele>
        <time>2024-06-27T19:41:26.711Z</time>
      </trkpt>
      <trkpt lat="46.07059" lon="2.24817">
        <ele>487.878874</ele>
        <time>2024-06-27T19:42:34.774Z</time>
      </trkpt>
      <trkpt lat="46.07008" lon="2.24773">
        <ele>488.008791</ele>
        <time>2024-06-27T19:42:47.105Z</time>
      </trkpt>
      <trkpt lat="46.06956" lon="2.24699">
        <ele>488.16841</ele>
        <time>2024-06-27T19:43:01.427Z</time>
      </trkpt>
      <trkpt lat="46.06786" lon="2.24473">
        <ele>487.566881</ele>
        <time>2024-06-27T19:43:42.878Z</time>
      </trkpt>
      <trkpt lat="46.06619" lon="2.24246">
        <ele>490.366838</ele>
        <time>2024-06-27T19:44:31.577Z</time>
      </trkpt>
      <trkpt lat="46.06574" lon="2.24184">
        <ele>491.614249</ele>
        <time>2024-06-27T19:44:45.537Z</time>
      </trkpt>
      <trkpt lat="46.06515" lon="2.24111">
        <ele>493.178099</ele>
        <time>2024-06-27T19:45:02.861Z</time>
      </trkpt>
      <trkpt lat="46.06455" lon="2.24026">
        <ele>495.001893</ele>
        <time>2024-06-27T19:45:21.812Z</time>
      </trkpt>
      <trkpt lat="46.06423" lon="2.23972">
        <ele>496.058918</ele>
        <time>2024-06-27T19:45:32.729Z</time>
      </trkpt>
      <trkpt lat="46.06335" lon="2.23802">
        <ele>497.07327</ele>
        <time>2024-06-27T19:46:03.706Z</time>
      </trkpt>
      <trkpt lat="46.06309" lon="2.23764">
        <ele>497.190185</ele>
        <time>2024-06-27T19:46:10.463Z</time>
      </trkpt>
      <trkpt lat="46.0629" lon="2.2375">
        <ele>497.255381</ele>
        <time>2024-06-27T19:46:14.049Z</time>
      </trkpt>
      <trkpt lat="46.06281" lon="2.23744">
        <ele>497.136619</ele>
        <time>2024-06-27T19:46:15.723Z</time>
      </trkpt>
      <trkpt lat="46.06173" lon="2.23711">
        <ele>494.703051</ele>
        <time>2024-06-27T19:46:32.684Z</time>
      </trkpt>
      <trkpt lat="46.06068" lon="2.23678">
        <ele>492.586522</ele>
        <time>2024-06-27T19:46:48.718Z</time>
      </trkpt>
      <trkpt lat="46.05959" lon="2.23609">
        <ele>490.659028</ele>
        <time>2024-06-27T19:47:08.793Z</time>
      </trkpt>
      <trkpt lat="46.05813" lon="2.2352">
        <ele>489.505782</ele>
        <time>2024-06-27T19:47:37.930Z</time>
      </trkpt>
      <trkpt lat="46.05782" lon="2.23509">
        <ele>489.304523</ele>
        <time>2024-06-27T19:47:43.640Z</time>
      </trkpt>
      <trkpt lat="46.05769" lon="2.235">
        <ele>489.110494</ele>
        <time>2024-06-27T19:47:46.167Z</time>
      </trkpt>
      <trkpt lat="46.05743" lon="2.23473">
        <ele>488.479492</ele>
        <time>2024-06-27T19:47:51.612Z</time>
      </trkpt>
      <trkpt lat="46.05725" lon="2.23455">
        <ele>488.047792</ele>
        <time>2024-06-27T19:47:55.214Z</time>
      </trkpt>
      <trkpt lat="46.05569" lon="2.23293">
        <ele>484.286189</ele>
        <time>2024-06-27T19:48:24.586Z</time>
      </trkpt>
      <trkpt lat="46.0556" lon="2.23281">
        <ele>484.052445</ele>
        <time>2024-06-27T19:48:26.415Z</time>
      </trkpt>
      <trkpt lat="46.05552" lon="2.23265">
        <ele>483.793317</ele>
        <time>2024-06-27T19:48:28.483Z</time>
      </trkpt>
      <trkpt lat="46.05547" lon="2.23252">
        <ele>483.58795</ele>
        <time>2024-06-27T19:48:30.147Z</time>
      </trkpt>
      <trkpt lat="46.05543" lon="2.23231">
        <ele>483.301619</ele>
        <time>2024-06-27T19:48:32.436Z</time>
      </trkpt>
      <trkpt lat="46.05531" lon="2.23125">
        <ele>482.780338</ele>
        <time>2024-06-27T19:48:44.963Z</time>
      </trkpt>
      <trkpt lat="46.0552" lon="2.23087">
        <ele>483.49694</ele>
        <time>2024-06-27T19:48:50.614Z</time>
      </trkpt>
      <trkpt lat="46.05513" lon="2.2307">
        <ele>483.848678</ele>
        <time>2024-06-27T19:48:53.541Z</time>
      </trkpt>
      <trkpt lat="46.05498" lon="2.2305">
        <ele>484.373141</ele>
        <time>2024-06-27T19:48:58.090Z</time>
      </trkpt>
      <trkpt lat="46.05469" lon="2.23022">
        <ele>485.254174</ele>
        <time>2024-06-27T19:49:06.191Z</time>
      </trkpt>
      <trkpt lat="46.0545" lon="2.23009">
        <ele>485.796356</ele>
        <time>2024-06-27T19:49:11.371Z</time>
      </trkpt>
      <trkpt lat="46.054" lon="2.22988">
        <ele>487.441768</ele>
        <time>2024-06-27T19:49:24.995Z</time>
      </trkpt>
      <trkpt lat="46.05384" lon="2.22984">
        <ele>488.349901</ele>
        <time>2024-06-27T19:49:29.448Z</time>
      </trkpt>
      <trkpt lat="46.05328" lon="2.22983">
        <ele>491.415155</ele>
        <time>2024-06-27T19:49:44.979Z</time>
      </trkpt>
      <trkpt lat="46.0528" lon="2.22988">
        <ele>494.017793</ele>
        <time>2024-06-27T19:49:58.192Z</time>
      </trkpt>
      <trkpt lat="46.05268" lon="2.22986">
        <ele>494.673772</ele>
        <time>2024-06-27T19:50:01.403Z</time>
      </trkpt>
      <trkpt lat="46.0518" lon="2.2294">
        <ele>497.957922</ele>
        <time>2024-06-27T19:50:24.095Z</time>
      </trkpt>
      <trkpt lat="46.05166" lon="2.22923">
        <ele>498.362575</ele>
        <time>2024-06-27T19:50:28.157Z</time>
      </trkpt>
      <trkpt lat="46.0516" lon="2.22929">
        <ele>498.536917</ele>
        <time>2024-06-27T19:50:29.537Z</time>
      </trkpt>
      <trkpt lat="46.05138" lon="2.22942">
        <ele>499.076669</ele>
        <time>2024-06-27T19:50:33.872Z</time>
      </trkpt>
      <trkpt lat="46.05089" lon="2.22962">
        <ele>500.215845</ele>
        <time>2024-06-27T19:50:42.221Z</time>
      </trkpt>
      <trkpt lat="46.05069" lon="2.22966">
        <ele>500.660776</ele>
        <time>2024-06-27T19:50:45.412Z</time>
      </trkpt>
      <trkpt lat="46.05042" lon="2.22964">
        <ele>500.882559</ele>
        <time>2024-06-27T19:50:49.751Z</time>
      </trkpt>
      <trkpt lat="46.04971" lon="2.22951">
        <ele>501.405589</ele>
        <time>2024-06-27T19:51:00.954Z</time>
      </trkpt>
      <trkpt lat="46.04959" lon="2.22926">
        <ele>501.56356</ele>
        <time>2024-06-27T19:51:05.182Z</time>
      </trkpt>
      <trkpt lat="46.04906" lon="2.22864">
        <ele>502.166603</ele>
        <time>2024-06-27T19:51:19.438Z</time>
      </trkpt>
      <trkpt lat="46.04891" lon="2.22838">
        <ele>502.777128</ele>
        <time>2024-06-27T19:51:24.623Z</time>
      </trkpt>
      <trkpt lat="46.04866" lon="2.22778">
        <ele>504.037725</ele>
        <time>2024-06-27T19:51:35.225Z</time>
      </trkpt>
      <trkpt lat="46.04822" lon="2.22729">
        <ele>505.488845</ele>
        <time>2024-06-27T19:51:47.941Z</time>
      </trkpt>
      <trkpt lat="46.04797" lon="2.22711">
        <ele>506.199671</ele>
        <time>2024-06-27T19:51:54.387Z</time>
      </trkpt>
      <trkpt lat="46.04758" lon="2.22694">
        <ele>507.540071</ele>
        <time>2024-06-27T19:52:04.275Z</time>
      </trkpt>
      <trkpt lat="46.0474" lon="2.22676">
        <ele>508.395459</ele>
        <time>2024-06-27T19:52:09.737Z</time>
      </trkpt>
      <trkpt lat="46.04689" lon="2.22623">
        <ele>510.812437</ele>
        <time>2024-06-27T19:52:25.427Z</time>
      </trkpt>
      <trkpt lat="46.04621" lon="2.22557">
        <ele>513.758723</ele>
        <time>2024-06-27T19:52:44.871Z</time>
      </trkpt>
      <trkpt lat="46.04596" lon="2.2252">
        <ele>514.260656</ele>
        <time>2024-06-27T19:52:52.884Z</time>
      </trkpt>
      <trkpt lat="46.04592" lon="2.22495">
        <ele>514.507139</ele>
        <time>2024-06-27T19:52:56.698Z</time>
      </trkpt>
      <trkpt lat="46.04596" lon="2.22451">
        <ele>514.937141</ele>
        <time>2024-06-27T19:53:03.333Z</time>
      </trkpt>
      <trkpt lat="46.04598" lon="2.22412">
        <ele>515.318235</ele>
        <time>2024-06-27T19:53:09.048Z</time>
      </trkpt>
      <trkpt lat="46.04594" lon="2.22395">
        <ele>515.493294</ele>
        <time>2024-06-27T19:53:11.493Z</time>
      </trkpt>
      <trkpt lat="46.04583" lon="2.22379">
        <ele>515.717486</ele>
        <time>2024-06-27T19:53:14.730Z</time>
      </trkpt>
      <trkpt lat="46.04569" lon="2.2237">
        <ele>515.926586</ele>
        <time>2024-06-27T19:53:17.681Z</time>
      </trkpt>
      <trkpt lat="46.04464" lon="2.22338">
        <ele>514.916273</ele>
        <time>2024-06-27T19:53:37.344Z</time>
      </trkpt>
      <trkpt lat="46.04439" lon="2.22339">
        <ele>514.580983</ele>
        <time>2024-06-27T19:53:41.463Z</time>
      </trkpt>
      <trkpt lat="46.04412" lon="2.22351">
        <ele>514.204438</ele>
        <time>2024-06-27T19:53:45.905Z</time>
      </trkpt>
      <trkpt lat="46.04398" lon="2.22355">
        <ele>514.012737</ele>
        <time>2024-06-27T19:53:48.050Z</time>
      </trkpt>
      <trkpt lat="46.04388" lon="2.22354">
        <ele>513.878957</ele>
        <time>2024-06-27T19:53:49.534Z</time>
      </trkpt>
      <trkpt lat="46.04372" lon="2.22347">
        <ele>513.609649</ele>
        <time>2024-06-27T19:53:51.926Z</time>
      </trkpt>
      <trkpt lat="46.04315" lon="2.22297">
        <ele>512.068893</ele>
        <time>2024-06-27T19:54:01.710Z</time>
      </trkpt>
      <trkpt lat="46.04305" lon="2.22283">
        <ele>511.742904</ele>
        <time>2024-06-27T19:54:03.784Z</time>
      </trkpt>
      <trkpt lat="46.04298" lon="2.22268">
        <ele>511.462204</ele>
        <time>2024-06-27T19:54:05.600Z</time>
      </trkpt>
      <trkpt lat="46.04277" lon="2.22176">
        <ele>509.906271</ele>
        <time>2024-06-27T19:54:15.997Z</time>
      </trkpt>
      <trkpt lat="46.0427" lon="2.22154">
        <ele>509.710239</ele>
        <time>2024-06-27T19:54:18.732Z</time>
      </trkpt>
      <trkpt lat="46.04261" lon="2.22133">
        <ele>510.231041</ele>
        <time>2024-06-27T19:54:21.886Z</time>
      </trkpt>
      <trkpt lat="46.04225" lon="2.22069">
        <ele>511.895157</ele>
        <time>2024-06-27T19:54:34.033Z</time>
      </trkpt>
      <trkpt lat="46.04216" lon="2.22058">
        <ele>512.239255</ele>
        <time>2024-06-27T19:54:36.781Z</time>
      </trkpt>
      <trkpt lat="46.04161" lon="2.22015">
        <ele>514.045977</ele>
        <time>2024-06-27T19:54:52.451Z</time>
      </trkpt>
      <trkpt lat="46.0415" lon="2.21999">
        <ele>514.491958</ele>
        <time>2024-06-27T19:54:56.739Z</time>
      </trkpt>
      <trkpt lat="46.04125" lon="2.21956">
        <ele>515.586577</ele>
        <time>2024-06-27T19:55:07.892Z</time>
      </trkpt>
      <trkpt lat="46.04113" lon="2.21909">
        <ele>516.552017</ele>
        <time>2024-06-27T19:55:17.260Z</time>
      </trkpt>
      <trkpt lat="46.04073" lon="2.21805">
        <ele>518.82728</ele>
        <time>2024-06-27T19:55:36.018Z</time>
      </trkpt>
      <trkpt lat="46.04062" lon="2.21785">
        <ele>519.306794</ele>
        <time>2024-06-27T19:55:39.119Z</time>
      </trkpt>
      <trkpt lat="46.04049" lon="2.21771">
        <ele>519.751718</ele>
        <time>2024-06-27T19:55:41.992Z</time>
      </trkpt>
      <trkpt lat="46.04075" lon="2.21743">
        <ele>519.077871</ele>
        <time>2024-06-27T19:55:46.855Z</time>
      </trkpt>
      <trkpt lat="46.04082" lon="2.21732">
        <ele>518.829778</ele>
        <time>2024-06-27T19:55:48.317Z</time>
      </trkpt>
      <trkpt lat="46.04092" lon="2.21702">
        <ele>518.283156</ele>
        <time>2024-06-27T19:55:51.605Z</time>
      </trkpt>
      <trkpt lat="46.04094" lon="2.21687">
        <ele>518.02023</ele>
        <time>2024-06-27T19:55:53.215Z</time>
      </trkpt>
      <trkpt lat="46.04095" lon="2.21679">
        <ele>517.896849</ele>
        <time>2024-06-27T19:55:53.929Z</time>
      </trkpt>
      <trkpt lat="46.04093" lon="2.21577">
        <ele>516.213359</ele>
        <time>2024-06-27T19:56:04.209Z</time>
      </trkpt>
      <trkpt lat="46.04101" lon="2.21505">
        <ele>515.867388</ele>
        <time>2024-06-27T19:56:12.134Z</time>
      </trkpt>
      <trkpt lat="46.0407" lon="2.21452">
        <ele>516.643447</ele>
        <time>2024-06-27T19:56:21.624Z</time>
      </trkpt>
      <trkpt lat="46.04048" lon="2.21314">
        <ele>518.223</ele>
        <time>2024-06-27T19:56:44.272Z</time>
      </trkpt>
      <trkpt lat="46.04026" lon="2.21205">
        <ele>521.064381</ele>
        <time>2024-06-27T19:57:03.700Z</time>
      </trkpt>
      <trkpt lat="46.04017" lon="2.21175">
        <ele>521.97583</ele>
        <time>2024-06-27T19:57:09.213Z</time>
      </trkpt>
      <trkpt lat="46.03985" lon="2.21097">
        <ele>524.459825</ele>
        <time>2024-06-27T19:57:24.060Z</time>
      </trkpt>
      <trkpt lat="46.03979" lon="2.21073">
        <ele>525.143846</ele>
        <time>2024-06-27T19:57:28.134Z</time>
      </trkpt>
      <trkpt lat="46.03954" lon="2.20918">
        <ele>531.12178</ele>
        <time>2024-06-27T19:57:55.875Z</time>
      </trkpt>
      <trkpt lat="46.03958" lon="2.20872">
        <ele>532.887917</ele>
        <time>2024-06-27T19:58:04.614Z</time>
      </trkpt>
      <trkpt lat="46.03957" lon="2.20856">
        <ele>533.518417</ele>
        <time>2024-06-27T19:58:07.818Z</time>
      </trkpt>
      <trkpt lat="46.0387" lon="2.2071">
        <ele>542.862581</ele>
        <time>2024-06-27T19:58:47.855Z</time>
      </trkpt>
      <trkpt lat="46.03864" lon="2.20681">
        <ele>544.394193</ele>
        <time>2024-06-27T19:58:54.085Z</time>
      </trkpt>
      <trkpt lat="46.03866" lon="2.20661">
        <ele>545.457178</ele>
        <time>2024-06-27T19:58:58.353Z</time>
      </trkpt>
      <trkpt lat="46.03865" lon="2.20651">
        <ele>545.995453</ele>
        <time>2024-06-27T19:59:00.533Z</time>
      </trkpt>
      <trkpt lat="46.03858" lon="2.20641">
        <ele>546.748698</ele>
        <time>2024-06-27T19:59:03.597Z</time>
      </trkpt>
      <trkpt lat="46.03848" lon="2.20634">
        <ele>547.600311</ele>
        <time>2024-06-27T19:59:06.970Z</time>
      </trkpt>
      <trkpt lat="46.03827" lon="2.20635">
        <ele>549.142078</ele>
        <time>2024-06-27T19:59:13.247Z</time>
      </trkpt>
      <trkpt lat="46.03811" lon="2.20629">
        <ele>550.182268</ele>
        <time>2024-06-27T19:59:18.006Z</time>
      </trkpt>
      <trkpt lat="46.03791" lon="2.20615">
        <ele>551.614254</ele>
        <time>2024-06-27T19:59:24.559Z</time>
      </trkpt>
      <trkpt lat="46.03778" lon="2.20597">
        <ele>552.808525</ele>
        <time>2024-06-27T19:59:29.923Z</time>
      </trkpt>
      <trkpt lat="46.03772" lon="2.20568">
        <ele>554.140282</ele>
        <time>2024-06-27T19:59:35.908Z</time>
      </trkpt>
      <trkpt lat="46.03774" lon="2.20556">
        <ele>554.686894</ele>
        <time>2024-06-27T19:59:38.276Z</time>
      </trkpt>
      <trkpt lat="46.03786" lon="2.20537">
        <ele>555.871702</ele>
        <time>2024-06-27T19:59:43.437Z</time>
      </trkpt>
      <trkpt lat="46.03831" lon="2.20487">
        <ele>559.539789</ele>
        <time>2024-06-27T19:59:58.743Z</time>
      </trkpt>
      <trkpt lat="46.03844" lon="2.20459">
        <ele>560.890146</ele>
        <time>2024-06-27T20:00:04.875Z</time>
      </trkpt>
      <trkpt lat="46.03852" lon="2.20435">
        <ele>561.618921</ele>
        <time>2024-06-27T20:00:09.586Z</time>
      </trkpt>
      <trkpt lat="46.0386" lon="2.20402">
        <ele>562.586582</ele>
        <time>2024-06-27T20:00:15.788Z</time>
      </trkpt>
      <trkpt lat="46.03861" lon="2.20381">
        <ele>563.144674</ele>
        <time>2024-06-27T20:00:19.306Z</time>
      </trkpt>
      <trkpt lat="46.03858" lon="2.20353">
        <ele>563.92662</ele>
        <time>2024-06-27T20:00:24.214Z</time>
      </trkpt>
      <trkpt lat="46.03845" lon="2.20279">
        <ele>566.017837</ele>
        <time>2024-06-27T20:00:37.015Z</time>
      </trkpt>
      <trkpt lat="46.03842" lon="2.20036">
        <ele>569.432308</ele>
        <time>2024-06-27T20:01:14.338Z</time>
      </trkpt>
      <trkpt lat="46.0384" lon="2.19914">
        <ele>569.632929</ele>
        <time>2024-06-27T20:01:30.027Z</time>
      </trkpt>
      <trkpt lat="46.03835" lon="2.19898">
        <ele>569.41095</ele>
        <time>2024-06-27T20:01:32.154Z</time>
      </trkpt>
      <trkpt lat="46.0382" lon="2.19877">
        <ele>569.042407</ele>
        <time>2024-06-27T20:01:35.714Z</time>
      </trkpt>
      <trkpt lat="46.03795" lon="2.19863">
        <ele>568.568195</ele>
        <time>2024-06-27T20:01:40.034Z</time>
      </trkpt>
      <trkpt lat="46.03788" lon="2.19856">
        <ele>568.4095</ele>
        <time>2024-06-27T20:01:41.531Z</time>
      </trkpt>
      <trkpt lat="46.03783" lon="2.19838">
        <ele>568.17065</ele>
        <time>2024-06-27T20:01:43.646Z</time>
      </trkpt>
      <trkpt lat="46.03919" lon="2.19824">
        <ele>565.004088</ele>
        <time>2024-06-27T20:01:57.650Z</time>
      </trkpt>
      <trkpt lat="46.0394" lon="2.1982">
        <ele>564.426753</ele>
        <time>2024-06-27T20:01:59.752Z</time>
      </trkpt>
      <trkpt lat="46.03979" lon="2.19806">
        <ele>563.280883</ele>
        <time>2024-06-27T20:02:03.892Z</time>
      </trkpt>
      <trkpt lat="46.04034" lon="2.19778">
        <ele>561.923096</ele>
        <time>2024-06-27T20:02:09.971Z</time>
      </trkpt>
      <trkpt lat="46.04029" lon="2.19762">
        <ele>561.954793</ele>
        <time>2024-06-27T20:02:12.014Z</time>
      </trkpt>
      <trkpt lat="46.04019" lon="2.19755">
        <ele>561.983579</ele>
        <time>2024-06-27T20:02:13.802Z</time>
      </trkpt>
      <trkpt lat="46.03984" lon="2.19757">
        <ele>562.074077</ele>
        <time>2024-06-27T20:02:19.707Z</time>
      </trkpt>
      <trkpt lat="46.0397" lon="2.1975">
        <ele>562.111641</ele>
        <time>2024-06-27T20:02:22.143Z</time>
      </trkpt>
      <trkpt lat="46.03949" lon="2.19715">
        <ele>562.196677</ele>
        <time>2024-06-27T20:02:28.187Z</time>
      </trkpt>
      <trkpt lat="46.0386" lon="2.19164">
        <ele>573.325847</ele>
        <time>2024-06-27T20:03:59.427Z</time>
      </trkpt>
      <trkpt lat="46.03854" lon="2.19122">
        <ele>574.360454</ele>
        <time>2024-06-27T20:04:06.752Z</time>
      </trkpt>
      <trkpt lat="46.0384" lon="2.19079">
        <ele>575.505384</ele>
        <time>2024-06-27T20:04:14.960Z</time>
      </trkpt>
      <trkpt lat="46.03823" lon="2.19049">
        <ele>576.416784</ele>
        <time>2024-06-27T20:04:21.471Z</time>
      </trkpt>
      <trkpt lat="46.03734" lon="2.18926">
        <ele>580.589436</ele>
        <time>2024-06-27T20:04:50.761Z</time>
      </trkpt>
      <trkpt lat="46.03723" lon="2.18908">
        <ele>580.487912</ele>
        <time>2024-06-27T20:04:54.245Z</time>
      </trkpt>
      <trkpt lat="46.03715" lon="2.18879">
        <ele>580.351554</ele>
        <time>2024-06-27T20:04:58.746Z</time>
      </trkpt>
      <trkpt lat="46.03711" lon="2.18854">
        <ele>580.239162</ele>
        <time>2024-06-27T20:05:02.193Z</time>
      </trkpt>
      <trkpt lat="46.03711" lon="2.18827">
        <ele>580.122599</ele>
        <time>2024-06-27T20:05:05.708Z</time>
      </trkpt>
      <trkpt lat="46.03716" lon="2.18786">
        <ele>579.943472</ele>
        <time>2024-06-27T20:05:10.699Z</time>
      </trkpt>
      <trkpt lat="46.03715" lon="2.18762">
        <ele>579.839728</ele>
        <time>2024-06-27T20:05:13.341Z</time>
      </trkpt>
      <trkpt lat="46.03701" lon="2.18695">
        <ele>579.532666</ele>
        <time>2024-06-27T20:05:20.969Z</time>
      </trkpt>
      <trkpt lat="46.03695" lon="2.18665">
        <ele>579.110818</ele>
        <time>2024-06-27T20:05:24.103Z</time>
      </trkpt>
      <trkpt lat="46.03683" lon="2.18651">
        <ele>578.648265</ele>
        <time>2024-06-27T20:05:26.394Z</time>
      </trkpt>
      <trkpt lat="46.03672" lon="2.18644">
        <ele>578.296373</ele>
        <time>2024-06-27T20:05:28.093Z</time>
      </trkpt>
      <trkpt lat="46.0362" lon="2.18637">
        <ele>576.736191</ele>
        <time>2024-06-27T20:05:35.395Z</time>
      </trkpt>
      <trkpt lat="46.03686" lon="2.18599">
        <ele>574.608574</ele>
        <time>2024-06-27T20:05:45.557Z</time>
      </trkpt>
      <trkpt lat="46.03791" lon="2.18528">
        <ele>573.602408</ele>
        <time>2024-06-27T20:06:05.734Z</time>
      </trkpt>
      <trkpt lat="46.03812" lon="2.18519">
        <ele>573.496499</ele>
        <time>2024-06-27T20:06:10.038Z</time>
      </trkpt>
      <trkpt lat="46.03819" lon="2.18519">
        <ele>573.464028</ele>
        <time>2024-06-27T20:06:11.349Z</time>
      </trkpt>
      <trkpt lat="46.03875" lon="2.18547">
        <ele>573.259974</ele>
        <time>2024-06-27T20:06:23.472Z</time>
      </trkpt>
      <trkpt lat="46.03887" lon="2.1855">
        <ele>573.357239</ele>
        <time>2024-06-27T20:06:25.940Z</time>
      </trkpt>
      <trkpt lat="46.03912" lon="2.18547">
        <ele>573.562089</ele>
        <time>2024-06-27T20:06:31.219Z</time>
      </trkpt>
      <trkpt lat="46.03973" lon="2.18526">
        <ele>574.061586</ele>
        <time>2024-06-27T20:06:44.214Z</time>
      </trkpt>
      <trkpt lat="46.04063" lon="2.1847">
        <ele>574.924182</ele>
        <time>2024-06-27T20:07:04.338Z</time>
      </trkpt>
      <trkpt lat="46.04139" lon="2.18428">
        <ele>575.802696</ele>
        <time>2024-06-27T20:07:21.261Z</time>
      </trkpt>
      <trkpt lat="46.04169" lon="2.18405">
        <ele>576.176994</ele>
        <time>2024-06-27T20:07:28.542Z</time>
      </trkpt>
      <trkpt lat="46.0422" lon="2.18345">
        <ele>576.88316</ele>
        <time>2024-06-27T20:07:42.558Z</time>
      </trkpt>
      <trkpt lat="46.04239" lon="2.18329">
        <ele>577.119468</ele>
        <time>2024-06-27T20:07:47.372Z</time>
      </trkpt>
      <trkpt lat="46.04276" lon="2.18309">
        <ele>577.539121</ele>
        <time>2024-06-27T20:07:55.961Z</time>
      </trkpt>
      <trkpt lat="46.04318" lon="2.1829">
        <ele>578.008503</ele>
        <time>2024-06-27T20:08:05.365Z</time>
      </trkpt>
      <trkpt lat="46.04364" lon="2.18245">
        <ele>578.499272</ele>
        <time>2024-06-27T20:08:16.325Z</time>
      </trkpt>
      <trkpt lat="46.0438" lon="2.18205">
        <ele>578.40659</ele>
        <time>2024-06-27T20:08:22.199Z</time>
      </trkpt>
      <trkpt lat="46.04403" lon="2.18169">
        <ele>578.310798</ele>
        <time>2024-06-27T20:08:28.142Z</time>
      </trkpt>
      <trkpt lat="46.04413" lon="2.1816">
        <ele>578.276277</ele>
        <time>2024-06-27T20:08:30.250Z</time>
      </trkpt>
      <trkpt lat="46.04449" lon="2.18162">
        <ele>578.172826</ele>
        <time>2024-06-27T20:08:36.784Z</time>
      </trkpt>
      <trkpt lat="46.0449" lon="2.18176">
        <ele>578.052951</ele>
        <time>2024-06-27T20:08:44.544Z</time>
      </trkpt>
      <trkpt lat="46.04557" lon="2.18186">
        <ele>578.536166</ele>
        <time>2024-06-27T20:08:57.744Z</time>
      </trkpt>
      <trkpt lat="46.04557" lon="2.18186">
        <ele>578.539296</ele>
        <time>2024-06-27T20:08:57.799Z</time>
      </trkpt>
      <trkpt lat="46.04599" lon="2.18183">
        <ele>578.971109</ele>
        <time>2024-06-27T20:09:06.282Z</time>
      </trkpt>
      <trkpt lat="46.04681" lon="2.18183">
        <ele>579.833929</ele>
        <time>2024-06-27T20:09:24.265Z</time>
      </trkpt>
      <trkpt lat="46.04711" lon="2.18191">
        <ele>580.325358</ele>
        <time>2024-06-27T20:09:31.078Z</time>
      </trkpt>
      <trkpt lat="46.04745" lon="2.18191">
        <ele>580.890195</ele>
        <time>2024-06-27T20:09:38.440Z</time>
      </trkpt>
      <trkpt lat="46.04786" lon="2.18183">
        <ele>581.591497</ele>
        <time>2024-06-27T20:09:47.543Z</time>
      </trkpt>
      <trkpt lat="46.04837" lon="2.18155">
        <ele>582.521716</ele>
        <time>2024-06-27T20:09:59.390Z</time>
      </trkpt>
      <trkpt lat="46.04886" lon="2.18134">
        <ele>582.66285</ele>
        <time>2024-06-27T20:10:10.255Z</time>
      </trkpt>
      <trkpt lat="46.04905" lon="2.18116">
        <ele>582.433412</ele>
        <time>2024-06-27T20:10:14.685Z</time>
      </trkpt>
      <trkpt lat="46.04962" lon="2.18052">
        <ele>581.697736</ele>
        <time>2024-06-27T20:10:27.506Z</time>
      </trkpt>
      <trkpt lat="46.04972" lon="2.18028">
        <ele>581.500055</ele>
        <time>2024-06-27T20:10:30.588Z</time>
      </trkpt>
      <trkpt lat="46.04979" lon="2.17999">
        <ele>581.287164</ele>
        <time>2024-06-27T20:10:33.770Z</time>
      </trkpt>
      <trkpt lat="46.04997" lon="2.17909">
        <ele>579.305497</ele>
        <time>2024-06-27T20:10:43.099Z</time>
      </trkpt>
      <trkpt lat="46.05023" lon="2.17745">
        <ele>574.870812</ele>
        <time>2024-06-27T20:10:59.213Z</time>
      </trkpt>
      <trkpt lat="46.05023" lon="2.17728">
        <ele>574.429225</ele>
        <time>2024-06-27T20:11:00.965Z</time>
      </trkpt>
      <trkpt lat="46.05019" lon="2.17713">
        <ele>574.198335</ele>
        <time>2024-06-27T20:11:02.601Z</time>
      </trkpt>
      <trkpt lat="46.05018" lon="2.17698">
        <ele>574.0536</ele>
        <time>2024-06-27T20:11:04.106Z</time>
      </trkpt>
      <trkpt lat="46.05019" lon="2.17647">
        <ele>573.565195</ele>
        <time>2024-06-27T20:11:09.526Z</time>
      </trkpt>
      <trkpt lat="46.0502" lon="2.17616">
        <ele>573.271272</ele>
        <time>2024-06-27T20:11:13.131Z</time>
      </trkpt>
      <trkpt lat="46.05025" lon="2.17593">
        <ele>573.048391</ele>
        <time>2024-06-27T20:11:15.760Z</time>
      </trkpt>
      <trkpt lat="46.05038" lon="2.1756">
        <ele>572.685997</ele>
        <time>2024-06-27T20:11:20.494Z</time>
      </trkpt>
      <trkpt lat="46.05065" lon="2.17493">
        <ele>571.939182</ele>
        <time>2024-06-27T20:11:30.514Z</time>
      </trkpt>
      <trkpt lat="46.05076" lon="2.17435">
        <ele>571.581099</ele>
        <time>2024-06-27T20:11:38.951Z</time>
      </trkpt>
      <trkpt lat="46.0508" lon="2.17414">
        <ele>571.467448</ele>
        <time>2024-06-27T20:11:42.167Z</time>
      </trkpt>
      <trkpt lat="46.05104" lon="2.17364">
        <ele>571.15315</ele>
        <time>2024-06-27T20:11:50.240Z</time>
      </trkpt>
      <trkpt lat="46.05181" lon="2.17258">
        <ele>570.117304</ele>
        <time>2024-06-27T20:12:07.835Z</time>
      </trkpt>
      <trkpt lat="46.05195" lon="2.17226">
        <ele>569.575175</ele>
        <time>2024-06-27T20:12:11.908Z</time>
      </trkpt>
      <trkpt lat="46.05204" lon="2.1719">
        <ele>569.038362</ele>
        <time>2024-06-27T20:12:15.930Z</time>
      </trkpt>
      <trkpt lat="46.05221" lon="2.17145">
        <ele>568.314328</ele>
        <time>2024-06-27T20:12:21.389Z</time>
      </trkpt>
      <trkpt lat="46.05315" lon="2.16947">
        <ele>565.267458</ele>
        <time>2024-06-27T20:12:47.698Z</time>
      </trkpt>
      <trkpt lat="46.05327" lon="2.16873">
        <ele>564.401457</ele>
        <time>2024-06-27T20:12:56.577Z</time>
      </trkpt>
      <trkpt lat="46.05332" lon="2.16821">
        <ele>563.840144</ele>
        <time>2024-06-27T20:13:02.735Z</time>
      </trkpt>
      <trkpt lat="46.05338" lon="2.16785">
        <ele>563.767799</ele>
        <time>2024-06-27T20:13:07.219Z</time>
      </trkpt>
      <trkpt lat="46.05353" lon="2.16726">
        <ele>563.645821</ele>
        <time>2024-06-27T20:13:14.834Z</time>
      </trkpt>
      <trkpt lat="46.05379" lon="2.16608">
        <ele>563.406832</ele>
        <time>2024-06-27T20:13:31.305Z</time>
      </trkpt>
      <trkpt lat="46.05391" lon="2.16511">
        <ele>563.090145</ele>
        <time>2024-06-27T20:13:45.585Z</time>
      </trkpt>
      <trkpt lat="46.05404" lon="2.16425">
        <ele>562.75146</ele>
        <time>2024-06-27T20:13:57.462Z</time>
      </trkpt>
      <trkpt lat="46.05417" lon="2.16377">
        <ele>562.55255</ele>
        <time>2024-06-27T20:14:03.726Z</time>
      </trkpt>
      <trkpt lat="46.05432" lon="2.16352">
        <ele>562.424219</ele>
        <time>2024-06-27T20:14:07.465Z</time>
      </trkpt>
      <trkpt lat="46.05478" lon="2.16292">
        <ele>559.906285</ele>
        <time>2024-06-27T20:14:16.584Z</time>
      </trkpt>
      <trkpt lat="46.05493" lon="2.1626">
        <ele>558.537322</ele>
        <time>2024-06-27T20:14:20.284Z</time>
      </trkpt>
      <trkpt lat="46.05499" lon="2.16235">
        <ele>557.591597</ele>
        <time>2024-06-27T20:14:22.772Z</time>
      </trkpt>
      <trkpt lat="46.05501" lon="2.16204">
        <ele>556.484749</ele>
        <time>2024-06-27T20:14:25.616Z</time>
      </trkpt>
      <trkpt lat="46.05501" lon="2.16069">
        <ele>551.595303</ele>
        <time>2024-06-27T20:14:37.541Z</time>
      </trkpt>
      <trkpt lat="46.05522" lon="2.16066">
        <ele>550.441954</ele>
        <time>2024-06-27T20:14:39.390Z</time>
      </trkpt>
      <trkpt lat="46.05542" lon="2.16052">
        <ele>549.192833</ele>
        <time>2024-06-27T20:14:41.395Z</time>
      </trkpt>
      <trkpt lat="46.05568" lon="2.16019">
        <ele>547.253774</ele>
        <time>2024-06-27T20:14:44.528Z</time>
      </trkpt>
      <trkpt lat="46.05598" lon="2.15975">
        <ele>544.87442</ele>
        <time>2024-06-27T20:14:48.569Z</time>
      </trkpt>
      <trkpt lat="46.05641" lon="2.15889">
        <ele>542.653669</ele>
        <time>2024-06-27T20:14:56.156Z</time>
      </trkpt>
      <trkpt lat="46.05649" lon="2.1588">
        <ele>542.53958</ele>
        <time>2024-06-27T20:14:57.277Z</time>
      </trkpt>
      <trkpt lat="46.05662" lon="2.15851">
        <ele>542.272003</ele>
        <time>2024-06-27T20:15:01.098Z</time>
      </trkpt>
      <trkpt lat="46.05666" lon="2.15843">
        <ele>542.189014</ele>
        <time>2024-06-27T20:15:02.324Z</time>
      </trkpt>
      <trkpt lat="46.05684" lon="2.15833">
        <ele>541.967893</ele>
        <time>2024-06-27T20:15:05.625Z</time>
      </trkpt>
      <trkpt lat="46.05745" lon="2.15806">
        <ele>541.249216</ele>
        <time>2024-06-27T20:15:17.600Z</time>
      </trkpt>
      <trkpt lat="46.0579" lon="2.1577">
        <ele>541.843621</ele>
        <time>2024-06-27T20:15:28.595Z</time>
      </trkpt>
      <trkpt lat="46.05812" lon="2.15744">
        <ele>542.392434</ele>
        <time>2024-06-27T20:15:35.039Z</time>
      </trkpt>
      <trkpt lat="46.05841" lon="2.15722">
        <ele>543.026512</ele>
        <time>2024-06-27T20:15:42.289Z</time>
      </trkpt>
      <trkpt lat="46.05853" lon="2.15702">
        <ele>543.394059</ele>
        <time>2024-06-27T20:15:46.517Z</time>
      </trkpt>
      <trkpt lat="46.05864" lon="2.15656">
        <ele>544.051404</ele>
        <time>2024-06-27T20:15:54.023Z</time>
      </trkpt>
      <trkpt lat="46.05872" lon="2.15637">
        <ele>544.341731</ele>
        <time>2024-06-27T20:15:57.345Z</time>
      </trkpt>
      <trkpt lat="46.05912" lon="2.15598">
        <ele>544.554889</ele>
        <time>2024-06-27T20:16:08.072Z</time>
      </trkpt>
      <trkpt lat="46.05928" lon="2.1557">
        <ele>544.528452</ele>
        <time>2024-06-27T20:16:13.515Z</time>
      </trkpt>
      <trkpt lat="46.05974" lon="2.1546">
        <ele>544.433415</ele>
        <time>2024-06-27T20:16:30.263Z</time>
      </trkpt>
      <trkpt lat="46.05986" lon="2.15423">
        <ele>544.403458</ele>
        <time>2024-06-27T20:16:34.527Z</time>
      </trkpt>
      <trkpt lat="46.05989" lon="2.15347">
        <ele>542.531421</ele>
        <time>2024-06-27T20:16:42.027Z</time>
      </trkpt>
      <trkpt lat="46.05997" lon="2.15304">
        <ele>541.392845</ele>
        <time>2024-06-27T20:16:46.330Z</time>
      </trkpt>
      <trkpt lat="46.06023" lon="2.15267">
        <ele>540.047764</ele>
        <time>2024-06-27T20:16:51.374Z</time>
      </trkpt>
      <trkpt lat="46.06025" lon="2.15249">
        <ele>539.588868</ele>
        <time>2024-06-27T20:16:53.072Z</time>
      </trkpt>
      <trkpt lat="46.06019" lon="2.15192">
        <ele>538.12767</ele>
        <time>2024-06-27T20:16:58.584Z</time>
      </trkpt>
      <trkpt lat="46.06014" lon="2.15173">
        <ele>537.670269</ele>
        <time>2024-06-27T20:17:00.635Z</time>
      </trkpt>
      <trkpt lat="46.06015" lon="2.15146">
        <ele>537.243215</ele>
        <time>2024-06-27T20:17:03.325Z</time>
      </trkpt>
      <trkpt lat="46.06054" lon="2.15019">
        <ele>535.033577</ele>
        <time>2024-06-27T20:17:18.437Z</time>
      </trkpt>
      <trkpt lat="46.06051" lon="2.14989">
        <ele>534.558919</ele>
        <time>2024-06-27T20:17:21.950Z</time>
      </trkpt>
      <trkpt lat="46.06047" lon="2.14976">
        <ele>534.336328</ele>
        <time>2024-06-27T20:17:23.572Z</time>
      </trkpt>
      <trkpt lat="46.06019" lon="2.14927">
        <ele>533.20843</ele>
        <time>2024-06-27T20:17:31.093Z</time>
      </trkpt>
      <trkpt lat="46.06014" lon="2.14904">
        <ele>532.705662</ele>
        <time>2024-06-27T20:17:33.800Z</time>
      </trkpt>
      <trkpt lat="46.0601" lon="2.14858">
        <ele>531.747942</ele>
        <time>2024-06-27T20:17:38.705Z</time>
      </trkpt>
      <trkpt lat="46.06033" lon="2.14741">
        <ele>529.241533</ele>
        <time>2024-06-27T20:17:50.741Z</time>
      </trkpt>
      <trkpt lat="46.06034" lon="2.14722">
        <ele>528.832604</ele>
        <time>2024-06-27T20:17:52.653Z</time>
      </trkpt>
      <trkpt lat="46.06032" lon="2.14694">
        <ele>528.277799</ele>
        <time>2024-06-27T20:17:55.367Z</time>
      </trkpt>
      <trkpt lat="46.0602" lon="2.14647">
        <ele>527.793931</ele>
        <time>2024-06-27T20:18:00.214Z</time>
      </trkpt>
      <trkpt lat="46.06013" lon="2.14578">
        <ele>527.106043</ele>
        <time>2024-06-27T20:18:07.476Z</time>
      </trkpt>
      <trkpt lat="46.06015" lon="2.14542">
        <ele>526.752831</ele>
        <time>2024-06-27T20:18:11.736Z</time>
      </trkpt>
      <trkpt lat="46.06025" lon="2.14502">
        <ele>526.337684</ele>
        <time>2024-06-27T20:18:17.223Z</time>
      </trkpt>
      <trkpt lat="46.06027" lon="2.14482">
        <ele>526.142826</ele>
        <time>2024-06-27T20:18:20.001Z</time>
      </trkpt>
      <trkpt lat="46.06027" lon="2.14457">
        <ele>525.89332</ele>
        <time>2024-06-27T20:18:23.708Z</time>
      </trkpt>
      <trkpt lat="46.06017" lon="2.14385">
        <ele>526.434806</ele>
        <time>2024-06-27T20:18:34.830Z</time>
      </trkpt>
      <trkpt lat="46.06023" lon="2.14347">
        <ele>526.860133</ele>
        <time>2024-06-27T20:18:40.866Z</time>
      </trkpt>
      <trkpt lat="46.06037" lon="2.14323">
        <ele>527.203642</ele>
        <time>2024-06-27T20:18:45.850Z</time>
      </trkpt>
      <trkpt lat="46.06029" lon="2.14306">
        <ele>527.423004</ele>
        <time>2024-06-27T20:18:48.324Z</time>
      </trkpt>
      <trkpt lat="46.06027" lon="2.14291">
        <ele>527.594807</ele>
        <time>2024-06-27T20:18:50.350Z</time>
      </trkpt>
      <trkpt lat="46.06025" lon="2.14264">
        <ele>527.893413</ele>
        <time>2024-06-27T20:18:53.705Z</time>
      </trkpt>
      <trkpt lat="46.06015" lon="2.14238">
        <ele>528.221849</ele>
        <time>2024-06-27T20:18:57.390Z</time>
      </trkpt>
      <trkpt lat="46.05976" lon="2.14206">
        <ele>528.590586</ele>
        <time>2024-06-27T20:19:04.562Z</time>
      </trkpt>
      <trkpt lat="46.05926" lon="2.14164">
        <ele>528.520919</ele>
        <time>2024-06-27T20:19:12.760Z</time>
      </trkpt>
      <trkpt lat="46.0591" lon="2.14147">
        <ele>528.497033</ele>
        <time>2024-06-27T20:19:15.436Z</time>
      </trkpt>
      <trkpt lat="46.05864" lon="2.14103">
        <ele>528.431861</ele>
        <time>2024-06-27T20:19:23.603Z</time>
      </trkpt>
      <trkpt lat="46.0585" lon="2.14098">
        <ele>528.414601</ele>
        <time>2024-06-27T20:19:25.445Z</time>
      </trkpt>
      <trkpt lat="46.05839" lon="2.14099">
        <ele>528.401744</ele>
        <time>2024-06-27T20:19:26.758Z</time>
      </trkpt>
      <trkpt lat="46.05801" lon="2.14097">
        <ele>527.686683</ele>
        <time>2024-06-27T20:19:31.330Z</time>
      </trkpt>
      <trkpt lat="46.05786" lon="2.14089">
        <ele>527.37246</ele>
        <time>2024-06-27T20:19:33.270Z</time>
      </trkpt>
      <trkpt lat="46.05773" lon="2.14075">
        <ele>527.067577</ele>
        <time>2024-06-27T20:19:35.023Z</time>
      </trkpt>
      <trkpt lat="46.05761" lon="2.14053">
        <ele>526.698874</ele>
        <time>2024-06-27T20:19:37.352Z</time>
      </trkpt>
      <trkpt lat="46.0576" lon="2.14048">
        <ele>526.62579</ele>
        <time>2024-06-27T20:19:37.785Z</time>
      </trkpt>
      <trkpt lat="46.05757" lon="2.14029">
        <ele>526.355645</ele>
        <time>2024-06-27T20:19:39.357Z</time>
      </trkpt>
      <trkpt lat="46.05757" lon="2.14001">
        <ele>525.984542</ele>
        <time>2024-06-27T20:19:41.614Z</time>
      </trkpt>
      <trkpt lat="46.05764" lon="2.13975">
        <ele>525.618637</ele>
        <time>2024-06-27T20:19:43.686Z</time>
      </trkpt>
      <trkpt lat="46.05819" lon="2.13822">
        <ele>520.231852</ele>
        <time>2024-06-27T20:19:55.458Z</time>
      </trkpt>
      <trkpt lat="46.05918" lon="2.1365">
        <ele>510.549751</ele>
        <time>2024-06-27T20:20:09.336Z</time>
      </trkpt>
      <trkpt lat="46.05927" lon="2.13619">
        <ele>508.846204</ele>
        <time>2024-06-27T20:20:11.422Z</time>
      </trkpt>
      <trkpt lat="46.05942" lon="2.13545">
        <ele>504.958273</ele>
        <time>2024-06-27T20:20:16.192Z</time>
      </trkpt>
      <trkpt lat="46.05945" lon="2.13504">
        <ele>502.874634</ele>
        <time>2024-06-27T20:20:18.752Z</time>
      </trkpt>
      <trkpt lat="46.05942" lon="2.13488">
        <ele>502.015798</ele>
        <time>2024-06-27T20:20:19.806Z</time>
      </trkpt>
      <trkpt lat="46.05932" lon="2.13474">
        <ele>500.969636</ele>
        <time>2024-06-27T20:20:20.983Z</time>
      </trkpt>
      <trkpt lat="46.05915" lon="2.13461">
        <ele>499.413119</ele>
        <time>2024-06-27T20:20:22.704Z</time>
      </trkpt>
      <trkpt lat="46.05906" lon="2.13446">
        <ele>498.267675</ele>
        <time>2024-06-27T20:20:23.955Z</time>
      </trkpt>
      <trkpt lat="46.0586" lon="2.13326">
        <ele>490.570485</ele>
        <time>2024-06-27T20:20:32.340Z</time>
      </trkpt>
      <trkpt lat="46.05825" lon="2.13185">
        <ele>482.055806</ele>
        <time>2024-06-27T20:20:41.442Z</time>
      </trkpt>
      <trkpt lat="46.05803" lon="2.13117">
        <ele>477.718001</ele>
        <time>2024-06-27T20:20:46.049Z</time>
      </trkpt>
      <trkpt lat="46.05801" lon="2.13092">
        <ele>476.281768</ele>
        <time>2024-06-27T20:20:47.564Z</time>
      </trkpt>
      <trkpt lat="46.05804" lon="2.1306">
        <ele>474.400797</ele>
        <time>2024-06-27T20:20:49.554Z</time>
      </trkpt>
      <trkpt lat="46.05813" lon="2.13034">
        <ele>472.741779</ele>
        <time>2024-06-27T20:20:51.305Z</time>
      </trkpt>
      <trkpt lat="46.05824" lon="2.13014">
        <ele>471.34908</ele>
        <time>2024-06-27T20:20:52.893Z</time>
      </trkpt>
      <trkpt lat="46.05826" lon="2.12992">
        <ele>470.223513</ele>
        <time>2024-06-27T20:20:54.205Z</time>
      </trkpt>
      <trkpt lat="46.05821" lon="2.12962">
        <ele>468.626309</ele>
        <time>2024-06-27T20:20:56.085Z</time>
      </trkpt>
      <trkpt lat="46.05829" lon="2.12914">
        <ele>466.049802</ele>
        <time>2024-06-27T20:20:59.104Z</time>
      </trkpt>
      <trkpt lat="46.05827" lon="2.12894">
        <ele>464.981231</ele>
        <time>2024-06-27T20:21:00.358Z</time>
      </trkpt>
      <trkpt lat="46.05814" lon="2.12846">
        <ele>462.32481</ele>
        <time>2024-06-27T20:21:03.511Z</time>
      </trkpt>
      <trkpt lat="46.05798" lon="2.12699">
        <ele>456.812408</ele>
        <time>2024-06-27T20:21:12.941Z</time>
      </trkpt>
      <trkpt lat="46.05797" lon="2.1266">
        <ele>455.840619</ele>
        <time>2024-06-27T20:21:15.588Z</time>
      </trkpt>
      <trkpt lat="46.05804" lon="2.1263">
        <ele>455.069424</ele>
        <time>2024-06-27T20:21:17.800Z</time>
      </trkpt>
      <trkpt lat="46.05822" lon="2.12587">
        <ele>453.833663</ele>
        <time>2024-06-27T20:21:21.657Z</time>
      </trkpt>
      <trkpt lat="46.05861" lon="2.12505">
        <ele>451.771306</ele>
        <time>2024-06-27T20:21:30.846Z</time>
      </trkpt>
      <trkpt lat="46.05879" lon="2.12481">
        <ele>451.198353</ele>
        <time>2024-06-27T20:21:34.348Z</time>
      </trkpt>
      <trkpt lat="46.05898" lon="2.12467">
        <ele>450.697848</ele>
        <time>2024-06-27T20:21:37.033Z</time>
      </trkpt>
      <trkpt lat="46.05914" lon="2.12461">
        <ele>450.308525</ele>
        <time>2024-06-27T20:21:38.916Z</time>
      </trkpt>
      <trkpt lat="46.05929" lon="2.12469">
        <ele>449.942935</ele>
        <time>2024-06-27T20:21:40.604Z</time>
      </trkpt>
      <trkpt lat="46.05946" lon="2.12484">
        <ele>449.479223</ele>
        <time>2024-06-27T20:21:42.644Z</time>
      </trkpt>
      <trkpt lat="46.05957" lon="2.12488">
        <ele>449.226373</ele>
        <time>2024-06-27T20:21:43.720Z</time>
      </trkpt>
      <trkpt lat="46.05969" lon="2.12481">
        <ele>448.925514</ele>
        <time>2024-06-27T20:21:44.988Z</time>
      </trkpt>
      <trkpt lat="46.05974" lon="2.12466">
        <ele>448.654558</ele>
        <time>2024-06-27T20:21:46.106Z</time>
      </trkpt>
      <trkpt lat="46.05973" lon="2.12451">
        <ele>448.412743</ele>
        <time>2024-06-27T20:21:47.103Z</time>
      </trkpt>
      <trkpt lat="46.05964" lon="2.1244">
        <ele>447.952416</ele>
        <time>2024-06-27T20:21:48.209Z</time>
      </trkpt>
      <trkpt lat="46.05958" lon="2.12439">
        <ele>447.591668</ele>
        <time>2024-06-27T20:21:48.848Z</time>
      </trkpt>
      <trkpt lat="46.05939" lon="2.12446">
        <ele>446.558407</ele>
        <time>2024-06-27T20:21:50.675Z</time>
      </trkpt>
      <trkpt lat="46.05909" lon="2.12428">
        <ele>444.792402</ele>
        <time>2024-06-27T20:21:53.766Z</time>
      </trkpt>
      <trkpt lat="46.05891" lon="2.12422">
        <ele>443.805773</ele>
        <time>2024-06-27T20:21:55.465Z</time>
      </trkpt>
      <trkpt lat="46.05873" lon="2.12421">
        <ele>442.847307</ele>
        <time>2024-06-27T20:21:57.101Z</time>
      </trkpt>
      <trkpt lat="46.05853" lon="2.1243">
        <ele>441.7145</ele>
        <time>2024-06-27T20:21:59.042Z</time>
      </trkpt>
      <trkpt lat="46.05833" lon="2.12446">
        <ele>440.521496</ele>
        <time>2024-06-27T20:22:01.083Z</time>
      </trkpt>
      <trkpt lat="46.05743" lon="2.12566">
        <ele>434.349447</ele>
        <time>2024-06-27T20:22:12.586Z</time>
      </trkpt>
      <trkpt lat="46.05731" lon="2.12576">
        <ele>433.679528</ele>
        <time>2024-06-27T20:22:13.916Z</time>
      </trkpt>
      <trkpt lat="46.05717" lon="2.12581">
        <ele>432.938648</ele>
        <time>2024-06-27T20:22:15.383Z</time>
      </trkpt>
      <trkpt lat="46.05703" lon="2.12578">
        <ele>432.273094</ele>
        <time>2024-06-27T20:22:16.710Z</time>
      </trkpt>
      <trkpt lat="46.05693" lon="2.12562">
        <ele>431.525169</ele>
        <time>2024-06-27T20:22:18.197Z</time>
      </trkpt>
      <trkpt lat="46.05655" lon="2.12423">
        <ele>426.000637</ele>
        <time>2024-06-27T20:22:27.982Z</time>
      </trkpt>
      <trkpt lat="46.05644" lon="2.12375">
        <ele>424.084392</ele>
        <time>2024-06-27T20:22:31.198Z</time>
      </trkpt>
      <trkpt lat="46.0564" lon="2.12279">
        <ele>420.380279</ele>
        <time>2024-06-27T20:22:37.341Z</time>
      </trkpt>
      <trkpt lat="46.05642" lon="2.12269">
        <ele>419.982092</ele>
        <time>2024-06-27T20:22:37.991Z</time>
      </trkpt>
      <trkpt lat="46.05666" lon="2.1221">
        <ele>416.875441</ele>
        <time>2024-06-27T20:22:42.326Z</time>
      </trkpt>
      <trkpt lat="46.05675" lon="2.12194">
        <ele>415.937422</ele>
        <time>2024-06-27T20:22:43.640Z</time>
      </trkpt>
      <trkpt lat="46.05687" lon="2.12158">
        <ele>414.101808</ele>
        <time>2024-06-27T20:22:46.174Z</time>
      </trkpt>
      <trkpt lat="46.05694" lon="2.1213">
        <ele>412.772114</ele>
        <time>2024-06-27T20:22:48.021Z</time>
      </trkpt>
      <trkpt lat="46.05702" lon="2.12086">
        <ele>410.694015</ele>
        <time>2024-06-27T20:22:50.894Z</time>
      </trkpt>
      <trkpt lat="46.05699" lon="2.12051">
        <ele>409.13734</ele>
        <time>2024-06-27T20:22:53.034Z</time>
      </trkpt>
      <trkpt lat="46.05683" lon="2.12019">
        <ele>407.443999</ele>
        <time>2024-06-27T20:22:55.539Z</time>
      </trkpt>
      <trkpt lat="46.05672" lon="2.11994">
        <ele>406.315088</ele>
        <time>2024-06-27T20:22:57.405Z</time>
      </trkpt>
      <trkpt lat="46.0567" lon="2.11959">
        <ele>404.986066</ele>
        <time>2024-06-27T20:22:59.567Z</time>
      </trkpt>
      <trkpt lat="46.05673" lon="2.11938">
        <ele>404.14165</ele>
        <time>2024-06-27T20:23:00.968Z</time>
      </trkpt>
      <trkpt lat="46.05683" lon="2.11886">
        <ele>402.074454</ele>
        <time>2024-06-27T20:23:04.397Z</time>
      </trkpt>
      <trkpt lat="46.05694" lon="2.11849">
        <ele>400.50677</ele>
        <time>2024-06-27T20:23:07.055Z</time>
      </trkpt>
      <trkpt lat="46.05701" lon="2.11827">
        <ele>399.609689</ele>
        <time>2024-06-27T20:23:08.595Z</time>
      </trkpt>
      <trkpt lat="46.0571" lon="2.11807">
        <ele>398.670871</ele>
        <time>2024-06-27T20:23:10.264Z</time>
      </trkpt>
      <trkpt lat="46.05773" lon="2.11702">
        <ele>396.239702</ele>
        <time>2024-06-27T20:23:20.028Z</time>
      </trkpt>
      <trkpt lat="46.05781" lon="2.1168">
        <ele>395.847121</ele>
        <time>2024-06-27T20:23:22.008Z</time>
      </trkpt>
      <trkpt lat="46.05779" lon="2.11655">
        <ele>395.460989</ele>
        <time>2024-06-27T20:23:23.913Z</time>
      </trkpt>
      <trkpt lat="46.05774" lon="2.11641">
        <ele>395.210864</ele>
        <time>2024-06-27T20:23:25.302Z</time>
      </trkpt>
      <trkpt lat="46.05703" lon="2.11531">
        <ele>393.443535</ele>
        <time>2024-06-27T20:23:38.529Z</time>
      </trkpt>
      <trkpt lat="46.05687" lon="2.11495">
        <ele>393.07894</ele>
        <time>2024-06-27T20:23:42.207Z</time>
      </trkpt>
      <trkpt lat="46.05635" lon="2.11354">
        <ele>391.504546</ele>
        <time>2024-06-27T20:23:54.987Z</time>
      </trkpt>
      <trkpt lat="46.05627" lon="2.11339">
        <ele>391.208193</ele>
        <time>2024-06-27T20:23:56.453Z</time>
      </trkpt>
      <trkpt lat="46.05615" lon="2.11322">
        <ele>390.827911</ele>
        <time>2024-06-27T20:23:58.280Z</time>
      </trkpt>
      <trkpt lat="46.05612" lon="2.11317">
        <ele>390.728527</ele>
        <time>2024-06-27T20:23:58.758Z</time>
      </trkpt>
      <trkpt lat="46.05598" lon="2.1129">
        <ele>390.192866</ele>
        <time>2024-06-27T20:24:01.330Z</time>
      </trkpt>
      <trkpt lat="46.05588" lon="2.11263">
        <ele>389.722696</ele>
        <time>2024-06-27T20:24:03.558Z</time>
      </trkpt>
      <trkpt lat="46.05554" lon="2.11102">
        <ele>387.277156</ele>
        <time>2024-06-27T20:24:15.808Z</time>
      </trkpt>
      <trkpt lat="46.05547" lon="2.11075">
        <ele>386.947288</ele>
        <time>2024-06-27T20:24:17.900Z</time>
      </trkpt>
      <trkpt lat="46.05536" lon="2.1105">
        <ele>386.597315</ele>
        <time>2024-06-27T20:24:20.140Z</time>
      </trkpt>
      <trkpt lat="46.05381" lon="2.10767">
        <ele>383.591582</ele>
        <time>2024-06-27T20:24:50.244Z</time>
      </trkpt>
      <trkpt lat="46.05364" lon="2.10731">
        <ele>383.336388</ele>
        <time>2024-06-27T20:24:54.564Z</time>
      </trkpt>
      <trkpt lat="46.05355" lon="2.10698">
        <ele>383.274402</ele>
        <time>2024-06-27T20:24:58.288Z</time>
      </trkpt>
      <trkpt lat="46.05349" lon="2.1067">
        <ele>383.25311</ele>
        <time>2024-06-27T20:25:01.323Z</time>
      </trkpt>
      <trkpt lat="46.05347" lon="2.10618">
        <ele>383.215922</ele>
        <time>2024-06-27T20:25:06.675Z</time>
      </trkpt>
      <trkpt lat="46.05351" lon="2.10555">
        <ele>383.169786</ele>
        <time>2024-06-27T20:25:13.439Z</time>
      </trkpt>
      <trkpt lat="46.05358" lon="2.1048">
        <ele>383.114669</ele>
        <time>2024-06-27T20:25:21.527Z</time>
      </trkpt>
      <trkpt lat="46.05364" lon="2.10456">
        <ele>382.939642</ele>
        <time>2024-06-27T20:25:23.966Z</time>
      </trkpt>
      <trkpt lat="46.05393" lon="2.10385">
        <ele>382.02757</ele>
        <time>2024-06-27T20:25:30.999Z</time>
      </trkpt>
      <trkpt lat="46.05394" lon="2.10373">
        <ele>381.892249</ele>
        <time>2024-06-27T20:25:31.969Z</time>
      </trkpt>
      <trkpt lat="46.05391" lon="2.10362">
        <ele>381.75725</ele>
        <time>2024-06-27T20:25:32.923Z</time>
      </trkpt>
      <trkpt lat="46.05377" lon="2.10344">
        <ele>381.466037</ele>
        <time>2024-06-27T20:25:34.918Z</time>
      </trkpt>
      <trkpt lat="46.0536" lon="2.10322">
        <ele>381.097314</ele>
        <time>2024-06-27T20:25:37.430Z</time>
      </trkpt>
      <trkpt lat="46.05353" lon="2.10306">
        <ele>380.8944</ele>
        <time>2024-06-27T20:25:38.797Z</time>
      </trkpt>
      <trkpt lat="46.05349" lon="2.1029">
        <ele>380.696036</ele>
        <time>2024-06-27T20:25:40.131Z</time>
      </trkpt>
      <trkpt lat="46.05325" lon="2.10147">
        <ele>378.435541</ele>
        <time>2024-06-27T20:25:50.827Z</time>
      </trkpt>
      <trkpt lat="46.05302" lon="2.10005">
        <ele>375.93366</ele>
        <time>2024-06-27T20:26:01.393Z</time>
      </trkpt>
      <trkpt lat="46.05283" lon="2.09892">
        <ele>374.709484</ele>
        <time>2024-06-27T20:26:10.544Z</time>
      </trkpt>
      <trkpt lat="46.05268" lon="2.09786">
        <ele>373.641894</ele>
        <time>2024-06-27T20:26:19.322Z</time>
      </trkpt>
      <trkpt lat="46.05239" lon="2.09433">
        <ele>372.786955</ele>
        <time>2024-06-27T20:26:50.562Z</time>
      </trkpt>
      <trkpt lat="46.05237" lon="2.0942">
        <ele>372.997311</ele>
        <time>2024-06-27T20:26:51.998Z</time>
      </trkpt>
      <trkpt lat="46.05229" lon="2.09384">
        <ele>373.612949</ele>
        <time>2024-06-27T20:26:56.278Z</time>
      </trkpt>
      <trkpt lat="46.05213" lon="2.09322">
        <ele>374.702417</ele>
        <time>2024-06-27T20:27:05.142Z</time>
      </trkpt>
      <trkpt lat="46.05198" lon="2.09252">
        <ele>375.900448</ele>
        <time>2024-06-27T20:27:15.929Z</time>
      </trkpt>
      <trkpt lat="46.05183" lon="2.09221">
        <ele>377.213882</ele>
        <time>2024-06-27T20:27:22.043Z</time>
      </trkpt>
      <trkpt lat="46.05169" lon="2.09206">
        <ele>378.427884</ele>
        <time>2024-06-27T20:27:26.032Z</time>
      </trkpt>
      <trkpt lat="46.0511" lon="2.09161">
        <ele>382.992483</ele>
        <time>2024-06-27T20:27:44.141Z</time>
      </trkpt>
      <trkpt lat="46.05098" lon="2.09146">
        <ele>384.082008</ele>
        <time>2024-06-27T20:27:49.005Z</time>
      </trkpt>
      <trkpt lat="46.05079" lon="2.09122">
        <ele>385.822519</ele>
        <time>2024-06-27T20:27:55.323Z</time>
      </trkpt>
      <trkpt lat="46.05042" lon="2.09107">
        <ele>388.476628</ele>
        <time>2024-06-27T20:28:05.709Z</time>
      </trkpt>
      <trkpt lat="46.0503" lon="2.09093">
        <ele>389.441205</ele>
        <time>2024-06-27T20:28:09.959Z</time>
      </trkpt>
      <trkpt lat="46.0502" lon="2.09086">
        <ele>390.179775</ele>
        <time>2024-06-27T20:28:12.669Z</time>
      </trkpt>
      <trkpt lat="46.05013" lon="2.09086">
        <ele>390.63336</ele>
        <time>2024-06-27T20:28:14.525Z</time>
      </trkpt>
      <trkpt lat="46.05009" lon="2.09092">
        <ele>390.958877</ele>
        <time>2024-06-27T20:28:16.083Z</time>
      </trkpt>
      <trkpt lat="46.05009" lon="2.09107">
        <ele>391.600416</ele>
        <time>2024-06-27T20:28:18.563Z</time>
      </trkpt>
      <trkpt lat="46.05013" lon="2.09117">
        <ele>392.116087</ele>
        <time>2024-06-27T20:28:20.281Z</time>
      </trkpt>
      <trkpt lat="46.05035" lon="2.09146">
        <ele>394.017188</ele>
        <time>2024-06-27T20:28:27.827Z</time>
      </trkpt>
      <trkpt lat="46.0504" lon="2.0916">
        <ele>394.685042</ele>
        <time>2024-06-27T20:28:30.136Z</time>
      </trkpt>
      <trkpt lat="46.0504" lon="2.0922">
        <ele>397.293702</ele>
        <time>2024-06-27T20:28:40.792Z</time>
      </trkpt>
      <trkpt lat="46.05052" lon="2.09261">
        <ele>399.247206</ele>
        <time>2024-06-27T20:28:48.685Z</time>
      </trkpt>
      <trkpt lat="46.05055" lon="2.09283">
        <ele>400.066693</ele>
        <time>2024-06-27T20:28:52.535Z</time>
      </trkpt>
      <trkpt lat="46.0505" lon="2.09303">
        <ele>400.598487</ele>
        <time>2024-06-27T20:28:55.733Z</time>
      </trkpt>
      <trkpt lat="46.05041" lon="2.0932">
        <ele>401.126305</ele>
        <time>2024-06-27T20:28:58.646Z</time>
      </trkpt>
      <trkpt lat="46.05032" lon="2.09329">
        <ele>401.544057</ele>
        <time>2024-06-27T20:29:01.117Z</time>
      </trkpt>
      <trkpt lat="46.05018" lon="2.09333">
        <ele>402.071255</ele>
        <time>2024-06-27T20:29:04.091Z</time>
      </trkpt>
      <trkpt lat="46.05002" lon="2.09339">
        <ele>402.670069</ele>
        <time>2024-06-27T20:29:07.259Z</time>
      </trkpt>
      <trkpt lat="46.04995" lon="2.09329">
        <ele>403.026551</ele>
        <time>2024-06-27T20:29:09.225Z</time>
      </trkpt>
      <trkpt lat="46.04984" lon="2.09322">
        <ele>403.45858</ele>
        <time>2024-06-27T20:29:11.377Z</time>
      </trkpt>
      <trkpt lat="46.04924" lon="2.0929">
        <ele>405.836234</ele>
        <time>2024-06-27T20:29:24.129Z</time>
      </trkpt>
      <trkpt lat="46.04984" lon="2.09322">
        <ele>407.230095</ele>
        <time>2024-06-27T20:29:36.533Z</time>
      </trkpt>
      <trkpt lat="46.04995" lon="2.09329">
        <ele>407.423452</ele>
        <time>2024-06-27T20:29:38.576Z</time>
      </trkpt>
      <trkpt lat="46.05002" lon="2.09339">
        <ele>407.582997</ele>
        <time>2024-06-27T20:29:40.038Z</time>
      </trkpt>
      <trkpt lat="46.04993" lon="2.09344">
        <ele>407.736709</ele>
        <time>2024-06-27T20:29:41.772Z</time>
      </trkpt>
      <trkpt lat="46.04981" lon="2.09357">
        <ele>407.998543</ele>
        <time>2024-06-27T20:29:44.356Z</time>
      </trkpt>
      <trkpt lat="46.04956" lon="2.09399">
        <ele>408.626135</ele>
        <time>2024-06-27T20:29:50.447Z</time>
      </trkpt>
      <trkpt lat="46.04921" lon="2.09429">
        <ele>409.296918</ele>
        <time>2024-06-27T20:29:56.952Z</time>
      </trkpt>
      <trkpt lat="46.04909" lon="2.09436">
        <ele>409.570397</ele>
        <time>2024-06-27T20:29:59.308Z</time>
      </trkpt>
      <trkpt lat="46.0487" lon="2.09446">
        <ele>410.60757</ele>
        <time>2024-06-27T20:30:06.727Z</time>
      </trkpt>
      <trkpt lat="46.04836" lon="2.09468">
        <ele>411.586171</ele>
        <time>2024-06-27T20:30:14.188Z</time>
      </trkpt>
      <trkpt lat="46.04813" lon="2.09476">
        <ele>412.197953</ele>
        <time>2024-06-27T20:30:18.855Z</time>
      </trkpt>
      <trkpt lat="46.0479" lon="2.09477">
        <ele>412.778006</ele>
        <time>2024-06-27T20:30:23.246Z</time>
      </trkpt>
      <trkpt lat="46.04767" lon="2.09474">
        <ele>413.381461</ele>
        <time>2024-06-27T20:30:27.810Z</time>
      </trkpt>
      <trkpt lat="46.04726" lon="2.0946">
        <ele>414.460934</ele>
        <time>2024-06-27T20:30:35.972Z</time>
      </trkpt>
      <trkpt lat="46.04478" lon="2.09379">
        <ele>420.561541</ele>
        <time>2024-06-27T20:31:23.828Z</time>
      </trkpt>
      <trkpt lat="46.04407" lon="2.09352">
        <ele>422.151993</ele>
        <time>2024-06-27T20:31:36.988Z</time>
      </trkpt>
      <trkpt lat="46.04347" lon="2.09319">
        <ele>423.680491</ele>
        <time>2024-06-27T20:31:48.642Z</time>
      </trkpt>
      <trkpt lat="46.04252" lon="2.09257">
        <ele>426.237925</ele>
        <time>2024-06-27T20:32:08.689Z</time>
      </trkpt>
      <trkpt lat="46.04122" lon="2.09147">
        <ele>428.761658</ele>
        <time>2024-06-27T20:32:36.937Z</time>
      </trkpt>
      <trkpt lat="46.04088" lon="2.092">
        <ele>429.503619</ele>
        <time>2024-06-27T20:32:44.882Z</time>
      </trkpt>
      <trkpt lat="46.04076" lon="2.09235">
        <ele>429.166937</ele>
        <time>2024-06-27T20:32:48.649Z</time>
      </trkpt>
      <trkpt lat="46.04013" lon="2.0956">
        <ele>423.903078</ele>
        <time>2024-06-27T20:33:12.993Z</time>
      </trkpt>
      <trkpt lat="46.04001" lon="2.09593">
        <ele>423.289626</ele>
        <time>2024-06-27T20:33:15.624Z</time>
      </trkpt>
      <trkpt lat="46.03962" lon="2.09662">
        <ele>421.840486</ele>
        <time>2024-06-27T20:33:22.117Z</time>
      </trkpt>
      <trkpt lat="46.03959" lon="2.09676">
        <ele>421.590148</ele>
        <time>2024-06-27T20:33:23.358Z</time>
      </trkpt>
      <trkpt lat="46.03957" lon="2.09734">
        <ele>421.926276</ele>
        <time>2024-06-27T20:33:28.366Z</time>
      </trkpt>
      <trkpt lat="46.03949" lon="2.09766">
        <ele>422.2852</ele>
        <time>2024-06-27T20:33:31.837Z</time>
      </trkpt>
      <trkpt lat="46.03937" lon="2.09777">
        <ele>422.504215</ele>
        <time>2024-06-27T20:33:34.129Z</time>
      </trkpt>
      <trkpt lat="46.03914" lon="2.09789">
        <ele>422.882081</ele>
        <time>2024-06-27T20:33:38.329Z</time>
      </trkpt>
      <trkpt lat="46.03892" lon="2.09812">
        <ele>423.303708</ele>
        <time>2024-06-27T20:33:43.393Z</time>
      </trkpt>
      <trkpt lat="46.03781" lon="2.09958">
        <ele>427.790063</ele>
        <time>2024-06-27T20:34:14.968Z</time>
      </trkpt>
      <trkpt lat="46.03724" lon="2.1006">
        <ele>431.232634</ele>
        <time>2024-06-27T20:34:34.280Z</time>
      </trkpt>
      <trkpt lat="46.0371" lon="2.10073">
        <ele>431.508212</ele>
        <time>2024-06-27T20:34:37.496Z</time>
      </trkpt>
      <trkpt lat="46.03647" lon="2.10116">
        <ele>432.703598</ele>
        <time>2024-06-27T20:34:50.176Z</time>
      </trkpt>
      <trkpt lat="46.03617" lon="2.10145">
        <ele>433.321326</ele>
        <time>2024-06-27T20:34:56.096Z</time>
      </trkpt>
      <trkpt lat="46.03589" lon="2.10183">
        <ele>433.991075</ele>
        <time>2024-06-27T20:35:02.357Z</time>
      </trkpt>
      <trkpt lat="46.03529" lon="2.10283">
        <ele>434.91978</ele>
        <time>2024-06-27T20:35:16.916Z</time>
      </trkpt>
      <trkpt lat="46.03493" lon="2.10321">
        <ele>435.320696</ele>
        <time>2024-06-27T20:35:24.169Z</time>
      </trkpt>
      <trkpt lat="46.03456" lon="2.10355">
        <ele>435.70896</ele>
        <time>2024-06-27T20:35:31.377Z</time>
      </trkpt>
      <trkpt lat="46.03438" lon="2.10365">
        <ele>435.881634</ele>
        <time>2024-06-27T20:35:34.791Z</time>
      </trkpt>
      <trkpt lat="46.03419" lon="2.10372">
        <ele>436.086775</ele>
        <time>2024-06-27T20:35:38.464Z</time>
      </trkpt>
      <trkpt lat="46.03384" lon="2.10375">
        <ele>436.446861</ele>
        <time>2024-06-27T20:35:44.604Z</time>
      </trkpt>
      <trkpt lat="46.03327" lon="2.10376">
        <ele>437.034675</ele>
        <time>2024-06-27T20:35:54.189Z</time>
      </trkpt>
      <trkpt lat="46.03306" lon="2.10385">
        <ele>437.265588</ele>
        <time>2024-06-27T20:35:58.071Z</time>
      </trkpt>
      <trkpt lat="46.03292" lon="2.10397">
        <ele>437.435296</ele>
        <time>2024-06-27T20:36:00.731Z</time>
      </trkpt>
      <trkpt lat="46.03285" lon="2.10415">
        <ele>437.589214</ele>
        <time>2024-06-27T20:36:03.116Z</time>
      </trkpt>
      <trkpt lat="46.03282" lon="2.10449">
        <ele>437.438817</ele>
        <time>2024-06-27T20:36:06.678Z</time>
      </trkpt>
      <trkpt lat="46.03286" lon="2.10507">
        <ele>436.630435</ele>
        <time>2024-06-27T20:36:11.872Z</time>
      </trkpt>
      <trkpt lat="46.03285" lon="2.10537">
        <ele>436.222698</ele>
        <time>2024-06-27T20:36:14.183Z</time>
      </trkpt>
      <trkpt lat="46.03294" lon="2.10578">
        <ele>435.630021</ele>
        <time>2024-06-27T20:36:17.866Z</time>
      </trkpt>
      <trkpt lat="46.03322" lon="2.10667">
        <ele>434.272702</ele>
        <time>2024-06-27T20:36:24.660Z</time>
      </trkpt>
      <trkpt lat="46.0332" lon="2.10686">
        <ele>433.783198</ele>
        <time>2024-06-27T20:36:25.883Z</time>
      </trkpt>
      <trkpt lat="46.03313" lon="2.10702">
        <ele>432.957773</ele>
        <time>2024-06-27T20:36:27.189Z</time>
      </trkpt>
      <trkpt lat="46.03278" lon="2.10736">
        <ele>430.256735</ele>
        <time>2024-06-27T20:36:31.236Z</time>
      </trkpt>
      <trkpt lat="46.03273" lon="2.10744">
        <ele>429.79341</ele>
        <time>2024-06-27T20:36:31.912Z</time>
      </trkpt>
      <trkpt lat="46.03181" lon="2.10962">
        <ele>418.012295</ele>
        <time>2024-06-27T20:36:47.655Z</time>
      </trkpt>
      <trkpt lat="46.03176" lon="2.10999">
        <ele>416.122498</ele>
        <time>2024-06-27T20:36:49.988Z</time>
      </trkpt>
      <trkpt lat="46.03186" lon="2.11052">
        <ele>413.413011</ele>
        <time>2024-06-27T20:36:53.376Z</time>
      </trkpt>
      <trkpt lat="46.03186" lon="2.11063">
        <ele>412.864253</ele>
        <time>2024-06-27T20:36:54.072Z</time>
      </trkpt>
      <trkpt lat="46.0318" lon="2.11084">
        <ele>411.744366</ele>
        <time>2024-06-27T20:36:55.483Z</time>
      </trkpt>
      <trkpt lat="46.03144" lon="2.11124">
        <ele>409.10855</ele>
        <time>2024-06-27T20:36:59.734Z</time>
      </trkpt>
      <trkpt lat="46.03127" lon="2.11136">
        <ele>408.360197</ele>
        <time>2024-06-27T20:37:01.555Z</time>
      </trkpt>
      <trkpt lat="46.03116" lon="2.1114">
        <ele>407.912217</ele>
        <time>2024-06-27T20:37:02.630Z</time>
      </trkpt>
      <trkpt lat="46.03048" lon="2.11152">
        <ele>405.24993</ele>
        <time>2024-06-27T20:37:09.271Z</time>
      </trkpt>
      <trkpt lat="46.03024" lon="2.1114">
        <ele>404.273431</ele>
        <time>2024-06-27T20:37:11.895Z</time>
      </trkpt>
      <trkpt lat="46.03015" lon="2.11139">
        <ele>403.918605</ele>
        <time>2024-06-27T20:37:12.827Z</time>
      </trkpt>
      <trkpt lat="46.02993" lon="2.11147">
        <ele>403.036234</ele>
        <time>2024-06-27T20:37:15.290Z</time>
      </trkpt>
      <trkpt lat="46.02981" lon="2.11162">
        <ele>402.574373</ele>
        <time>2024-06-27T20:37:17.032Z</time>
      </trkpt>
      <trkpt lat="46.02965" lon="2.112">
        <ele>401.851208</ele>
        <time>2024-06-27T20:37:20.534Z</time>
      </trkpt>
      <trkpt lat="46.0293" lon="2.1123">
        <ele>400.894553</ele>
        <time>2024-06-27T20:37:25.039Z</time>
      </trkpt>
      <trkpt lat="46.02916" lon="2.11249">
        <ele>400.441703</ele>
        <time>2024-06-27T20:37:27.174Z</time>
      </trkpt>
      <trkpt lat="46.02911" lon="2.11263">
        <ele>400.193095</ele>
        <time>2024-06-27T20:37:28.308Z</time>
      </trkpt>
      <trkpt lat="46.02908" lon="2.11289">
        <ele>399.76143</ele>
        <time>2024-06-27T20:37:30.128Z</time>
      </trkpt>
      <trkpt lat="46.02911" lon="2.11392">
        <ele>398.276736</ele>
        <time>2024-06-27T20:37:37.510Z</time>
      </trkpt>
      <trkpt lat="46.02908" lon="2.11439">
        <ele>397.813652</ele>
        <time>2024-06-27T20:37:41.107Z</time>
      </trkpt>
      <trkpt lat="46.02903" lon="2.11472">
        <ele>397.473956</ele>
        <time>2024-06-27T20:37:43.901Z</time>
      </trkpt>
      <trkpt lat="46.02896" lon="2.11495">
        <ele>397.229065</ele>
        <time>2024-06-27T20:37:45.880Z</time>
      </trkpt>
      <trkpt lat="46.02893" lon="2.11505">
        <ele>397.115401</ele>
        <time>2024-06-27T20:37:46.821Z</time>
      </trkpt>
      <trkpt lat="46.02884" lon="2.11518">
        <ele>396.946699</ele>
        <time>2024-06-27T20:37:48.327Z</time>
      </trkpt>
      <trkpt lat="46.02876" lon="2.11525">
        <ele>396.809874</ele>
        <time>2024-06-27T20:37:49.444Z</time>
      </trkpt>
      <trkpt lat="46.02826" lon="2.11539">
        <ele>396.09048</ele>
        <time>2024-06-27T20:37:55.824Z</time>
      </trkpt>
      <trkpt lat="46.02746" lon="2.11582">
        <ele>396.713407</ele>
        <time>2024-06-27T20:38:09.458Z</time>
      </trkpt>
      <trkpt lat="46.02731" lon="2.11594">
        <ele>396.85916</ele>
        <time>2024-06-27T20:38:12.548Z</time>
      </trkpt>
      <trkpt lat="46.0264" lon="2.11724">
        <ele>397.919919</ele>
        <time>2024-06-27T20:38:34.908Z</time>
      </trkpt>
      <trkpt lat="46.02618" lon="2.1176">
        <ele>398.202005</ele>
        <time>2024-06-27T20:38:40.437Z</time>
      </trkpt>
      <trkpt lat="46.02584" lon="2.11826">
        <ele>398.679053</ele>
        <time>2024-06-27T20:38:49.629Z</time>
      </trkpt>
      <trkpt lat="46.0257" lon="2.11847">
        <ele>398.848366</ele>
        <time>2024-06-27T20:38:52.873Z</time>
      </trkpt>
      <trkpt lat="46.02549" lon="2.1187">
        <ele>399.005158</ele>
        <time>2024-06-27T20:38:56.439Z</time>
      </trkpt>
      <trkpt lat="46.02502" lon="2.11904">
        <ele>398.721458</ele>
        <time>2024-06-27T20:39:04.278Z</time>
      </trkpt>
      <trkpt lat="46.02443" lon="2.11942">
        <ele>398.375855</ele>
        <time>2024-06-27T20:39:12.176Z</time>
      </trkpt>
      <trkpt lat="46.02281" lon="2.12104">
        <ele>396.980133</ele>
        <time>2024-06-27T20:39:37.296Z</time>
      </trkpt>
      <trkpt lat="46.02226" lon="2.12154">
        <ele>396.465782</ele>
        <time>2024-06-27T20:39:45.384Z</time>
      </trkpt>
      <trkpt lat="46.02161" lon="2.12207">
        <ele>395.854147</ele>
        <time>2024-06-27T20:39:54.671Z</time>
      </trkpt>
      <trkpt lat="46.02122" lon="2.12228">
        <ele>395.509401</ele>
        <time>2024-06-27T20:39:59.763Z</time>
      </trkpt>
      <trkpt lat="46.02096" lon="2.12237">
        <ele>395.290877</ele>
        <time>2024-06-27T20:40:03.003Z</time>
      </trkpt>
      <trkpt lat="46.02071" lon="2.12239">
        <ele>395.479743</ele>
        <time>2024-06-27T20:40:06.104Z</time>
      </trkpt>
      <trkpt lat="46.0201" lon="2.12227">
        <ele>396.891016</ele>
        <time>2024-06-27T20:40:15.583Z</time>
      </trkpt>
      <trkpt lat="46.01968" lon="2.12215">
        <ele>397.850694</ele>
        <time>2024-06-27T20:40:22.875Z</time>
      </trkpt>
      <trkpt lat="46.01821" lon="2.12143">
        <ele>405.632983</ele>
        <time>2024-06-27T20:40:59.738Z</time>
      </trkpt>
      <trkpt lat="46.01796" lon="2.12125">
        <ele>407.57855</ele>
        <time>2024-06-27T20:41:07.939Z</time>
      </trkpt>
      <trkpt lat="46.01778" lon="2.12108">
        <ele>409.01496</ele>
        <time>2024-06-27T20:41:13.950Z</time>
      </trkpt>
      <trkpt lat="46.01765" lon="2.12103">
        <ele>409.977376</ele>
        <time>2024-06-27T20:41:17.816Z</time>
      </trkpt>
      <trkpt lat="46.01751" lon="2.121">
        <ele>410.890248</ele>
        <time>2024-06-27T20:41:21.535Z</time>
      </trkpt>
      <trkpt lat="46.01733" lon="2.12104">
        <ele>412.158756</ele>
        <time>2024-06-27T20:41:26.717Z</time>
      </trkpt>
      <trkpt lat="46.01713" lon="2.12114">
        <ele>413.583397</ele>
        <time>2024-06-27T20:41:32.471Z</time>
      </trkpt>
      <trkpt lat="46.0168" lon="2.12137">
        <ele>416.114926</ele>
        <time>2024-06-27T20:41:42.502Z</time>
      </trkpt>
      <trkpt lat="46.01592" lon="2.12205">
        <ele>422.851795</ele>
        <time>2024-06-27T20:42:07.898Z</time>
      </trkpt>
      <trkpt lat="46.01564" lon="2.12237">
        <ele>424.300207</ele>
        <time>2024-06-27T20:42:15.827Z</time>
      </trkpt>
      <trkpt lat="46.01547" lon="2.12275">
        <ele>424.989516</ele>
        <time>2024-06-27T20:42:22.412Z</time>
      </trkpt>
      <trkpt lat="46.01537" lon="2.12286">
        <ele>425.276478</ele>
        <time>2024-06-27T20:42:25.094Z</time>
      </trkpt>
      <trkpt lat="46.0152" lon="2.12281">
        <ele>425.646523</ele>
        <time>2024-06-27T20:42:28.365Z</time>
      </trkpt>
      <trkpt lat="46.015" lon="2.1226">
        <ele>426.192686</ele>
        <time>2024-06-27T20:42:33.103Z</time>
      </trkpt>
      <trkpt lat="46.01494" lon="2.1226">
        <ele>426.33547</ele>
        <time>2024-06-27T20:42:34.279Z</time>
      </trkpt>
      <trkpt lat="46.01487" lon="2.12267">
        <ele>426.515442</ele>
        <time>2024-06-27T20:42:35.751Z</time>
      </trkpt>
      <trkpt lat="46.01483" lon="2.12278">
        <ele>426.706359</ele>
        <time>2024-06-27T20:42:37.295Z</time>
      </trkpt>
      <trkpt lat="46.0148" lon="2.12293">
        <ele>426.94803</ele>
        <time>2024-06-27T20:42:39.159Z</time>
      </trkpt>
      <trkpt lat="46.01479" lon="2.12365">
        <ele>427.32165</ele>
        <time>2024-06-27T20:42:45.585Z</time>
      </trkpt>
      <trkpt lat="46.01487" lon="2.12418">
        <ele>425.816149</ele>
        <time>2024-06-27T20:42:49.398Z</time>
      </trkpt>
      <trkpt lat="46.01487" lon="2.12435">
        <ele>425.325585</ele>
        <time>2024-06-27T20:42:50.573Z</time>
      </trkpt>
      <trkpt lat="46.01477" lon="2.12484">
        <ele>423.909372</ele>
        <time>2024-06-27T20:42:53.822Z</time>
      </trkpt>
      <trkpt lat="46.01478" lon="2.12514">
        <ele>423.084285</ele>
        <time>2024-06-27T20:42:55.678Z</time>
      </trkpt>
      <trkpt lat="46.01474" lon="2.12524">
        <ele>422.763086</ele>
        <time>2024-06-27T20:42:56.410Z</time>
      </trkpt>
      <trkpt lat="46.01526" lon="2.12546">
        <ele>420.606561</ele>
        <time>2024-06-27T20:43:47.816Z</time>
      </trkpt>
      <trkpt lat="46.0158" lon="2.12554">
        <ele>420.491076</ele>
        <time>2024-06-27T20:44:43.747Z</time>
      </trkpt>
      <trkpt lat="46.01598" lon="2.12549">
        <ele>420.464151</ele>
        <time>2024-06-27T20:45:03.078Z</time>
      </trkpt>
      <trkpt lat="46.0158" lon="2.12554">
        <ele>420.437226</ele>
        <time>2024-06-27T20:45:21.710Z</time>
      </trkpt>
      <trkpt lat="46.01526" lon="2.12546">
        <ele>420.358874</ele>
        <time>2024-06-27T20:46:15.962Z</time>
      </trkpt>
      <trkpt lat="46.01474" lon="2.12524">
        <ele>420.504195</ele>
        <time>2024-06-27T20:47:09.915Z</time>
      </trkpt>
      <trkpt lat="46.01466" lon="2.12531">
        <ele>420.607261</ele>
        <time>2024-06-27T20:47:11.573Z</time>
      </trkpt>
      <trkpt lat="46.01454" lon="2.1253">
        <ele>420.736443</ele>
        <time>2024-06-27T20:47:14.029Z</time>
      </trkpt>
      <trkpt lat="46.01418" lon="2.12519">
        <ele>421.147921</ele>
        <time>2024-06-27T20:47:21.630Z</time>
      </trkpt>
      <trkpt lat="46.01379" lon="2.12521">
        <ele>421.566367</ele>
        <time>2024-06-27T20:47:28.519Z</time>
      </trkpt>
      <trkpt lat="46.01333" lon="2.12544">
        <ele>422.101203</ele>
        <time>2024-06-27T20:47:35.457Z</time>
      </trkpt>
      <trkpt lat="46.01321" lon="2.12547">
        <ele>422.23401</ele>
        <time>2024-06-27T20:47:36.765Z</time>
      </trkpt>
      <trkpt lat="46.01212" lon="2.12531">
        <ele>419.30665</ele>
        <time>2024-06-27T20:47:47.760Z</time>
      </trkpt>
      <trkpt lat="46.01188" lon="2.12535">
        <ele>418.623361</ele>
        <time>2024-06-27T20:47:50.207Z</time>
      </trkpt>
      <trkpt lat="46.01154" lon="2.12547">
        <ele>417.636047</ele>
        <time>2024-06-27T20:47:53.886Z</time>
      </trkpt>
      <trkpt lat="46.01121" lon="2.12567">
        <ele>416.720694</ele>
        <time>2024-06-27T20:47:57.697Z</time>
      </trkpt>
      <trkpt lat="46.01091" lon="2.1259">
        <ele>415.896332</ele>
        <time>2024-06-27T20:48:01.326Z</time>
      </trkpt>
      <trkpt lat="46.01074" lon="2.12611">
        <ele>415.351851</ele>
        <time>2024-06-27T20:48:03.628Z</time>
      </trkpt>
      <trkpt lat="46.01063" lon="2.12618">
        <ele>415.073808</ele>
        <time>2024-06-27T20:48:04.865Z</time>
      </trkpt>
      <trkpt lat="46.01023" lon="2.12631">
        <ele>414.084563</ele>
        <time>2024-06-27T20:48:09.182Z</time>
      </trkpt>
      <trkpt lat="46.0098" lon="2.12651">
        <ele>412.992553</ele>
        <time>2024-06-27T20:48:14.028Z</time>
      </trkpt>
      <trkpt lat="46.00939" lon="2.12658">
        <ele>412.797824</ele>
        <time>2024-06-27T20:48:18.681Z</time>
      </trkpt>
      <trkpt lat="46.00936" lon="2.12662">
        <ele>412.786448</ele>
        <time>2024-06-27T20:48:19.130Z</time>
      </trkpt>
      <trkpt lat="46.00852" lon="2.12749">
        <ele>412.518252</ele>
        <time>2024-06-27T20:48:33.757Z</time>
      </trkpt>
      <trkpt lat="46.0076" lon="2.12878">
        <ele>413.671234</ele>
        <time>2024-06-27T20:48:56.488Z</time>
      </trkpt>
      <trkpt lat="46.0074" lon="2.12898">
        <ele>413.994632</ele>
        <time>2024-06-27T20:49:00.855Z</time>
      </trkpt>
      <trkpt lat="46.00705" lon="2.12924">
        <ele>414.515904</ele>
        <time>2024-06-27T20:49:07.759Z</time>
      </trkpt>
      <trkpt lat="46.00674" lon="2.12955">
        <ele>414.649088</ele>
        <time>2024-06-27T20:49:13.899Z</time>
      </trkpt>
      <trkpt lat="46.00637" lon="2.13005">
        <ele>414.071878</ele>
        <time>2024-06-27T20:49:21.347Z</time>
      </trkpt>
      <trkpt lat="46.00467" lon="2.13278">
        <ele>409.886104</ele>
        <time>2024-06-27T20:49:48.921Z</time>
      </trkpt>
      <trkpt lat="46.00401" lon="2.13374">
        <ele>408.635979</ele>
        <time>2024-06-27T20:49:59.257Z</time>
      </trkpt>
      <trkpt lat="46.00265" lon="2.13543">
        <ele>408.500697</ele>
        <time>2024-06-27T20:50:24.180Z</time>
      </trkpt>
      <trkpt lat="46.00218" lon="2.13609">
        <ele>409.545456</ele>
        <time>2024-06-27T20:50:36.487Z</time>
      </trkpt>
      <trkpt lat="46.00203" lon="2.13627">
        <ele>409.85776</ele>
        <time>2024-06-27T20:50:40.365Z</time>
      </trkpt>
      <trkpt lat="46.00189" lon="2.13637">
        <ele>410.09566</ele>
        <time>2024-06-27T20:50:43.323Z</time>
      </trkpt>
      <trkpt lat="46.0002" lon="2.13684">
        <ele>412.711935</ele>
        <time>2024-06-27T20:51:15.308Z</time>
      </trkpt>
      <trkpt lat="45.99923" lon="2.13743">
        <ele>412.347705</ele>
        <time>2024-06-27T20:51:27.876Z</time>
      </trkpt>
      <trkpt lat="45.99884" lon="2.13771">
        <ele>411.82467</ele>
        <time>2024-06-27T20:51:32.662Z</time>
      </trkpt>
      <trkpt lat="45.99861" lon="2.13783">
        <ele>411.543494</ele>
        <time>2024-06-27T20:51:35.251Z</time>
      </trkpt>
      <trkpt lat="45.99847" lon="2.13786">
        <ele>411.371585</ele>
        <time>2024-06-27T20:51:36.864Z</time>
      </trkpt>
      <trkpt lat="45.99813" lon="2.13787">
        <ele>411.306773</ele>
        <time>2024-06-27T20:51:40.904Z</time>
      </trkpt>
      <trkpt lat="45.99788" lon="2.13803">
        <ele>412.006838</ele>
        <time>2024-06-27T20:51:44.694Z</time>
      </trkpt>
      <trkpt lat="45.99774" lon="2.13815">
        <ele>412.420759</ele>
        <time>2024-06-27T20:51:47.267Z</time>
      </trkpt>
      <trkpt lat="45.99719" lon="2.13861">
        <ele>414.059873</ele>
        <time>2024-06-27T20:51:59.428Z</time>
      </trkpt>
      <trkpt lat="45.9968" lon="2.13882">
        <ele>415.131733</ele>
        <time>2024-06-27T20:52:09.062Z</time>
      </trkpt>
      <trkpt lat="45.99654" lon="2.13901">
        <ele>415.879958</ele>
        <time>2024-06-27T20:52:16.115Z</time>
      </trkpt>
      <trkpt lat="45.99623" lon="2.13914">
        <ele>416.690787</ele>
        <time>2024-06-27T20:52:23.512Z</time>
      </trkpt>
      <trkpt lat="45.9957" lon="2.13928">
        <ele>418.044073</ele>
        <time>2024-06-27T20:52:34.269Z</time>
      </trkpt>
      <trkpt lat="45.99554" lon="2.13939">
        <ele>418.488674</ele>
        <time>2024-06-27T20:52:37.365Z</time>
      </trkpt>
      <trkpt lat="45.99541" lon="2.13961">
        <ele>418.98647</ele>
        <time>2024-06-27T20:52:40.678Z</time>
      </trkpt>
      <trkpt lat="45.9953" lon="2.13991">
        <ele>419.571546</ele>
        <time>2024-06-27T20:52:44.425Z</time>
      </trkpt>
      <trkpt lat="45.99523" lon="2.14023">
        <ele>420.157317</ele>
        <time>2024-06-27T20:52:48.167Z</time>
      </trkpt>
      <trkpt lat="45.99521" lon="2.14061">
        <ele>419.910784</ele>
        <time>2024-06-27T20:52:52.146Z</time>
      </trkpt>
      <trkpt lat="45.99535" lon="2.14153">
        <ele>419.137176</ele>
        <time>2024-06-27T20:53:00.221Z</time>
      </trkpt>
      <trkpt lat="45.99536" lon="2.14188">
        <ele>418.850618</ele>
        <time>2024-06-27T20:53:02.883Z</time>
      </trkpt>
      <trkpt lat="45.99533" lon="2.14224">
        <ele>418.557611</ele>
        <time>2024-06-27T20:53:05.486Z</time>
      </trkpt>
      <trkpt lat="45.9952" lon="2.14265">
        <ele>418.187498</ele>
        <time>2024-06-27T20:53:08.818Z</time>
      </trkpt>
      <trkpt lat="45.99475" lon="2.14369">
        <ele>417.642381</ele>
        <time>2024-06-27T20:53:19.031Z</time>
      </trkpt>
      <trkpt lat="45.99417" lon="2.14512">
        <ele>417.04064</ele>
        <time>2024-06-27T20:53:36.883Z</time>
      </trkpt>
      <trkpt lat="45.994" lon="2.14539">
        <ele>417.029356</ele>
        <time>2024-06-27T20:53:40.319Z</time>
      </trkpt>
      <trkpt lat="45.99374" lon="2.14564">
        <ele>417.015266</ele>
        <time>2024-06-27T20:53:44.340Z</time>
      </trkpt>
      <trkpt lat="45.99331" lon="2.14594">
        <ele>416.994288</ele>
        <time>2024-06-27T20:53:50.665Z</time>
      </trkpt>
      <trkpt lat="45.99222" lon="2.14646">
        <ele>417.253522</ele>
        <time>2024-06-27T20:54:09.053Z</time>
      </trkpt>
      <trkpt lat="45.9911" lon="2.14693">
        <ele>417.922676</ele>
        <time>2024-06-27T20:54:27.823Z</time>
      </trkpt>
      <trkpt lat="45.99069" lon="2.14727">
        <ele>417.912584</ele>
        <time>2024-06-27T20:54:35.387Z</time>
      </trkpt>
      <trkpt lat="45.9899" lon="2.1478">
        <ele>417.696113</ele>
        <time>2024-06-27T20:54:47.596Z</time>
      </trkpt>
      <trkpt lat="45.98954" lon="2.14801">
        <ele>417.598846</ele>
        <time>2024-06-27T20:54:52.611Z</time>
      </trkpt>
      <trkpt lat="45.98908" lon="2.14821">
        <ele>417.504451</ele>
        <time>2024-06-27T20:54:58.576Z</time>
      </trkpt>
      <trkpt lat="45.98877" lon="2.1483">
        <ele>417.45307</ele>
        <time>2024-06-27T20:55:02.510Z</time>
      </trkpt>
      <trkpt lat="45.98847" lon="2.14832">
        <ele>417.404778</ele>
        <time>2024-06-27T20:55:06.195Z</time>
      </trkpt>
      <trkpt lat="45.98829" lon="2.14824">
        <ele>417.374237</ele>
        <time>2024-06-27T20:55:08.450Z</time>
      </trkpt>
      <trkpt lat="45.98816" lon="2.14815">
        <ele>417.349675</ele>
        <time>2024-06-27T20:55:10.254Z</time>
      </trkpt>
      <trkpt lat="45.98732" lon="2.14733">
        <ele>418.367402</ele>
        <time>2024-06-27T20:55:27.411Z</time>
      </trkpt>
      <trkpt lat="45.98696" lon="2.14695">
        <ele>419.458437</ele>
        <time>2024-06-27T20:55:36.368Z</time>
      </trkpt>
      <trkpt lat="45.98615" lon="2.14638">
        <ele>421.642649</ele>
        <time>2024-06-27T20:55:54.257Z</time>
      </trkpt>
      <trkpt lat="45.98587" lon="2.14613">
        <ele>421.777883</ele>
        <time>2024-06-27T20:56:00.069Z</time>
      </trkpt>
      <trkpt lat="45.98571" lon="2.14609">
        <ele>421.844575</ele>
        <time>2024-06-27T20:56:02.705Z</time>
      </trkpt>
      <trkpt lat="45.98554" lon="2.14611">
        <ele>421.913837</ele>
        <time>2024-06-27T20:56:05.570Z</time>
      </trkpt>
      <trkpt lat="45.98525" lon="2.14627">
        <ele>422.045004</ele>
        <time>2024-06-27T20:56:10.692Z</time>
      </trkpt>
      <trkpt lat="45.9849" lon="2.14665">
        <ele>422.224984</ele>
        <time>2024-06-27T20:56:16.659Z</time>
      </trkpt>
      <trkpt lat="45.98444" lon="2.14747">
        <ele>422.185179</ele>
        <time>2024-06-27T20:56:25.119Z</time>
      </trkpt>
      <trkpt lat="45.98438" lon="2.14768">
        <ele>422.095876</ele>
        <time>2024-06-27T20:56:26.865Z</time>
      </trkpt>
      <trkpt lat="45.98438" lon="2.14828">
        <ele>421.858165</ele>
        <time>2024-06-27T20:56:31.723Z</time>
      </trkpt>
      <trkpt lat="45.98435" lon="2.14845">
        <ele>421.791276</ele>
        <time>2024-06-27T20:56:33.130Z</time>
      </trkpt>
      <trkpt lat="45.98418" lon="2.14898">
        <ele>421.557371</ele>
        <time>2024-06-27T20:56:38.814Z</time>
      </trkpt>
      <trkpt lat="45.98394" lon="2.14929">
        <ele>421.375556</ele>
        <time>2024-06-27T20:56:43.952Z</time>
      </trkpt>
      <trkpt lat="45.98339" lon="2.1497">
        <ele>422.629187</ele>
        <time>2024-06-27T20:56:54.822Z</time>
      </trkpt>
      <trkpt lat="45.98285" lon="2.15013">
        <ele>423.95122</ele>
        <time>2024-06-27T20:57:06.349Z</time>
      </trkpt>
      <trkpt lat="45.98266" lon="2.15024">
        <ele>424.391524</ele>
        <time>2024-06-27T20:57:10.304Z</time>
      </trkpt>
      <trkpt lat="45.98225" lon="2.15035">
        <ele>425.356332</ele>
        <time>2024-06-27T20:57:18.429Z</time>
      </trkpt>
      <trkpt lat="45.98203" lon="2.15034">
        <ele>426.307011</ele>
        <time>2024-06-27T20:57:22.853Z</time>
      </trkpt>
      <trkpt lat="45.98191" lon="2.15031">
        <ele>426.819285</ele>
        <time>2024-06-27T20:57:25.199Z</time>
      </trkpt>
      <trkpt lat="45.98166" lon="2.15014">
        <ele>428.020176</ele>
        <time>2024-06-27T20:57:30.840Z</time>
      </trkpt>
      <trkpt lat="45.98135" lon="2.15004">
        <ele>429.396419</ele>
        <time>2024-06-27T20:57:37.545Z</time>
      </trkpt>
      <trkpt lat="45.98124" lon="2.14997">
        <ele>429.879806</ele>
        <time>2024-06-27T20:57:39.948Z</time>
      </trkpt>
      <trkpt lat="45.98051" lon="2.14921">
        <ele>434.083652</ele>
        <time>2024-06-27T20:58:00.809Z</time>
      </trkpt>
      <trkpt lat="45.98036" lon="2.14917">
        <ele>434.953124</ele>
        <time>2024-06-27T20:58:04.431Z</time>
      </trkpt>
      <trkpt lat="45.9801" lon="2.14926">
        <ele>436.498209</ele>
        <time>2024-06-27T20:58:10.924Z</time>
      </trkpt>
      <trkpt lat="45.97993" lon="2.14929">
        <ele>437.500115</ele>
        <time>2024-06-27T20:58:15.153Z</time>
      </trkpt>
      <trkpt lat="45.97981" lon="2.14925">
        <ele>438.211273</ele>
        <time>2024-06-27T20:58:18.159Z</time>
      </trkpt>
      <trkpt lat="45.97971" lon="2.14915">
        <ele>438.91235</ele>
        <time>2024-06-27T20:58:21.055Z</time>
      </trkpt>
      <trkpt lat="45.97951" lon="2.14871">
        <ele>441.017919</ele>
        <time>2024-06-27T20:58:29.822Z</time>
      </trkpt>
      <trkpt lat="45.97945" lon="2.14862">
        <ele>441.502849</ele>
        <time>2024-06-27T20:58:31.855Z</time>
      </trkpt>
      <trkpt lat="45.97937" lon="2.14855">
        <ele>442.04478</ele>
        <time>2024-06-27T20:58:34.111Z</time>
      </trkpt>
      <trkpt lat="45.97928" lon="2.14853">
        <ele>442.588248</ele>
        <time>2024-06-27T20:58:36.356Z</time>
      </trkpt>
      <trkpt lat="45.9792" lon="2.14853">
        <ele>443.057154</ele>
        <time>2024-06-27T20:58:38.244Z</time>
      </trkpt>
      <trkpt lat="45.97896" lon="2.14866">
        <ele>444.397322</ele>
        <time>2024-06-27T20:58:44.241Z</time>
      </trkpt>
      <trkpt lat="45.97881" lon="2.14869">
        <ele>445.165604</ele>
        <time>2024-06-27T20:58:47.740Z</time>
      </trkpt>
      <trkpt lat="45.97792" lon="2.14843">
        <ele>449.774384</ele>
        <time>2024-06-27T20:59:08.522Z</time>
      </trkpt>
      <trkpt lat="45.97784" lon="2.14845">
        <ele>450.190633</ele>
        <time>2024-06-27T20:59:10.432Z</time>
      </trkpt>
      <trkpt lat="45.97686" lon="2.14894">
        <ele>453.442932</ele>
        <time>2024-06-27T20:59:32.633Z</time>
      </trkpt>
      <trkpt lat="45.97647" lon="2.14899">
        <ele>454.085667</ele>
        <time>2024-06-27T20:59:39.953Z</time>
      </trkpt>
      <trkpt lat="45.97629" lon="2.14903">
        <ele>454.37655</ele>
        <time>2024-06-27T20:59:42.807Z</time>
      </trkpt>
      <trkpt lat="45.97605" lon="2.1492">
        <ele>454.815608</ele>
        <time>2024-06-27T20:59:46.990Z</time>
      </trkpt>
      <trkpt lat="45.97583" lon="2.14952">
        <ele>455.327008</ele>
        <time>2024-06-27T20:59:50.922Z</time>
      </trkpt>
      <trkpt lat="45.97575" lon="2.14969">
        <ele>455.008512</ele>
        <time>2024-06-27T20:59:52.557Z</time>
      </trkpt>
      <trkpt lat="45.97562" lon="2.15005">
        <ele>453.691349</ele>
        <time>2024-06-27T20:59:55.642Z</time>
      </trkpt>
      <trkpt lat="45.97557" lon="2.15032">
        <ele>452.777149</ele>
        <time>2024-06-27T20:59:57.643Z</time>
      </trkpt>
      <trkpt lat="45.97557" lon="2.15108">
        <ele>450.293673</ele>
        <time>2024-06-27T21:00:02.643Z</time>
      </trkpt>
      <trkpt lat="45.97552" lon="2.15128">
        <ele>449.611454</ele>
        <time>2024-06-27T21:00:03.954Z</time>
      </trkpt>
      <trkpt lat="45.97545" lon="2.15147">
        <ele>448.89929</ele>
        <time>2024-06-27T21:00:05.320Z</time>
      </trkpt>
      <trkpt lat="45.97531" lon="2.15172">
        <ele>447.818929</ele>
        <time>2024-06-27T21:00:07.358Z</time>
      </trkpt>
      <trkpt lat="45.97492" lon="2.15215">
        <ele>444.905872</ele>
        <time>2024-06-27T21:00:11.679Z</time>
      </trkpt>
      <trkpt lat="45.97456" lon="2.15299">
        <ele>440.290584</ele>
        <time>2024-06-27T21:00:17.885Z</time>
      </trkpt>
      <trkpt lat="45.97436" lon="2.15327">
        <ele>438.39245</ele>
        <time>2024-06-27T21:00:20.458Z</time>
      </trkpt>
      <trkpt lat="45.97419" lon="2.15346">
        <ele>436.963732</ele>
        <time>2024-06-27T21:00:22.406Z</time>
      </trkpt>
      <trkpt lat="45.97407" lon="2.15354">
        <ele>436.105079</ele>
        <time>2024-06-27T21:00:23.541Z</time>
      </trkpt>
      <trkpt lat="45.97395" lon="2.15358">
        <ele>435.269573</ele>
        <time>2024-06-27T21:00:24.671Z</time>
      </trkpt>
      <trkpt lat="45.9737" lon="2.15348">
        <ele>433.844095</ele>
        <time>2024-06-27T21:00:26.974Z</time>
      </trkpt>
      <trkpt lat="45.97355" lon="2.15346">
        <ele>433.080537</ele>
        <time>2024-06-27T21:00:28.343Z</time>
      </trkpt>
      <trkpt lat="45.97347" lon="2.15351">
        <ele>432.610766</ele>
        <time>2024-06-27T21:00:29.181Z</time>
      </trkpt>
      <trkpt lat="45.97337" lon="2.15378">
        <ele>431.509765</ele>
        <time>2024-06-27T21:00:31.155Z</time>
      </trkpt>
      <trkpt lat="45.97337" lon="2.1539">
        <ele>431.081375</ele>
        <time>2024-06-27T21:00:31.940Z</time>
      </trkpt>
      <trkpt lat="45.97341" lon="2.15402">
        <ele>430.638828</ele>
        <time>2024-06-27T21:00:32.736Z</time>
      </trkpt>
      <trkpt lat="45.97367" lon="2.1544">
        <ele>428.742336</ele>
        <time>2024-06-27T21:00:36.216Z</time>
      </trkpt>
      <trkpt lat="45.97375" lon="2.15458">
        <ele>427.986325</ele>
        <time>2024-06-27T21:00:37.629Z</time>
      </trkpt>
      <trkpt lat="45.97382" lon="2.15494">
        <ele>426.681403</ele>
        <time>2024-06-27T21:00:40.195Z</time>
      </trkpt>
      <trkpt lat="45.97376" lon="2.15525">
        <ele>425.636647</ele>
        <time>2024-06-27T21:00:42.504Z</time>
      </trkpt>
      <trkpt lat="45.97356" lon="2.15564">
        <ele>425.387079</ele>
        <time>2024-06-27T21:00:46.038Z</time>
      </trkpt>
      <trkpt lat="45.97337" lon="2.15598">
        <ele>425.170755</ele>
        <time>2024-06-27T21:00:49.241Z</time>
      </trkpt>
      <trkpt lat="45.97313" lon="2.15636">
        <ele>424.91248</ele>
        <time>2024-06-27T21:00:53.828Z</time>
      </trkpt>
      <trkpt lat="45.97298" lon="2.1565">
        <ele>424.785263</ele>
        <time>2024-06-27T21:00:56.641Z</time>
      </trkpt>
      <trkpt lat="45.97223" lon="2.15648">
        <ele>424.598535</ele>
        <time>2024-06-27T21:01:09.426Z</time>
      </trkpt>
      <trkpt lat="45.97175" lon="2.15654">
        <ele>425.373343</ele>
        <time>2024-06-27T21:01:17.988Z</time>
      </trkpt>
      <trkpt lat="45.97134" lon="2.15646">
        <ele>426.028594</ele>
        <time>2024-06-27T21:01:25.558Z</time>
      </trkpt>
      <trkpt lat="45.97079" lon="2.15629">
        <ele>426.932611</ele>
        <time>2024-06-27T21:01:35.468Z</time>
      </trkpt>
      <trkpt lat="45.97049" lon="2.15628">
        <ele>427.399252</ele>
        <time>2024-06-27T21:01:40.559Z</time>
      </trkpt>
      <trkpt lat="45.97037" lon="2.15635">
        <ele>427.597318</ele>
        <time>2024-06-27T21:01:42.880Z</time>
      </trkpt>
      <trkpt lat="45.97032" lon="2.15643">
        <ele>427.69607</ele>
        <time>2024-06-27T21:01:44.030Z</time>
      </trkpt>
      <trkpt lat="45.97031" lon="2.15654">
        <ele>427.814396</ele>
        <time>2024-06-27T21:01:45.339Z</time>
      </trkpt>
      <trkpt lat="45.97045" lon="2.15714">
        <ele>428.451066</ele>
        <time>2024-06-27T21:01:52.359Z</time>
      </trkpt>
      <trkpt lat="45.97049" lon="2.15788">
        <ele>429.201265</ele>
        <time>2024-06-27T21:02:01.153Z</time>
      </trkpt>
      <trkpt lat="45.97045" lon="2.15811">
        <ele>429.437157</ele>
        <time>2024-06-27T21:02:04.096Z</time>
      </trkpt>
      <trkpt lat="45.97026" lon="2.15859">
        <ele>430.004429</ele>
        <time>2024-06-27T21:02:11.511Z</time>
      </trkpt>
      <trkpt lat="45.97008" lon="2.15896">
        <ele>430.473047</ele>
        <time>2024-06-27T21:02:17.455Z</time>
      </trkpt>
      <trkpt lat="45.96955" lon="2.15971">
        <ele>431.585988</ele>
        <time>2024-06-27T21:02:30.007Z</time>
      </trkpt>
      <trkpt lat="45.96944" lon="2.15985">
        <ele>431.819843</ele>
        <time>2024-06-27T21:02:32.410Z</time>
      </trkpt>
      <trkpt lat="45.96925" lon="2.15997">
        <ele>432.123094</ele>
        <time>2024-06-27T21:02:35.949Z</time>
      </trkpt>
      <trkpt lat="45.96893" lon="2.16009">
        <ele>432.583422</ele>
        <time>2024-06-27T21:02:41.485Z</time>
      </trkpt>
      <trkpt lat="45.96848" lon="2.16027">
        <ele>432.895469</ele>
        <time>2024-06-27T21:02:49.671Z</time>
      </trkpt>
      <trkpt lat="45.96791" lon="2.16043">
        <ele>433.278993</ele>
        <time>2024-06-27T21:03:00.197Z</time>
      </trkpt>
      <trkpt lat="45.96707" lon="2.16044">
        <ele>433.568911</ele>
        <time>2024-06-27T21:03:10.883Z</time>
      </trkpt>
      <trkpt lat="45.96628" lon="2.16025">
        <ele>432.473709</ele>
        <time>2024-06-27T21:03:20.434Z</time>
      </trkpt>
      <trkpt lat="45.96625" lon="2.16017">
        <ele>432.383322</ele>
        <time>2024-06-27T21:03:21.086Z</time>
      </trkpt>
      <trkpt lat="45.96595" lon="2.16">
        <ele>431.946112</ele>
        <time>2024-06-27T21:03:25.018Z</time>
      </trkpt>
      <trkpt lat="45.96589" lon="2.15994">
        <ele>431.852511</ele>
        <time>2024-06-27T21:03:25.741Z</time>
      </trkpt>
      <trkpt lat="45.96587" lon="2.15976">
        <ele>431.676132</ele>
        <time>2024-06-27T21:03:27.391Z</time>
      </trkpt>
      <trkpt lat="45.96568" lon="2.15968">
        <ele>431.409355</ele>
        <time>2024-06-27T21:03:29.492Z</time>
      </trkpt>
      <trkpt lat="45.96533" lon="2.15955">
        <ele>431.004157</ele>
        <time>2024-06-27T21:03:33.452Z</time>
      </trkpt>
      <trkpt lat="45.96447" lon="2.15956">
        <ele>430.102264</ele>
        <time>2024-06-27T21:03:42.950Z</time>
      </trkpt>
      <trkpt lat="45.9635" lon="2.15961">
        <ele>429.438965</ele>
        <time>2024-06-27T21:03:58.462Z</time>
      </trkpt>
      <trkpt lat="45.96296" lon="2.15972">
        <ele>429.499101</ele>
        <time>2024-06-27T21:04:07.189Z</time>
      </trkpt>
      <trkpt lat="45.96267" lon="2.15974">
        <ele>429.530539</ele>
        <time>2024-06-27T21:04:11.384Z</time>
      </trkpt>
      <trkpt lat="45.96195" lon="2.15999">
        <ele>429.639511</ele>
        <time>2024-06-27T21:04:21.980Z</time>
      </trkpt>
      <trkpt lat="45.96133" lon="2.16009">
        <ele>429.902596</ele>
        <time>2024-06-27T21:04:31.394Z</time>
      </trkpt>
      <trkpt lat="45.96083" lon="2.16033">
        <ele>430.124935</ele>
        <time>2024-06-27T21:04:39.815Z</time>
      </trkpt>
      <trkpt lat="45.96014" lon="2.16081">
        <ele>430.508925</ele>
        <time>2024-06-27T21:04:52.150Z</time>
      </trkpt>
      <trkpt lat="45.96014" lon="2.16081">
        <ele>430.508925</ele>
        <time>2024-06-27T21:04:52.156Z</time>
      </trkpt>
      <trkpt lat="45.95933" lon="2.16168">
        <ele>431.238774</ele>
        <time>2024-06-27T21:05:08.643Z</time>
      </trkpt>
      <trkpt lat="45.95919" lon="2.16184">
        <ele>431.369072</ele>
        <time>2024-06-27T21:05:11.395Z</time>
      </trkpt>
      <trkpt lat="45.95888" lon="2.16194">
        <ele>431.60294</ele>
        <time>2024-06-27T21:05:16.564Z</time>
      </trkpt>
      <trkpt lat="45.95877" lon="2.16202">
        <ele>431.67776</ele>
        <time>2024-06-27T21:05:18.535Z</time>
      </trkpt>
      <trkpt lat="45.9587" lon="2.16211">
        <ele>431.713639</ele>
        <time>2024-06-27T21:05:20.005Z</time>
      </trkpt>
      <trkpt lat="45.95851" lon="2.16277">
        <ele>431.90957</ele>
        <time>2024-06-27T21:05:27.857Z</time>
      </trkpt>
      <trkpt lat="45.95851" lon="2.16288">
        <ele>431.937621</ele>
        <time>2024-06-27T21:05:28.788Z</time>
      </trkpt>
      <trkpt lat="45.95881" lon="2.16317">
        <ele>432.078217</ele>
        <time>2024-06-27T21:05:34.360Z</time>
      </trkpt>
      <trkpt lat="45.95871" lon="2.16361">
        <ele>432.2037</ele>
        <time>2024-06-27T21:05:39.508Z</time>
      </trkpt>
      <trkpt lat="45.9587" lon="2.16375">
        <ele>432.241522</ele>
        <time>2024-06-27T21:05:41.115Z</time>
      </trkpt>
      <trkpt lat="45.95858" lon="2.1639">
        <ele>432.302949</ele>
        <time>2024-06-27T21:05:43.598Z</time>
      </trkpt>
      <trkpt lat="45.95843" lon="2.16423">
        <ele>432.449126</ele>
        <time>2024-06-27T21:05:48.068Z</time>
      </trkpt>
      <trkpt lat="45.95817" lon="2.16537">
        <ele>433.043583</ele>
        <time>2024-06-27T21:06:01.656Z</time>
      </trkpt>
      <trkpt lat="45.95815" lon="2.16552">
        <ele>433.122307</ele>
        <time>2024-06-27T21:06:03.408Z</time>
      </trkpt>
      <trkpt lat="45.9581" lon="2.1667">
        <ele>433.670134</ele>
        <time>2024-06-27T21:06:16.550Z</time>
      </trkpt>
      <trkpt lat="45.95808" lon="2.16682">
        <ele>433.687522</ele>
        <time>2024-06-27T21:06:17.985Z</time>
      </trkpt>
      <trkpt lat="45.95797" lon="2.16704">
        <ele>433.725382</ele>
        <time>2024-06-27T21:06:20.940Z</time>
      </trkpt>
      <trkpt lat="45.95785" lon="2.16721">
        <ele>433.760806</ele>
        <time>2024-06-27T21:06:23.699Z</time>
      </trkpt>
      <trkpt lat="45.95758" lon="2.1674">
        <ele>433.823269</ele>
        <time>2024-06-27T21:06:28.569Z</time>
      </trkpt>
      <trkpt lat="45.95742" lon="2.16744">
        <ele>433.856212</ele>
        <time>2024-06-27T21:06:30.939Z</time>
      </trkpt>
      <trkpt lat="45.95734" lon="2.16744">
        <ele>433.87308</ele>
        <time>2024-06-27T21:06:32.188Z</time>
      </trkpt>
      <trkpt lat="45.95724" lon="2.16743">
        <ele>433.893449</ele>
        <time>2024-06-27T21:06:33.507Z</time>
      </trkpt>
      <trkpt lat="45.95711" lon="2.16751">
        <ele>433.921298</ele>
        <time>2024-06-27T21:06:35.249Z</time>
      </trkpt>
      <trkpt lat="45.95709" lon="2.16752">
        <ele>433.92608</ele>
        <time>2024-06-27T21:06:35.547Z</time>
      </trkpt>
      <trkpt lat="45.95659" lon="2.16758">
        <ele>434.077508</ele>
        <time>2024-06-27T21:06:42.249Z</time>
      </trkpt>
      <trkpt lat="45.95658" lon="2.16756">
        <ele>434.109773</ele>
        <time>2024-06-27T21:06:42.428Z</time>
      </trkpt>
      <trkpt lat="45.95652" lon="2.1675">
        <ele>434.260008</ele>
        <time>2024-06-27T21:06:43.422Z</time>
      </trkpt>
      <trkpt lat="45.95617" lon="2.1674">
        <ele>435.01377</ele>
        <time>2024-06-27T21:06:49.208Z</time>
      </trkpt>
      <trkpt lat="45.95553" lon="2.16732">
        <ele>436.356784</ele>
        <time>2024-06-27T21:07:01.327Z</time>
      </trkpt>
      <trkpt lat="45.9555" lon="2.16743">
        <ele>436.537498</ele>
        <time>2024-06-27T21:07:02.961Z</time>
      </trkpt>
      <trkpt lat="45.95552" lon="2.1675">
        <ele>436.644737</ele>
        <time>2024-06-27T21:07:03.965Z</time>
      </trkpt>
      <trkpt lat="45.95581" lon="2.16766">
        <ele>437.289969</ele>
        <time>2024-06-27T21:07:10.080Z</time>
      </trkpt>
      <trkpt lat="45.95605" lon="2.16792">
        <ele>438.079965</ele>
        <time>2024-06-27T21:07:16.217Z</time>
      </trkpt>
      <trkpt lat="45.95617" lon="2.16806">
        <ele>438.723735</ele>
        <time>2024-06-27T21:07:19.238Z</time>
      </trkpt>
      <trkpt lat="45.9562" lon="2.16818">
        <ele>439.101763</ele>
        <time>2024-06-27T21:07:21.130Z</time>
      </trkpt>
      <trkpt lat="45.95621" lon="2.16846">
        <ele>439.935452</ele>
        <time>2024-06-27T21:07:25.205Z</time>
      </trkpt>
      <trkpt lat="45.95619" lon="2.169">
        <ele>441.513801</ele>
        <time>2024-06-27T21:07:33.462Z</time>
      </trkpt>
      <trkpt lat="45.95616" lon="2.16943">
        <ele>442.805069</ele>
        <time>2024-06-27T21:07:40.643Z</time>
      </trkpt>
      <trkpt lat="45.95615" lon="2.16964">
        <ele>443.41597</ele>
        <time>2024-06-27T21:07:43.930Z</time>
      </trkpt>
      <trkpt lat="45.95626" lon="2.17037">
        <ele>445.531317</ele>
        <time>2024-06-27T21:07:55.525Z</time>
      </trkpt>
      <trkpt lat="45.95626" lon="2.1704">
        <ele>445.574294</ele>
        <time>2024-06-27T21:07:55.994Z</time>
      </trkpt>
      <trkpt lat="45.95689" lon="2.17163">
        <ele>447.556501</ele>
        <time>2024-06-27T21:08:14.272Z</time>
      </trkpt>
      <trkpt lat="45.957" lon="2.17178">
        <ele>447.845732</ele>
        <time>2024-06-27T21:08:16.762Z</time>
      </trkpt>
      <trkpt lat="45.95719" lon="2.1719">
        <ele>448.234054</ele>
        <time>2024-06-27T21:08:20.421Z</time>
      </trkpt>
      <trkpt lat="45.95739" lon="2.17204">
        <ele>448.646694</ele>
        <time>2024-06-27T21:08:24.210Z</time>
      </trkpt>
      <trkpt lat="45.95748" lon="2.17215">
        <ele>448.877925</ele>
        <time>2024-06-27T21:08:26.165Z</time>
      </trkpt>
      <trkpt lat="45.9576" lon="2.17237">
        <ele>449.343256</ele>
        <time>2024-06-27T21:08:29.413Z</time>
      </trkpt>
      <trkpt lat="45.95789" lon="2.17286">
        <ele>450.42943</ele>
        <time>2024-06-27T21:08:37.636Z</time>
      </trkpt>
      <trkpt lat="45.95791" lon="2.17294">
        <ele>450.555989</ele>
        <time>2024-06-27T21:08:38.624Z</time>
      </trkpt>
      <trkpt lat="45.95793" lon="2.17296">
        <ele>450.618569</ele>
        <time>2024-06-27T21:08:39.071Z</time>
      </trkpt>
      <trkpt lat="45.95791" lon="2.17314">
        <ele>450.927137</ele>
        <time>2024-06-27T21:08:41.352Z</time>
      </trkpt>
      <trkpt lat="45.95772" lon="2.17364">
        <ele>451.879412</ele>
        <time>2024-06-27T21:08:48.730Z</time>
      </trkpt>
      <trkpt lat="45.95755" lon="2.17388">
        <ele>452.463016</ele>
        <time>2024-06-27T21:08:53.200Z</time>
      </trkpt>
      <trkpt lat="45.95731" lon="2.17414">
        <ele>453.202073</ele>
        <time>2024-06-27T21:08:59.115Z</time>
      </trkpt>
      <trkpt lat="45.95723" lon="2.1743">
        <ele>453.845788</ele>
        <time>2024-06-27T21:09:02.153Z</time>
      </trkpt>
      <trkpt lat="45.95715" lon="2.17459">
        <ele>454.86757</ele>
        <time>2024-06-27T21:09:06.976Z</time>
      </trkpt>
      <trkpt lat="45.95709" lon="2.17501">
        <ele>456.264936</ele>
        <time>2024-06-27T21:09:13.870Z</time>
      </trkpt>
      <trkpt lat="45.95708" lon="2.17526">
        <ele>457.086746</ele>
        <time>2024-06-27T21:09:17.848Z</time>
      </trkpt>
      <trkpt lat="45.95717" lon="2.17773">
        <ele>465.481114</ele>
        <time>2024-06-27T21:09:56.097Z</time>
      </trkpt>
      <trkpt lat="45.95718" lon="2.17789">
        <ele>466.066253</ele>
        <time>2024-06-27T21:09:58.700Z</time>
      </trkpt>
      <trkpt lat="45.9572" lon="2.17857">
        <ele>468.478257</ele>
        <time>2024-06-27T21:10:09.401Z</time>
      </trkpt>
      <trkpt lat="45.95714" lon="2.17889">
        <ele>469.665221</ele>
        <time>2024-06-27T21:10:14.799Z</time>
      </trkpt>
      <trkpt lat="45.95706" lon="2.17907">
        <ele>470.433406</ele>
        <time>2024-06-27T21:10:18.191Z</time>
      </trkpt>
      <trkpt lat="45.95665" lon="2.17965">
        <ele>473.175505</ele>
        <time>2024-06-27T21:10:31.449Z</time>
      </trkpt>
      <trkpt lat="45.95657" lon="2.17981">
        <ele>473.803608</ele>
        <time>2024-06-27T21:10:34.504Z</time>
      </trkpt>
      <trkpt lat="45.95653" lon="2.17998">
        <ele>474.399654</ele>
        <time>2024-06-27T21:10:37.437Z</time>
      </trkpt>
      <trkpt lat="45.95651" lon="2.1802">
        <ele>475.105958</ele>
        <time>2024-06-27T21:10:40.796Z</time>
      </trkpt>
      <trkpt lat="45.95652" lon="2.1805">
        <ele>476.090776</ele>
        <time>2024-06-27T21:10:45.546Z</time>
      </trkpt>
      <trkpt lat="45.95657" lon="2.18102">
        <ele>477.810908</ele>
        <time>2024-06-27T21:10:53.615Z</time>
      </trkpt>
      <trkpt lat="45.95662" lon="2.18125">
        <ele>478.613199</ele>
        <time>2024-06-27T21:10:57.202Z</time>
      </trkpt>
      <trkpt lat="45.95703" lon="2.18264">
        <ele>481.482953</ele>
        <time>2024-06-27T21:11:17.581Z</time>
      </trkpt>
      <trkpt lat="45.95703" lon="2.18291">
        <ele>481.941007</ele>
        <time>2024-06-27T21:11:20.963Z</time>
      </trkpt>
      <trkpt lat="45.95695" lon="2.18351">
        <ele>482.980749</ele>
        <time>2024-06-27T21:11:28.588Z</time>
      </trkpt>
      <trkpt lat="45.95697" lon="2.18378">
        <ele>483.446693</ele>
        <time>2024-06-27T21:11:31.915Z</time>
      </trkpt>
      <trkpt lat="45.95732" lon="2.18467">
        <ele>484.868571</ele>
        <time>2024-06-27T21:11:44.280Z</time>
      </trkpt>
      <trkpt lat="45.95759" lon="2.18557">
        <ele>486.193593</ele>
        <time>2024-06-27T21:11:55.821Z</time>
      </trkpt>
      <trkpt lat="45.95792" lon="2.18686">
        <ele>489.170351</ele>
        <time>2024-06-27T21:12:14.654Z</time>
      </trkpt>
      <trkpt lat="45.95801" lon="2.18746">
        <ele>491.032156</ele>
        <time>2024-06-27T21:12:23.885Z</time>
      </trkpt>
      <trkpt lat="45.95816" lon="2.18847">
        <ele>494.152751</ele>
        <time>2024-06-27T21:12:40.051Z</time>
      </trkpt>
      <trkpt lat="45.95826" lon="2.18889">
        <ele>495.496388</ele>
        <time>2024-06-27T21:12:47.140Z</time>
      </trkpt>
      <trkpt lat="45.9584" lon="2.18912">
        <ele>496.425544</ele>
        <time>2024-06-27T21:12:51.972Z</time>
      </trkpt>
      <trkpt lat="45.95886" lon="2.18953">
        <ele>498.713791</ele>
        <time>2024-06-27T21:13:04.214Z</time>
      </trkpt>
      <trkpt lat="45.95906" lon="2.18977">
        <ele>499.841884</ele>
        <time>2024-06-27T21:13:09.965Z</time>
      </trkpt>
      <trkpt lat="45.95934" lon="2.19028">
        <ele>501.77849</ele>
        <time>2024-06-27T21:13:19.293Z</time>
      </trkpt>
      <trkpt lat="45.95942" lon="2.19066">
        <ele>502.795164</ele>
        <time>2024-06-27T21:13:24.613Z</time>
      </trkpt>
      <trkpt lat="45.95943" lon="2.19103">
        <ele>503.193977</ele>
        <time>2024-06-27T21:13:29.286Z</time>
      </trkpt>
      <trkpt lat="45.95941" lon="2.19119">
        <ele>503.371655</ele>
        <time>2024-06-27T21:13:31.334Z</time>
      </trkpt>
      <trkpt lat="45.95928" lon="2.1917">
        <ele>503.967064</ele>
        <time>2024-06-27T21:13:37.852Z</time>
      </trkpt>
      <trkpt lat="45.95904" lon="2.19226">
        <ele>504.687517</ele>
        <time>2024-06-27T21:13:45.327Z</time>
      </trkpt>
      <trkpt lat="45.95889" lon="2.19254">
        <ele>505.078393</ele>
        <time>2024-06-27T21:13:49.464Z</time>
      </trkpt>
      <trkpt lat="45.95886" lon="2.19277">
        <ele>505.326558</ele>
        <time>2024-06-27T21:13:52.097Z</time>
      </trkpt>
      <trkpt lat="45.959" lon="2.193">
        <ele>505.676299</ele>
        <time>2024-06-27T21:13:55.759Z</time>
      </trkpt>
      <trkpt lat="45.959" lon="2.19306">
        <ele>505.75357</ele>
        <time>2024-06-27T21:13:56.445Z</time>
      </trkpt>
      <trkpt lat="45.95901" lon="2.19312">
        <ele>505.829904</ele>
        <time>2024-06-27T21:13:57.161Z</time>
      </trkpt>
      <trkpt lat="45.95913" lon="2.19354">
        <ele>506.400542</ele>
        <time>2024-06-27T21:14:02.633Z</time>
      </trkpt>
      <trkpt lat="45.95924" lon="2.19401">
        <ele>507.011807</ele>
        <time>2024-06-27T21:14:08.591Z</time>
      </trkpt>
      <trkpt lat="45.95956" lon="2.19528">
        <ele>508.694201</ele>
        <time>2024-06-27T21:14:25.736Z</time>
      </trkpt>
      <trkpt lat="45.95982" lon="2.19624">
        <ele>510.610234</ele>
        <time>2024-06-27T21:14:39.573Z</time>
      </trkpt>
      <trkpt lat="45.96" lon="2.19663">
        <ele>511.48774</ele>
        <time>2024-06-27T21:14:45.886Z</time>
      </trkpt>
      <trkpt lat="45.96027" lon="2.19693">
        <ele>512.406102</ele>
        <time>2024-06-27T21:14:52.448Z</time>
      </trkpt>
      <trkpt lat="45.96044" lon="2.19701">
        <ele>512.885438</ele>
        <time>2024-06-27T21:14:55.837Z</time>
      </trkpt>
      <trkpt lat="45.96082" lon="2.19706">
        <ele>513.952371</ele>
        <time>2024-06-27T21:15:03.179Z</time>
      </trkpt>
      <trkpt lat="45.96144" lon="2.19706">
        <ele>515.77169</ele>
        <time>2024-06-27T21:15:15.026Z</time>
      </trkpt>
      <trkpt lat="45.96151" lon="2.19706">
        <ele>515.993204</ele>
        <time>2024-06-27T21:15:16.445Z</time>
      </trkpt>
      <trkpt lat="45.96159" lon="2.19706">
        <ele>516.229485</ele>
        <time>2024-06-27T21:15:18.034Z</time>
      </trkpt>
      <trkpt lat="45.96176" lon="2.19706">
        <ele>516.71395</ele>
        <time>2024-06-27T21:15:21.267Z</time>
      </trkpt>
      <trkpt lat="45.96204" lon="2.19707">
        <ele>517.532205</ele>
        <time>2024-06-27T21:15:26.820Z</time>
      </trkpt>
      <trkpt lat="45.96224" lon="2.19711">
        <ele>518.13149</ele>
        <time>2024-06-27T21:15:30.816Z</time>
      </trkpt>
      <trkpt lat="45.96254" lon="2.19726">
        <ele>519.107049</ele>
        <time>2024-06-27T21:15:37.192Z</time>
      </trkpt>
      <trkpt lat="45.96281" lon="2.1975">
        <ele>520.14617</ele>
        <time>2024-06-27T21:15:43.368Z</time>
      </trkpt>
      <trkpt lat="45.96294" lon="2.19767">
        <ele>520.73276</ele>
        <time>2024-06-27T21:15:46.833Z</time>
      </trkpt>
      <trkpt lat="45.96305" lon="2.19787">
        <ele>521.289416</ele>
        <time>2024-06-27T21:15:50.153Z</time>
      </trkpt>
      <trkpt lat="45.96318" lon="2.19822">
        <ele>522.215603</ele>
        <time>2024-06-27T21:15:55.758Z</time>
      </trkpt>
      <trkpt lat="45.96357" lon="2.1994">
        <ele>525.225744</ele>
        <time>2024-06-27T21:16:14.027Z</time>
      </trkpt>
      <trkpt lat="45.96369" lon="2.19973">
        <ele>526.16861</ele>
        <time>2024-06-27T21:16:19.360Z</time>
      </trkpt>
      <trkpt lat="45.96385" lon="2.20006">
        <ele>527.201415</ele>
        <time>2024-06-27T21:16:25.226Z</time>
      </trkpt>
      <trkpt lat="45.96404" lon="2.20035">
        <ele>528.177531</ele>
        <time>2024-06-27T21:16:30.683Z</time>
      </trkpt>
      <trkpt lat="45.96459" lon="2.20103">
        <ele>530.820438</ele>
        <time>2024-06-27T21:16:45.574Z</time>
      </trkpt>
      <trkpt lat="45.96513" lon="2.20169">
        <ele>533.331821</ele>
        <time>2024-06-27T21:17:00.130Z</time>
      </trkpt>
      <trkpt lat="45.96585" lon="2.20257">
        <ele>536.657762</ele>
        <time>2024-06-27T21:17:19.375Z</time>
      </trkpt>
      <trkpt lat="45.966" lon="2.2028">
        <ele>537.436335</ele>
        <time>2024-06-27T21:17:23.808Z</time>
      </trkpt>
      <trkpt lat="45.96616" lon="2.20321">
        <ele>538.416376</ele>
        <time>2024-06-27T21:17:30.230Z</time>
      </trkpt>
      <trkpt lat="45.96619" lon="2.20337">
        <ele>538.744613</ele>
        <time>2024-06-27T21:17:32.452Z</time>
      </trkpt>
      <trkpt lat="45.96618" lon="2.20372">
        <ele>539.441489</ele>
        <time>2024-06-27T21:17:37.184Z</time>
      </trkpt>
      <trkpt lat="45.96613" lon="2.20389">
        <ele>539.819284</ele>
        <time>2024-06-27T21:17:39.719Z</time>
      </trkpt>
      <trkpt lat="45.96605" lon="2.2041">
        <ele>540.281795</ele>
        <time>2024-06-27T21:17:42.866Z</time>
      </trkpt>
      <trkpt lat="45.96592" lon="2.20431">
        <ele>540.856593</ele>
        <time>2024-06-27T21:17:46.712Z</time>
      </trkpt>
      <trkpt lat="45.96532" lon="2.20505">
        <ele>543.097328</ele>
        <time>2024-06-27T21:18:01.804Z</time>
      </trkpt>
      <trkpt lat="45.96516" lon="2.20532">
        <ele>543.750341</ele>
        <time>2024-06-27T21:18:06.469Z</time>
      </trkpt>
      <trkpt lat="45.96508" lon="2.20553">
        <ele>544.186316</ele>
        <time>2024-06-27T21:18:09.594Z</time>
      </trkpt>
      <trkpt lat="45.96504" lon="2.20578">
        <ele>544.662667</ele>
        <time>2024-06-27T21:18:12.985Z</time>
      </trkpt>
      <trkpt lat="45.96502" lon="2.20604">
        <ele>545.144116</ele>
        <time>2024-06-27T21:18:16.378Z</time>
      </trkpt>
      <trkpt lat="45.96505" lon="2.20629">
        <ele>545.626205</ele>
        <time>2024-06-27T21:18:19.789Z</time>
      </trkpt>
      <trkpt lat="45.96513" lon="2.20661">
        <ele>546.234822</ele>
        <time>2024-06-27T21:18:24.117Z</time>
      </trkpt>
      <trkpt lat="45.96529" lon="2.20697">
        <ele>547.028019</ele>
        <time>2024-06-27T21:18:29.832Z</time>
      </trkpt>
      <trkpt lat="45.96596" lon="2.20821">
        <ele>550.835136</ele>
        <time>2024-06-27T21:18:51.235Z</time>
      </trkpt>
      <trkpt lat="45.96609" lon="2.20854">
        <ele>551.807171</ele>
        <time>2024-06-27T21:18:56.693Z</time>
      </trkpt>
      <trkpt lat="45.96618" lon="2.20887">
        <ele>552.707945</ele>
        <time>2024-06-27T21:19:01.912Z</time>
      </trkpt>
      <trkpt lat="45.9663" lon="2.20959">
        <ele>554.745214</ele>
        <time>2024-06-27T21:19:13.246Z</time>
      </trkpt>
      <trkpt lat="45.96633" lon="2.21003">
        <ele>556.262284</ele>
        <time>2024-06-27T21:19:19.994Z</time>
      </trkpt>
      <trkpt lat="45.96633" lon="2.21134">
        <ele>560.808616</ele>
        <time>2024-06-27T21:19:40.668Z</time>
      </trkpt>
      <trkpt lat="45.96637" lon="2.21165">
        <ele>561.90786</ele>
        <time>2024-06-27T21:19:45.713Z</time>
      </trkpt>
      <trkpt lat="45.96643" lon="2.21194">
        <ele>562.957614</ele>
        <time>2024-06-27T21:19:50.545Z</time>
      </trkpt>
      <trkpt lat="45.96661" lon="2.21246">
        <ele>564.621687</ele>
        <time>2024-06-27T21:19:59.734Z</time>
      </trkpt>
      <trkpt lat="45.96668" lon="2.21273">
        <ele>565.373225</ele>
        <time>2024-06-27T21:20:03.911Z</time>
      </trkpt>
      <trkpt lat="45.96671" lon="2.21297">
        <ele>566.057456</ele>
        <time>2024-06-27T21:20:07.637Z</time>
      </trkpt>
      <trkpt lat="45.9667" lon="2.21324">
        <ele>566.790716</ele>
        <time>2024-06-27T21:20:11.532Z</time>
      </trkpt>
      <trkpt lat="45.96665" lon="2.21359">
        <ele>567.749219</ele>
        <time>2024-06-27T21:20:16.539Z</time>
      </trkpt>
      <trkpt lat="45.96636" lon="2.21444">
        <ele>570.316035</ele>
        <time>2024-06-27T21:20:29.567Z</time>
      </trkpt>
      <trkpt lat="45.96633" lon="2.21478">
        <ele>571.057332</ele>
        <time>2024-06-27T21:20:34.252Z</time>
      </trkpt>
      <trkpt lat="45.96634" lon="2.21499">
        <ele>571.504637</ele>
        <time>2024-06-27T21:20:37.067Z</time>
      </trkpt>
      <trkpt lat="45.96645" lon="2.21537">
        <ele>572.400485</ele>
        <time>2024-06-27T21:20:42.543Z</time>
      </trkpt>
      <trkpt lat="45.96715" lon="2.21685">
        <ele>576.317642</ele>
        <time>2024-06-27T21:21:07.002Z</time>
      </trkpt>
      <trkpt lat="45.9673" lon="2.21682">
        <ele>576.898198</ele>
        <time>2024-06-27T21:21:10.162Z</time>
      </trkpt>
      <trkpt lat="45.96761" lon="2.21671">
        <ele>578.080444</ele>
        <time>2024-06-27T21:21:16.734Z</time>
      </trkpt>
      <trkpt lat="45.96773" lon="2.21662">
        <ele>578.584202</ele>
        <time>2024-06-27T21:21:19.498Z</time>
      </trkpt>
      <trkpt lat="45.9679" lon="2.21644">
        <ele>579.408215</ele>
        <time>2024-06-27T21:21:23.976Z</time>
      </trkpt>
      <trkpt lat="45.96805" lon="2.21625">
        <ele>580.144817</ele>
        <time>2024-06-27T21:21:27.975Z</time>
      </trkpt>
      <trkpt lat="45.96805" lon="2.21624">
        <ele>580.168539</ele>
        <time>2024-06-27T21:21:28.105Z</time>
      </trkpt>
      <trkpt lat="45.9684" lon="2.21567">
        <ele>582.16899</ele>
        <time>2024-06-27T21:21:39.209Z</time>
      </trkpt>
      <trkpt lat="45.96853" lon="2.21543">
        <ele>582.960581</ele>
        <time>2024-06-27T21:21:43.562Z</time>
      </trkpt>
      <trkpt lat="45.96859" lon="2.21526">
        <ele>583.494195</ele>
        <time>2024-06-27T21:21:46.556Z</time>
      </trkpt>
      <trkpt lat="45.96865" lon="2.21497">
        <ele>584.28302</ele>
        <time>2024-06-27T21:21:50.848Z</time>
      </trkpt>
      <trkpt lat="45.96875" lon="2.21445">
        <ele>585.748327</ele>
        <time>2024-06-27T21:21:58.785Z</time>
      </trkpt>
      <trkpt lat="45.96883" lon="2.21429">
        <ele>586.300549</ele>
        <time>2024-06-27T21:22:01.788Z</time>
      </trkpt>
      <trkpt lat="45.96895" lon="2.21417">
        <ele>586.831639</ele>
        <time>2024-06-27T21:22:04.587Z</time>
      </trkpt>
      <trkpt lat="45.96904" lon="2.21412">
        <ele>587.227226</ele>
        <time>2024-06-27T21:22:06.687Z</time>
      </trkpt>
      <trkpt lat="45.96927" lon="2.21409">
        <ele>588.124609</ele>
        <time>2024-06-27T21:22:11.435Z</time>
      </trkpt>
      <trkpt lat="45.96939" lon="2.21413">
        <ele>588.614257</ele>
        <time>2024-06-27T21:22:13.980Z</time>
      </trkpt>
      <trkpt lat="45.9695" lon="2.21422">
        <ele>589.105873</ele>
        <time>2024-06-27T21:22:16.613Z</time>
      </trkpt>
      <trkpt lat="45.96969" lon="2.21454">
        <ele>590.147133</ele>
        <time>2024-06-27T21:22:22.520Z</time>
      </trkpt>
      <trkpt lat="45.96979" lon="2.21479">
        <ele>590.812327</ele>
        <time>2024-06-27T21:22:26.593Z</time>
      </trkpt>
      <trkpt lat="45.96986" lon="2.21517">
        <ele>591.722915</ele>
        <time>2024-06-27T21:22:32.148Z</time>
      </trkpt>
      <trkpt lat="45.9699" lon="2.21555">
        <ele>592.617968</ele>
        <time>2024-06-27T21:22:37.532Z</time>
      </trkpt>
      <trkpt lat="45.96987" lon="2.21587">
        <ele>593.385333</ele>
        <time>2024-06-27T21:22:41.990Z</time>
      </trkpt>
      <trkpt lat="45.96976" lon="2.21655">
        <ele>594.998482</ele>
        <time>2024-06-27T21:22:51.415Z</time>
      </trkpt>
      <trkpt lat="45.9697" lon="2.21679">
        <ele>595.585781</ele>
        <time>2024-06-27T21:22:54.820Z</time>
      </trkpt>
      <trkpt lat="45.96947" lon="2.21734">
        <ele>597.415785</ele>
        <time>2024-06-27T21:23:03.854Z</time>
      </trkpt>
      <trkpt lat="45.96944" lon="2.21752">
        <ele>597.919428</ele>
        <time>2024-06-27T21:23:06.400Z</time>
      </trkpt>
      <trkpt lat="45.96944" lon="2.21766">
        <ele>598.330498</ele>
        <time>2024-06-27T21:23:08.450Z</time>
      </trkpt>
      <trkpt lat="45.96946" lon="2.21781">
        <ele>598.754944</ele>
        <time>2024-06-27T21:23:10.585Z</time>
      </trkpt>
      <trkpt lat="45.96981" lon="2.21852">
        <ele>601.212727</ele>
        <time>2024-06-27T21:23:23.379Z</time>
      </trkpt>
      <trkpt lat="45.96994" lon="2.21874">
        <ele>602.057892</ele>
        <time>2024-06-27T21:23:27.882Z</time>
      </trkpt>
      <trkpt lat="45.97011" lon="2.21895">
        <ele>602.962058</ele>
        <time>2024-06-27T21:23:32.776Z</time>
      </trkpt>
      <trkpt lat="45.97099" lon="2.21984">
        <ele>608.913352</ele>
        <time>2024-06-27T21:23:58.018Z</time>
      </trkpt>
      <trkpt lat="45.97117" lon="2.22018">
        <ele>610.531516</ele>
        <time>2024-06-27T21:24:05.049Z</time>
      </trkpt>
      <trkpt lat="45.97121" lon="2.22041">
        <ele>611.438634</ele>
        <time>2024-06-27T21:24:08.960Z</time>
      </trkpt>
      <trkpt lat="45.97122" lon="2.22102">
        <ele>613.649836</ele>
        <time>2024-06-27T21:24:19.009Z</time>
      </trkpt>
      <trkpt lat="45.97118" lon="2.22135">
        <ele>614.733584</ele>
        <time>2024-06-27T21:24:24.472Z</time>
      </trkpt>
      <trkpt lat="45.97112" lon="2.22162">
        <ele>615.619973</ele>
        <time>2024-06-27T21:24:28.892Z</time>
      </trkpt>
      <trkpt lat="45.97089" lon="2.22231">
        <ele>618.07336</ele>
        <time>2024-06-27T21:24:40.708Z</time>
      </trkpt>
      <trkpt lat="45.97077" lon="2.22278">
        <ele>619.690141</ele>
        <time>2024-06-27T21:24:48.108Z</time>
      </trkpt>
      <trkpt lat="45.97076" lon="2.22329">
        <ele>621.265025</ele>
        <time>2024-06-27T21:24:55.319Z</time>
      </trkpt>
      <trkpt lat="45.97081" lon="2.22378">
        <ele>622.171277</ele>
        <time>2024-06-27T21:25:02.138Z</time>
      </trkpt>
      <trkpt lat="45.97089" lon="2.22414">
        <ele>622.851477</ele>
        <time>2024-06-27T21:25:07.139Z</time>
      </trkpt>
      <trkpt lat="45.97107" lon="2.22494">
        <ele>624.393603</ele>
        <time>2024-06-27T21:25:18.138Z</time>
      </trkpt>
      <trkpt lat="45.97109" lon="2.22519">
        <ele>624.859747</ele>
        <time>2024-06-27T21:25:21.414Z</time>
      </trkpt>
      <trkpt lat="45.97107" lon="2.2254">
        <ele>625.245362</ele>
        <time>2024-06-27T21:25:24.079Z</time>
      </trkpt>
      <trkpt lat="45.9708" lon="2.22646">
        <ele>627.073459</ele>
        <time>2024-06-27T21:25:38.489Z</time>
      </trkpt>
      <trkpt lat="45.97059" lon="2.22695">
        <ele>627.929233</ele>
        <time>2024-06-27T21:25:45.891Z</time>
      </trkpt>
      <trkpt lat="45.97035" lon="2.22731">
        <ele>628.691953</ele>
        <time>2024-06-27T21:25:52.584Z</time>
      </trkpt>
      <trkpt lat="45.97021" lon="2.22756">
        <ele>629.171398</ele>
        <time>2024-06-27T21:25:56.725Z</time>
      </trkpt>
      <trkpt lat="45.96989" lon="2.22835">
        <ele>629.81918</ele>
        <time>2024-06-27T21:26:08.146Z</time>
      </trkpt>
      <trkpt lat="45.96955" lon="2.22917">
        <ele>629.790278</ele>
        <time>2024-06-27T21:26:18.727Z</time>
      </trkpt>
      <trkpt lat="45.96896" lon="2.2301">
        <ele>629.523959</ele>
        <time>2024-06-27T21:26:29.210Z</time>
      </trkpt>
      <trkpt lat="45.96868" lon="2.23068">
        <ele>627.94689</ele>
        <time>2024-06-27T21:26:34.295Z</time>
      </trkpt>
      <trkpt lat="45.96848" lon="2.23122">
        <ele>626.558805</ele>
        <time>2024-06-27T21:26:38.566Z</time>
      </trkpt>
      <trkpt lat="45.96839" lon="2.23175">
        <ele>625.352977</ele>
        <time>2024-06-27T21:26:42.267Z</time>
      </trkpt>
      <trkpt lat="45.96827" lon="2.23256">
        <ele>623.39887</ele>
        <time>2024-06-27T21:26:47.875Z</time>
      </trkpt>
      <trkpt lat="45.96815" lon="2.23304">
        <ele>621.985713</ele>
        <time>2024-06-27T21:26:51.384Z</time>
      </trkpt>
      <trkpt lat="45.96815" lon="2.23321">
        <ele>621.51432</ele>
        <time>2024-06-27T21:26:52.556Z</time>
      </trkpt>
      <trkpt lat="45.9682" lon="2.23341">
        <ele>620.949315</ele>
        <time>2024-06-27T21:26:53.957Z</time>
      </trkpt>
      <trkpt lat="45.96834" lon="2.23377">
        <ele>619.816728</ele>
        <time>2024-06-27T21:26:56.771Z</time>
      </trkpt>
      <trkpt lat="45.9684" lon="2.23397">
        <ele>619.22829</ele>
        <time>2024-06-27T21:26:58.215Z</time>
      </trkpt>
      <trkpt lat="45.9688" lon="2.23826">
        <ele>609.073766</ele>
        <time>2024-06-27T21:27:27.900Z</time>
      </trkpt>
      <trkpt lat="45.96893" lon="2.23978">
        <ele>607.186381</ele>
        <time>2024-06-27T21:27:40.767Z</time>
      </trkpt>
      <trkpt lat="45.96893" lon="2.24002">
        <ele>607.012576</ele>
        <time>2024-06-27T21:27:43.257Z</time>
      </trkpt>
      <trkpt lat="45.96892" lon="2.24026">
        <ele>607.181926</ele>
        <time>2024-06-27T21:27:45.872Z</time>
      </trkpt>
      <trkpt lat="45.96871" lon="2.24153">
        <ele>608.068774</ele>
        <time>2024-06-27T21:28:00.876Z</time>
      </trkpt>
      <trkpt lat="45.96865" lon="2.24213">
        <ele>608.474595</ele>
        <time>2024-06-27T21:28:08.092Z</time>
      </trkpt>
      <trkpt lat="45.96862" lon="2.24713">
        <ele>614.791453</ele>
        <time>2024-06-27T21:29:10.614Z</time>
      </trkpt>
      <trkpt lat="45.9686" lon="2.25077">
        <ele>621.289657</ele>
        <time>2024-06-27T21:29:57.872Z</time>
      </trkpt>
      <trkpt lat="45.96861" lon="2.25122">
        <ele>622.563206</ele>
        <time>2024-06-27T21:30:04.357Z</time>
      </trkpt>
      <trkpt lat="45.96869" lon="2.25188">
        <ele>624.427771</ele>
        <time>2024-06-27T21:30:14.193Z</time>
      </trkpt>
      <trkpt lat="45.96878" lon="2.2526">
        <ele>626.476794</ele>
        <time>2024-06-27T21:30:25.468Z</time>
      </trkpt>
      <trkpt lat="45.96878" lon="2.25283">
        <ele>627.1106</ele>
        <time>2024-06-27T21:30:29.018Z</time>
      </trkpt>
      <trkpt lat="45.96871" lon="2.25318">
        <ele>628.558169</ele>
        <time>2024-06-27T21:30:35.007Z</time>
      </trkpt>
      <trkpt lat="45.96863" lon="2.2534">
        <ele>629.535266</ele>
        <time>2024-06-27T21:30:39.081Z</time>
      </trkpt>
      <trkpt lat="45.96854" lon="2.25357">
        <ele>630.343955</ele>
        <time>2024-06-27T21:30:42.517Z</time>
      </trkpt>
      <trkpt lat="45.96747" lon="2.25512">
        <ele>638.459647</ele>
        <time>2024-06-27T21:31:18.828Z</time>
      </trkpt>
      <trkpt lat="45.96735" lon="2.25538">
        <ele>639.372813</ele>
        <time>2024-06-27T21:31:23.702Z</time>
      </trkpt>
      <trkpt lat="45.96719" lon="2.25581">
        <ele>640.759945</ele>
        <time>2024-06-27T21:31:30.939Z</time>
      </trkpt>
      <trkpt lat="45.96709" lon="2.25639">
        <ele>642.497386</ele>
        <time>2024-06-27T21:31:39.646Z</time>
      </trkpt>
      <trkpt lat="45.96707" lon="2.25664">
        <ele>643.229035</ele>
        <time>2024-06-27T21:31:43.297Z</time>
      </trkpt>
      <trkpt lat="45.96708" lon="2.25692">
        <ele>644.036162</ele>
        <time>2024-06-27T21:31:47.092Z</time>
      </trkpt>
      <trkpt lat="45.9671" lon="2.25721">
        <ele>644.75164</ele>
        <time>2024-06-27T21:31:50.989Z</time>
      </trkpt>
      <trkpt lat="45.96713" lon="2.25743">
        <ele>644.979852</ele>
        <time>2024-06-27T21:31:54.020Z</time>
      </trkpt>
      <trkpt lat="45.96746" lon="2.25875">
        <ele>646.335077</ele>
        <time>2024-06-27T21:32:11.077Z</time>
      </trkpt>
      <trkpt lat="45.9675" lon="2.25904">
        <ele>646.627405</ele>
        <time>2024-06-27T21:32:14.432Z</time>
      </trkpt>
      <trkpt lat="45.96751" lon="2.25989">
        <ele>647.063878</ele>
        <time>2024-06-27T21:32:23.882Z</time>
      </trkpt>
      <trkpt lat="45.96755" lon="2.26028">
        <ele>646.815672</ele>
        <time>2024-06-27T21:32:28.207Z</time>
      </trkpt>
      <trkpt lat="45.96801" lon="2.26271">
        <ele>644.495812</ele>
        <time>2024-06-27T21:32:48.782Z</time>
      </trkpt>
      <trkpt lat="45.96839" lon="2.26467">
        <ele>640.591506</ele>
        <time>2024-06-27T21:33:03.098Z</time>
      </trkpt>
      <trkpt lat="45.9685" lon="2.26511">
        <ele>639.632031</ele>
        <time>2024-06-27T21:33:06.358Z</time>
      </trkpt>
      <trkpt lat="45.9689" lon="2.26638">
        <ele>636.823909</ele>
        <time>2024-06-27T21:33:16.090Z</time>
      </trkpt>
      <trkpt lat="45.96956" lon="2.26844">
        <ele>634.416551</ele>
        <time>2024-06-27T21:33:33.671Z</time>
      </trkpt>
      <trkpt lat="45.96971" lon="2.26884">
        <ele>634.13131</ele>
        <time>2024-06-27T21:33:38.128Z</time>
      </trkpt>
      <trkpt lat="45.97001" lon="2.26956">
        <ele>633.953932</ele>
        <time>2024-06-27T21:33:47.475Z</time>
      </trkpt>
      <trkpt lat="45.97068" lon="2.27097">
        <ele>635.207125</ele>
        <time>2024-06-27T21:34:08.069Z</time>
      </trkpt>
      <trkpt lat="45.97085" lon="2.27139">
        <ele>635.559995</ele>
        <time>2024-06-27T21:34:13.807Z</time>
      </trkpt>
      <trkpt lat="45.97117" lon="2.27312">
        <ele>635.67062</ele>
        <time>2024-06-27T21:34:33.733Z</time>
      </trkpt>
      <trkpt lat="45.97125" lon="2.27355">
        <ele>635.674071</ele>
        <time>2024-06-27T21:34:37.661Z</time>
      </trkpt>
      <trkpt lat="45.97132" lon="2.27377">
        <ele>635.675899</ele>
        <time>2024-06-27T21:34:39.671Z</time>
      </trkpt>
      <trkpt lat="45.97145" lon="2.27399">
        <ele>635.657023</ele>
        <time>2024-06-27T21:34:42.204Z</time>
      </trkpt>
      <trkpt lat="45.97165" lon="2.27424">
        <ele>635.482351</ele>
        <time>2024-06-27T21:34:45.558Z</time>
      </trkpt>
      <trkpt lat="45.97239" lon="2.27502">
        <ele>634.882826</ele>
        <time>2024-06-27T21:34:57.619Z</time>
      </trkpt>
      <trkpt lat="45.97379" lon="2.27662">
        <ele>632.635628</ele>
        <time>2024-06-27T21:35:20.046Z</time>
      </trkpt>
      <trkpt lat="45.97583" lon="2.27835">
        <ele>626.655762</ele>
        <time>2024-06-27T21:35:44.539Z</time>
      </trkpt>
      <trkpt lat="45.97621" lon="2.27897">
        <ele>625.469346</ele>
        <time>2024-06-27T21:35:50.503Z</time>
      </trkpt>
      <trkpt lat="45.9767" lon="2.28008">
        <ele>623.634044</ele>
        <time>2024-06-27T21:36:00.438Z</time>
      </trkpt>
      <trkpt lat="45.97692" lon="2.28066">
        <ele>622.93125</ele>
        <time>2024-06-27T21:36:05.898Z</time>
      </trkpt>
      <trkpt lat="45.97727" lon="2.28158">
        <ele>622.849255</ele>
        <time>2024-06-27T21:36:15.398Z</time>
      </trkpt>
      <trkpt lat="45.97768" lon="2.28275">
        <ele>622.746886</ele>
        <time>2024-06-27T21:36:29.999Z</time>
      </trkpt>
      <trkpt lat="45.97795" lon="2.28373">
        <ele>623.436847</ele>
        <time>2024-06-27T21:36:42.202Z</time>
      </trkpt>
      <trkpt lat="45.97818" lon="2.28544">
        <ele>624.392315</ele>
        <time>2024-06-27T21:37:02.625Z</time>
      </trkpt>
      <trkpt lat="45.97836" lon="2.28623">
        <ele>623.715866</ele>
        <time>2024-06-27T21:37:11.822Z</time>
      </trkpt>
      <trkpt lat="45.9786" lon="2.28684">
        <ele>623.138384</ele>
        <time>2024-06-27T21:37:18.342Z</time>
      </trkpt>
      <trkpt lat="45.97897" lon="2.28753">
        <ele>622.429014</ele>
        <time>2024-06-27T21:37:24.580Z</time>
      </trkpt>
      <trkpt lat="45.97958" lon="2.2883">
        <ele>617.322362</ele>
        <time>2024-06-27T21:37:32.141Z</time>
      </trkpt>
      <trkpt lat="45.97994" lon="2.28871">
        <ele>614.367207</ele>
        <time>2024-06-27T21:37:36.250Z</time>
      </trkpt>
      <trkpt lat="45.98011" lon="2.28891">
        <ele>612.947585</ele>
        <time>2024-06-27T21:37:38.176Z</time>
      </trkpt>
      <trkpt lat="45.98051" lon="2.28941">
        <ele>609.764539</ele>
        <time>2024-06-27T21:37:42.878Z</time>
      </trkpt>
      <trkpt lat="45.98078" lon="2.28981">
        <ele>607.76746</ele>
        <time>2024-06-27T21:37:46.275Z</time>
      </trkpt>
      <trkpt lat="45.98087" lon="2.28999">
        <ele>606.981757</ele>
        <time>2024-06-27T21:37:47.612Z</time>
      </trkpt>
      <trkpt lat="45.98098" lon="2.29024">
        <ele>605.90016</ele>
        <time>2024-06-27T21:37:49.531Z</time>
      </trkpt>
      <trkpt lat="45.98112" lon="2.29068">
        <ele>604.160011</ele>
        <time>2024-06-27T21:37:52.701Z</time>
      </trkpt>
      <trkpt lat="45.98122" lon="2.29121">
        <ele>602.157726</ele>
        <time>2024-06-27T21:37:56.739Z</time>
      </trkpt>
      <trkpt lat="45.98135" lon="2.29204">
        <ele>601.064871</ele>
        <time>2024-06-27T21:38:03.973Z</time>
      </trkpt>
      <trkpt lat="45.98151" lon="2.29339">
        <ele>600.238012</ele>
        <time>2024-06-27T21:38:17.993Z</time>
      </trkpt>
      <trkpt lat="45.98154" lon="2.29368">
        <ele>600.064492</ele>
        <time>2024-06-27T21:38:20.833Z</time>
      </trkpt>
      <trkpt lat="45.98166" lon="2.29463">
        <ele>598.457388</ele>
        <time>2024-06-27T21:38:28.500Z</time>
      </trkpt>
      <trkpt lat="45.98178" lon="2.29525">
        <ele>597.139186</ele>
        <time>2024-06-27T21:38:33.039Z</time>
      </trkpt>
      <trkpt lat="45.98182" lon="2.29549">
        <ele>596.630451</ele>
        <time>2024-06-27T21:38:34.743Z</time>
      </trkpt>
      <trkpt lat="45.98195" lon="2.29683">
        <ele>593.609581</ele>
        <time>2024-06-27T21:38:43.889Z</time>
      </trkpt>
      <trkpt lat="45.98206" lon="2.29732">
        <ele>592.195736</ele>
        <time>2024-06-27T21:38:47.376Z</time>
      </trkpt>
      <trkpt lat="45.98226" lon="2.29806">
        <ele>590.008599</ele>
        <time>2024-06-27T21:38:52.802Z</time>
      </trkpt>
      <trkpt lat="45.98232" lon="2.29825">
        <ele>589.43572</ele>
        <time>2024-06-27T21:38:54.253Z</time>
      </trkpt>
      <trkpt lat="45.98259" lon="2.29922">
        <ele>586.331313</ele>
        <time>2024-06-27T21:39:01.380Z</time>
      </trkpt>
      <trkpt lat="45.98261" lon="2.29957">
        <ele>585.127375</ele>
        <time>2024-06-27T21:39:03.700Z</time>
      </trkpt>
      <trkpt lat="45.98256" lon="2.29984">
        <ele>584.155434</ele>
        <time>2024-06-27T21:39:05.554Z</time>
      </trkpt>
      <trkpt lat="45.98244" lon="2.30013">
        <ele>582.987985</ele>
        <time>2024-06-27T21:39:07.763Z</time>
      </trkpt>
      <trkpt lat="45.98234" lon="2.30027">
        <ele>582.271627</ele>
        <time>2024-06-27T21:39:09.116Z</time>
      </trkpt>
      <trkpt lat="45.98221" lon="2.30039">
        <ele>581.50188</ele>
        <time>2024-06-27T21:39:10.562Z</time>
      </trkpt>
      <trkpt lat="45.982" lon="2.30052">
        <ele>580.374145</ele>
        <time>2024-06-27T21:39:12.655Z</time>
      </trkpt>
      <trkpt lat="45.9818" lon="2.30071">
        <ele>579.186972</ele>
        <time>2024-06-27T21:39:14.835Z</time>
      </trkpt>
      <trkpt lat="45.98164" lon="2.30091">
        <ele>578.086004</ele>
        <time>2024-06-27T21:39:16.820Z</time>
      </trkpt>
      <trkpt lat="45.98155" lon="2.30106">
        <ele>577.336014</ele>
        <time>2024-06-27T21:39:18.102Z</time>
      </trkpt>
      <trkpt lat="45.98144" lon="2.30127">
        <ele>576.376355</ele>
        <time>2024-06-27T21:39:19.776Z</time>
      </trkpt>
      <trkpt lat="45.98129" lon="2.30174">
        <ele>574.452523</ele>
        <time>2024-06-27T21:39:23.121Z</time>
      </trkpt>
      <trkpt lat="45.98124" lon="2.30199">
        <ele>573.49962</ele>
        <time>2024-06-27T21:39:24.781Z</time>
      </trkpt>
      <trkpt lat="45.98122" lon="2.30241">
        <ele>571.955545</ele>
        <time>2024-06-27T21:39:27.475Z</time>
      </trkpt>
      <trkpt lat="45.98123" lon="2.30262">
        <ele>571.163751</ele>
        <time>2024-06-27T21:39:28.869Z</time>
      </trkpt>
      <trkpt lat="45.98129" lon="2.30296">
        <ele>569.884672</ele>
        <time>2024-06-27T21:39:31.144Z</time>
      </trkpt>
      <trkpt lat="45.98135" lon="2.30316">
        <ele>569.06565</ele>
        <time>2024-06-27T21:39:32.605Z</time>
      </trkpt>
      <trkpt lat="45.98165" lon="2.30379">
        <ele>566.545625</ele>
        <time>2024-06-27T21:39:37.731Z</time>
      </trkpt>
      <trkpt lat="45.98175" lon="2.30422">
        <ele>565.091686</ele>
        <time>2024-06-27T21:39:40.694Z</time>
      </trkpt>
      <trkpt lat="45.98177" lon="2.30449">
        <ele>564.221025</ele>
        <time>2024-06-27T21:39:42.476Z</time>
      </trkpt>
      <trkpt lat="45.98174" lon="2.30495">
        <ele>562.70544</ele>
        <time>2024-06-27T21:39:45.603Z</time>
      </trkpt>
      <trkpt lat="45.9814" lon="2.3061">
        <ele>558.784298</ele>
        <time>2024-06-27T21:39:53.886Z</time>
      </trkpt>
      <trkpt lat="45.98135" lon="2.30649">
        <ele>557.562286</ele>
        <time>2024-06-27T21:39:56.531Z</time>
      </trkpt>
      <trkpt lat="45.98137" lon="2.3067">
        <ele>556.923154</ele>
        <time>2024-06-27T21:39:57.911Z</time>
      </trkpt>
      <trkpt lat="45.98142" lon="2.30688">
        <ele>556.314502</ele>
        <time>2024-06-27T21:39:59.232Z</time>
      </trkpt>
      <trkpt lat="45.98153" lon="2.30713">
        <ele>555.425075</ele>
        <time>2024-06-27T21:40:01.166Z</time>
      </trkpt>
      <trkpt lat="45.98264" lon="2.30911">
        <ele>547.867994</ele>
        <time>2024-06-27T21:40:18.372Z</time>
      </trkpt>
      <trkpt lat="45.98283" lon="2.30942">
        <ele>546.67359</ele>
        <time>2024-06-27T21:40:21.159Z</time>
      </trkpt>
      <trkpt lat="45.98309" lon="2.30969">
        <ele>545.3488</ele>
        <time>2024-06-27T21:40:24.261Z</time>
      </trkpt>
      <trkpt lat="45.98381" lon="2.31008">
        <ele>541.803027</ele>
        <time>2024-06-27T21:40:31.714Z</time>
      </trkpt>
      <trkpt lat="45.98393" lon="2.31017">
        <ele>541.162564</ele>
        <time>2024-06-27T21:40:33.023Z</time>
      </trkpt>
      <trkpt lat="45.98409" lon="2.31038">
        <ele>540.109258</ele>
        <time>2024-06-27T21:40:35.165Z</time>
      </trkpt>
      <trkpt lat="45.98422" lon="2.31078">
        <ele>538.702012</ele>
        <time>2024-06-27T21:40:38.003Z</time>
      </trkpt>
      <trkpt lat="45.98426" lon="2.31123">
        <ele>537.234465</ele>
        <time>2024-06-27T21:40:40.956Z</time>
      </trkpt>
      <trkpt lat="45.98431" lon="2.31145">
        <ele>536.414478</ele>
        <time>2024-06-27T21:40:42.490Z</time>
      </trkpt>
      <trkpt lat="45.9844" lon="2.31164">
        <ele>535.518799</ele>
        <time>2024-06-27T21:40:43.947Z</time>
      </trkpt>
      <trkpt lat="45.98475" lon="2.31218">
        <ele>532.584409</ele>
        <time>2024-06-27T21:40:48.681Z</time>
      </trkpt>
      <trkpt lat="45.98481" lon="2.31236">
        <ele>531.784921</ele>
        <time>2024-06-27T21:40:49.977Z</time>
      </trkpt>
      <trkpt lat="45.98486" lon="2.31259">
        <ele>530.834906</ele>
        <time>2024-06-27T21:40:51.510Z</time>
      </trkpt>
      <trkpt lat="45.98488" lon="2.31281">
        <ele>529.918621</ele>
        <time>2024-06-27T21:40:52.982Z</time>
      </trkpt>
      <trkpt lat="45.98486" lon="2.3131">
        <ele>528.762834</ele>
        <time>2024-06-27T21:40:54.840Z</time>
      </trkpt>
      <trkpt lat="45.98478" lon="2.31387">
        <ele>525.761519</ele>
        <time>2024-06-27T21:40:59.766Z</time>
      </trkpt>
      <trkpt lat="45.9848" lon="2.31403">
        <ele>525.209271</ele>
        <time>2024-06-27T21:41:00.783Z</time>
      </trkpt>
      <trkpt lat="45.98484" lon="2.31419">
        <ele>524.618312</ele>
        <time>2024-06-27T21:41:01.875Z</time>
      </trkpt>
      <trkpt lat="45.9849" lon="2.3143">
        <ele>524.124523</ele>
        <time>2024-06-27T21:41:02.805Z</time>
      </trkpt>
      <trkpt lat="45.985" lon="2.31441">
        <ele>523.516814</ele>
        <time>2024-06-27T21:41:03.947Z</time>
      </trkpt>
      <trkpt lat="45.98549" lon="2.31468">
        <ele>520.892389</ele>
        <time>2024-06-27T21:41:08.918Z</time>
      </trkpt>
      <trkpt lat="45.98559" lon="2.31478">
        <ele>520.265354</ele>
        <time>2024-06-27T21:41:10.135Z</time>
      </trkpt>
      <trkpt lat="45.9857" lon="2.31495">
        <ele>519.44336</ele>
        <time>2024-06-27T21:41:11.679Z</time>
      </trkpt>
      <trkpt lat="45.98576" lon="2.31513">
        <ele>518.784216</ele>
        <time>2024-06-27T21:41:12.957Z</time>
      </trkpt>
      <trkpt lat="45.98578" lon="2.3155">
        <ele>517.483195</ele>
        <time>2024-06-27T21:41:15.447Z</time>
      </trkpt>
      <trkpt lat="45.98573" lon="2.3157">
        <ele>516.833786</ele>
        <time>2024-06-27T21:41:16.917Z</time>
      </trkpt>
      <trkpt lat="45.98567" lon="2.31584">
        <ele>516.357072</ele>
        <time>2024-06-27T21:41:17.981Z</time>
      </trkpt>
      <trkpt lat="45.9856" lon="2.31596">
        <ele>515.891441</ele>
        <time>2024-06-27T21:41:19.033Z</time>
      </trkpt>
      <trkpt lat="45.98543" lon="2.31611">
        <ele>515.047335</ele>
        <time>2024-06-27T21:41:20.969Z</time>
      </trkpt>
      <trkpt lat="45.98509" lon="2.31632">
        <ele>513.461091</ele>
        <time>2024-06-27T21:41:24.564Z</time>
      </trkpt>
      <trkpt lat="45.98488" lon="2.31652">
        <ele>512.387627</ele>
        <time>2024-06-27T21:41:27.004Z</time>
      </trkpt>
      <trkpt lat="45.98464" lon="2.31698">
        <ele>510.685945</ele>
        <time>2024-06-27T21:41:30.934Z</time>
      </trkpt>
      <trkpt lat="45.98455" lon="2.31728">
        <ele>509.740733</ele>
        <time>2024-06-27T21:41:33.071Z</time>
      </trkpt>
      <trkpt lat="45.98441" lon="2.31906">
        <ele>504.193239</ele>
        <time>2024-06-27T21:41:44.981Z</time>
      </trkpt>
      <trkpt lat="45.98436" lon="2.31942">
        <ele>503.034261</ele>
        <time>2024-06-27T21:41:47.473Z</time>
      </trkpt>
      <trkpt lat="45.98379" lon="2.32146">
        <ele>496.614866</ele>
        <time>2024-06-27T21:42:02.132Z</time>
      </trkpt>
      <trkpt lat="45.98379" lon="2.32169">
        <ele>495.928363</ele>
        <time>2024-06-27T21:42:03.740Z</time>
      </trkpt>
      <trkpt lat="45.9839" lon="2.32222">
        <ele>494.335226</ele>
        <time>2024-06-27T21:42:07.489Z</time>
      </trkpt>
      <trkpt lat="45.98416" lon="2.32279">
        <ele>492.797805</ele>
        <time>2024-06-27T21:42:12.204Z</time>
      </trkpt>
      <trkpt lat="45.98426" lon="2.32308">
        <ele>492.088959</ele>
        <time>2024-06-27T21:42:14.430Z</time>
      </trkpt>
      <trkpt lat="45.98464" lon="2.32474">
        <ele>488.151592</ele>
        <time>2024-06-27T21:42:26.991Z</time>
      </trkpt>
      <trkpt lat="45.98475" lon="2.32506">
        <ele>487.308187</ele>
        <time>2024-06-27T21:42:29.549Z</time>
      </trkpt>
      <trkpt lat="45.98495" lon="2.32538">
        <ele>486.31119</ele>
        <time>2024-06-27T21:42:32.555Z</time>
      </trkpt>
      <trkpt lat="45.98513" lon="2.3256">
        <ele>485.498927</ele>
        <time>2024-06-27T21:42:34.974Z</time>
      </trkpt>
      <trkpt lat="45.98552" lon="2.32587">
        <ele>484.035714</ele>
        <time>2024-06-27T21:42:39.279Z</time>
      </trkpt>
      <trkpt lat="45.98578" lon="2.32614">
        <ele>482.938704</ele>
        <time>2024-06-27T21:42:42.461Z</time>
      </trkpt>
      <trkpt lat="45.9869" lon="2.32745">
        <ele>477.928224</ele>
        <time>2024-06-27T21:42:56.504Z</time>
      </trkpt>
      <trkpt lat="45.98726" lon="2.32773">
        <ele>476.48687</ele>
        <time>2024-06-27T21:43:00.710Z</time>
      </trkpt>
      <trkpt lat="45.98738" lon="2.32787">
        <ele>476.041562</ele>
        <time>2024-06-27T21:43:02.314Z</time>
      </trkpt>
      <trkpt lat="45.98754" lon="2.32816">
        <ele>475.697397</ele>
        <time>2024-06-27T21:43:05.307Z</time>
      </trkpt>
      <trkpt lat="45.98769" lon="2.32851">
        <ele>475.320232</ele>
        <time>2024-06-27T21:43:08.691Z</time>
      </trkpt>
      <trkpt lat="45.98781" lon="2.32895">
        <ele>474.882748</ele>
        <time>2024-06-27T21:43:12.614Z</time>
      </trkpt>
      <trkpt lat="45.98783" lon="2.32924">
        <ele>474.615098</ele>
        <time>2024-06-27T21:43:14.934Z</time>
      </trkpt>
      <trkpt lat="45.98802" lon="2.32923">
        <ele>474.36788</ele>
        <time>2024-06-27T21:43:17.267Z</time>
      </trkpt>
      <trkpt lat="45.9885" lon="2.32938">
        <ele>473.709807</ele>
        <time>2024-06-27T21:43:23.383Z</time>
      </trkpt>
      <trkpt lat="45.98863" lon="2.32946">
        <ele>473.623586</ele>
        <time>2024-06-27T21:43:25.257Z</time>
      </trkpt>
      <trkpt lat="45.98873" lon="2.32956">
        <ele>473.54715</ele>
        <time>2024-06-27T21:43:26.965Z</time>
      </trkpt>
      <trkpt lat="45.98888" lon="2.32987">
        <ele>473.38578</ele>
        <time>2024-06-27T21:43:30.658Z</time>
      </trkpt>
      <trkpt lat="45.98906" lon="2.33052">
        <ele>473.093345</ele>
        <time>2024-06-27T21:43:37.647Z</time>
      </trkpt>
      <trkpt lat="45.98914" lon="2.33073">
        <ele>472.990668</ele>
        <time>2024-06-27T21:43:39.917Z</time>
      </trkpt>
      <trkpt lat="45.98925" lon="2.33091">
        <ele>472.890816</ele>
        <time>2024-06-27T21:43:41.976Z</time>
      </trkpt>
      <trkpt lat="45.98949" lon="2.33115">
        <ele>472.708968</ele>
        <time>2024-06-27T21:43:45.526Z</time>
      </trkpt>
      <trkpt lat="45.98964" lon="2.33122">
        <ele>472.613886</ele>
        <time>2024-06-27T21:43:47.358Z</time>
      </trkpt>
      <trkpt lat="45.98983" lon="2.33125">
        <ele>472.571724</ele>
        <time>2024-06-27T21:43:49.610Z</time>
      </trkpt>
      <trkpt lat="45.99042" lon="2.33123">
        <ele>472.451703</ele>
        <time>2024-06-27T21:43:57.157Z</time>
      </trkpt>
      <trkpt lat="45.99061" lon="2.33127">
        <ele>472.411982</ele>
        <time>2024-06-27T21:44:00.026Z</time>
      </trkpt>
      <trkpt lat="45.9908" lon="2.33148">
        <ele>472.364249</ele>
        <time>2024-06-27T21:44:03.634Z</time>
      </trkpt>
      <trkpt lat="45.99102" lon="2.33193">
        <ele>472.285676</ele>
        <time>2024-06-27T21:44:09.805Z</time>
      </trkpt>
      <trkpt lat="45.99111" lon="2.33206">
        <ele>472.259657</ele>
        <time>2024-06-27T21:44:11.857Z</time>
      </trkpt>
      <trkpt lat="45.99121" lon="2.33214">
        <ele>472.261831</ele>
        <time>2024-06-27T21:44:13.683Z</time>
      </trkpt>
      <trkpt lat="45.99154" lon="2.33228">
        <ele>472.475354</ele>
        <time>2024-06-27T21:44:19.238Z</time>
      </trkpt>
      <trkpt lat="45.99198" lon="2.33265">
        <ele>472.786737</ele>
        <time>2024-06-27T21:44:27.317Z</time>
      </trkpt>
      <trkpt lat="45.99253" lon="2.33286">
        <ele>473.137498</ele>
        <time>2024-06-27T21:44:36.432Z</time>
      </trkpt>
      <trkpt lat="45.99274" lon="2.33288">
        <ele>473.267245</ele>
        <time>2024-06-27T21:44:39.806Z</time>
      </trkpt>
      <trkpt lat="45.99336" lon="2.33281">
        <ele>473.592598</ele>
        <time>2024-06-27T21:44:49.734Z</time>
      </trkpt>
      <trkpt lat="45.99349" lon="2.33285">
        <ele>473.662354</ele>
        <time>2024-06-27T21:44:51.978Z</time>
      </trkpt>
      <trkpt lat="45.99362" lon="2.33294">
        <ele>473.733075</ele>
        <time>2024-06-27T21:44:54.248Z</time>
      </trkpt>
      <trkpt lat="45.99373" lon="2.33306">
        <ele>473.802908</ele>
        <time>2024-06-27T21:44:56.494Z</time>
      </trkpt>
      <trkpt lat="45.99385" lon="2.33334">
        <ele>473.916495</ele>
        <time>2024-06-27T21:45:00.146Z</time>
      </trkpt>
      <trkpt lat="45.99389" lon="2.33368">
        <ele>474.035078</ele>
        <time>2024-06-27T21:45:03.951Z</time>
      </trkpt>
      <trkpt lat="45.99376" lon="2.33569">
        <ele>474.357207</ele>
        <time>2024-06-27T21:45:26.412Z</time>
      </trkpt>
      <trkpt lat="45.99377" lon="2.33585">
        <ele>474.370203</ele>
        <time>2024-06-27T21:45:28.180Z</time>
      </trkpt>
      <trkpt lat="45.99384" lon="2.33626">
        <ele>474.402888</ele>
        <time>2024-06-27T21:45:32.388Z</time>
      </trkpt>
      <trkpt lat="45.99391" lon="2.33644">
        <ele>474.418862</ele>
        <time>2024-06-27T21:45:34.453Z</time>
      </trkpt>
      <trkpt lat="45.99402" lon="2.33662">
        <ele>474.437128</ele>
        <time>2024-06-27T21:45:36.683Z</time>
      </trkpt>
      <trkpt lat="45.99418" lon="2.33674">
        <ele>474.435585</ele>
        <time>2024-06-27T21:45:39.243Z</time>
      </trkpt>
      <trkpt lat="45.99434" lon="2.33681">
        <ele>474.402577</ele>
        <time>2024-06-27T21:45:41.556Z</time>
      </trkpt>
      <trkpt lat="45.99481" lon="2.33683">
        <ele>474.313377</ele>
        <time>2024-06-27T21:45:47.910Z</time>
      </trkpt>
      <trkpt lat="45.99594" lon="2.33729">
        <ele>474.107188</ele>
        <time>2024-06-27T21:46:04.452Z</time>
      </trkpt>
      <trkpt lat="45.99621" lon="2.33737">
        <ele>474.108871</ele>
        <time>2024-06-27T21:46:08.779Z</time>
      </trkpt>
      <trkpt lat="45.99646" lon="2.3374">
        <ele>474.110457</ele>
        <time>2024-06-27T21:46:12.859Z</time>
      </trkpt>
      <trkpt lat="45.99677" lon="2.3374">
        <ele>474.112385</ele>
        <time>2024-06-27T21:46:17.648Z</time>
      </trkpt>
      <trkpt lat="45.99696" lon="2.33736">
        <ele>474.113538</ele>
        <time>2024-06-27T21:46:20.348Z</time>
      </trkpt>
      <trkpt lat="45.99719" lon="2.3372">
        <ele>474.115163</ele>
        <time>2024-06-27T21:46:24.084Z</time>
      </trkpt>
      <trkpt lat="45.99744" lon="2.33696">
        <ele>474.117023</ele>
        <time>2024-06-27T21:46:28.298Z</time>
      </trkpt>
      <trkpt lat="45.99757" lon="2.33689">
        <ele>474.115489</ele>
        <time>2024-06-27T21:46:30.363Z</time>
      </trkpt>
      <trkpt lat="45.99772" lon="2.33687">
        <ele>474.088027</ele>
        <time>2024-06-27T21:46:32.429Z</time>
      </trkpt>
      <trkpt lat="45.99786" lon="2.3369">
        <ele>474.061138</ele>
        <time>2024-06-27T21:46:34.726Z</time>
      </trkpt>
      <trkpt lat="45.99842" lon="2.33713">
        <ele>473.953352</ele>
        <time>2024-06-27T21:46:42.874Z</time>
      </trkpt>
      <trkpt lat="45.99873" lon="2.33716">
        <ele>473.894222</ele>
        <time>2024-06-27T21:46:47.225Z</time>
      </trkpt>
      <trkpt lat="45.99962" lon="2.33708">
        <ele>473.600922</ele>
        <time>2024-06-27T21:47:00.236Z</time>
      </trkpt>
      <trkpt lat="46.00112" lon="2.33666">
        <ele>472.647249</ele>
        <time>2024-06-27T21:47:19.714Z</time>
      </trkpt>
      <trkpt lat="46.00133" lon="2.33674">
        <ele>472.306598</ele>
        <time>2024-06-27T21:47:22.526Z</time>
      </trkpt>
      <trkpt lat="46.00143" lon="2.33687">
        <ele>472.102473</ele>
        <time>2024-06-27T21:47:24.006Z</time>
      </trkpt>
      <trkpt lat="46.00152" lon="2.33714">
        <ele>471.784978</ele>
        <time>2024-06-27T21:47:26.520Z</time>
      </trkpt>
      <trkpt lat="46.00159" lon="2.33746">
        <ele>471.421546</ele>
        <time>2024-06-27T21:47:29.212Z</time>
      </trkpt>
      <trkpt lat="46.00163" lon="2.33757">
        <ele>471.295821</ele>
        <time>2024-06-27T21:47:30.132Z</time>
      </trkpt>
      <trkpt lat="46.00169" lon="2.33768">
        <ele>471.141524</ele>
        <time>2024-06-27T21:47:31.228Z</time>
      </trkpt>
      <trkpt lat="46.00178" lon="2.33776">
        <ele>470.978365</ele>
        <time>2024-06-27T21:47:32.368Z</time>
      </trkpt>
      <trkpt lat="46.00189" lon="2.33781">
        <ele>470.801175</ele>
        <time>2024-06-27T21:47:33.683Z</time>
      </trkpt>
      <trkpt lat="46.00207" lon="2.33778">
        <ele>470.521685</ele>
        <time>2024-06-27T21:47:35.625Z</time>
      </trkpt>
      <trkpt lat="46.00259" lon="2.3374">
        <ele>469.825128</ele>
        <time>2024-06-27T21:47:41.991Z</time>
      </trkpt>
      <trkpt lat="46.00283" lon="2.3373">
        <ele>469.706187</ele>
        <time>2024-06-27T21:47:45.270Z</time>
      </trkpt>
      <trkpt lat="46.00315" lon="2.33728">
        <ele>469.548434</ele>
        <time>2024-06-27T21:47:49.510Z</time>
      </trkpt>
      <trkpt lat="46.00376" lon="2.33716">
        <ele>469.250293</ele>
        <time>2024-06-27T21:47:58.308Z</time>
      </trkpt>
      <trkpt lat="46.00408" lon="2.33716">
        <ele>469.094117</ele>
        <time>2024-06-27T21:48:03.215Z</time>
      </trkpt>
      <trkpt lat="46.00433" lon="2.33712">
        <ele>469.095948</ele>
        <time>2024-06-27T21:48:07.148Z</time>
      </trkpt>
      <trkpt lat="46.00525" lon="2.3368">
        <ele>469.454914</ele>
        <time>2024-06-27T21:48:22.364Z</time>
      </trkpt>
      <trkpt lat="46.00569" lon="2.33671">
        <ele>469.623447</ele>
        <time>2024-06-27T21:48:29.432Z</time>
      </trkpt>
      <trkpt lat="46.00598" lon="2.33672">
        <ele>469.77062</ele>
        <time>2024-06-27T21:48:33.759Z</time>
      </trkpt>
      <trkpt lat="46.00666" lon="2.33693">
        <ele>470.914276</ele>
        <time>2024-06-27T21:48:45.079Z</time>
      </trkpt>
      <trkpt lat="46.00751" lon="2.33707">
        <ele>472.325856</ele>
        <time>2024-06-27T21:49:00.774Z</time>
      </trkpt>
      <trkpt lat="46.00781" lon="2.33729">
        <ele>473.075805</ele>
        <time>2024-06-27T21:49:07.181Z</time>
      </trkpt>
      <trkpt lat="46.00804" lon="2.33763">
        <ele>474.15979</ele>
        <time>2024-06-27T21:49:13.622Z</time>
      </trkpt>
      <trkpt lat="46.00811" lon="2.33775">
        <ele>474.500142</ele>
        <time>2024-06-27T21:49:15.734Z</time>
      </trkpt>
      <trkpt lat="46.0082" lon="2.33808">
        <ele>475.307071</ele>
        <time>2024-06-27T21:49:20.645Z</time>
      </trkpt>
      <trkpt lat="46.00827" lon="2.33824">
        <ele>475.74317</ele>
        <time>2024-06-27T21:49:23.268Z</time>
      </trkpt>
      <trkpt lat="46.00839" lon="2.33835">
        <ele>476.203227</ele>
        <time>2024-06-27T21:49:26.161Z</time>
      </trkpt>
      <trkpt lat="46.00865" lon="2.33843">
        <ele>477.073462</ele>
        <time>2024-06-27T21:49:31.504Z</time>
      </trkpt>
      <trkpt lat="46.00886" lon="2.33856">
        <ele>477.806593</ele>
        <time>2024-06-27T21:49:36.210Z</time>
      </trkpt>
      <trkpt lat="46.00909" lon="2.33884">
        <ele>478.898187</ele>
        <time>2024-06-27T21:49:42.613Z</time>
      </trkpt>
      <trkpt lat="46.00914" lon="2.33897">
        <ele>479.348679</ele>
        <time>2024-06-27T21:49:44.702Z</time>
      </trkpt>
      <trkpt lat="46.00915" lon="2.33909">
        <ele>479.693689</ele>
        <time>2024-06-27T21:49:46.304Z</time>
      </trkpt>
      <trkpt lat="46.00913" lon="2.33923">
        <ele>480.139368</ele>
        <time>2024-06-27T21:49:48.457Z</time>
      </trkpt>
      <trkpt lat="46.009" lon="2.3395">
        <ele>481.140771</ele>
        <time>2024-06-27T21:49:52.940Z</time>
      </trkpt>
      <trkpt lat="46.00887" lon="2.33979">
        <ele>482.210567</ele>
        <time>2024-06-27T21:49:57.953Z</time>
      </trkpt>
      <trkpt lat="46.00885" lon="2.33993">
        <ele>482.657138</ele>
        <time>2024-06-27T21:50:00.067Z</time>
      </trkpt>
      <trkpt lat="46.00886" lon="2.3401">
        <ele>483.157094</ele>
        <time>2024-06-27T21:50:02.593Z</time>
      </trkpt>
      <trkpt lat="46.00895" lon="2.34038">
        <ele>484.115469</ele>
        <time>2024-06-27T21:50:07.238Z</time>
      </trkpt>
      <trkpt lat="46.0091" lon="2.34068">
        <ele>485.25017</ele>
        <time>2024-06-27T21:50:13.066Z</time>
      </trkpt>
      <trkpt lat="46.00926" lon="2.34084">
        <ele>486.128546</ele>
        <time>2024-06-27T21:50:17.745Z</time>
      </trkpt>
      <trkpt lat="46.00974" lon="2.34116">
        <ele>489.251217</ele>
        <time>2024-06-27T21:50:30.003Z</time>
      </trkpt>
      <trkpt lat="46.01003" lon="2.34139">
        <ele>491.259501</ele>
        <time>2024-06-27T21:50:38.245Z</time>
      </trkpt>
      <trkpt lat="46.01016" lon="2.34152">
        <ele>492.280557</ele>
        <time>2024-06-27T21:50:42.523Z</time>
      </trkpt>
      <trkpt lat="46.01046" lon="2.34195">
        <ele>494.919707</ele>
        <time>2024-06-27T21:50:53.325Z</time>
      </trkpt>
      <trkpt lat="46.01059" lon="2.34217">
        <ele>496.160669</ele>
        <time>2024-06-27T21:50:58.281Z</time>
      </trkpt>
      <trkpt lat="46.01077" lon="2.34241">
        <ele>497.657435</ele>
        <time>2024-06-27T21:51:04.256Z</time>
      </trkpt>
      <trkpt lat="46.01116" lon="2.34279">
        <ele>500.066541</ele>
        <time>2024-06-27T21:51:15.561Z</time>
      </trkpt>
      <trkpt lat="46.01131" lon="2.34304">
        <ele>501.227247</ele>
        <time>2024-06-27T21:51:20.890Z</time>
      </trkpt>
      <trkpt lat="46.01215" lon="2.34485">
        <ele>508.761904</ele>
        <time>2024-06-27T21:51:53.834Z</time>
      </trkpt>
      <trkpt lat="46.01225" lon="2.34501">
        <ele>509.476722</ele>
        <time>2024-06-27T21:51:57.092Z</time>
      </trkpt>
      <trkpt lat="46.01271" lon="2.34549">
        <ele>512.103457</ele>
        <time>2024-06-27T21:52:09.252Z</time>
      </trkpt>
      <trkpt lat="46.01302" lon="2.34595">
        <ele>514.162747</ele>
        <time>2024-06-27T21:52:19.106Z</time>
      </trkpt>
      <trkpt lat="46.01317" lon="2.34605">
        <ele>514.941431</ele>
        <time>2024-06-27T21:52:22.907Z</time>
      </trkpt>
      <trkpt lat="46.01333" lon="2.34611">
        <ele>515.701215</ele>
        <time>2024-06-27T21:52:26.511Z</time>
      </trkpt>
      <trkpt lat="46.01407" lon="2.34623">
        <ele>519.314072</ele>
        <time>2024-06-27T21:52:43.429Z</time>
      </trkpt>
      <trkpt lat="46.0142" lon="2.34629">
        <ele>519.937547</ele>
        <time>2024-06-27T21:52:46.309Z</time>
      </trkpt>
      <trkpt lat="46.01431" lon="2.34639">
        <ele>520.604631</ele>
        <time>2024-06-27T21:52:49.337Z</time>
      </trkpt>
      <trkpt lat="46.01439" lon="2.34654">
        <ele>521.227331</ele>
        <time>2024-06-27T21:52:52.161Z</time>
      </trkpt>
      <trkpt lat="46.01443" lon="2.34683">
        <ele>522.202229</ele>
        <time>2024-06-27T21:52:56.552Z</time>
      </trkpt>
      <trkpt lat="46.01441" lon="2.34699">
        <ele>522.727085</ele>
        <time>2024-06-27T21:52:58.904Z</time>
      </trkpt>
      <trkpt lat="46.01431" lon="2.34735">
        <ele>524.029718</ele>
        <time>2024-06-27T21:53:04.911Z</time>
      </trkpt>
      <trkpt lat="46.01429" lon="2.34749">
        <ele>524.473332</ele>
        <time>2024-06-27T21:53:06.987Z</time>
      </trkpt>
      <trkpt lat="46.0143" lon="2.34761">
        <ele>524.882029</ele>
        <time>2024-06-27T21:53:08.943Z</time>
      </trkpt>
      <trkpt lat="46.01433" lon="2.34772">
        <ele>525.267721</ele>
        <time>2024-06-27T21:53:10.782Z</time>
      </trkpt>
      <trkpt lat="46.01441" lon="2.34785">
        <ele>525.813962</ele>
        <time>2024-06-27T21:53:13.356Z</time>
      </trkpt>
      <trkpt lat="46.01462" lon="2.34808">
        <ele>527.058151</ele>
        <time>2024-06-27T21:53:19.327Z</time>
      </trkpt>
      <trkpt lat="46.01491" lon="2.34867">
        <ele>529.40839</ele>
        <time>2024-06-27T21:53:30.592Z</time>
      </trkpt>
      <trkpt lat="46.01576" lon="2.35034">
        <ele>534.83228</ele>
        <time>2024-06-27T21:54:01.556Z</time>
      </trkpt>
      <trkpt lat="46.01585" lon="2.35059">
        <ele>535.436113</ele>
        <time>2024-06-27T21:54:05.659Z</time>
      </trkpt>
      <trkpt lat="46.01658" lon="2.35336">
        <ele>538.497038</ele>
        <time>2024-06-27T21:54:41.120Z</time>
      </trkpt>
      <trkpt lat="46.01661" lon="2.35352">
        <ele>538.556918</ele>
        <time>2024-06-27T21:54:42.515Z</time>
      </trkpt>
      <trkpt lat="46.01657" lon="2.354">
        <ele>538.73006</ele>
        <time>2024-06-27T21:54:46.425Z</time>
      </trkpt>
      <trkpt lat="46.01658" lon="2.35423">
        <ele>538.514275</ele>
        <time>2024-06-27T21:54:48.288Z</time>
      </trkpt>
      <trkpt lat="46.01666" lon="2.35453">
        <ele>537.949701</ele>
        <time>2024-06-27T21:54:50.851Z</time>
      </trkpt>
      <trkpt lat="46.01674" lon="2.35466">
        <ele>537.648237</ele>
        <time>2024-06-27T21:54:52.224Z</time>
      </trkpt>
      <trkpt lat="46.0169" lon="2.35475">
        <ele>537.224041</ele>
        <time>2024-06-27T21:54:54.131Z</time>
      </trkpt>
      <trkpt lat="46.01724" lon="2.35462">
        <ele>536.339425</ele>
        <time>2024-06-27T21:54:57.930Z</time>
      </trkpt>
      <trkpt lat="46.0177" lon="2.35455">
        <ele>535.190646</ele>
        <time>2024-06-27T21:55:02.608Z</time>
      </trkpt>
      <trkpt lat="46.01833" lon="2.35445">
        <ele>533.413724</ele>
        <time>2024-06-27T21:55:08.867Z</time>
      </trkpt>
      <trkpt lat="46.01853" lon="2.35437">
        <ele>532.763774</ele>
        <time>2024-06-27T21:55:10.877Z</time>
      </trkpt>
      <trkpt lat="46.01882" lon="2.35416">
        <ele>531.717931</ele>
        <time>2024-06-27T21:55:14.158Z</time>
      </trkpt>
      <trkpt lat="46.0191" lon="2.35402">
        <ele>530.802806</ele>
        <time>2024-06-27T21:55:17.095Z</time>
      </trkpt>
      <trkpt lat="46.01937" lon="2.35394">
        <ele>529.901249</ele>
        <time>2024-06-27T21:55:20.069Z</time>
      </trkpt>
      <trkpt lat="46.01985" lon="2.35387">
        <ele>528.448871</ele>
        <time>2024-06-27T21:55:25.080Z</time>
      </trkpt>
      <trkpt lat="46.0203" lon="2.35362">
        <ele>527.541088</ele>
        <time>2024-06-27T21:55:30.156Z</time>
      </trkpt>
      <trkpt lat="46.02044" lon="2.3536">
        <ele>527.282284</ele>
        <time>2024-06-27T21:55:31.601Z</time>
      </trkpt>
      <trkpt lat="46.02106" lon="2.35363">
        <ele>526.12922</ele>
        <time>2024-06-27T21:55:38.397Z</time>
      </trkpt>
      <trkpt lat="46.02192" lon="2.35358">
        <ele>524.983601</ele>
        <time>2024-06-27T21:55:49.333Z</time>
      </trkpt>
      <trkpt lat="46.02206" lon="2.35361">
        <ele>524.908691</ele>
        <time>2024-06-27T21:55:51.192Z</time>
      </trkpt>
      <trkpt lat="46.02229" lon="2.35374">
        <ele>524.76876</ele>
        <time>2024-06-27T21:55:54.631Z</time>
      </trkpt>
      <trkpt lat="46.02271" lon="2.35417">
        <ele>524.48078</ele>
        <time>2024-06-27T21:56:01.394Z</time>
      </trkpt>
      <trkpt lat="46.02281" lon="2.35431">
        <ele>524.400311</ele>
        <time>2024-06-27T21:56:03.323Z</time>
      </trkpt>
      <trkpt lat="46.02288" lon="2.35447">
        <ele>524.32825</ele>
        <time>2024-06-27T21:56:05.092Z</time>
      </trkpt>
      <trkpt lat="46.02289" lon="2.35475">
        <ele>524.219535</ele>
        <time>2024-06-27T21:56:07.700Z</time>
      </trkpt>
      <trkpt lat="46.02286" lon="2.3549">
        <ele>524.109694</ele>
        <time>2024-06-27T21:56:09.204Z</time>
      </trkpt>
      <trkpt lat="46.02256" lon="2.3554">
        <ele>523.311946</ele>
        <time>2024-06-27T21:56:15.166Z</time>
      </trkpt>
      <trkpt lat="46.02248" lon="2.35563">
        <ele>522.989532</ele>
        <time>2024-06-27T21:56:17.445Z</time>
      </trkpt>
      <trkpt lat="46.02245" lon="2.35586">
        <ele>522.711902</ele>
        <time>2024-06-27T21:56:19.340Z</time>
      </trkpt>
      <trkpt lat="46.02249" lon="2.35612">
        <ele>522.391206</ele>
        <time>2024-06-27T21:56:21.392Z</time>
      </trkpt>
      <trkpt lat="46.02247" lon="2.35636">
        <ele>522.086935</ele>
        <time>2024-06-27T21:56:23.317Z</time>
      </trkpt>
      <trkpt lat="46.02244" lon="2.35655">
        <ele>521.852368</ele>
        <time>2024-06-27T21:56:24.727Z</time>
      </trkpt>
      <trkpt lat="46.02222" lon="2.357">
        <ele>521.184944</ele>
        <time>2024-06-27T21:56:28.624Z</time>
      </trkpt>
      <trkpt lat="46.02217" lon="2.35714">
        <ele>520.980493</ele>
        <time>2024-06-27T21:56:29.703Z</time>
      </trkpt>
      <trkpt lat="46.02217" lon="2.35729">
        <ele>520.639794</ele>
        <time>2024-06-27T21:56:30.773Z</time>
      </trkpt>
      <trkpt lat="46.0222" lon="2.3574">
        <ele>520.371626</ele>
        <time>2024-06-27T21:56:31.601Z</time>
      </trkpt>
      <trkpt lat="46.0223" lon="2.35757">
        <ele>519.877648</ele>
        <time>2024-06-27T21:56:33.121Z</time>
      </trkpt>
      <trkpt lat="46.02237" lon="2.35762">
        <ele>519.6175</ele>
        <time>2024-06-27T21:56:33.925Z</time>
      </trkpt>
      <trkpt lat="46.02247" lon="2.35764">
        <ele>519.290305</ele>
        <time>2024-06-27T21:56:34.934Z</time>
      </trkpt>
      <trkpt lat="46.02258" lon="2.35764">
        <ele>518.944024</ele>
        <time>2024-06-27T21:56:35.997Z</time>
      </trkpt>
      <trkpt lat="46.02304" lon="2.35744">
        <ele>517.399772</ele>
        <time>2024-06-27T21:56:40.752Z</time>
      </trkpt>
      <trkpt lat="46.0232" lon="2.35742">
        <ele>516.877135</ele>
        <time>2024-06-27T21:56:42.378Z</time>
      </trkpt>
      <trkpt lat="46.02354" lon="2.35743">
        <ele>515.789683</ele>
        <time>2024-06-27T21:56:45.823Z</time>
      </trkpt>
      <trkpt lat="46.02368" lon="2.35747">
        <ele>515.356718</ele>
        <time>2024-06-27T21:56:47.216Z</time>
      </trkpt>
      <trkpt lat="46.02392" lon="2.35765">
        <ele>515.048108</ele>
        <time>2024-06-27T21:56:50.133Z</time>
      </trkpt>
      <trkpt lat="46.02404" lon="2.35778">
        <ele>514.92566</ele>
        <time>2024-06-27T21:56:51.814Z</time>
      </trkpt>
      <trkpt lat="46.02433" lon="2.35822">
        <ele>514.572611</ele>
        <time>2024-06-27T21:56:57.317Z</time>
      </trkpt>
      <trkpt lat="46.02442" lon="2.3584">
        <ele>514.447029</ele>
        <time>2024-06-27T21:56:59.551Z</time>
      </trkpt>
      <trkpt lat="46.02446" lon="2.35858">
        <ele>514.340255</ele>
        <time>2024-06-27T21:57:01.610Z</time>
      </trkpt>
      <trkpt lat="46.02447" lon="2.35872">
        <ele>514.257386</ele>
        <time>2024-06-27T21:57:03.211Z</time>
      </trkpt>
      <trkpt lat="46.02444" lon="2.35887">
        <ele>514.168666</ele>
        <time>2024-06-27T21:57:04.925Z</time>
      </trkpt>
      <trkpt lat="46.02439" lon="2.35899">
        <ele>514.08551</ele>
        <time>2024-06-27T21:57:06.533Z</time>
      </trkpt>
      <trkpt lat="46.02422" lon="2.35923">
        <ele>513.890253</ele>
        <time>2024-06-27T21:57:10.251Z</time>
      </trkpt>
      <trkpt lat="46.02416" lon="2.35937">
        <ele>513.795203</ele>
        <time>2024-06-27T21:57:11.830Z</time>
      </trkpt>
      <trkpt lat="46.02409" lon="2.35971">
        <ele>513.404676</ele>
        <time>2024-06-27T21:57:15.034Z</time>
      </trkpt>
      <trkpt lat="46.02398" lon="2.36006">
        <ele>512.938736</ele>
        <time>2024-06-27T21:57:18.212Z</time>
      </trkpt>
      <trkpt lat="46.02391" lon="2.3607">
        <ele>512.160411</ele>
        <time>2024-06-27T21:57:23.219Z</time>
      </trkpt>
      <trkpt lat="46.02393" lon="2.36099">
        <ele>511.809195</ele>
        <time>2024-06-27T21:57:25.447Z</time>
      </trkpt>
      <trkpt lat="46.024" lon="2.36134">
        <ele>511.365935</ele>
        <time>2024-06-27T21:57:28.208Z</time>
      </trkpt>
      <trkpt lat="46.02406" lon="2.36152">
        <ele>511.116986</ele>
        <time>2024-06-27T21:57:29.737Z</time>
      </trkpt>
      <trkpt lat="46.02413" lon="2.36163">
        <ele>510.941452</ele>
        <time>2024-06-27T21:57:30.825Z</time>
      </trkpt>
      <trkpt lat="46.02429" lon="2.36168">
        <ele>510.648097</ele>
        <time>2024-06-27T21:57:32.574Z</time>
      </trkpt>
      <trkpt lat="46.02449" lon="2.36166">
        <ele>510.10025</ele>
        <time>2024-06-27T21:57:34.610Z</time>
      </trkpt>
      <trkpt lat="46.02461" lon="2.3617">
        <ele>509.745555</ele>
        <time>2024-06-27T21:57:35.866Z</time>
      </trkpt>
      <trkpt lat="46.02474" lon="2.36177">
        <ele>509.36614</ele>
        <time>2024-06-27T21:57:37.194Z</time>
      </trkpt>
      <trkpt lat="46.02558" lon="2.36264">
        <ele>506.395115</ele>
        <time>2024-06-27T21:57:47.619Z</time>
      </trkpt>
      <trkpt lat="46.02569" lon="2.36279">
        <ele>505.952109</ele>
        <time>2024-06-27T21:57:49.252Z</time>
      </trkpt>
      <trkpt lat="46.02581" lon="2.363">
        <ele>505.467417</ele>
        <time>2024-06-27T21:57:51.277Z</time>
      </trkpt>
      <trkpt lat="46.02606" lon="2.36366">
        <ele>505.274508</ele>
        <time>2024-06-27T21:57:57.421Z</time>
      </trkpt>
      <trkpt lat="46.02614" lon="2.36383">
        <ele>505.224156</ele>
        <time>2024-06-27T21:57:59.174Z</time>
      </trkpt>
      <trkpt lat="46.0263" lon="2.36419">
        <ele>505.113075</ele>
        <time>2024-06-27T21:58:03.061Z</time>
      </trkpt>
      <trkpt lat="46.02651" lon="2.36469">
        <ele>504.964762</ele>
        <time>2024-06-27T21:58:08.859Z</time>
      </trkpt>
      <trkpt lat="46.02665" lon="2.36521">
        <ele>504.823029</ele>
        <time>2024-06-27T21:58:15.039Z</time>
      </trkpt>
      <trkpt lat="46.02689" lon="2.36676">
        <ele>507.904466</ele>
        <time>2024-06-27T21:58:35.788Z</time>
      </trkpt>
      <trkpt lat="46.02713" lon="2.36817">
        <ele>511.070862</ele>
        <time>2024-06-27T21:58:57.201Z</time>
      </trkpt>
      <trkpt lat="46.02714" lon="2.36827">
        <ele>511.315456</ele>
        <time>2024-06-27T21:58:58.535Z</time>
      </trkpt>
      <trkpt lat="46.02709" lon="2.36848">
        <ele>511.885563</ele>
        <time>2024-06-27T21:59:01.687Z</time>
      </trkpt>
      <trkpt lat="46.02701" lon="2.36869">
        <ele>512.542636</ele>
        <time>2024-06-27T21:59:05.260Z</time>
      </trkpt>
      <trkpt lat="46.02697" lon="2.36886">
        <ele>512.996479</ele>
        <time>2024-06-27T21:59:07.748Z</time>
      </trkpt>
      <trkpt lat="46.02697" lon="2.36905">
        <ele>513.495248</ele>
        <time>2024-06-27T21:59:10.468Z</time>
      </trkpt>
      <trkpt lat="46.02703" lon="2.36936">
        <ele>514.359294</ele>
        <time>2024-06-27T21:59:15.143Z</time>
      </trkpt>
      <trkpt lat="46.02702" lon="2.36958">
        <ele>514.934783</ele>
        <time>2024-06-27T21:59:18.227Z</time>
      </trkpt>
      <trkpt lat="46.02695" lon="2.36975">
        <ele>515.446062</ele>
        <time>2024-06-27T21:59:20.973Z</time>
      </trkpt>
      <trkpt lat="46.02686" lon="2.36985">
        <ele>515.883316</ele>
        <time>2024-06-27T21:59:23.334Z</time>
      </trkpt>
      <trkpt lat="46.02677" lon="2.36988">
        <ele>516.21684</ele>
        <time>2024-06-27T21:59:25.152Z</time>
      </trkpt>
      <trkpt lat="46.02657" lon="2.36988">
        <ele>516.98136</ele>
        <time>2024-06-27T21:59:29.345Z</time>
      </trkpt>
      <trkpt lat="46.02643" lon="2.36991">
        <ele>517.52773</ele>
        <time>2024-06-27T21:59:32.349Z</time>
      </trkpt>
      <trkpt lat="46.02631" lon="2.36997">
        <ele>517.976351</ele>
        <time>2024-06-27T21:59:34.816Z</time>
      </trkpt>
      <trkpt lat="46.02614" lon="2.37013">
        <ele>518.755406</ele>
        <time>2024-06-27T21:59:39.062Z</time>
      </trkpt>
      <trkpt lat="46.02599" lon="2.37037">
        <ele>519.580315</ele>
        <time>2024-06-27T21:59:43.485Z</time>
      </trkpt>
      <trkpt lat="46.02593" lon="2.37062">
        <ele>520.270642</ele>
        <time>2024-06-27T21:59:47.206Z</time>
      </trkpt>
      <trkpt lat="46.02594" lon="2.37086">
        <ele>520.88468</ele>
        <time>2024-06-27T21:59:50.516Z</time>
      </trkpt>
      <trkpt lat="46.02601" lon="2.37109">
        <ele>521.540249</ele>
        <time>2024-06-27T21:59:54.071Z</time>
      </trkpt>
      <trkpt lat="46.02617" lon="2.37139">
        <ele>522.513212</ele>
        <time>2024-06-27T21:59:59.418Z</time>
      </trkpt>
      <trkpt lat="46.02657" lon="2.37174">
        <ele>524.534025</ele>
        <time>2024-06-27T22:00:09.233Z</time>
      </trkpt>
      <trkpt lat="46.02674" lon="2.37194">
        <ele>525.681626</ele>
        <time>2024-06-27T22:00:14.158Z</time>
      </trkpt>
      <trkpt lat="46.02768" lon="2.37322">
        <ele>532.376656</ele>
        <time>2024-06-27T22:00:44.463Z</time>
      </trkpt>
      <trkpt lat="46.02786" lon="2.37337">
        <ele>533.472585</ele>
        <time>2024-06-27T22:00:49.280Z</time>
      </trkpt>
      <trkpt lat="46.02808" lon="2.37337">
        <ele>534.63319</ele>
        <time>2024-06-27T22:00:54.327Z</time>
      </trkpt>
      <trkpt lat="46.02817" lon="2.37334">
        <ele>535.132719</ele>
        <time>2024-06-27T22:00:56.491Z</time>
      </trkpt>
      <trkpt lat="46.02835" lon="2.37314">
        <ele>536.327032</ele>
        <time>2024-06-27T22:01:01.625Z</time>
      </trkpt>
      <trkpt lat="46.0284" lon="2.37298">
        <ele>536.960524</ele>
        <time>2024-06-27T22:01:04.353Z</time>
      </trkpt>
      <trkpt lat="46.02854" lon="2.37236">
        <ele>539.382558</ele>
        <time>2024-06-27T22:01:14.669Z</time>
      </trkpt>
      <trkpt lat="46.02859" lon="2.37224">
        <ele>539.900822</ele>
        <time>2024-06-27T22:01:16.843Z</time>
      </trkpt>
      <trkpt lat="46.02925" lon="2.37085">
        <ele>546.451299</ele>
        <time>2024-06-27T22:01:43.761Z</time>
      </trkpt>
      <trkpt lat="46.02939" lon="2.37065">
        <ele>547.606284</ele>
        <time>2024-06-27T22:01:48.556Z</time>
      </trkpt>
      <trkpt lat="46.02966" lon="2.37044">
        <ele>549.35746</ele>
        <time>2024-06-27T22:01:55.732Z</time>
      </trkpt>
      <trkpt lat="46.02997" lon="2.37035">
        <ele>551.197356</ele>
        <time>2024-06-27T22:02:03.426Z</time>
      </trkpt>
      <trkpt lat="46.03038" lon="2.37037">
        <ele>553.641655</ele>
        <time>2024-06-27T22:02:13.563Z</time>
      </trkpt>
      <trkpt lat="46.03063" lon="2.37034">
        <ele>555.304315</ele>
        <time>2024-06-27T22:02:19.997Z</time>
      </trkpt>
      <trkpt lat="46.03082" lon="2.37039">
        <ele>556.524796</ele>
        <time>2024-06-27T22:02:24.760Z</time>
      </trkpt>
      <trkpt lat="46.0316" lon="2.37111">
        <ele>562.49317</ele>
        <time>2024-06-27T22:02:48.530Z</time>
      </trkpt>
      <trkpt lat="46.03191" lon="2.37162">
        <ele>565.278465</ele>
        <time>2024-06-27T22:03:00.074Z</time>
      </trkpt>
      <trkpt lat="46.03323" lon="2.37402">
        <ele>575.054581</ele>
        <time>2024-06-27T22:03:46.672Z</time>
      </trkpt>
      <trkpt lat="46.03341" lon="2.37427">
        <ele>575.96038</ele>
        <time>2024-06-27T22:03:51.510Z</time>
      </trkpt>
      <trkpt lat="46.03363" lon="2.37447">
        <ele>576.89861</ele>
        <time>2024-06-27T22:03:56.496Z</time>
      </trkpt>
      <trkpt lat="46.03388" lon="2.3746">
        <ele>577.881791</ele>
        <time>2024-06-27T22:04:01.849Z</time>
      </trkpt>
      <trkpt lat="46.03404" lon="2.3746">
        <ele>578.448904</ele>
        <time>2024-06-27T22:04:04.909Z</time>
      </trkpt>
      <trkpt lat="46.03437" lon="2.37452">
        <ele>579.683089</ele>
        <time>2024-06-27T22:04:11.672Z</time>
      </trkpt>
      <trkpt lat="46.0346" lon="2.37455">
        <ele>580.752251</ele>
        <time>2024-06-27T22:04:16.493Z</time>
      </trkpt>
      <trkpt lat="46.03471" lon="2.37462">
        <ele>581.295947</ele>
        <time>2024-06-27T22:04:18.868Z</time>
      </trkpt>
      <trkpt lat="46.03496" lon="2.37496">
        <ele>582.898008</ele>
        <time>2024-06-27T22:04:26.007Z</time>
      </trkpt>
      <trkpt lat="46.03508" lon="2.37508">
        <ele>583.537077</ele>
        <time>2024-06-27T22:04:28.965Z</time>
      </trkpt>
      <trkpt lat="46.03691" lon="2.37637">
        <ele>593.104964</ele>
        <time>2024-06-27T22:05:16.195Z</time>
      </trkpt>
      <trkpt lat="46.03703" lon="2.37649">
        <ele>593.803851</ele>
        <time>2024-06-27T22:05:19.403Z</time>
      </trkpt>
      <trkpt lat="46.03714" lon="2.37668">
        <ele>594.661912</ele>
        <time>2024-06-27T22:05:23.321Z</time>
      </trkpt>
      <trkpt lat="46.0375" lon="2.37745">
        <ele>597.159372</ele>
        <time>2024-06-27T22:05:36.419Z</time>
      </trkpt>
      <trkpt lat="46.03763" lon="2.37766">
        <ele>597.609442</ele>
        <time>2024-06-27T22:05:40.220Z</time>
      </trkpt>
      <trkpt lat="46.03777" lon="2.37781">
        <ele>598.015184</ele>
        <time>2024-06-27T22:05:43.560Z</time>
      </trkpt>
      <trkpt lat="46.0395" lon="2.37931">
        <ele>602.219377</ele>
        <time>2024-06-27T22:06:19.401Z</time>
      </trkpt>
      <trkpt lat="46.03965" lon="2.37948">
        <ele>602.565723</ele>
        <time>2024-06-27T22:06:22.954Z</time>
      </trkpt>
      <trkpt lat="46.03997" lon="2.37996">
        <ele>603.370341</ele>
        <time>2024-06-27T22:06:31.356Z</time>
      </trkpt>
      <trkpt lat="46.04083" lon="2.38086">
        <ele>604.326673</ele>
        <time>2024-06-27T22:06:49.842Z</time>
      </trkpt>
      <trkpt lat="46.04095" lon="2.38094">
        <ele>604.396474</ele>
        <time>2024-06-27T22:06:51.997Z</time>
      </trkpt>
      <trkpt lat="46.04117" lon="2.38098">
        <ele>604.510848</ele>
        <time>2024-06-27T22:06:55.575Z</time>
      </trkpt>
      <trkpt lat="46.04128" lon="2.38211">
        <ele>604.662079</ele>
        <time>2024-06-27T22:07:10.335Z</time>
      </trkpt>
      <trkpt lat="46.04157" lon="2.38274">
        <ele>603.399066</ele>
        <time>2024-06-27T22:07:18.911Z</time>
      </trkpt>
      <trkpt lat="46.04174" lon="2.38333">
        <ele>602.314413</ele>
        <time>2024-06-27T22:07:25.582Z</time>
      </trkpt>
      <trkpt lat="46.042" lon="2.38437">
        <ele>600.421362</ele>
        <time>2024-06-27T22:07:36.683Z</time>
      </trkpt>
      <trkpt lat="46.04201" lon="2.38456">
        <ele>599.975372</ele>
        <time>2024-06-27T22:07:38.594Z</time>
      </trkpt>
      <trkpt lat="46.04198" lon="2.38492">
        <ele>599.127536</ele>
        <time>2024-06-27T22:07:42.231Z</time>
      </trkpt>
      <trkpt lat="46.04177" lon="2.38566">
        <ele>597.307654</ele>
        <time>2024-06-27T22:07:49.917Z</time>
      </trkpt>
      <trkpt lat="46.04213" lon="2.38637">
        <ele>595.269854</ele>
        <time>2024-06-27T22:07:58.624Z</time>
      </trkpt>
      <trkpt lat="46.04211" lon="2.38672">
        <ele>594.49869</ele>
        <time>2024-06-27T22:08:02.356Z</time>
      </trkpt>
      <trkpt lat="46.04197" lon="2.38716">
        <ele>594.36802</ele>
        <time>2024-06-27T22:08:07.822Z</time>
      </trkpt>
      <trkpt lat="46.04195" lon="2.38733">
        <ele>594.318728</ele>
        <time>2024-06-27T22:08:10.056Z</time>
      </trkpt>
      <trkpt lat="46.04211" lon="2.38791">
        <ele>594.148817</ele>
        <time>2024-06-27T22:08:18.263Z</time>
      </trkpt>
      <trkpt lat="46.04197" lon="2.38802">
        <ele>594.083144</ele>
        <time>2024-06-27T22:08:21.543Z</time>
      </trkpt>
      <trkpt lat="46.04169" lon="2.38855">
        <ele>593.90294</ele>
        <time>2024-06-27T22:08:30.698Z</time>
      </trkpt>
      <trkpt lat="46.04162" lon="2.38864">
        <ele>593.864573</ele>
        <time>2024-06-27T22:08:32.696Z</time>
      </trkpt>
      <trkpt lat="46.04152" lon="2.38867">
        <ele>593.822994</ele>
        <time>2024-06-27T22:08:34.820Z</time>
      </trkpt>
      <trkpt lat="46.04133" lon="2.38865">
        <ele>593.841399</ele>
        <time>2024-06-27T22:08:38.675Z</time>
      </trkpt>
      <trkpt lat="46.04127" lon="2.38869">
        <ele>593.866197</ele>
        <time>2024-06-27T22:08:40.065Z</time>
      </trkpt>
      <trkpt lat="46.04125" lon="2.38882">
        <ele>593.898811</ele>
        <time>2024-06-27T22:08:41.855Z</time>
      </trkpt>
      <trkpt lat="46.04136" lon="2.38902">
        <ele>593.96401</ele>
        <time>2024-06-27T22:08:45.442Z</time>
      </trkpt>
      <trkpt lat="46.04144" lon="2.38911">
        <ele>594.000791</ele>
        <time>2024-06-27T22:08:47.548Z</time>
      </trkpt>
      <trkpt lat="46.04163" lon="2.38954">
        <ele>594.134252</ele>
        <time>2024-06-27T22:08:55.131Z</time>
      </trkpt>
      <trkpt lat="46.04172" lon="2.38984">
        <ele>594.216207</ele>
        <time>2024-06-27T22:08:59.611Z</time>
      </trkpt>
      <trkpt lat="46.04174" lon="2.39005">
        <ele>594.271564</ele>
        <time>2024-06-27T22:09:02.681Z</time>
      </trkpt>
      <trkpt lat="46.0417" lon="2.39062">
        <ele>594.418346</ele>
        <time>2024-06-27T22:09:10.092Z</time>
      </trkpt>
      <trkpt lat="46.04164" lon="2.39091">
        <ele>594.545879</ele>
        <time>2024-06-27T22:09:13.842Z</time>
      </trkpt>
      <trkpt lat="46.04159" lon="2.3913">
        <ele>594.784463</ele>
        <time>2024-06-27T22:09:18.665Z</time>
      </trkpt>
      <trkpt lat="46.04162" lon="2.39161">
        <ele>594.979169</ele>
        <time>2024-06-27T22:09:22.774Z</time>
      </trkpt>
      <trkpt lat="46.04169" lon="2.39192">
        <ele>595.178628</ele>
        <time>2024-06-27T22:09:27.076Z</time>
      </trkpt>
      <trkpt lat="46.0418" lon="2.39213">
        <ele>595.338054</ele>
        <time>2024-06-27T22:09:30.793Z</time>
      </trkpt>
      <trkpt lat="46.04199" lon="2.3924">
        <ele>595.572553</ele>
        <time>2024-06-27T22:09:36.410Z</time>
      </trkpt>
      <trkpt lat="46.04232" lon="2.39265">
        <ele>595.900227</ele>
        <time>2024-06-27T22:09:44.561Z</time>
      </trkpt>
      <trkpt lat="46.04245" lon="2.39285">
        <ele>596.145131</ele>
        <time>2024-06-27T22:09:48.894Z</time>
      </trkpt>
      <trkpt lat="46.04265" lon="2.39337">
        <ele>597.678879</ele>
        <time>2024-06-27T22:09:58.358Z</time>
      </trkpt>
      <trkpt lat="46.0428" lon="2.39361">
        <ele>598.533139</ele>
        <time>2024-06-27T22:10:03.782Z</time>
      </trkpt>
      <trkpt lat="46.04305" lon="2.39386">
        <ele>599.663996</ele>
        <time>2024-06-27T22:10:11.054Z</time>
      </trkpt>
      <trkpt lat="46.04325" lon="2.39418">
        <ele>600.797716</ele>
        <time>2024-06-27T22:10:18.456Z</time>
      </trkpt>
      <trkpt lat="46.04319" lon="2.39425">
        <ele>601.09485</ele>
        <time>2024-06-27T22:10:20.438Z</time>
      </trkpt>
      <trkpt lat="46.04236" lon="2.39485">
        <ele>604.785184</ele>
        <time>2024-06-27T22:10:43.363Z</time>
      </trkpt>
      <trkpt lat="46.04097" lon="2.39564">
        <ele>610.820392</ele>
        <time>2024-06-27T22:11:19.942Z</time>
      </trkpt>
      <trkpt lat="46.04063" lon="2.39588">
        <ele>611.855383</ele>
        <time>2024-06-27T22:11:28.938Z</time>
      </trkpt>
      <trkpt lat="46.03995" lon="2.39702">
        <ele>614.694083</ele>
        <time>2024-06-27T22:11:52.380Z</time>
      </trkpt>
      <trkpt lat="46.03975" lon="2.39729">
        <ele>615.287088</ele>
        <time>2024-06-27T22:11:58.235Z</time>
      </trkpt>
      <trkpt lat="46.0389" lon="2.39787">
        <ele>615.939601</ele>
        <time>2024-06-27T22:12:17.764Z</time>
      </trkpt>
      <trkpt lat="46.03723" lon="2.39906">
        <ele>616.532378</ele>
        <time>2024-06-27T22:12:54.072Z</time>
      </trkpt>
      <trkpt lat="46.03646" lon="2.39956">
        <ele>616.591809</ele>
        <time>2024-06-27T22:13:10.141Z</time>
      </trkpt>
      <trkpt lat="46.0363" lon="2.39976">
        <ele>616.635919</ele>
        <time>2024-06-27T22:13:14.142Z</time>
      </trkpt>
      <trkpt lat="46.03611" lon="2.40016">
        <ele>616.704779</ele>
        <time>2024-06-27T22:13:20.507Z</time>
      </trkpt>
      <trkpt lat="46.0355" lon="2.4018">
        <ele>617.091135</ele>
        <time>2024-06-27T22:13:46.093Z</time>
      </trkpt>
      <trkpt lat="46.03514" lon="2.40281">
        <ele>617.845867</ele>
        <time>2024-06-27T22:14:02.484Z</time>
      </trkpt>
      <trkpt lat="46.03499" lon="2.40342">
        <ele>618.272941</ele>
        <time>2024-06-27T22:14:11.952Z</time>
      </trkpt>
      <trkpt lat="46.03481" lon="2.40383">
        <ele>618.594899</ele>
        <time>2024-06-27T22:14:19.196Z</time>
      </trkpt>
      <trkpt lat="46.03452" lon="2.40424">
        <ele>618.742844</ele>
        <time>2024-06-27T22:14:27.852Z</time>
      </trkpt>
      <trkpt lat="46.03401" lon="2.40486">
        <ele>618.916852</ele>
        <time>2024-06-27T22:14:41.551Z</time>
      </trkpt>
      <trkpt lat="46.03365" lon="2.40518">
        <ele>619.028499</ele>
        <time>2024-06-27T22:14:49.755Z</time>
      </trkpt>
      <trkpt lat="46.03306" lon="2.40543">
        <ele>618.357707</ele>
        <time>2024-06-27T22:15:00.451Z</time>
      </trkpt>
      <trkpt lat="46.03285" lon="2.40558">
        <ele>617.664208</ele>
        <time>2024-06-27T22:15:04.028Z</time>
      </trkpt>
      <trkpt lat="46.03264" lon="2.40579">
        <ele>616.893266</ele>
        <time>2024-06-27T22:15:07.849Z</time>
      </trkpt>
      <trkpt lat="46.03246" lon="2.40615">
        <ele>615.953617</ele>
        <time>2024-06-27T22:15:12.319Z</time>
      </trkpt>
      <trkpt lat="46.03233" lon="2.4065">
        <ele>615.13039</ele>
        <time>2024-06-27T22:15:16.146Z</time>
      </trkpt>
      <trkpt lat="46.03222" lon="2.40804">
        <ele>612.72845</ele>
        <time>2024-06-27T22:15:31.080Z</time>
      </trkpt>
      <trkpt lat="46.03208" lon="2.40866">
        <ele>611.993213</ele>
        <time>2024-06-27T22:15:37.957Z</time>
      </trkpt>
      <trkpt lat="46.03186" lon="2.40897">
        <ele>611.498526</ele>
        <time>2024-06-27T22:15:43.202Z</time>
      </trkpt>
      <trkpt lat="46.03163" lon="2.40903">
        <ele>611.118029</ele>
        <time>2024-06-27T22:15:47.865Z</time>
      </trkpt>
      <trkpt lat="46.03127" lon="2.40931">
        <ele>611.595881</ele>
        <time>2024-06-27T22:15:56.884Z</time>
      </trkpt>
      <trkpt lat="46.03049" lon="2.41007">
        <ele>615.344865</ele>
        <time>2024-06-27T22:16:20.036Z</time>
      </trkpt>
      <trkpt lat="46.03004" lon="2.41079">
        <ele>618.01063</ele>
        <time>2024-06-27T22:16:37.040Z</time>
      </trkpt>
      <trkpt lat="46.02986" lon="2.41094">
        <ele>618.953759</ele>
        <time>2024-06-27T22:16:42.402Z</time>
      </trkpt>
      <trkpt lat="46.02939" lon="2.41128">
        <ele>621.32708</ele>
        <time>2024-06-27T22:16:55.871Z</time>
      </trkpt>
      <trkpt lat="46.02929" lon="2.41147">
        <ele>622.091717</ele>
        <time>2024-06-27T22:17:00.259Z</time>
      </trkpt>
      <trkpt lat="46.02922" lon="2.41173">
        <ele>622.944739</ele>
        <time>2024-06-27T22:17:05.140Z</time>
      </trkpt>
      <trkpt lat="46.02922" lon="2.412">
        <ele>623.802494</ele>
        <time>2024-06-27T22:17:09.829Z</time>
      </trkpt>
      <trkpt lat="46.0293" lon="2.41262">
        <ele>625.768639</ele>
        <time>2024-06-27T22:17:20.190Z</time>
      </trkpt>
      <trkpt lat="46.02928" lon="2.4128">
        <ele>626.278121</ele>
        <time>2024-06-27T22:17:23.171Z</time>
      </trkpt>
      <trkpt lat="46.02922" lon="2.41298">
        <ele>626.74456</ele>
        <time>2024-06-27T22:17:26.327Z</time>
      </trkpt>
      <trkpt lat="46.02883" lon="2.41343">
        <ele>628.48223</ele>
        <time>2024-06-27T22:17:38.271Z</time>
      </trkpt>
      <trkpt lat="46.0285" lon="2.4136">
        <ele>629.700845</ele>
        <time>2024-06-27T22:17:46.668Z</time>
      </trkpt>
      <trkpt lat="46.02846" lon="2.41366">
        <ele>629.886954</ele>
        <time>2024-06-27T22:17:47.939Z</time>
      </trkpt>
      <trkpt lat="46.0284" lon="2.41373">
        <ele>630.164516</ele>
        <time>2024-06-27T22:17:49.881Z</time>
      </trkpt>
      <trkpt lat="46.02819" lon="2.41438">
        <ele>631.867065</ele>
        <time>2024-06-27T22:18:01.430Z</time>
      </trkpt>
      <trkpt lat="46.02783" lon="2.41474">
        <ele>633.0009</ele>
        <time>2024-06-27T22:18:11.485Z</time>
      </trkpt>
      <trkpt lat="46.0273" lon="2.41556">
        <ele>634.757537</ele>
        <time>2024-06-27T22:18:28.545Z</time>
      </trkpt>
      <trkpt lat="46.02652" lon="2.41664">
        <ele>637.321597</ele>
        <time>2024-06-27T22:18:52.423Z</time>
      </trkpt>
      <trkpt lat="46.02578" lon="2.41756">
        <ele>639.823792</ele>
        <time>2024-06-27T22:19:14.421Z</time>
      </trkpt>
      <trkpt lat="46.02548" lon="2.41787">
        <ele>640.788221</ele>
        <time>2024-06-27T22:19:22.984Z</time>
      </trkpt>
      <trkpt lat="46.02511" lon="2.41812">
        <ele>641.777667</ele>
        <time>2024-06-27T22:19:32.345Z</time>
      </trkpt>
      <trkpt lat="46.02407" lon="2.41906">
        <ele>644.723319</ele>
        <time>2024-06-27T22:19:59.838Z</time>
      </trkpt>
      <trkpt lat="46.02348" lon="2.41936">
        <ele>645.74657</ele>
        <time>2024-06-27T22:20:13.531Z</time>
      </trkpt>
      <trkpt lat="46.0233" lon="2.41948">
        <ele>645.986709</ele>
        <time>2024-06-27T22:20:17.791Z</time>
      </trkpt>
      <trkpt lat="46.0226" lon="2.42007">
        <ele>646.978819</ele>
        <time>2024-06-27T22:20:34.890Z</time>
      </trkpt>
      <trkpt lat="46.02177" lon="2.42081">
        <ele>647.537048</ele>
        <time>2024-06-27T22:20:54.196Z</time>
      </trkpt>
      <trkpt lat="46.02165" lon="2.42102">
        <ele>647.565514</ele>
        <time>2024-06-27T22:20:57.792Z</time>
      </trkpt>
      <trkpt lat="46.02159" lon="2.42122">
        <ele>647.588406</ele>
        <time>2024-06-27T22:21:00.562Z</time>
      </trkpt>
      <trkpt lat="46.02151" lon="2.4217">
        <ele>647.640276</ele>
        <time>2024-06-27T22:21:06.803Z</time>
      </trkpt>
      <trkpt lat="46.02138" lon="2.42201">
        <ele>647.677056</ele>
        <time>2024-06-27T22:21:11.328Z</time>
      </trkpt>
      <trkpt lat="46.02071" lon="2.42319">
        <ele>648.333856</ele>
        <time>2024-06-27T22:21:33.489Z</time>
      </trkpt>
      <trkpt lat="46.02062" lon="2.42344">
        <ele>648.489139</ele>
        <time>2024-06-27T22:21:37.753Z</time>
      </trkpt>
      <trkpt lat="46.02053" lon="2.42383">
        <ele>648.715591</ele>
        <time>2024-06-27T22:21:43.843Z</time>
      </trkpt>
      <trkpt lat="46.02057" lon="2.42458">
        <ele>649.127607</ele>
        <time>2024-06-27T22:21:54.374Z</time>
      </trkpt>
      <trkpt lat="46.02062" lon="2.42473">
        <ele>649.055148</ele>
        <time>2024-06-27T22:21:56.647Z</time>
      </trkpt>
      <trkpt lat="46.02101" lon="2.42497">
        <ele>648.715545</ele>
        <time>2024-06-27T22:22:02.672Z</time>
      </trkpt>
      <trkpt lat="46.02113" lon="2.42501">
        <ele>648.615321</ele>
        <time>2024-06-27T22:22:04.353Z</time>
      </trkpt>
      <trkpt lat="46.02127" lon="2.42497">
        <ele>648.502623</ele>
        <time>2024-06-27T22:22:06.462Z</time>
      </trkpt>
      <trkpt lat="46.02167" lon="2.4247">
        <ele>648.155191</ele>
        <time>2024-06-27T22:22:12.195Z</time>
      </trkpt>
      <trkpt lat="46.02191" lon="2.42467">
        <ele>647.961764</ele>
        <time>2024-06-27T22:22:14.959Z</time>
      </trkpt>
      <trkpt lat="46.0221" lon="2.42471">
        <ele>647.806512</ele>
        <time>2024-06-27T22:22:17.106Z</time>
      </trkpt>
      <trkpt lat="46.02219" lon="2.42475">
        <ele>647.73109</ele>
        <time>2024-06-27T22:22:18.088Z</time>
      </trkpt>
      <trkpt lat="46.02246" lon="2.42501">
        <ele>647.301705</ele>
        <time>2024-06-27T22:22:21.479Z</time>
      </trkpt>
      <trkpt lat="46.02288" lon="2.4257">
        <ele>646.418626</ele>
        <time>2024-06-27T22:22:28.192Z</time>
      </trkpt>
      <trkpt lat="46.02357" lon="2.42686">
        <ele>645.332685</ele>
        <time>2024-06-27T22:22:42.230Z</time>
      </trkpt>
      <trkpt lat="46.02377" lon="2.42712">
        <ele>645.532307</ele>
        <time>2024-06-27T22:22:46.477Z</time>
      </trkpt>
      <trkpt lat="46.0243" lon="2.42766">
        <ele>646.020711</ele>
        <time>2024-06-27T22:22:56.907Z</time>
      </trkpt>
      <trkpt lat="46.02474" lon="2.42806">
        <ele>646.412417</ele>
        <time>2024-06-27T22:23:05.729Z</time>
      </trkpt>
      <trkpt lat="46.02511" lon="2.4283">
        <ele>646.903685</ele>
        <time>2024-06-27T22:23:12.885Z</time>
      </trkpt>
      <trkpt lat="46.02537" lon="2.42844">
        <ele>647.331146</ele>
        <time>2024-06-27T22:23:17.760Z</time>
      </trkpt>
      <trkpt lat="46.02838" lon="2.42942">
        <ele>652.105747</ele>
        <time>2024-06-27T22:24:11.968Z</time>
      </trkpt>
      <trkpt lat="46.02914" lon="2.42966">
        <ele>653.375468</ele>
        <time>2024-06-27T22:24:24.990Z</time>
      </trkpt>
      <trkpt lat="46.02944" lon="2.42964">
        <ele>653.878754</ele>
        <time>2024-06-27T22:24:30.336Z</time>
      </trkpt>
      <trkpt lat="46.03026" lon="2.42935">
        <ele>655.38783</ele>
        <time>2024-06-27T22:24:45.667Z</time>
      </trkpt>
      <trkpt lat="46.03041" lon="2.42928">
        <ele>655.812328</ele>
        <time>2024-06-27T22:24:48.668Z</time>
      </trkpt>
      <trkpt lat="46.03088" lon="2.42895">
        <ele>657.197015</ele>
        <time>2024-06-27T22:24:58.547Z</time>
      </trkpt>
      <trkpt lat="46.03108" lon="2.42887">
        <ele>657.7422</ele>
        <time>2024-06-27T22:25:02.549Z</time>
      </trkpt>
      <trkpt lat="46.03211" lon="2.42859">
        <ele>660.219112</ele>
        <time>2024-06-27T22:25:23.088Z</time>
      </trkpt>
      <trkpt lat="46.03238" lon="2.42845">
        <ele>660.632402</ele>
        <time>2024-06-27T22:25:28.443Z</time>
      </trkpt>
      <trkpt lat="46.03243" lon="2.42841">
        <ele>660.713723</ele>
        <time>2024-06-27T22:25:29.492Z</time>
      </trkpt>
      <trkpt lat="46.03266" lon="2.42809">
        <ele>661.177332</ele>
        <time>2024-06-27T22:25:35.168Z</time>
      </trkpt>
      <trkpt lat="46.03285" lon="2.42779">
        <ele>661.576247</ele>
        <time>2024-06-27T22:25:39.806Z</time>
      </trkpt>
      <trkpt lat="46.03299" lon="2.42765">
        <ele>661.821616</ele>
        <time>2024-06-27T22:25:42.558Z</time>
      </trkpt>
      <trkpt lat="46.03349" lon="2.42736">
        <ele>662.349961</ele>
        <time>2024-06-27T22:25:51.085Z</time>
      </trkpt>
      <trkpt lat="46.03393" lon="2.42714">
        <ele>662.051944</ele>
        <time>2024-06-27T22:25:57.812Z</time>
      </trkpt>
      <trkpt lat="46.0343" lon="2.42703">
        <ele>661.809262</ele>
        <time>2024-06-27T22:26:02.772Z</time>
      </trkpt>
      <trkpt lat="46.03527" lon="2.42687">
        <ele>660.987364</ele>
        <time>2024-06-27T22:26:14.588Z</time>
      </trkpt>
      <trkpt lat="46.03558" lon="2.42678">
        <ele>660.324693</ele>
        <time>2024-06-27T22:26:18.151Z</time>
      </trkpt>
      <trkpt lat="46.03652" lon="2.42634">
        <ele>658.245272</ele>
        <time>2024-06-27T22:26:28.729Z</time>
      </trkpt>
      <trkpt lat="46.0367" lon="2.42628">
        <ele>657.84634</ele>
        <time>2024-06-27T22:26:30.693Z</time>
      </trkpt>
      <trkpt lat="46.03681" lon="2.42628">
        <ele>657.621252</ele>
        <time>2024-06-27T22:26:31.819Z</time>
      </trkpt>
      <trkpt lat="46.03691" lon="2.42636">
        <ele>657.439472</ele>
        <time>2024-06-27T22:26:32.982Z</time>
      </trkpt>
      <trkpt lat="46.0371" lon="2.42661">
        <ele>657.166718</ele>
        <time>2024-06-27T22:26:35.715Z</time>
      </trkpt>
      <trkpt lat="46.03724" lon="2.42673">
        <ele>656.998657</ele>
        <time>2024-06-27T22:26:37.416Z</time>
      </trkpt>
      <trkpt lat="46.03799" lon="2.42701">
        <ele>656.17864</ele>
        <time>2024-06-27T22:26:46.380Z</time>
      </trkpt>
      <trkpt lat="46.03829" lon="2.42703">
        <ele>655.871992</ele>
        <time>2024-06-27T22:26:50.467Z</time>
      </trkpt>
      <trkpt lat="46.03843" lon="2.42701">
        <ele>655.719931</ele>
        <time>2024-06-27T22:26:52.792Z</time>
      </trkpt>
      <trkpt lat="46.03885" lon="2.42682">
        <ele>656.245419</ele>
        <time>2024-06-27T22:27:00.341Z</time>
      </trkpt>
      <trkpt lat="46.03904" lon="2.4268">
        <ele>656.628348</ele>
        <time>2024-06-27T22:27:03.957Z</time>
      </trkpt>
      <trkpt lat="46.03931" lon="2.42689">
        <ele>657.175009</ele>
        <time>2024-06-27T22:27:09.199Z</time>
      </trkpt>
      <trkpt lat="46.04051" lon="2.42745">
        <ele>659.275705</ele>
        <time>2024-06-27T22:27:33.064Z</time>
      </trkpt>
      <trkpt lat="46.04176" lon="2.428">
        <ele>660.018974</ele>
        <time>2024-06-27T22:27:53.950Z</time>
      </trkpt>
      <trkpt lat="46.04287" lon="2.42828">
        <ele>658.20633</ele>
        <time>2024-06-27T22:28:06.565Z</time>
      </trkpt>
      <trkpt lat="46.04372" lon="2.42864">
        <ele>656.295804</ele>
        <time>2024-06-27T22:28:15.689Z</time>
      </trkpt>
      <trkpt lat="46.04389" lon="2.42866">
        <ele>655.918254</ele>
        <time>2024-06-27T22:28:17.436Z</time>
      </trkpt>
      <trkpt lat="46.04458" lon="2.42863">
        <ele>654.377183</ele>
        <time>2024-06-27T22:28:24.671Z</time>
      </trkpt>
      <trkpt lat="46.04535" lon="2.42867">
        <ele>652.686951</ele>
        <time>2024-06-27T22:28:32.935Z</time>
      </trkpt>
      <trkpt lat="46.04563" lon="2.42874">
        <ele>652.174628</ele>
        <time>2024-06-27T22:28:36.390Z</time>
      </trkpt>
      <trkpt lat="46.04638" lon="2.42913">
        <ele>651.402725</ele>
        <time>2024-06-27T22:28:47.022Z</time>
      </trkpt>
      <trkpt lat="46.04614" lon="2.43041">
        <ele>650.493546</ele>
        <time>2024-06-27T22:28:58.441Z</time>
      </trkpt>
      <trkpt lat="46.04601" lon="2.43081">
        <ele>649.832825</ele>
        <time>2024-06-27T22:29:01.953Z</time>
      </trkpt>
      <trkpt lat="46.04576" lon="2.43136">
        <ele>648.838077</ele>
        <time>2024-06-27T22:29:07.109Z</time>
      </trkpt>
      <trkpt lat="46.04569" lon="2.43159">
        <ele>648.463178</ele>
        <time>2024-06-27T22:29:08.949Z</time>
      </trkpt>
      <trkpt lat="46.04536" lon="2.43432">
        <ele>644.213716</ele>
        <time>2024-06-27T22:29:28.851Z</time>
      </trkpt>
      <trkpt lat="46.0453" lon="2.43455">
        <ele>643.832279</ele>
        <time>2024-06-27T22:29:30.831Z</time>
      </trkpt>
      <trkpt lat="46.04524" lon="2.4347">
        <ele>643.555726</ele>
        <time>2024-06-27T22:29:32.289Z</time>
      </trkpt>
      <trkpt lat="46.04503" lon="2.43504">
        <ele>642.847406</ele>
        <time>2024-06-27T22:29:36.013Z</time>
      </trkpt>
      <trkpt lat="46.04479" lon="2.43526">
        <ele>642.091153</ele>
        <time>2024-06-27T22:29:39.417Z</time>
      </trkpt>
      <trkpt lat="46.04398" lon="2.43564">
        <ele>639.605756</ele>
        <time>2024-06-27T22:29:48.726Z</time>
      </trkpt>
      <trkpt lat="46.04339" lon="2.43596">
        <ele>637.754165</ele>
        <time>2024-06-27T22:29:55.007Z</time>
      </trkpt>
      <trkpt lat="46.04322" lon="2.43608">
        <ele>637.02993</ele>
        <time>2024-06-27T22:29:56.831Z</time>
      </trkpt>
      <trkpt lat="46.04304" lon="2.43627">
        <ele>635.612633</ele>
        <time>2024-06-27T22:29:58.870Z</time>
      </trkpt>
      <trkpt lat="46.04216" lon="2.43727">
        <ele>628.342882</ele>
        <time>2024-06-27T22:30:09.023Z</time>
      </trkpt>
      <trkpt lat="46.04204" lon="2.43747">
        <ele>627.207746</ele>
        <time>2024-06-27T22:30:10.584Z</time>
      </trkpt>
      <trkpt lat="46.04198" lon="2.43766">
        <ele>626.235465</ele>
        <time>2024-06-27T22:30:11.931Z</time>
      </trkpt>
      <trkpt lat="46.04194" lon="2.43789">
        <ele>625.253429</ele>
        <time>2024-06-27T22:30:13.368Z</time>
      </trkpt>
      <trkpt lat="46.04196" lon="2.43812">
        <ele>624.294533</ele>
        <time>2024-06-27T22:30:14.831Z</time>
      </trkpt>
      <trkpt lat="46.04206" lon="2.43847">
        <ele>622.741723</ele>
        <time>2024-06-27T22:30:17.216Z</time>
      </trkpt>
      <trkpt lat="46.04252" lon="2.43922">
        <ele>618.664595</ele>
        <time>2024-06-27T22:30:23.522Z</time>
      </trkpt>
      <trkpt lat="46.04259" lon="2.43938">
        <ele>617.855163</ele>
        <time>2024-06-27T22:30:24.787Z</time>
      </trkpt>
      <trkpt lat="46.04264" lon="2.43963">
        <ele>616.792783</ele>
        <time>2024-06-27T22:30:26.475Z</time>
      </trkpt>
      <trkpt lat="46.04263" lon="2.43978">
        <ele>616.205739</ele>
        <time>2024-06-27T22:30:27.408Z</time>
      </trkpt>
      <trkpt lat="46.04259" lon="2.4399">
        <ele>615.644194</ele>
        <time>2024-06-27T22:30:28.312Z</time>
      </trkpt>
      <trkpt lat="46.04247" lon="2.44006">
        <ele>615.041516</ele>
        <time>2024-06-27T22:30:29.893Z</time>
      </trkpt>
      <trkpt lat="46.04221" lon="2.44015">
        <ele>614.691283</ele>
        <time>2024-06-27T22:30:32.550Z</time>
      </trkpt>
      <trkpt lat="46.04197" lon="2.44017">
        <ele>614.381351</ele>
        <time>2024-06-27T22:30:35.036Z</time>
      </trkpt>
      <trkpt lat="46.04178" lon="2.44028">
        <ele>614.111979</ele>
        <time>2024-06-27T22:30:37.318Z</time>
      </trkpt>
      <trkpt lat="46.04169" lon="2.44037">
        <ele>613.969439</ele>
        <time>2024-06-27T22:30:38.583Z</time>
      </trkpt>
      <trkpt lat="46.04162" lon="2.44051">
        <ele>613.809874</ele>
        <time>2024-06-27T22:30:40.038Z</time>
      </trkpt>
      <trkpt lat="46.04142" lon="2.44097">
        <ele>613.321689</ele>
        <time>2024-06-27T22:30:45.238Z</time>
      </trkpt>
      <trkpt lat="46.04126" lon="2.44117">
        <ele>613.038348</ele>
        <time>2024-06-27T22:30:48.710Z</time>
      </trkpt>
      <trkpt lat="46.04103" lon="2.44127">
        <ele>612.952738</ele>
        <time>2024-06-27T22:30:52.799Z</time>
      </trkpt>
      <trkpt lat="46.04026" lon="2.44137">
        <ele>615.362202</ele>
        <time>2024-06-27T22:31:07.491Z</time>
      </trkpt>
      <trkpt lat="46.04015" lon="2.44141">
        <ele>615.699188</ele>
        <time>2024-06-27T22:31:09.669Z</time>
      </trkpt>
      <trkpt lat="46.04001" lon="2.44153">
        <ele>616.213708</ele>
        <time>2024-06-27T22:31:13.027Z</time>
      </trkpt>
      <trkpt lat="46.03988" lon="2.44179">
        <ele>616.912347</ele>
        <time>2024-06-27T22:31:17.718Z</time>
      </trkpt>
      <trkpt lat="46.03969" lon="2.44239">
        <ele>618.339822</ele>
        <time>2024-06-27T22:31:27.529Z</time>
      </trkpt>
      <trkpt lat="46.03957" lon="2.44259">
        <ele>619.148685</ele>
        <time>2024-06-27T22:31:31.453Z</time>
      </trkpt>
      <trkpt lat="46.03922" lon="2.44298">
        <ele>621.228712</ele>
        <time>2024-06-27T22:31:41.039Z</time>
      </trkpt>
      <trkpt lat="46.03914" lon="2.44312">
        <ele>621.812146</ele>
        <time>2024-06-27T22:31:43.711Z</time>
      </trkpt>
      <trkpt lat="46.03904" lon="2.44355">
        <ele>623.244595</ele>
        <time>2024-06-27T22:31:50.337Z</time>
      </trkpt>
      <trkpt lat="46.03901" lon="2.44385">
        <ele>624.217626</ele>
        <time>2024-06-27T22:31:55.240Z</time>
      </trkpt>
      <trkpt lat="46.03902" lon="2.44466">
        <ele>626.827701</ele>
        <time>2024-06-27T22:32:07.688Z</time>
      </trkpt>
      <trkpt lat="46.03898" lon="2.44488">
        <ele>627.511864</ele>
        <time>2024-06-27T22:32:11.465Z</time>
      </trkpt>
      <trkpt lat="46.0389" lon="2.44504">
        <ele>628.076393</ele>
        <time>2024-06-27T22:32:14.311Z</time>
      </trkpt>
      <trkpt lat="46.03876" lon="2.44531">
        <ele>629.047684</ele>
        <time>2024-06-27T22:32:19.718Z</time>
      </trkpt>
      <trkpt lat="46.0387" lon="2.4455">
        <ele>629.668715</ele>
        <time>2024-06-27T22:32:22.884Z</time>
      </trkpt>
      <trkpt lat="46.03867" lon="2.44576">
        <ele>630.453147</ele>
        <time>2024-06-27T22:32:27.267Z</time>
      </trkpt>
      <trkpt lat="46.03915" lon="2.44843">
        <ele>636.66262</ele>
        <time>2024-06-27T22:33:05.727Z</time>
      </trkpt>
      <trkpt lat="46.03917" lon="2.44861">
        <ele>636.971961</ele>
        <time>2024-06-27T22:33:07.903Z</time>
      </trkpt>
      <trkpt lat="46.03916" lon="2.44883">
        <ele>637.323339</ele>
        <time>2024-06-27T22:33:10.359Z</time>
      </trkpt>
      <trkpt lat="46.03909" lon="2.44918">
        <ele>637.927956</ele>
        <time>2024-06-27T22:33:14.658Z</time>
      </trkpt>
      <trkpt lat="46.03889" lon="2.44983">
        <ele>638.72119</ele>
        <time>2024-06-27T22:33:23.069Z</time>
      </trkpt>
      <trkpt lat="46.0388" lon="2.45067">
        <ele>639.122609</ele>
        <time>2024-06-27T22:33:32.470Z</time>
      </trkpt>
      <trkpt lat="46.03874" lon="2.4509">
        <ele>639.242756</ele>
        <time>2024-06-27T22:33:35.111Z</time>
      </trkpt>
      <trkpt lat="46.03838" lon="2.45186">
        <ele>639.759184</ele>
        <time>2024-06-27T22:33:46.849Z</time>
      </trkpt>
      <trkpt lat="46.03824" lon="2.45217">
        <ele>640.203646</ele>
        <time>2024-06-27T22:33:51.126Z</time>
      </trkpt>
      <trkpt lat="46.03837" lon="2.4523">
        <ele>640.537537</ele>
        <time>2024-06-27T22:33:54.439Z</time>
      </trkpt>
      <trkpt lat="46.03847" lon="2.45277">
        <ele>641.239965</ele>
        <time>2024-06-27T22:34:01.874Z</time>
      </trkpt>
      <trkpt lat="46.03847" lon="2.45303">
        <ele>641.622278</ele>
        <time>2024-06-27T22:34:06.060Z</time>
      </trkpt>
      <trkpt lat="46.03837" lon="2.45338">
        <ele>642.175308</ele>
        <time>2024-06-27T22:34:12.009Z</time>
      </trkpt>
      <trkpt lat="46.03835" lon="2.45359">
        <ele>642.467965</ele>
        <time>2024-06-27T22:34:15.230Z</time>
      </trkpt>
      <trkpt lat="46.03838" lon="2.45378">
        <ele>642.75623</ele>
        <time>2024-06-27T22:34:18.253Z</time>
      </trkpt>
      <trkpt lat="46.0388" lon="2.45479">
        <ele>644.676364</ele>
        <time>2024-06-27T22:34:36.941Z</time>
      </trkpt>
      <trkpt lat="46.03894" lon="2.45505">
        <ele>645.251977</ele>
        <time>2024-06-27T22:34:42.259Z</time>
      </trkpt>
      <trkpt lat="46.03905" lon="2.45523">
        <ele>645.692747</ele>
        <time>2024-06-27T22:34:46.364Z</time>
      </trkpt>
      <trkpt lat="46.04039" lon="2.45699">
        <ele>647.253879</ele>
        <time>2024-06-27T22:35:26.153Z</time>
      </trkpt>
      <trkpt lat="46.04052" lon="2.45713">
        <ele>647.07585</ele>
        <time>2024-06-27T22:35:28.974Z</time>
      </trkpt>
      <trkpt lat="46.04124" lon="2.45761">
        <ele>646.152287</ele>
        <time>2024-06-27T22:35:40.422Z</time>
      </trkpt>
      <trkpt lat="46.0415" lon="2.45795">
        <ele>643.665316</ele>
        <time>2024-06-27T22:35:45.034Z</time>
      </trkpt>
      <trkpt lat="46.04173" lon="2.45839">
        <ele>641.02398</ele>
        <time>2024-06-27T22:35:49.784Z</time>
      </trkpt>
      <trkpt lat="46.04188" lon="2.45887">
        <ele>638.404962</ele>
        <time>2024-06-27T22:35:54.447Z</time>
      </trkpt>
      <trkpt lat="46.04192" lon="2.45913">
        <ele>637.14779</ele>
        <time>2024-06-27T22:35:56.673Z</time>
      </trkpt>
      <trkpt lat="46.04193" lon="2.45947">
        <ele>635.478637</ele>
        <time>2024-06-27T22:35:59.646Z</time>
      </trkpt>
      <trkpt lat="46.04193" lon="2.45974">
        <ele>634.116534</ele>
        <time>2024-06-27T22:36:02.061Z</time>
      </trkpt>
      <trkpt lat="46.04181" lon="2.46035">
        <ele>631.511367</ele>
        <time>2024-06-27T22:36:07.577Z</time>
      </trkpt>
      <trkpt lat="46.04181" lon="2.46081">
        <ele>629.663245</ele>
        <time>2024-06-27T22:36:11.736Z</time>
      </trkpt>
      <trkpt lat="46.04184" lon="2.46109">
        <ele>628.558944</ele>
        <time>2024-06-27T22:36:14.292Z</time>
      </trkpt>
      <trkpt lat="46.04193" lon="2.46133">
        <ele>627.47487</ele>
        <time>2024-06-27T22:36:16.820Z</time>
      </trkpt>
      <trkpt lat="46.04218" lon="2.46174">
        <ele>625.263621</ele>
        <time>2024-06-27T22:36:22.140Z</time>
      </trkpt>
      <trkpt lat="46.04274" lon="2.4625">
        <ele>621.595255</ele>
        <time>2024-06-27T22:36:32.912Z</time>
      </trkpt>
      <trkpt lat="46.04285" lon="2.46268">
        <ele>620.950422</ele>
        <time>2024-06-27T22:36:35.215Z</time>
      </trkpt>
      <trkpt lat="46.04308" lon="2.46334">
        <ele>618.919476</ele>
        <time>2024-06-27T22:36:42.520Z</time>
      </trkpt>
      <trkpt lat="46.04305" lon="2.46436">
        <ele>616.114466</ele>
        <time>2024-06-27T22:36:52.503Z</time>
      </trkpt>
      <trkpt lat="46.0431" lon="2.46462">
        <ele>615.341645</ele>
        <time>2024-06-27T22:36:55.005Z</time>
      </trkpt>
      <trkpt lat="46.04322" lon="2.46492">
        <ele>614.310823</ele>
        <time>2024-06-27T22:36:58.340Z</time>
      </trkpt>
      <trkpt lat="46.04402" lon="2.46626">
        <ele>609.043007</ele>
        <time>2024-06-27T22:37:15.378Z</time>
      </trkpt>
      <trkpt lat="46.04412" lon="2.46648">
        <ele>608.264138</ele>
        <time>2024-06-27T22:37:17.931Z</time>
      </trkpt>
      <trkpt lat="46.04442" lon="2.46763">
        <ele>604.482856</ele>
        <time>2024-06-27T22:37:29.761Z</time>
      </trkpt>
      <trkpt lat="46.04457" lon="2.46793">
        <ele>603.357596</ele>
        <time>2024-06-27T22:37:33.239Z</time>
      </trkpt>
      <trkpt lat="46.04466" lon="2.468">
        <ele>602.882072</ele>
        <time>2024-06-27T22:37:34.706Z</time>
      </trkpt>
      <trkpt lat="46.04477" lon="2.46804">
        <ele>602.38342</ele>
        <time>2024-06-27T22:37:36.249Z</time>
      </trkpt>
      <trkpt lat="46.04518" lon="2.46808">
        <ele>600.54472</ele>
        <time>2024-06-27T22:37:41.893Z</time>
      </trkpt>
      <trkpt lat="46.04528" lon="2.46813">
        <ele>600.145686</ele>
        <time>2024-06-27T22:37:43.346Z</time>
      </trkpt>
      <trkpt lat="46.04535" lon="2.46819">
        <ele>599.858525</ele>
        <time>2024-06-27T22:37:44.440Z</time>
      </trkpt>
      <trkpt lat="46.04544" lon="2.46835">
        <ele>599.351235</ele>
        <time>2024-06-27T22:37:46.384Z</time>
      </trkpt>
      <trkpt lat="46.04564" lon="2.46894">
        <ele>597.719023</ele>
        <time>2024-06-27T22:37:52.691Z</time>
      </trkpt>
      <trkpt lat="46.04573" lon="2.46909">
        <ele>597.223026</ele>
        <time>2024-06-27T22:37:54.626Z</time>
      </trkpt>
      <trkpt lat="46.04586" lon="2.46924">
        <ele>596.630601</ele>
        <time>2024-06-27T22:37:56.971Z</time>
      </trkpt>
      <trkpt lat="46.04639" lon="2.46972">
        <ele>594.384714</ele>
        <time>2024-06-27T22:38:06.140Z</time>
      </trkpt>
      <trkpt lat="46.0465" lon="2.46987">
        <ele>593.990226</ele>
        <time>2024-06-27T22:38:08.523Z</time>
      </trkpt>
      <trkpt lat="46.04657" lon="2.47007">
        <ele>593.93482</ele>
        <time>2024-06-27T22:38:10.979Z</time>
      </trkpt>
      <trkpt lat="46.0467" lon="2.47139">
        <ele>593.605606</ele>
        <time>2024-06-27T22:38:27.852Z</time>
      </trkpt>
      <trkpt lat="46.04675" lon="2.47169">
        <ele>593.530909</ele>
        <time>2024-06-27T22:38:32.215Z</time>
      </trkpt>
      <trkpt lat="46.04684" lon="2.47194">
        <ele>593.460871</ele>
        <time>2024-06-27T22:38:36.426Z</time>
      </trkpt>
      <trkpt lat="46.04702" lon="2.47226">
        <ele>593.366252</ele>
        <time>2024-06-27T22:38:42.441Z</time>
      </trkpt>
      <trkpt lat="46.04799" lon="2.47361">
        <ele>593.186094</ele>
        <time>2024-06-27T22:39:09.347Z</time>
      </trkpt>
      <trkpt lat="46.04824" lon="2.47396">
        <ele>593.139547</ele>
        <time>2024-06-27T22:39:15.405Z</time>
      </trkpt>
      <trkpt lat="46.04832" lon="2.47413">
        <ele>592.950539</ele>
        <time>2024-06-27T22:39:17.720Z</time>
      </trkpt>
      <trkpt lat="46.04856" lon="2.47494">
        <ele>591.360483</ele>
        <time>2024-06-27T22:39:26.933Z</time>
      </trkpt>
      <trkpt lat="46.04857" lon="2.47508">
        <ele>591.094323</ele>
        <time>2024-06-27T22:39:28.425Z</time>
      </trkpt>
      <trkpt lat="46.04839" lon="2.47581">
        <ele>589.700958</ele>
        <time>2024-06-27T22:39:36.097Z</time>
      </trkpt>
      <trkpt lat="46.0483" lon="2.47596">
        <ele>589.354031</ele>
        <time>2024-06-27T22:39:38.054Z</time>
      </trkpt>
      <trkpt lat="46.04802" lon="2.47624">
        <ele>588.448596</ele>
        <time>2024-06-27T22:39:43.184Z</time>
      </trkpt>
      <trkpt lat="46.048" lon="2.47637">
        <ele>588.309754</ele>
        <time>2024-06-27T22:39:44.563Z</time>
      </trkpt>
      <trkpt lat="46.04801" lon="2.47647">
        <ele>588.19777</ele>
        <time>2024-06-27T22:39:45.695Z</time>
      </trkpt>
      <trkpt lat="46.04804" lon="2.47655">
        <ele>588.103357</ele>
        <time>2024-06-27T22:39:46.675Z</time>
      </trkpt>
      <trkpt lat="46.04819" lon="2.47673">
        <ele>587.81668</ele>
        <time>2024-06-27T22:39:49.827Z</time>
      </trkpt>
      <trkpt lat="46.04827" lon="2.47688">
        <ele>587.620021</ele>
        <time>2024-06-27T22:39:51.914Z</time>
      </trkpt>
      <trkpt lat="46.04896" lon="2.4778">
        <ele>586.201033</ele>
        <time>2024-06-27T22:40:08.333Z</time>
      </trkpt>
      <trkpt lat="46.04905" lon="2.47795">
        <ele>585.997498</ele>
        <time>2024-06-27T22:40:10.691Z</time>
      </trkpt>
      <trkpt lat="46.04913" lon="2.47815">
        <ele>585.762604</ele>
        <time>2024-06-27T22:40:13.561Z</time>
      </trkpt>
      <trkpt lat="46.04923" lon="2.47852">
        <ele>585.06473</ele>
        <time>2024-06-27T22:40:18.307Z</time>
      </trkpt>
      <trkpt lat="46.04926" lon="2.47872">
        <ele>584.704025</ele>
        <time>2024-06-27T22:40:20.653Z</time>
      </trkpt>
      <trkpt lat="46.04926" lon="2.4789">
        <ele>584.394522</ele>
        <time>2024-06-27T22:40:22.645Z</time>
      </trkpt>
      <trkpt lat="46.04922" lon="2.47905">
        <ele>584.092471</ele>
        <time>2024-06-27T22:40:24.568Z</time>
      </trkpt>
      <trkpt lat="46.04902" lon="2.47954">
        <ele>583.09059</ele>
        <time>2024-06-27T22:40:30.694Z</time>
      </trkpt>
      <trkpt lat="46.04899" lon="2.47968">
        <ele>582.841305</ele>
        <time>2024-06-27T22:40:32.175Z</time>
      </trkpt>
      <trkpt lat="46.049" lon="2.47996">
        <ele>582.347445</ele>
        <time>2024-06-27T22:40:35.102Z</time>
      </trkpt>
      <trkpt lat="46.04948" lon="2.48193">
        <ele>576.738624</ele>
        <time>2024-06-27T22:40:55.092Z</time>
      </trkpt>
      <trkpt lat="46.0496" lon="2.4827">
        <ele>574.270675</ele>
        <time>2024-06-27T22:41:02.684Z</time>
      </trkpt>
      <trkpt lat="46.0497" lon="2.48322">
        <ele>572.415477</ele>
        <time>2024-06-27T22:41:07.854Z</time>
      </trkpt>
      <trkpt lat="46.04982" lon="2.48356">
        <ele>570.857208</ele>
        <time>2024-06-27T22:41:11.350Z</time>
      </trkpt>
      <trkpt lat="46.05002" lon="2.484">
        <ele>568.654751</ele>
        <time>2024-06-27T22:41:16.195Z</time>
      </trkpt>
      <trkpt lat="46.0501" lon="2.48413">
        <ele>567.969662</ele>
        <time>2024-06-27T22:41:17.718Z</time>
      </trkpt>
      <trkpt lat="46.05019" lon="2.48417">
        <ele>567.42154</ele>
        <time>2024-06-27T22:41:18.903Z</time>
      </trkpt>
      <trkpt lat="46.05046" lon="2.48421">
        <ele>565.794171</ele>
        <time>2024-06-27T22:41:22.430Z</time>
      </trkpt>
      <trkpt lat="46.0505" lon="2.48425">
        <ele>565.484595</ele>
        <time>2024-06-27T22:41:23.117Z</time>
      </trkpt>
      <trkpt lat="46.05053" lon="2.48433">
        <ele>565.140483</ele>
        <time>2024-06-27T22:41:23.851Z</time>
      </trkpt>
      <trkpt lat="46.05053" lon="2.48461">
        <ele>563.960797</ele>
        <time>2024-06-27T22:41:26.412Z</time>
      </trkpt>
      <trkpt lat="46.05053" lon="2.48468">
        <ele>563.658879</ele>
        <time>2024-06-27T22:41:27.074Z</time>
      </trkpt>
      <trkpt lat="46.05048" lon="2.48479">
        <ele>563.108423</ele>
        <time>2024-06-27T22:41:28.264Z</time>
      </trkpt>
      <trkpt lat="46.0504" lon="2.48484">
        <ele>562.567289</ele>
        <time>2024-06-27T22:41:29.431Z</time>
      </trkpt>
      <trkpt lat="46.05025" lon="2.4848">
        <ele>561.646838</ele>
        <time>2024-06-27T22:41:31.386Z</time>
      </trkpt>
      <trkpt lat="46.05" lon="2.4848">
        <ele>560.06968</ele>
        <time>2024-06-27T22:41:34.680Z</time>
      </trkpt>
      <trkpt lat="46.04988" lon="2.48489">
        <ele>559.278536</ele>
        <time>2024-06-27T22:41:36.363Z</time>
      </trkpt>
      <trkpt lat="46.04982" lon="2.48505">
        <ele>558.463128</ele>
        <time>2024-06-27T22:41:38.075Z</time>
      </trkpt>
      <trkpt lat="46.04979" lon="2.48521">
        <ele>557.750723</ele>
        <time>2024-06-27T22:41:39.571Z</time>
      </trkpt>
      <trkpt lat="46.0498" lon="2.48532">
        <ele>557.264715</ele>
        <time>2024-06-27T22:41:40.596Z</time>
      </trkpt>
      <trkpt lat="46.05005" lon="2.48614">
        <ele>553.352315</ele>
        <time>2024-06-27T22:41:48.652Z</time>
      </trkpt>
      <trkpt lat="46.05009" lon="2.48635">
        <ele>552.426839</ele>
        <time>2024-06-27T22:41:50.607Z</time>
      </trkpt>
      <trkpt lat="46.05004" lon="2.48832">
        <ele>545.650834</ele>
        <time>2024-06-27T22:42:08.938Z</time>
      </trkpt>
      <trkpt lat="46.05" lon="2.48854">
        <ele>544.917846</ele>
        <time>2024-06-27T22:42:11.113Z</time>
      </trkpt>
      <trkpt lat="46.04992" lon="2.48868">
        <ele>544.325217</ele>
        <time>2024-06-27T22:42:12.943Z</time>
      </trkpt>
      <trkpt lat="46.04973" lon="2.48891">
        <ele>543.119838</ele>
        <time>2024-06-27T22:42:16.656Z</time>
      </trkpt>
      <trkpt lat="46.04966" lon="2.48907">
        <ele>542.609599</ele>
        <time>2024-06-27T22:42:18.537Z</time>
      </trkpt>
      <trkpt lat="46.04964" lon="2.48925">
        <ele>542.398797</ele>
        <time>2024-06-27T22:42:20.334Z</time>
      </trkpt>
      <trkpt lat="46.04963" lon="2.48987">
        <ele>541.687456</ele>
        <time>2024-06-27T22:42:26.528Z</time>
      </trkpt>
      <trkpt lat="46.04963" lon="2.49003">
        <ele>541.506974</ele>
        <time>2024-06-27T22:42:28.196Z</time>
      </trkpt>
      <trkpt lat="46.04967" lon="2.49013">
        <ele>541.372847</ele>
        <time>2024-06-27T22:42:29.406Z</time>
      </trkpt>
      <trkpt lat="46.04972" lon="2.49021">
        <ele>541.240479</ele>
        <time>2024-06-27T22:42:30.567Z</time>
      </trkpt>
      <trkpt lat="46.04981" lon="2.49026">
        <ele>541.083956</ele>
        <time>2024-06-27T22:42:32.014Z</time>
      </trkpt>
      <trkpt lat="46.05006" lon="2.49024">
        <ele>540.669553</ele>
        <time>2024-06-27T22:42:36.031Z</time>
      </trkpt>
      <trkpt lat="46.05018" lon="2.49031">
        <ele>540.468411</ele>
        <time>2024-06-27T22:42:38.139Z</time>
      </trkpt>
      <trkpt lat="46.05027" lon="2.49043">
        <ele>540.261976</ele>
        <time>2024-06-27T22:42:40.523Z</time>
      </trkpt>
      <trkpt lat="46.05035" lon="2.49059">
        <ele>540.033396</ele>
        <time>2024-06-27T22:42:43.023Z</time>
      </trkpt>
      <trkpt lat="46.05054" lon="2.49108">
        <ele>540.056907</ele>
        <time>2024-06-27T22:42:51.297Z</time>
      </trkpt>
      <trkpt lat="46.05082" lon="2.49151">
        <ele>540.950744</ele>
        <time>2024-06-27T22:43:00.274Z</time>
      </trkpt>
      <trkpt lat="46.05127" lon="2.49255">
        <ele>542.805302</ele>
        <time>2024-06-27T22:43:19.189Z</time>
      </trkpt>
      <trkpt lat="46.05149" lon="2.49293">
        <ele>543.565002</ele>
        <time>2024-06-27T22:43:27.228Z</time>
      </trkpt>
      <trkpt lat="46.05174" lon="2.49331">
        <ele>544.635197</ele>
        <time>2024-06-27T22:43:35.732Z</time>
      </trkpt>
      <trkpt lat="46.05203" lon="2.49366">
        <ele>545.779128</ele>
        <time>2024-06-27T22:43:44.582Z</time>
      </trkpt>
      <trkpt lat="46.0524" lon="2.49396">
        <ele>547.059338</ele>
        <time>2024-06-27T22:43:54.356Z</time>
      </trkpt>
      <trkpt lat="46.05252" lon="2.49412">
        <ele>547.556907</ele>
        <time>2024-06-27T22:43:58.101Z</time>
      </trkpt>
      <trkpt lat="46.05259" lon="2.49429">
        <ele>547.963757</ele>
        <time>2024-06-27T22:44:01.161Z</time>
      </trkpt>
      <trkpt lat="46.05263" lon="2.49444">
        <ele>548.30665</ele>
        <time>2024-06-27T22:44:03.722Z</time>
      </trkpt>
      <trkpt lat="46.05276" lon="2.49651">
        <ele>552.371901</ele>
        <time>2024-06-27T22:44:36.477Z</time>
      </trkpt>
      <trkpt lat="46.05282" lon="2.49674">
        <ele>552.841152</ele>
        <time>2024-06-27T22:44:40.407Z</time>
      </trkpt>
      <trkpt lat="46.05293" lon="2.49702">
        <ele>553.459533</ele>
        <time>2024-06-27T22:44:45.553Z</time>
      </trkpt>
      <trkpt lat="46.0532" lon="2.49753">
        <ele>554.239413</ele>
        <time>2024-06-27T22:44:55.783Z</time>
      </trkpt>
      <trkpt lat="46.05324" lon="2.49774">
        <ele>554.367573</ele>
        <time>2024-06-27T22:44:59.127Z</time>
      </trkpt>
      <trkpt lat="46.05327" lon="2.49834">
        <ele>554.720395</ele>
        <time>2024-06-27T22:45:08.220Z</time>
      </trkpt>
      <trkpt lat="46.05331" lon="2.49846">
        <ele>554.798622</ele>
        <time>2024-06-27T22:45:10.219Z</time>
      </trkpt>
      <trkpt lat="46.0536" lon="2.49912">
        <ele>555.265914</ele>
        <time>2024-06-27T22:45:21.454Z</time>
      </trkpt>
      <trkpt lat="46.05362" lon="2.49922">
        <ele>555.326628</ele>
        <time>2024-06-27T22:45:22.679Z</time>
      </trkpt>
      <trkpt lat="46.05347" lon="2.4996">
        <ele>555.466163</ele>
        <time>2024-06-27T22:45:27.862Z</time>
      </trkpt>
      <trkpt lat="46.05345" lon="2.49975">
        <ele>554.954781</ele>
        <time>2024-06-27T22:45:29.489Z</time>
      </trkpt>
      <trkpt lat="46.0534" lon="2.50006">
        <ele>553.920095</ele>
        <time>2024-06-27T22:45:32.808Z</time>
      </trkpt>
      <trkpt lat="46.05338" lon="2.50033">
        <ele>553.016983</ele>
        <time>2024-06-27T22:45:35.507Z</time>
      </trkpt>
      <trkpt lat="46.05346" lon="2.50079">
        <ele>551.467712</ele>
        <time>2024-06-27T22:45:39.937Z</time>
      </trkpt>
      <trkpt lat="46.05359" lon="2.50094">
        <ele>550.692427</ele>
        <time>2024-06-27T22:45:42.165Z</time>
      </trkpt>
      <trkpt lat="46.05356" lon="2.50105">
        <ele>550.280757</ele>
        <time>2024-06-27T22:45:43.298Z</time>
      </trkpt>
      <trkpt lat="46.05351" lon="2.50118">
        <ele>549.816322</ele>
        <time>2024-06-27T22:45:44.558Z</time>
      </trkpt>
      <trkpt lat="46.05345" lon="2.50126">
        <ele>549.410973</ele>
        <time>2024-06-27T22:45:45.691Z</time>
      </trkpt>
      <trkpt lat="46.05317" lon="2.50158">
        <ele>547.70163</ele>
        <time>2024-06-27T22:45:50.367Z</time>
      </trkpt>
      <trkpt lat="46.05309" lon="2.50174">
        <ele>547.061575</ele>
        <time>2024-06-27T22:45:52.142Z</time>
      </trkpt>
      <trkpt lat="46.05285" lon="2.50245">
        <ele>542.891455</ele>
        <time>2024-06-27T22:45:59.057Z</time>
      </trkpt>
      <trkpt lat="46.05215" lon="2.50262">
        <ele>537.400909</ele>
        <time>2024-06-27T22:46:05.341Z</time>
      </trkpt>
      <trkpt lat="46.05197" lon="2.50267">
        <ele>535.973886</ele>
        <time>2024-06-27T22:46:06.975Z</time>
      </trkpt>
      <trkpt lat="46.05184" lon="2.5027">
        <ele>534.976173</ele>
        <time>2024-06-27T22:46:08.117Z</time>
      </trkpt>
      <trkpt lat="46.05181" lon="2.50282">
        <ele>534.275461</ele>
        <time>2024-06-27T22:46:09.271Z</time>
      </trkpt>
      <trkpt lat="46.05107" lon="2.50377">
        <ele>528.071689</ele>
        <time>2024-06-27T22:46:21.825Z</time>
      </trkpt>
      <trkpt lat="46.04935" lon="2.50576">
        <ele>519.793151</ele>
        <time>2024-06-27T22:46:52.083Z</time>
      </trkpt>
      <trkpt lat="46.04882" lon="2.50681">
        <ele>520.769831</ele>
        <time>2024-06-27T22:47:12.697Z</time>
      </trkpt>
      <trkpt lat="46.04852" lon="2.50727">
        <ele>523.300676</ele>
        <time>2024-06-27T22:47:24.691Z</time>
      </trkpt>
      <trkpt lat="46.04746" lon="2.50875">
        <ele>530.637773</ele>
        <time>2024-06-27T22:48:08.183Z</time>
      </trkpt>
      <trkpt lat="46.04684" lon="2.50984">
        <ele>533.981353</ele>
        <time>2024-06-27T22:48:31.430Z</time>
      </trkpt>
      <trkpt lat="46.0464" lon="2.51041">
        <ele>534.048935</ele>
        <time>2024-06-27T22:48:41.910Z</time>
      </trkpt>
      <trkpt lat="46.04632" lon="2.51054">
        <ele>533.529225</ele>
        <time>2024-06-27T22:48:43.688Z</time>
      </trkpt>
      <trkpt lat="46.0457" lon="2.51199">
        <ele>528.359963</ele>
        <time>2024-06-27T22:48:59.618Z</time>
      </trkpt>
      <trkpt lat="46.04568" lon="2.51214">
        <ele>527.872078</ele>
        <time>2024-06-27T22:49:01.044Z</time>
      </trkpt>
      <trkpt lat="46.04574" lon="2.51265">
        <ele>525.628411</ele>
        <time>2024-06-27T22:49:05.541Z</time>
      </trkpt>
      <trkpt lat="46.0457" lon="2.51287">
        <ele>524.409232</ele>
        <time>2024-06-27T22:49:07.567Z</time>
      </trkpt>
      <trkpt lat="46.04562" lon="2.51304">
        <ele>523.317358</ele>
        <time>2024-06-27T22:49:09.370Z</time>
      </trkpt>
      <trkpt lat="46.0454" lon="2.51329">
        <ele>521.183795</ele>
        <time>2024-06-27T22:49:12.903Z</time>
      </trkpt>
      <trkpt lat="46.04513" lon="2.5134">
        <ele>519.071207</ele>
        <time>2024-06-27T22:49:16.374Z</time>
      </trkpt>
      <trkpt lat="46.04501" lon="2.5135">
        <ele>518.022029</ele>
        <time>2024-06-27T22:49:18.099Z</time>
      </trkpt>
      <trkpt lat="46.04447" lon="2.51452">
        <ele>511.624658</ele>
        <time>2024-06-27T22:49:29.428Z</time>
      </trkpt>
      <trkpt lat="46.04433" lon="2.51524">
        <ele>508.374159</ele>
        <time>2024-06-27T22:49:36.111Z</time>
      </trkpt>
      <trkpt lat="46.04414" lon="2.51566">
        <ele>506.157894</ele>
        <time>2024-06-27T22:49:40.707Z</time>
      </trkpt>
      <trkpt lat="46.044" lon="2.51568">
        <ele>505.286243</ele>
        <time>2024-06-27T22:49:42.547Z</time>
      </trkpt>
      <trkpt lat="46.04328" lon="2.51528">
        <ele>501.345962</ele>
        <time>2024-06-27T22:49:52.778Z</time>
      </trkpt>
      <trkpt lat="46.04315" lon="2.51526">
        <ele>500.962541</ele>
        <time>2024-06-27T22:49:54.458Z</time>
      </trkpt>
      <trkpt lat="46.04309" lon="2.5153">
        <ele>500.759896</ele>
        <time>2024-06-27T22:49:55.332Z</time>
      </trkpt>
      <trkpt lat="46.04303" lon="2.51545">
        <ele>500.398199</ele>
        <time>2024-06-27T22:49:56.893Z</time>
      </trkpt>
      <trkpt lat="46.04306" lon="2.51563">
        <ele>500.020215</ele>
        <time>2024-06-27T22:49:58.602Z</time>
      </trkpt>
      <trkpt lat="46.04316" lon="2.51586">
        <ele>499.451603</ele>
        <time>2024-06-27T22:50:01.359Z</time>
      </trkpt>
      <trkpt lat="46.04319" lon="2.51605">
        <ele>499.041083</ele>
        <time>2024-06-27T22:50:03.363Z</time>
      </trkpt>
      <trkpt lat="46.04319" lon="2.51605">
        <ele>499.035934</ele>
        <time>2024-06-27T22:50:03.391Z</time>
      </trkpt>
      <trkpt lat="46.04319" lon="2.51619">
        <ele>498.755718</ele>
        <time>2024-06-27T22:50:05.179Z</time>
      </trkpt>
      <trkpt lat="46.04308" lon="2.51685">
        <ele>497.331552</ele>
        <time>2024-06-27T22:50:14.224Z</time>
      </trkpt>
      <trkpt lat="46.04297" lon="2.51733">
        <ele>496.792489</ele>
        <time>2024-06-27T22:50:20.828Z</time>
      </trkpt>
      <trkpt lat="46.04285" lon="2.51744">
        <ele>496.787548</ele>
        <time>2024-06-27T22:50:23.014Z</time>
      </trkpt>
      <trkpt lat="46.0421" lon="2.51764">
        <ele>496.760306</ele>
        <time>2024-06-27T22:50:36.761Z</time>
      </trkpt>
      <trkpt lat="46.04197" lon="2.51768">
        <ele>496.75558</ele>
        <time>2024-06-27T22:50:39.463Z</time>
      </trkpt>
      <trkpt lat="46.04171" lon="2.51786">
        <ele>496.745371</ele>
        <time>2024-06-27T22:50:45.022Z</time>
      </trkpt>
      <trkpt lat="46.04105" lon="2.51863">
        <ele>497.144881</ele>
        <time>2024-06-27T22:51:03.505Z</time>
      </trkpt>
      <trkpt lat="46.04055" lon="2.519">
        <ele>497.550983</ele>
        <time>2024-06-27T22:51:13.712Z</time>
      </trkpt>
      <trkpt lat="46.03994" lon="2.51966">
        <ele>498.145044</ele>
        <time>2024-06-27T22:51:29.283Z</time>
      </trkpt>
      <trkpt lat="46.03945" lon="2.52009">
        <ele>498.759549</ele>
        <time>2024-06-27T22:51:41.880Z</time>
      </trkpt>
      <trkpt lat="46.0393" lon="2.52015">
        <ele>498.928225</ele>
        <time>2024-06-27T22:51:45.339Z</time>
      </trkpt>
      <trkpt lat="46.03896" lon="2.52021">
        <ele>499.285595</ele>
        <time>2024-06-27T22:51:52.659Z</time>
      </trkpt>
      <trkpt lat="46.03889" lon="2.52032">
        <ele>499.399222</ele>
        <time>2024-06-27T22:51:54.965Z</time>
      </trkpt>
      <trkpt lat="46.03885" lon="2.52045">
        <ele>499.502353</ele>
        <time>2024-06-27T22:51:57.057Z</time>
      </trkpt>
      <trkpt lat="46.03886" lon="2.52073">
        <ele>499.713726</ele>
        <time>2024-06-27T22:52:01.229Z</time>
      </trkpt>
      <trkpt lat="46.03879" lon="2.52089">
        <ele>499.853348</ele>
        <time>2024-06-27T22:52:03.906Z</time>
      </trkpt>
      <trkpt lat="46.03841" lon="2.52121">
        <ele>499.024697</ele>
        <time>2024-06-27T22:52:11.871Z</time>
      </trkpt>
      <trkpt lat="46.03762" lon="2.52155">
        <ele>496.528861</ele>
        <time>2024-06-27T22:52:24.120Z</time>
      </trkpt>
      <trkpt lat="46.0375" lon="2.52164">
        <ele>496.120174</ele>
        <time>2024-06-27T22:52:25.953Z</time>
      </trkpt>
      <trkpt lat="46.03724" lon="2.52193">
        <ele>495.134038</ele>
        <time>2024-06-27T22:52:30.339Z</time>
      </trkpt>
      <trkpt lat="46.03716" lon="2.52197">
        <ele>494.874012</ele>
        <time>2024-06-27T22:52:31.496Z</time>
      </trkpt>
      <trkpt lat="46.03697" lon="2.52199">
        <ele>494.265674</ele>
        <time>2024-06-27T22:52:34.077Z</time>
      </trkpt>
      <trkpt lat="46.03701" lon="2.52216">
        <ele>493.833282</ele>
        <time>2024-06-27T22:52:35.681Z</time>
      </trkpt>
      <trkpt lat="46.03712" lon="2.52236">
        <ele>493.191907</ele>
        <time>2024-06-27T22:52:38.190Z</time>
      </trkpt>
      <trkpt lat="46.03721" lon="2.5225">
        <ele>492.75121</ele>
        <time>2024-06-27T22:52:39.849Z</time>
      </trkpt>
      <trkpt lat="46.03762" lon="2.52284">
        <ele>491.069719</ele>
        <time>2024-06-27T22:52:46.371Z</time>
      </trkpt>
      <trkpt lat="46.0377" lon="2.52293">
        <ele>490.718245</ele>
        <time>2024-06-27T22:52:47.785Z</time>
      </trkpt>
      <trkpt lat="46.03773" lon="2.52302">
        <ele>490.468675</ele>
        <time>2024-06-27T22:52:48.813Z</time>
      </trkpt>
      <trkpt lat="46.03774" lon="2.52313">
        <ele>490.208552</ele>
        <time>2024-06-27T22:52:49.811Z</time>
      </trkpt>
      <trkpt lat="46.03771" lon="2.52486">
        <ele>489.322362</ele>
        <time>2024-06-27T22:53:11.197Z</time>
      </trkpt>
      <trkpt lat="46.03771" lon="2.52501">
        <ele>489.488371</ele>
        <time>2024-06-27T22:53:13.367Z</time>
      </trkpt>
      <trkpt lat="46.03766" lon="2.52516">
        <ele>489.687206</ele>
        <time>2024-06-27T22:53:15.969Z</time>
      </trkpt>
      <trkpt lat="46.03755" lon="2.52529">
        <ele>489.912796</ele>
        <time>2024-06-27T22:53:19.008Z</time>
      </trkpt>
      <trkpt lat="46.03734" lon="2.52531">
        <ele>490.263247</ele>
        <time>2024-06-27T22:53:23.867Z</time>
      </trkpt>
      <trkpt lat="46.03719" lon="2.52525">
        <ele>490.525994</ele>
        <time>2024-06-27T22:53:27.525Z</time>
      </trkpt>
      <trkpt lat="46.03684" lon="2.52465">
        <ele>491.794132</ele>
        <time>2024-06-27T22:53:40.551Z</time>
      </trkpt>
      <trkpt lat="46.03667" lon="2.52448">
        <ele>492.764333</ele>
        <time>2024-06-27T22:53:45.595Z</time>
      </trkpt>
      <trkpt lat="46.03519" lon="2.52361">
        <ele>500.513274</ele>
        <time>2024-06-27T22:54:26.607Z</time>
      </trkpt>
      <trkpt lat="46.03497" lon="2.52353">
        <ele>501.727424</ele>
        <time>2024-06-27T22:54:32.565Z</time>
      </trkpt>
      <trkpt lat="46.03472" lon="2.52352">
        <ele>503.060221</ele>
        <time>2024-06-27T22:54:39.166Z</time>
      </trkpt>
      <trkpt lat="46.03459" lon="2.52355">
        <ele>503.759827</ele>
        <time>2024-06-27T22:54:42.583Z</time>
      </trkpt>
      <trkpt lat="46.0345" lon="2.52362">
        <ele>504.305035</ele>
        <time>2024-06-27T22:54:45.298Z</time>
      </trkpt>
      <trkpt lat="46.03484" lon="2.52388">
        <ele>506.368099</ele>
        <time>2024-06-27T22:54:54.255Z</time>
      </trkpt>
      <trkpt lat="46.03518" lon="2.52423">
        <ele>508.595728</ele>
        <time>2024-06-27T22:55:03.864Z</time>
      </trkpt>
      <trkpt lat="46.03537" lon="2.52447">
        <ele>509.914359</ele>
        <time>2024-06-27T22:55:09.704Z</time>
      </trkpt>
      <trkpt lat="46.03548" lon="2.52469">
        <ele>510.797192</ele>
        <time>2024-06-27T22:55:13.967Z</time>
      </trkpt>
      <trkpt lat="46.03595" lon="2.52659">
        <ele>517.594665</ele>
        <time>2024-06-27T22:55:45.566Z</time>
      </trkpt>
      <trkpt lat="46.03601" lon="2.52698">
        <ele>518.708097</ele>
        <time>2024-06-27T22:55:51.243Z</time>
      </trkpt>
      <trkpt lat="46.03592" lon="2.52764">
        <ele>520.321876</ele>
        <time>2024-06-27T22:56:00.647Z</time>
      </trkpt>
      <trkpt lat="46.03592" lon="2.52787">
        <ele>520.857312</ele>
        <time>2024-06-27T22:56:03.749Z</time>
      </trkpt>
      <trkpt lat="46.03611" lon="2.5287">
        <ele>522.966747</ele>
        <time>2024-06-27T22:56:15.839Z</time>
      </trkpt>
      <trkpt lat="46.03615" lon="2.52912">
        <ele>523.970186</ele>
        <time>2024-06-27T22:56:21.574Z</time>
      </trkpt>
      <trkpt lat="46.03614" lon="2.53021">
        <ele>526.47459</ele>
        <time>2024-06-27T22:56:36.601Z</time>
      </trkpt>
      <trkpt lat="46.03608" lon="2.53055">
        <ele>527.265909</ele>
        <time>2024-06-27T22:56:41.431Z</time>
      </trkpt>
      <trkpt lat="46.03598" lon="2.53074">
        <ele>527.810691</ele>
        <time>2024-06-27T22:56:44.773Z</time>
      </trkpt>
      <trkpt lat="46.03587" lon="2.53086">
        <ele>528.259508</ele>
        <time>2024-06-27T22:56:47.528Z</time>
      </trkpt>
      <trkpt lat="46.03544" lon="2.53115">
        <ele>529.821977</ele>
        <time>2024-06-27T22:56:57.105Z</time>
      </trkpt>
      <trkpt lat="46.03531" lon="2.53131">
        <ele>530.372114</ele>
        <time>2024-06-27T22:57:00.492Z</time>
      </trkpt>
      <trkpt lat="46.0352" lon="2.53158">
        <ele>531.022452</ele>
        <time>2024-06-27T22:57:04.747Z</time>
      </trkpt>
      <trkpt lat="46.03518" lon="2.5319">
        <ele>531.709795</ele>
        <time>2024-06-27T22:57:09.210Z</time>
      </trkpt>
      <trkpt lat="46.03524" lon="2.53217">
        <ele>532.298571</ele>
        <time>2024-06-27T22:57:12.965Z</time>
      </trkpt>
      <trkpt lat="46.03534" lon="2.53238">
        <ele>532.844225</ele>
        <time>2024-06-27T22:57:16.439Z</time>
      </trkpt>
      <trkpt lat="46.0361" lon="2.53352">
        <ele>536.147916</ele>
        <time>2024-06-27T22:57:37.840Z</time>
      </trkpt>
      <trkpt lat="46.03617" lon="2.53367">
        <ele>536.520794</ele>
        <time>2024-06-27T22:57:40.444Z</time>
      </trkpt>
      <trkpt lat="46.03622" lon="2.53389">
        <ele>536.963276</ele>
        <time>2024-06-27T22:57:43.544Z</time>
      </trkpt>
      <trkpt lat="46.03621" lon="2.53415">
        <ele>537.480813</ele>
        <time>2024-06-27T22:57:47.110Z</time>
      </trkpt>
      <trkpt lat="46.03614" lon="2.5344">
        <ele>538.019427</ele>
        <time>2024-06-27T22:57:50.801Z</time>
      </trkpt>
      <trkpt lat="46.03603" lon="2.53454">
        <ele>538.449029</ele>
        <time>2024-06-27T22:57:53.692Z</time>
      </trkpt>
      <trkpt lat="46.03564" lon="2.53474">
        <ele>539.621986</ele>
        <time>2024-06-27T22:58:01.538Z</time>
      </trkpt>
      <trkpt lat="46.0355" lon="2.53489">
        <ele>540.12903</ele>
        <time>2024-06-27T22:58:04.876Z</time>
      </trkpt>
      <trkpt lat="46.03542" lon="2.53508">
        <ele>540.57548</ele>
        <time>2024-06-27T22:58:07.797Z</time>
      </trkpt>
      <trkpt lat="46.03538" lon="2.53531">
        <ele>540.994154</ele>
        <time>2024-06-27T22:58:10.977Z</time>
      </trkpt>
      <trkpt lat="46.0354" lon="2.53551">
        <ele>541.290628</ele>
        <time>2024-06-27T22:58:13.683Z</time>
      </trkpt>
      <trkpt lat="46.03546" lon="2.53574">
        <ele>541.661283</ele>
        <time>2024-06-27T22:58:17.027Z</time>
      </trkpt>
      <trkpt lat="46.03558" lon="2.53589">
        <ele>542.001665</ele>
        <time>2024-06-27T22:58:20.119Z</time>
      </trkpt>
      <trkpt lat="46.03574" lon="2.53601">
        <ele>542.38371</ele>
        <time>2024-06-27T22:58:23.520Z</time>
      </trkpt>
      <trkpt lat="46.03639" lon="2.53617">
        <ele>543.806556</ele>
        <time>2024-06-27T22:58:35.672Z</time>
      </trkpt>
      <trkpt lat="46.03668" lon="2.53638">
        <ele>544.517908</ele>
        <time>2024-06-27T22:58:41.315Z</time>
      </trkpt>
      <trkpt lat="46.03709" lon="2.53697">
        <ele>545.250079</ele>
        <time>2024-06-27T22:58:50.932Z</time>
      </trkpt>
      <trkpt lat="46.03725" lon="2.53717">
        <ele>545.491377</ele>
        <time>2024-06-27T22:58:54.637Z</time>
      </trkpt>
      <trkpt lat="46.03745" lon="2.53731">
        <ele>545.730446</ele>
        <time>2024-06-27T22:58:58.359Z</time>
      </trkpt>
      <trkpt lat="46.03775" lon="2.53743">
        <ele>546.079287</ele>
        <time>2024-06-27T22:59:03.812Z</time>
      </trkpt>
      <trkpt lat="46.03862" lon="2.53761">
        <ele>546.630025</ele>
        <time>2024-06-27T22:59:18.032Z</time>
      </trkpt>
      <trkpt lat="46.03948" lon="2.5378">
        <ele>546.419341</ele>
        <time>2024-06-27T22:59:30.651Z</time>
      </trkpt>
      <trkpt lat="46.03986" lon="2.53794">
        <ele>546.323375</ele>
        <time>2024-06-27T22:59:35.537Z</time>
      </trkpt>
      <trkpt lat="46.04017" lon="2.53815">
        <ele>546.159529</ele>
        <time>2024-06-27T22:59:39.574Z</time>
      </trkpt>
      <trkpt lat="46.04048" lon="2.53844">
        <ele>545.811832</ele>
        <time>2024-06-27T22:59:43.924Z</time>
      </trkpt>
      <trkpt lat="46.04076" lon="2.53878">
        <ele>545.469229</ele>
        <time>2024-06-27T22:59:48.228Z</time>
      </trkpt>
      <trkpt lat="46.04111" lon="2.53932">
        <ele>544.995076</ele>
        <time>2024-06-27T22:59:54.318Z</time>
      </trkpt>
      <trkpt lat="46.04164" lon="2.53996">
        <ele>544.87449</ele>
        <time>2024-06-27T23:00:03.539Z</time>
      </trkpt>
      <trkpt lat="46.04204" lon="2.54026">
        <ele>545.372008</ele>
        <time>2024-06-27T23:00:10.839Z</time>
      </trkpt>
      <trkpt lat="46.04472" lon="2.5416">
        <ele>549.34523</ele>
        <time>2024-06-27T23:01:01.531Z</time>
      </trkpt>
      <trkpt lat="46.04525" lon="2.54071">
        <ele>549.587336</ele>
        <time>2024-06-27T23:01:14.656Z</time>
      </trkpt>
      <trkpt lat="46.04595" lon="2.53968">
        <ele>549.791021</ele>
        <time>2024-06-27T23:01:28.398Z</time>
      </trkpt>
      <trkpt lat="46.04629" lon="2.53944">
        <ele>550.064861</ele>
        <time>2024-06-27T23:01:33.694Z</time>
      </trkpt>
      <trkpt lat="46.04761" lon="2.5393">
        <ele>551.100319</ele>
        <time>2024-06-27T23:01:55.361Z</time>
      </trkpt>
      <trkpt lat="46.04924" lon="2.53976">
        <ele>553.774308</ele>
        <time>2024-06-27T23:02:25.255Z</time>
      </trkpt>
      <trkpt lat="46.05041" lon="2.54014">
        <ele>555.168257</ele>
        <time>2024-06-27T23:02:46.031Z</time>
      </trkpt>
      <trkpt lat="46.05081" lon="2.54024">
        <ele>555.568902</ele>
        <time>2024-06-27T23:02:52.440Z</time>
      </trkpt>
      <trkpt lat="46.05194" lon="2.54059">
        <ele>556.09563</ele>
        <time>2024-06-27T23:03:10.985Z</time>
      </trkpt>
      <trkpt lat="46.05226" lon="2.54062">
        <ele>556.123655</ele>
        <time>2024-06-27T23:03:15.924Z</time>
      </trkpt>
      <trkpt lat="46.05315" lon="2.54056">
        <ele>556.174623</ele>
        <time>2024-06-27T23:03:28.947Z</time>
      </trkpt>
      <trkpt lat="46.05491" lon="2.54083">
        <ele>555.926172</ele>
        <time>2024-06-27T23:03:53.817Z</time>
      </trkpt>
      <trkpt lat="46.05653" lon="2.54109">
        <ele>556.318777</ele>
        <time>2024-06-27T23:04:19.367Z</time>
      </trkpt>
      <trkpt lat="46.05755" lon="2.54122">
        <ele>556.464881</ele>
        <time>2024-06-27T23:04:35.794Z</time>
      </trkpt>
      <trkpt lat="46.05942" lon="2.54154">
        <ele>555.17471</ele>
        <time>2024-06-27T23:05:01.435Z</time>
      </trkpt>
      <trkpt lat="46.06067" lon="2.54161">
        <ele>552.860454</ele>
        <time>2024-06-27T23:05:14.471Z</time>
      </trkpt>
      <trkpt lat="46.06159" lon="2.54126">
        <ele>550.338077</ele>
        <time>2024-06-27T23:05:24.147Z</time>
      </trkpt>
      <trkpt lat="46.06175" lon="2.54122">
        <ele>549.890487</ele>
        <time>2024-06-27T23:05:25.925Z</time>
      </trkpt>
      <trkpt lat="46.06197" lon="2.54121">
        <ele>549.321219</ele>
        <time>2024-06-27T23:05:28.268Z</time>
      </trkpt>
      <trkpt lat="46.06331" lon="2.54136">
        <ele>548.029302</ele>
        <time>2024-06-27T23:05:44.264Z</time>
      </trkpt>
      <trkpt lat="46.06368" lon="2.54144">
        <ele>547.661685</ele>
        <time>2024-06-27T23:05:50.048Z</time>
      </trkpt>
      <trkpt lat="46.06532" lon="2.54229">
        <ele>547.822871</ele>
        <time>2024-06-27T23:06:17.762Z</time>
      </trkpt>
      <trkpt lat="46.06536" lon="2.54231">
        <ele>547.828912</ele>
        <time>2024-06-27T23:06:18.447Z</time>
      </trkpt>
      <trkpt lat="46.06557" lon="2.54232">
        <ele>547.765851</ele>
        <time>2024-06-27T23:06:21.515Z</time>
      </trkpt>
      <trkpt lat="46.06635" lon="2.54217">
        <ele>547.27602</ele>
        <time>2024-06-27T23:06:32.719Z</time>
      </trkpt>
      <trkpt lat="46.06777" lon="2.542">
        <ele>546.00247</ele>
        <time>2024-06-27T23:06:49.639Z</time>
      </trkpt>
      <trkpt lat="46.06873" lon="2.54188">
        <ele>544.683911</ele>
        <time>2024-06-27T23:07:00.745Z</time>
      </trkpt>
      <trkpt lat="46.07048" lon="2.54201">
        <ele>541.911218</ele>
        <time>2024-06-27T23:07:21.104Z</time>
      </trkpt>
      <trkpt lat="46.07147" lon="2.5421">
        <ele>539.374595</ele>
        <time>2024-06-27T23:07:31.836Z</time>
      </trkpt>
      <trkpt lat="46.07185" lon="2.54205">
        <ele>538.183864</ele>
        <time>2024-06-27T23:07:35.812Z</time>
      </trkpt>
      <trkpt lat="46.07264" lon="2.54116">
        <ele>534.892262</ele>
        <time>2024-06-27T23:07:45.686Z</time>
      </trkpt>
      <trkpt lat="46.07357" lon="2.54057">
        <ele>530.813249</ele>
        <time>2024-06-27T23:07:55.507Z</time>
      </trkpt>
      <trkpt lat="46.07384" lon="2.54047">
        <ele>529.705961</ele>
        <time>2024-06-27T23:07:58.214Z</time>
      </trkpt>
      <trkpt lat="46.07507" lon="2.54044">
        <ele>524.549507</ele>
        <time>2024-06-27T23:08:10.336Z</time>
      </trkpt>
      <trkpt lat="46.07552" lon="2.54035">
        <ele>522.602781</ele>
        <time>2024-06-27T23:08:14.783Z</time>
      </trkpt>
      <trkpt lat="46.07587" lon="2.54021">
        <ele>521.091316</ele>
        <time>2024-06-27T23:08:18.152Z</time>
      </trkpt>
      <trkpt lat="46.07619" lon="2.54013">
        <ele>519.100538</ele>
        <time>2024-06-27T23:08:21.174Z</time>
      </trkpt>
      <trkpt lat="46.07636" lon="2.54014">
        <ele>517.975303</ele>
        <time>2024-06-27T23:08:22.815Z</time>
      </trkpt>
      <trkpt lat="46.07663" lon="2.54031">
        <ele>516.159684</ele>
        <time>2024-06-27T23:08:25.452Z</time>
      </trkpt>
      <trkpt lat="46.07674" lon="2.54036">
        <ele>515.440344</ele>
        <time>2024-06-27T23:08:26.491Z</time>
      </trkpt>
      <trkpt lat="46.07687" lon="2.54036">
        <ele>514.592473</ele>
        <time>2024-06-27T23:08:27.705Z</time>
      </trkpt>
      <trkpt lat="46.077" lon="2.54028">
        <ele>513.709772</ele>
        <time>2024-06-27T23:08:28.960Z</time>
      </trkpt>
      <trkpt lat="46.0771" lon="2.54018">
        <ele>512.973204</ele>
        <time>2024-06-27T23:08:30.020Z</time>
      </trkpt>
      <trkpt lat="46.07722" lon="2.53989">
        <ele>511.498298</ele>
        <time>2024-06-27T23:08:32.114Z</time>
      </trkpt>
      <trkpt lat="46.07751" lon="2.53887">
        <ele>507.125392</ele>
        <time>2024-06-27T23:08:39.047Z</time>
      </trkpt>
      <trkpt lat="46.07756" lon="2.53858">
        <ele>506.010027</ele>
        <time>2024-06-27T23:08:40.989Z</time>
      </trkpt>
      <trkpt lat="46.07755" lon="2.53837">
        <ele>505.217457</ele>
        <time>2024-06-27T23:08:42.397Z</time>
      </trkpt>
      <trkpt lat="46.07744" lon="2.53809">
        <ele>504.052177</ele>
        <time>2024-06-27T23:08:44.471Z</time>
      </trkpt>
      <trkpt lat="46.0771" lon="2.53773">
        <ele>501.736206</ele>
        <time>2024-06-27T23:08:48.597Z</time>
      </trkpt>
      <trkpt lat="46.07697" lon="2.53768">
        <ele>501.031923</ele>
        <time>2024-06-27T23:08:49.841Z</time>
      </trkpt>
      <trkpt lat="46.07683" lon="2.53768">
        <ele>500.305343</ele>
        <time>2024-06-27T23:08:51.102Z</time>
      </trkpt>
      <trkpt lat="46.07659" lon="2.53778">
        <ele>498.864983</ele>
        <time>2024-06-27T23:08:53.504Z</time>
      </trkpt>
      <trkpt lat="46.07645" lon="2.53775">
        <ele>498.096171</ele>
        <time>2024-06-27T23:08:54.755Z</time>
      </trkpt>
      <trkpt lat="46.07636" lon="2.53762">
        <ele>497.33839</ele>
        <time>2024-06-27T23:08:55.993Z</time>
      </trkpt>
      <trkpt lat="46.07629" lon="2.53722">
        <ele>495.685976</ele>
        <time>2024-06-27T23:08:58.683Z</time>
      </trkpt>
      <trkpt lat="46.07631" lon="2.53692">
        <ele>494.520755</ele>
        <time>2024-06-27T23:09:00.590Z</time>
      </trkpt>
      <trkpt lat="46.07644" lon="2.53628">
        <ele>491.878754</ele>
        <time>2024-06-27T23:09:04.864Z</time>
      </trkpt>
      <trkpt lat="46.07647" lon="2.53599">
        <ele>490.708179</ele>
        <time>2024-06-27T23:09:06.744Z</time>
      </trkpt>
      <trkpt lat="46.07644" lon="2.53587">
        <ele>490.208192</ele>
        <time>2024-06-27T23:09:07.545Z</time>
      </trkpt>
      <trkpt lat="46.07637" lon="2.53578">
        <ele>489.678854</ele>
        <time>2024-06-27T23:09:08.392Z</time>
      </trkpt>
      <trkpt lat="46.07616" lon="2.53571">
        <ele>488.326479</ele>
        <time>2024-06-27T23:09:10.379Z</time>
      </trkpt>
      <trkpt lat="46.07604" lon="2.53563">
        <ele>487.503006</ele>
        <time>2024-06-27T23:09:11.589Z</time>
      </trkpt>
      <trkpt lat="46.07598" lon="2.5355">
        <ele>486.818309</ele>
        <time>2024-06-27T23:09:12.602Z</time>
      </trkpt>
      <trkpt lat="46.07597" lon="2.53536">
        <ele>486.213697</ele>
        <time>2024-06-27T23:09:13.491Z</time>
      </trkpt>
      <trkpt lat="46.07599" lon="2.53521">
        <ele>485.542972</ele>
        <time>2024-06-27T23:09:14.482Z</time>
      </trkpt>
      <trkpt lat="46.07609" lon="2.53512">
        <ele>484.857864</ele>
        <time>2024-06-27T23:09:15.500Z</time>
      </trkpt>
      <trkpt lat="46.07621" lon="2.53511">
        <ele>484.078245</ele>
        <time>2024-06-27T23:09:16.647Z</time>
      </trkpt>
      <trkpt lat="46.07633" lon="2.53516">
        <ele>483.330501</ele>
        <time>2024-06-27T23:09:17.746Z</time>
      </trkpt>
      <trkpt lat="46.07659" lon="2.53544">
        <ele>481.345627</ele>
        <time>2024-06-27T23:09:20.679Z</time>
      </trkpt>
      <trkpt lat="46.07666" lon="2.53559">
        <ele>480.541576</ele>
        <time>2024-06-27T23:09:21.881Z</time>
      </trkpt>
      <trkpt lat="46.07668" lon="2.53576">
        <ele>479.805891</ele>
        <time>2024-06-27T23:09:22.952Z</time>
      </trkpt>
      <trkpt lat="46.07665" lon="2.53628">
        <ele>477.528578</ele>
        <time>2024-06-27T23:09:26.237Z</time>
      </trkpt>
      <trkpt lat="46.07669" lon="2.53637">
        <ele>477.068779</ele>
        <time>2024-06-27T23:09:26.877Z</time>
      </trkpt>
      <trkpt lat="46.07677" lon="2.53642">
        <ele>476.488353</ele>
        <time>2024-06-27T23:09:27.696Z</time>
      </trkpt>
      <trkpt lat="46.07687" lon="2.53643">
        <ele>475.79683</ele>
        <time>2024-06-27T23:09:28.679Z</time>
      </trkpt>
      <trkpt lat="46.07718" lon="2.53627">
        <ele>473.636495</ele>
        <time>2024-06-27T23:09:31.736Z</time>
      </trkpt>
      <trkpt lat="46.0777" lon="2.53633">
        <ele>470.276956</ele>
        <time>2024-06-27T23:09:36.494Z</time>
      </trkpt>
      <trkpt lat="46.07827" lon="2.5363">
        <ele>466.467785</ele>
        <time>2024-06-27T23:09:41.616Z</time>
      </trkpt>
      <trkpt lat="46.07853" lon="2.53639">
        <ele>464.417621</ele>
        <time>2024-06-27T23:09:43.928Z</time>
      </trkpt>
      <trkpt lat="46.07875" lon="2.53655">
        <ele>462.471547</ele>
        <time>2024-06-27T23:09:46.119Z</time>
      </trkpt>
      <trkpt lat="46.07889" lon="2.53653">
        <ele>461.369739</ele>
        <time>2024-06-27T23:09:47.359Z</time>
      </trkpt>
      <trkpt lat="46.07913" lon="2.53642">
        <ele>459.430537</ele>
        <time>2024-06-27T23:09:49.570Z</time>
      </trkpt>
      <trkpt lat="46.07952" lon="2.53638">
        <ele>456.438179</ele>
        <time>2024-06-27T23:09:53.024Z</time>
      </trkpt>
      <trkpt lat="46.08033" lon="2.53606">
        <ele>450.781397</ele>
        <time>2024-06-27T23:10:00.623Z</time>
      </trkpt>
      <trkpt lat="46.08144" lon="2.53506">
        <ele>443.458872</ele>
        <time>2024-06-27T23:10:12.703Z</time>
      </trkpt>
      <trkpt lat="46.08177" lon="2.53498">
        <ele>442.6022</ele>
        <time>2024-06-27T23:10:15.977Z</time>
      </trkpt>
      <trkpt lat="46.08209" lon="2.53495">
        <ele>442.151456</ele>
        <time>2024-06-27T23:10:19.388Z</time>
      </trkpt>
      <trkpt lat="46.08271" lon="2.53518">
        <ele>441.264794</ele>
        <time>2024-06-27T23:10:26.731Z</time>
      </trkpt>
      <trkpt lat="46.0828" lon="2.53517">
        <ele>441.14525</ele>
        <time>2024-06-27T23:10:27.756Z</time>
      </trkpt>
      <trkpt lat="46.08293" lon="2.53516">
        <ele>440.964995</ele>
        <time>2024-06-27T23:10:29.472Z</time>
      </trkpt>
      <trkpt lat="46.08299" lon="2.53516">
        <ele>440.881913</ele>
        <time>2024-06-27T23:10:30.427Z</time>
      </trkpt>
      <trkpt lat="46.08313" lon="2.53515">
        <ele>440.686447</ele>
        <time>2024-06-27T23:10:32.683Z</time>
      </trkpt>
      <trkpt lat="46.08325" lon="2.5351">
        <ele>440.517481</ele>
        <time>2024-06-27T23:10:34.646Z</time>
      </trkpt>
      <trkpt lat="46.08335" lon="2.53506">
        <ele>440.653175</ele>
        <time>2024-06-27T23:10:36.521Z</time>
      </trkpt>
      <trkpt lat="46.0836" lon="2.53485">
        <ele>441.90986</ele>
        <time>2024-06-27T23:10:42.171Z</time>
      </trkpt>
      <trkpt lat="46.0838" lon="2.53476">
        <ele>442.76175</ele>
        <time>2024-06-27T23:10:46.448Z</time>
      </trkpt>
      <trkpt lat="46.08416" lon="2.5347">
        <ele>444.275144</ele>
        <time>2024-06-27T23:10:54.246Z</time>
      </trkpt>
      <trkpt lat="46.08441" lon="2.53452">
        <ele>445.451516</ele>
        <time>2024-06-27T23:11:00.663Z</time>
      </trkpt>
      <trkpt lat="46.08457" lon="2.53428">
        <ele>446.446213</ele>
        <time>2024-06-27T23:11:06.422Z</time>
      </trkpt>
      <trkpt lat="46.08497" lon="2.53355">
        <ele>449.298579</ele>
        <time>2024-06-27T23:11:21.444Z</time>
      </trkpt>
      <trkpt lat="46.08544" lon="2.53282">
        <ele>452.608466</ele>
        <time>2024-06-27T23:11:37.074Z</time>
      </trkpt>
      <trkpt lat="46.08581" lon="2.5326">
        <ele>454.499143</ele>
        <time>2024-06-27T23:11:46.042Z</time>
      </trkpt>
      <trkpt lat="46.08605" lon="2.53258">
        <ele>455.668106</ele>
        <time>2024-06-27T23:11:51.246Z</time>
      </trkpt>
      <trkpt lat="46.08637" lon="2.53247">
        <ele>456.941889</ele>
        <time>2024-06-27T23:11:57.788Z</time>
      </trkpt>
      <trkpt lat="46.08643" lon="2.53241">
        <ele>457.150317</ele>
        <time>2024-06-27T23:11:59.337Z</time>
      </trkpt>
      <trkpt lat="46.08647" lon="2.53233">
        <ele>457.340837</ele>
        <time>2024-06-27T23:12:00.721Z</time>
      </trkpt>
      <trkpt lat="46.08662" lon="2.53155">
        <ele>458.888372</ele>
        <time>2024-06-27T23:12:11.468Z</time>
      </trkpt>
      <trkpt lat="46.08663" lon="2.53135">
        <ele>459.267524</ele>
        <time>2024-06-27T23:12:14.169Z</time>
      </trkpt>
      <trkpt lat="46.08632" lon="2.52934">
        <ele>461.564201</ele>
        <time>2024-06-27T23:12:40.789Z</time>
      </trkpt>
      <trkpt lat="46.08633" lon="2.52921">
        <ele>461.566617</ele>
        <time>2024-06-27T23:12:42.129Z</time>
      </trkpt>
      <trkpt lat="46.08638" lon="2.52903">
        <ele>461.57043</ele>
        <time>2024-06-27T23:12:44.048Z</time>
      </trkpt>
      <trkpt lat="46.08655" lon="2.52868">
        <ele>461.5785</ele>
        <time>2024-06-27T23:12:47.788Z</time>
      </trkpt>
      <trkpt lat="46.08664" lon="2.52859">
        <ele>461.581462</ele>
        <time>2024-06-27T23:12:49.069Z</time>
      </trkpt>
      <trkpt lat="46.08715" lon="2.52835">
        <ele>461.596093</ele>
        <time>2024-06-27T23:12:55.086Z</time>
      </trkpt>
      <trkpt lat="46.08749" lon="2.52788">
        <ele>461.24253</ele>
        <time>2024-06-27T23:13:00.359Z</time>
      </trkpt>
      <trkpt lat="46.08781" lon="2.52752">
        <ele>460.920691</ele>
        <time>2024-06-27T23:13:04.905Z</time>
      </trkpt>
      <trkpt lat="46.08795" lon="2.52744">
        <ele>460.797794</ele>
        <time>2024-06-27T23:13:06.669Z</time>
      </trkpt>
      <trkpt lat="46.08808" lon="2.5275">
        <ele>460.691011</ele>
        <time>2024-06-27T23:13:08.237Z</time>
      </trkpt>
      <trkpt lat="46.08829" lon="2.5278">
        <ele>460.451699</ele>
        <time>2024-06-27T23:13:12.098Z</time>
      </trkpt>
      <trkpt lat="46.0888" lon="2.52781">
        <ele>460.624032</ele>
        <time>2024-06-27T23:13:20.202Z</time>
      </trkpt>
      <trkpt lat="46.08919" lon="2.52793">
        <ele>461.928742</ele>
        <time>2024-06-27T23:13:27.754Z</time>
      </trkpt>
      <trkpt lat="46.08951" lon="2.52799">
        <ele>462.976506</ele>
        <time>2024-06-27T23:13:34.248Z</time>
      </trkpt>
      <trkpt lat="46.08964" lon="2.52799">
        <ele>463.38553</ele>
        <time>2024-06-27T23:13:36.929Z</time>
      </trkpt>
      <trkpt lat="46.08975" lon="2.52794">
        <ele>463.765028</ele>
        <time>2024-06-27T23:13:39.377Z</time>
      </trkpt>
      <trkpt lat="46.08994" lon="2.52781">
        <ele>464.437284</ele>
        <time>2024-06-27T23:13:43.746Z</time>
      </trkpt>
      <trkpt lat="46.09054" lon="2.5271">
        <ele>467.500824</ele>
        <time>2024-06-27T23:14:00.553Z</time>
      </trkpt>
      <trkpt lat="46.09069" lon="2.52691">
        <ele>468.527816</ele>
        <time>2024-06-27T23:14:05.065Z</time>
      </trkpt>
      <trkpt lat="46.09093" lon="2.5266">
        <ele>470.169661</ele>
        <time>2024-06-27T23:14:12.523Z</time>
      </trkpt>
      <trkpt lat="46.09119" lon="2.52628">
        <ele>471.890065</ele>
        <time>2024-06-27T23:14:20.466Z</time>
      </trkpt>
      <trkpt lat="46.09157" lon="2.52591">
        <ele>474.223416</ele>
        <time>2024-06-27T23:14:31.118Z</time>
      </trkpt>
      <trkpt lat="46.09268" lon="2.52525">
        <ele>479.682343</ele>
        <time>2024-06-27T23:14:57.648Z</time>
      </trkpt>
      <trkpt lat="46.09317" lon="2.525">
        <ele>481.950838</ele>
        <time>2024-06-27T23:15:08.597Z</time>
      </trkpt>
      <trkpt lat="46.09425" lon="2.52482">
        <ele>486.416526</ele>
        <time>2024-06-27T23:15:30.912Z</time>
      </trkpt>
      <trkpt lat="46.09547" lon="2.52361">
        <ele>492.17185</ele>
        <time>2024-06-27T23:16:02.338Z</time>
      </trkpt>
      <trkpt lat="46.09561" lon="2.52333">
        <ele>493.042209</ele>
        <time>2024-06-27T23:16:07.448Z</time>
      </trkpt>
      <trkpt lat="46.09566" lon="2.523">
        <ele>493.899649</ele>
        <time>2024-06-27T23:16:12.438Z</time>
      </trkpt>
      <trkpt lat="46.09567" lon="2.52193">
        <ele>496.655636</ele>
        <time>2024-06-27T23:16:27.482Z</time>
      </trkpt>
      <trkpt lat="46.09572" lon="2.52183">
        <ele>496.933887</ele>
        <time>2024-06-27T23:16:29.403Z</time>
      </trkpt>
      <trkpt lat="46.09579" lon="2.52178">
        <ele>496.968869</ele>
        <time>2024-06-27T23:16:31.260Z</time>
      </trkpt>
      <trkpt lat="46.09593" lon="2.52177">
        <ele>497.027706</ele>
        <time>2024-06-27T23:16:34.345Z</time>
      </trkpt>
      <trkpt lat="46.09662" lon="2.52269">
        <ele>497.431306</ele>
        <time>2024-06-27T23:16:54.104Z</time>
      </trkpt>
      <trkpt lat="46.09719" lon="2.52313">
        <ele>497.661644</ele>
        <time>2024-06-27T23:17:04.766Z</time>
      </trkpt>
      <trkpt lat="46.09761" lon="2.52337">
        <ele>496.516205</ele>
        <time>2024-06-27T23:17:11.806Z</time>
      </trkpt>
      <trkpt lat="46.0985" lon="2.52462">
        <ele>493.417597</ele>
        <time>2024-06-27T23:17:30.264Z</time>
      </trkpt>
      <trkpt lat="46.09874" lon="2.52515">
        <ele>492.442656</ele>
        <time>2024-06-27T23:17:36.750Z</time>
      </trkpt>
      <trkpt lat="46.09935" lon="2.52689">
        <ele>489.544316</ele>
        <time>2024-06-27T23:17:58.137Z</time>
      </trkpt>
      <trkpt lat="46.10013" lon="2.52876">
        <ele>487.233497</ele>
        <time>2024-06-27T23:18:23.131Z</time>
      </trkpt>
      <trkpt lat="46.1002" lon="2.529">
        <ele>486.96354</ele>
        <time>2024-06-27T23:18:25.275Z</time>
      </trkpt>
      <trkpt lat="46.10027" lon="2.52935">
        <ele>486.621123</ele>
        <time>2024-06-27T23:18:28.303Z</time>
      </trkpt>
      <trkpt lat="46.10031" lon="2.5298">
        <ele>486.35826</ele>
        <time>2024-06-27T23:18:32.080Z</time>
      </trkpt>
      <trkpt lat="46.10026" lon="2.53128">
        <ele>485.503498</ele>
        <time>2024-06-27T23:18:44.544Z</time>
      </trkpt>
      <trkpt lat="46.10013" lon="2.53208">
        <ele>485.299723</ele>
        <time>2024-06-27T23:18:52.510Z</time>
      </trkpt>
      <trkpt lat="46.09998" lon="2.53295">
        <ele>485.804144</ele>
        <time>2024-06-27T23:19:02.478Z</time>
      </trkpt>
      <trkpt lat="46.09995" lon="2.53314">
        <ele>485.915242</ele>
        <time>2024-06-27T23:19:04.677Z</time>
      </trkpt>
      <trkpt lat="46.09974" lon="2.53446">
        <ele>486.720992</ele>
        <time>2024-06-27T23:19:20.803Z</time>
      </trkpt>
      <trkpt lat="46.0997" lon="2.53503">
        <ele>487.365904</ele>
        <time>2024-06-27T23:19:28.017Z</time>
      </trkpt>
      <trkpt lat="46.09977" lon="2.53727">
        <ele>489.448605</ele>
        <time>2024-06-27T23:19:55.803Z</time>
      </trkpt>
      <trkpt lat="46.09981" lon="2.5385">
        <ele>489.063136</ele>
        <time>2024-06-27T23:20:09.342Z</time>
      </trkpt>
      <trkpt lat="46.10008" lon="2.53992">
        <ele>487.736785</ele>
        <time>2024-06-27T23:20:20.508Z</time>
      </trkpt>
      <trkpt lat="46.10032" lon="2.54103">
        <ele>484.976143</ele>
        <time>2024-06-27T23:20:28.588Z</time>
      </trkpt>
      <trkpt lat="46.10049" lon="2.54165">
        <ele>483.377906</ele>
        <time>2024-06-27T23:20:33.165Z</time>
      </trkpt>
      <trkpt lat="46.10059" lon="2.54179">
        <ele>482.91434</ele>
        <time>2024-06-27T23:20:34.485Z</time>
      </trkpt>
      <trkpt lat="46.10178" lon="2.54274">
        <ele>476.682891</ele>
        <time>2024-06-27T23:20:47.560Z</time>
      </trkpt>
      <trkpt lat="46.10217" lon="2.54332">
        <ele>474.048598</ele>
        <time>2024-06-27T23:20:52.828Z</time>
      </trkpt>
      <trkpt lat="46.10227" lon="2.54362">
        <ele>472.616645</ele>
        <time>2024-06-27T23:20:54.989Z</time>
      </trkpt>
      <trkpt lat="46.10235" lon="2.54409">
        <ele>470.550585</ele>
        <time>2024-06-27T23:20:58.080Z</time>
      </trkpt>
      <trkpt lat="46.1024" lon="2.54421">
        <ele>469.930373</ele>
        <time>2024-06-27T23:20:59.002Z</time>
      </trkpt>
      <trkpt lat="46.10252" lon="2.54433">
        <ele>469.027336</ele>
        <time>2024-06-27T23:21:00.346Z</time>
      </trkpt>
      <trkpt lat="46.10327" lon="2.54457">
        <ele>464.303766</ele>
        <time>2024-06-27T23:21:07.260Z</time>
      </trkpt>
      <trkpt lat="46.1035" lon="2.54482">
        <ele>462.360062</ele>
        <time>2024-06-27T23:21:09.863Z</time>
      </trkpt>
      <trkpt lat="46.10407" lon="2.54532">
        <ele>457.023844</ele>
        <time>2024-06-27T23:21:15.859Z</time>
      </trkpt>
      <trkpt lat="46.10418" lon="2.54545">
        <ele>455.960604</ele>
        <time>2024-06-27T23:21:17.045Z</time>
      </trkpt>
      <trkpt lat="46.10473" lon="2.54638">
        <ele>449.209572</ele>
        <time>2024-06-27T23:21:24.510Z</time>
      </trkpt>
      <trkpt lat="46.10498" lon="2.54707">
        <ele>445.066761</ele>
        <time>2024-06-27T23:21:29.216Z</time>
      </trkpt>
      <trkpt lat="46.10508" lon="2.5472">
        <ele>444.044751</ele>
        <time>2024-06-27T23:21:30.388Z</time>
      </trkpt>
      <trkpt lat="46.10521" lon="2.5473">
        <ele>442.941599</ele>
        <time>2024-06-27T23:21:31.645Z</time>
      </trkpt>
      <trkpt lat="46.10547" lon="2.54729">
        <ele>440.8874</ele>
        <time>2024-06-27T23:21:34.008Z</time>
      </trkpt>
      <trkpt lat="46.10604" lon="2.54702">
        <ele>436.327178</ele>
        <time>2024-06-27T23:21:39.333Z</time>
      </trkpt>
      <trkpt lat="46.10619" lon="2.547">
        <ele>435.211426</ele>
        <time>2024-06-27T23:21:40.654Z</time>
      </trkpt>
      <trkpt lat="46.10645" lon="2.54704">
        <ele>434.093778</ele>
        <time>2024-06-27T23:21:43.147Z</time>
      </trkpt>
      <trkpt lat="46.10656" lon="2.54699">
        <ele>433.678207</ele>
        <time>2024-06-27T23:21:44.174Z</time>
      </trkpt>
      <trkpt lat="46.10663" lon="2.54687">
        <ele>433.267871</ele>
        <time>2024-06-27T23:21:45.210Z</time>
      </trkpt>
      <trkpt lat="46.10666" lon="2.54675">
        <ele>432.933094</ele>
        <time>2024-06-27T23:21:46.057Z</time>
      </trkpt>
      <trkpt lat="46.10663" lon="2.5466">
        <ele>432.539287</ele>
        <time>2024-06-27T23:21:47.053Z</time>
      </trkpt>
      <trkpt lat="46.10618" lon="2.5461">
        <ele>430.386591</ele>
        <time>2024-06-27T23:21:52.776Z</time>
      </trkpt>
      <trkpt lat="46.10618" lon="2.54609">
        <ele>430.375674</ele>
        <time>2024-06-27T23:21:52.801Z</time>
      </trkpt>
      <trkpt lat="46.10534" lon="2.54481">
        <ele>426.048486</ele>
        <time>2024-06-27T23:22:06.133Z</time>
      </trkpt>
      <trkpt lat="46.10529" lon="2.54463">
        <ele>425.618897</ele>
        <time>2024-06-27T23:22:07.504Z</time>
      </trkpt>
      <trkpt lat="46.10532" lon="2.54447">
        <ele>425.216306</ele>
        <time>2024-06-27T23:22:08.767Z</time>
      </trkpt>
      <trkpt lat="46.10539" lon="2.54436">
        <ele>424.875123</ele>
        <time>2024-06-27T23:22:09.831Z</time>
      </trkpt>
      <trkpt lat="46.1055" lon="2.54432">
        <ele>424.514798</ele>
        <time>2024-06-27T23:22:10.930Z</time>
      </trkpt>
      <trkpt lat="46.10562" lon="2.54438">
        <ele>424.082613</ele>
        <time>2024-06-27T23:22:12.235Z</time>
      </trkpt>
      <trkpt lat="46.1062" lon="2.54482">
        <ele>421.538061</ele>
        <time>2024-06-27T23:22:18.553Z</time>
      </trkpt>
      <trkpt lat="46.10682" lon="2.5452">
        <ele>416.945692</ele>
        <time>2024-06-27T23:22:24.640Z</time>
      </trkpt>
      <trkpt lat="46.10713" lon="2.54552">
        <ele>414.349148</ele>
        <time>2024-06-27T23:22:28.007Z</time>
      </trkpt>
      <trkpt lat="46.10747" lon="2.54593">
        <ele>411.282889</ele>
        <time>2024-06-27T23:22:31.966Z</time>
      </trkpt>
      <trkpt lat="46.10806" lon="2.54671">
        <ele>406.009084</ele>
        <time>2024-06-27T23:22:39.102Z</time>
      </trkpt>
      <trkpt lat="46.10823" lon="2.54686">
        <ele>404.704669</ele>
        <time>2024-06-27T23:22:40.897Z</time>
      </trkpt>
      <trkpt lat="46.1084" lon="2.54695">
        <ele>403.505669</ele>
        <time>2024-06-27T23:22:42.536Z</time>
      </trkpt>
      <trkpt lat="46.10857" lon="2.54699">
        <ele>402.384811</ele>
        <time>2024-06-27T23:22:44.074Z</time>
      </trkpt>
      <trkpt lat="46.10872" lon="2.54699">
        <ele>401.417473</ele>
        <time>2024-06-27T23:22:45.400Z</time>
      </trkpt>
      <trkpt lat="46.10948" lon="2.54685">
        <ele>397.706324</ele>
        <time>2024-06-27T23:22:52.550Z</time>
      </trkpt>
      <trkpt lat="46.10966" lon="2.54687">
        <ele>397.399084</ele>
        <time>2024-06-27T23:22:54.324Z</time>
      </trkpt>
      <trkpt lat="46.10981" lon="2.54696">
        <ele>397.120816</ele>
        <time>2024-06-27T23:22:56.047Z</time>
      </trkpt>
      <trkpt lat="46.10992" lon="2.54707">
        <ele>396.886911</ele>
        <time>2024-06-27T23:22:57.511Z</time>
      </trkpt>
      <trkpt lat="46.11" lon="2.54722">
        <ele>396.664381</ele>
        <time>2024-06-27T23:22:58.993Z</time>
      </trkpt>
      <trkpt lat="46.11015" lon="2.54741">
        <ele>396.316309</ele>
        <time>2024-06-27T23:23:01.568Z</time>
      </trkpt>
      <trkpt lat="46.11031" lon="2.54748">
        <ele>396.029451</ele>
        <time>2024-06-27T23:23:03.774Z</time>
      </trkpt>
      <trkpt lat="46.11089" lon="2.5476">
        <ele>395.132863</ele>
        <time>2024-06-27T23:23:13.186Z</time>
      </trkpt>
      <trkpt lat="46.11102" lon="2.5476">
        <ele>395.34964</ele>
        <time>2024-06-27T23:23:15.309Z</time>
      </trkpt>
      <trkpt lat="46.11132" lon="2.54736">
        <ele>395.914391</ele>
        <time>2024-06-27T23:23:21.354Z</time>
      </trkpt>
      <trkpt lat="46.11153" lon="2.54729">
        <ele>396.276135</ele>
        <time>2024-06-27T23:23:25.465Z</time>
      </trkpt>
      <trkpt lat="46.11247" lon="2.54706">
        <ele>397.858468</ele>
        <time>2024-06-27T23:23:42.993Z</time>
      </trkpt>
      <trkpt lat="46.11264" lon="2.54705">
        <ele>398.084608</ele>
        <time>2024-06-27T23:23:45.981Z</time>
      </trkpt>
      <trkpt lat="46.11283" lon="2.54711">
        <ele>398.196338</ele>
        <time>2024-06-27T23:23:49.266Z</time>
      </trkpt>
      <trkpt lat="46.11347" lon="2.54736">
        <ele>398.592882</ele>
        <time>2024-06-27T23:24:00.315Z</time>
      </trkpt>
      <trkpt lat="46.11379" lon="2.54766">
        <ele>398.822593</ele>
        <time>2024-06-27T23:24:06.482Z</time>
      </trkpt>
      <trkpt lat="46.11394" lon="2.54785">
        <ele>398.940684</ele>
        <time>2024-06-27T23:24:09.309Z</time>
      </trkpt>
      <trkpt lat="46.11452" lon="2.54889">
        <ele>398.444916</ele>
        <time>2024-06-27T23:24:21.345Z</time>
      </trkpt>
      <trkpt lat="46.11487" lon="2.54938">
        <ele>397.914786</ele>
        <time>2024-06-27T23:24:27.682Z</time>
      </trkpt>
      <trkpt lat="46.11537" lon="2.55077">
        <ele>396.545341</ele>
        <time>2024-06-27T23:24:39.739Z</time>
      </trkpt>
      <trkpt lat="46.11548" lon="2.55101">
        <ele>396.238332</ele>
        <time>2024-06-27T23:24:41.848Z</time>
      </trkpt>
      <trkpt lat="46.11575" lon="2.5513">
        <ele>395.721838</ele>
        <time>2024-06-27T23:24:45.504Z</time>
      </trkpt>
      <trkpt lat="46.11594" lon="2.55139">
        <ele>395.411463</ele>
        <time>2024-06-27T23:24:47.788Z</time>
      </trkpt>
      <trkpt lat="46.11634" lon="2.55147">
        <ele>394.80655</ele>
        <time>2024-06-27T23:24:52.598Z</time>
      </trkpt>
      <trkpt lat="46.11661" lon="2.55146">
        <ele>394.393151</ele>
        <time>2024-06-27T23:24:56.128Z</time>
      </trkpt>
      <trkpt lat="46.11684" lon="2.55138">
        <ele>394.403343</ele>
        <time>2024-06-27T23:24:59.225Z</time>
      </trkpt>
      <trkpt lat="46.11766" lon="2.55099">
        <ele>394.468827</ele>
        <time>2024-06-27T23:25:11.345Z</time>
      </trkpt>
      <trkpt lat="46.11783" lon="2.55085">
        <ele>394.483367</ele>
        <time>2024-06-27T23:25:14.433Z</time>
      </trkpt>
      <trkpt lat="46.11798" lon="2.55069">
        <ele>394.497222</ele>
        <time>2024-06-27T23:25:17.657Z</time>
      </trkpt>
      <trkpt lat="46.11857" lon="2.54997">
        <ele>394.659376</ele>
        <time>2024-06-27T23:25:30.340Z</time>
      </trkpt>
      <trkpt lat="46.11867" lon="2.54976">
        <ele>394.713747</ele>
        <time>2024-06-27T23:25:32.869Z</time>
      </trkpt>
      <trkpt lat="46.1188" lon="2.5494">
        <ele>394.799347</ele>
        <time>2024-06-27T23:25:36.696Z</time>
      </trkpt>
      <trkpt lat="46.11893" lon="2.54914">
        <ele>394.866977</ele>
        <time>2024-06-27T23:25:39.675Z</time>
      </trkpt>
      <trkpt lat="46.11903" lon="2.54901">
        <ele>394.90807</ele>
        <time>2024-06-27T23:25:41.314Z</time>
      </trkpt>
      <trkpt lat="46.11928" lon="2.54891">
        <ele>394.990139</ele>
        <time>2024-06-27T23:25:45.318Z</time>
      </trkpt>
      <trkpt lat="46.11938" lon="2.54897">
        <ele>395.020767</ele>
        <time>2024-06-27T23:25:46.744Z</time>
      </trkpt>
      <trkpt lat="46.11942" lon="2.54907">
        <ele>395.045169</ele>
        <time>2024-06-27T23:25:48.019Z</time>
      </trkpt>
      <trkpt lat="46.11944" lon="2.54922">
        <ele>395.099609</ele>
        <time>2024-06-27T23:25:49.849Z</time>
      </trkpt>
      <trkpt lat="46.11945" lon="2.54974">
        <ele>395.573925</ele>
        <time>2024-06-27T23:25:55.931Z</time>
      </trkpt>
      <trkpt lat="46.11951" lon="2.55002">
        <ele>395.848487</ele>
        <time>2024-06-27T23:25:59.533Z</time>
      </trkpt>
      <trkpt lat="46.11959" lon="2.55023">
        <ele>396.062741</ele>
        <time>2024-06-27T23:26:02.414Z</time>
      </trkpt>
      <trkpt lat="46.11966" lon="2.55052">
        <ele>396.346258</ele>
        <time>2024-06-27T23:26:06.092Z</time>
      </trkpt>
      <trkpt lat="46.11972" lon="2.55122">
        <ele>396.985853</ele>
        <time>2024-06-27T23:26:14.374Z</time>
      </trkpt>
      <trkpt lat="46.11976" lon="2.55135">
        <ele>397.118914</ele>
        <time>2024-06-27T23:26:16.228Z</time>
      </trkpt>
      <trkpt lat="46.11977" lon="2.55129">
        <ele>397.176746</ele>
        <time>2024-06-27T23:26:17.009Z</time>
      </trkpt>
      <trkpt lat="46.11982" lon="2.55073">
        <ele>397.788736</ele>
        <time>2024-06-27T23:26:24.030Z</time>
      </trkpt>
      <trkpt lat="46.11976" lon="2.55018">
        <ele>398.488531</ele>
        <time>2024-06-27T23:26:31.161Z</time>
      </trkpt>
      <trkpt lat="46.11964" lon="2.54821">
        <ele>401.239645</ele>
        <time>2024-06-27T23:26:55.085Z</time>
      </trkpt>
      <trkpt lat="46.1193" lon="2.54644">
        <ele>405.75123</ele>
        <time>2024-06-27T23:27:20.874Z</time>
      </trkpt>
      <trkpt lat="46.1193" lon="2.54626">
        <ele>406.193466</ele>
        <time>2024-06-27T23:27:23.736Z</time>
      </trkpt>
      <trkpt lat="46.11934" lon="2.54599">
        <ele>406.871801</ele>
        <time>2024-06-27T23:27:28.049Z</time>
      </trkpt>
      <trkpt lat="46.11943" lon="2.54572">
        <ele>407.676345</ele>
        <time>2024-06-27T23:27:32.810Z</time>
      </trkpt>
      <trkpt lat="46.11992" lon="2.5449">
        <ele>410.678646</ele>
        <time>2024-06-27T23:27:49.275Z</time>
      </trkpt>
      <trkpt lat="46.11998" lon="2.54468">
        <ele>411.332798</ele>
        <time>2024-06-27T23:27:52.574Z</time>
      </trkpt>
      <trkpt lat="46.12001" lon="2.54437">
        <ele>412.184964</ele>
        <time>2024-06-27T23:27:56.979Z</time>
      </trkpt>
      <trkpt lat="46.11998" lon="2.54409">
        <ele>412.968908</ele>
        <time>2024-06-27T23:28:00.895Z</time>
      </trkpt>
      <trkpt lat="46.11994" lon="2.54389">
        <ele>413.573154</ele>
        <time>2024-06-27T23:28:03.888Z</time>
      </trkpt>
      <trkpt lat="46.1198" lon="2.5435">
        <ele>414.609</ele>
        <time>2024-06-27T23:28:09.803Z</time>
      </trkpt>
      <trkpt lat="46.1194" lon="2.54256">
        <ele>416.667242</ele>
        <time>2024-06-27T23:28:24.454Z</time>
      </trkpt>
      <trkpt lat="46.11922" lon="2.54216">
        <ele>417.559618</ele>
        <time>2024-06-27T23:28:30.605Z</time>
      </trkpt>
      <trkpt lat="46.11921" lon="2.54195">
        <ele>417.949361</ele>
        <time>2024-06-27T23:28:33.295Z</time>
      </trkpt>
      <trkpt lat="46.11925" lon="2.5415">
        <ele>418.799598</ele>
        <time>2024-06-27T23:28:39.244Z</time>
      </trkpt>
      <trkpt lat="46.11925" lon="2.54129">
        <ele>419.203705</ele>
        <time>2024-06-27T23:28:41.953Z</time>
      </trkpt>
      <trkpt lat="46.1192" lon="2.54111">
        <ele>419.659387</ele>
        <time>2024-06-27T23:28:44.508Z</time>
      </trkpt>
      <trkpt lat="46.119" lon="2.54078">
        <ele>420.678056</ele>
        <time>2024-06-27T23:28:50.393Z</time>
      </trkpt>
      <trkpt lat="46.11856" lon="2.53982">
        <ele>423.35837</ele>
        <time>2024-06-27T23:29:06.790Z</time>
      </trkpt>
      <trkpt lat="46.11821" lon="2.53926">
        <ele>425.109258</ele>
        <time>2024-06-27T23:29:17.402Z</time>
      </trkpt>
      <trkpt lat="46.11815" lon="2.53905">
        <ele>425.857899</ele>
        <time>2024-06-27T23:29:20.665Z</time>
      </trkpt>
      <trkpt lat="46.11816" lon="2.53895">
        <ele>426.179656</ele>
        <time>2024-06-27T23:29:22.018Z</time>
      </trkpt>
      <trkpt lat="46.11827" lon="2.53867">
        <ele>427.240551</ele>
        <time>2024-06-27T23:29:26.367Z</time>
      </trkpt>
      <trkpt lat="46.11951" lon="2.53708">
        <ele>434.977464</ele>
        <time>2024-06-27T23:30:04.392Z</time>
      </trkpt>
      <trkpt lat="46.11965" lon="2.53694">
        <ele>435.725992</ele>
        <time>2024-06-27T23:30:08.438Z</time>
      </trkpt>
      <trkpt lat="46.11978" lon="2.53684">
        <ele>436.366402</ele>
        <time>2024-06-27T23:30:11.656Z</time>
      </trkpt>
      <trkpt lat="46.12042" lon="2.53666">
        <ele>439.217867</ele>
        <time>2024-06-27T23:30:25.363Z</time>
      </trkpt>
      <trkpt lat="46.12057" lon="2.53657">
        <ele>439.905072</ele>
        <time>2024-06-27T23:30:28.659Z</time>
      </trkpt>
      <trkpt lat="46.12061" lon="2.53637">
        <ele>440.532317</ele>
        <time>2024-06-27T23:30:31.674Z</time>
      </trkpt>
      <trkpt lat="46.12061" lon="2.53622">
        <ele>441.003146</ele>
        <time>2024-06-27T23:30:33.824Z</time>
      </trkpt>
      <trkpt lat="46.12053" lon="2.53602">
        <ele>441.608562</ele>
        <time>2024-06-27T23:30:37.100Z</time>
      </trkpt>
      <trkpt lat="46.12033" lon="2.53583">
        <ele>442.159489</ele>
        <time>2024-06-27T23:30:41.925Z</time>
      </trkpt>
      <trkpt lat="46.12026" lon="2.53572">
        <ele>442.399926</ele>
        <time>2024-06-27T23:30:44.062Z</time>
      </trkpt>
      <trkpt lat="46.12021" lon="2.5356">
        <ele>442.630205</ele>
        <time>2024-06-27T23:30:46.072Z</time>
      </trkpt>
      <trkpt lat="46.12021" lon="2.53528">
        <ele>443.149629</ele>
        <time>2024-06-27T23:30:50.387Z</time>
      </trkpt>
      <trkpt lat="46.121" lon="2.53306">
        <ele>447.143224</ele>
        <time>2024-06-27T23:31:20.690Z</time>
      </trkpt>
      <trkpt lat="46.12102" lon="2.53294">
        <ele>447.322227</ele>
        <time>2024-06-27T23:31:22.156Z</time>
      </trkpt>
      <trkpt lat="46.12101" lon="2.53268">
        <ele>447.737446</ele>
        <time>2024-06-27T23:31:25.453Z</time>
      </trkpt>
      <trkpt lat="46.12094" lon="2.53222">
        <ele>448.470432</ele>
        <time>2024-06-27T23:31:31.287Z</time>
      </trkpt>
      <trkpt lat="46.12093" lon="2.53191">
        <ele>448.957166</ele>
        <time>2024-06-27T23:31:35.240Z</time>
      </trkpt>
      <trkpt lat="46.12094" lon="2.53144">
        <ele>449.691725</ele>
        <time>2024-06-27T23:31:41.527Z</time>
      </trkpt>
      <trkpt lat="46.12099" lon="2.53108">
        <ele>451.074659</ele>
        <time>2024-06-27T23:31:46.743Z</time>
      </trkpt>
      <trkpt lat="46.1211" lon="2.53072">
        <ele>452.715637</ele>
        <time>2024-06-27T23:31:52.801Z</time>
      </trkpt>
      <trkpt lat="46.12123" lon="2.53043">
        <ele>454.132238</ele>
        <time>2024-06-27T23:31:58.555Z</time>
      </trkpt>
      <trkpt lat="46.12146" lon="2.53023">
        <ele>455.788999</ele>
        <time>2024-06-27T23:32:05.170Z</time>
      </trkpt>
      <trkpt lat="46.12167" lon="2.53019">
        <ele>457.066083</ele>
        <time>2024-06-27T23:32:10.460Z</time>
      </trkpt>
      <trkpt lat="46.12211" lon="2.53029">
        <ele>459.751059</ele>
        <time>2024-06-27T23:32:21.969Z</time>
      </trkpt>
      <trkpt lat="46.12268" lon="2.53022">
        <ele>463.948264</ele>
        <time>2024-06-27T23:32:38.898Z</time>
      </trkpt>
      <trkpt lat="46.12331" lon="2.53009">
        <ele>468.899421</ele>
        <time>2024-06-27T23:32:57.970Z</time>
      </trkpt>
      <trkpt lat="46.1234" lon="2.53013">
        <ele>469.632073</ele>
        <time>2024-06-27T23:33:00.842Z</time>
      </trkpt>
      <trkpt lat="46.12365" lon="2.53034">
        <ele>471.882651</ele>
        <time>2024-06-27T23:33:08.705Z</time>
      </trkpt>
      <trkpt lat="46.1238" lon="2.53059">
        <ele>473.665645</ele>
        <time>2024-06-27T23:33:14.566Z</time>
      </trkpt>
      <trkpt lat="46.12401" lon="2.53085">
        <ele>475.126102</ele>
        <time>2024-06-27T23:33:21.189Z</time>
      </trkpt>
      <trkpt lat="46.12522" lon="2.53207">
        <ele>480.004252</ele>
        <time>2024-06-27T23:33:50.634Z</time>
      </trkpt>
      <trkpt lat="46.12541" lon="2.53219">
        <ele>480.605238</ele>
        <time>2024-06-27T23:33:53.801Z</time>
      </trkpt>
      <trkpt lat="46.12559" lon="2.53206">
        <ele>480.841934</ele>
        <time>2024-06-27T23:33:56.834Z</time>
      </trkpt>
      <trkpt lat="46.12566" lon="2.53196">
        <ele>480.957766</ele>
        <time>2024-06-27T23:33:58.238Z</time>
      </trkpt>
      <trkpt lat="46.12571" lon="2.53176">
        <ele>481.131043</ele>
        <time>2024-06-27T23:34:00.542Z</time>
      </trkpt>
      <trkpt lat="46.1257" lon="2.53162">
        <ele>481.245744</ele>
        <time>2024-06-27T23:34:02.104Z</time>
      </trkpt>
      <trkpt lat="46.12559" lon="2.53138">
        <ele>481.480241</ele>
        <time>2024-06-27T23:34:05.297Z</time>
      </trkpt>
      <trkpt lat="46.12516" lon="2.53066">
        <ele>482.254829</ele>
        <time>2024-06-27T23:34:16.171Z</time>
      </trkpt>
      <trkpt lat="46.12514" lon="2.53046">
        <ele>482.420322</ele>
        <time>2024-06-27T23:34:18.545Z</time>
      </trkpt>
      <trkpt lat="46.12516" lon="2.53031">
        <ele>482.544011</ele>
        <time>2024-06-27T23:34:20.405Z</time>
      </trkpt>
      <trkpt lat="46.12523" lon="2.53017">
        <ele>482.714734</ele>
        <time>2024-06-27T23:34:22.533Z</time>
      </trkpt>
      <trkpt lat="46.12532" lon="2.53012">
        <ele>483.135311</ele>
        <time>2024-06-27T23:34:24.264Z</time>
      </trkpt>
      <trkpt lat="46.12579" lon="2.53013">
        <ele>485.185186</ele>
        <time>2024-06-27T23:34:33.268Z</time>
      </trkpt>
      <trkpt lat="46.12592" lon="2.53019">
        <ele>485.779496</ele>
        <time>2024-06-27T23:34:36.101Z</time>
      </trkpt>
      <trkpt lat="46.12744" lon="2.53167">
        <ele>494.507343</ele>
        <time>2024-06-27T23:35:19.386Z</time>
      </trkpt>
      <trkpt lat="46.12761" lon="2.53178">
        <ele>495.50159</ele>
        <time>2024-06-27T23:35:23.682Z</time>
      </trkpt>
      <trkpt lat="46.12768" lon="2.53178">
        <ele>495.875143</ele>
        <time>2024-06-27T23:35:25.298Z</time>
      </trkpt>
      <trkpt lat="46.12788" lon="2.53169">
        <ele>496.99314</ele>
        <time>2024-06-27T23:35:30.090Z</time>
      </trkpt>
      <trkpt lat="46.12863" lon="2.53098">
        <ele>501.529652</ele>
        <time>2024-06-27T23:35:50.089Z</time>
      </trkpt>
      <trkpt lat="46.12888" lon="2.53083">
        <ele>502.757148</ele>
        <time>2024-06-27T23:35:55.953Z</time>
      </trkpt>
      <trkpt lat="46.12907" lon="2.53074">
        <ele>503.66377</ele>
        <time>2024-06-27T23:36:00.272Z</time>
      </trkpt>
      <trkpt lat="46.13043" lon="2.53041">
        <ele>509.592583</ele>
        <time>2024-06-27T23:36:29.947Z</time>
      </trkpt>
      <trkpt lat="46.13068" lon="2.53025">
        <ele>510.600741</ele>
        <time>2024-06-27T23:36:35.676Z</time>
      </trkpt>
      <trkpt lat="46.13079" lon="2.53014">
        <ele>511.099349</ele>
        <time>2024-06-27T23:36:38.475Z</time>
      </trkpt>
      <trkpt lat="46.13088" lon="2.52999">
        <ele>511.603755</ele>
        <time>2024-06-27T23:36:41.300Z</time>
      </trkpt>
      <trkpt lat="46.13096" lon="2.52982">
        <ele>512.146422</ele>
        <time>2024-06-27T23:36:44.322Z</time>
      </trkpt>
      <trkpt lat="46.13114" lon="2.52925">
        <ele>513.749369</ele>
        <time>2024-06-27T23:36:53.127Z</time>
      </trkpt>
      <trkpt lat="46.13126" lon="2.52902">
        <ele>514.488145</ele>
        <time>2024-06-27T23:36:57.118Z</time>
      </trkpt>
      <trkpt lat="46.13153" lon="2.52876">
        <ele>515.316523</ele>
        <time>2024-06-27T23:37:03.545Z</time>
      </trkpt>
      <trkpt lat="46.13281" lon="2.52782">
        <ele>518.077635</ele>
        <time>2024-06-27T23:37:29.653Z</time>
      </trkpt>
      <trkpt lat="46.1329" lon="2.52775">
        <ele>518.278787</ele>
        <time>2024-06-27T23:37:31.357Z</time>
      </trkpt>
      <trkpt lat="46.1333" lon="2.52749">
        <ele>517.878747</ele>
        <time>2024-06-27T23:37:37.995Z</time>
      </trkpt>
      <trkpt lat="46.13367" lon="2.52738">
        <ele>517.39122</ele>
        <time>2024-06-27T23:37:42.854Z</time>
      </trkpt>
      <trkpt lat="46.13553" lon="2.52725">
        <ele>514.016553</ele>
        <time>2024-06-27T23:38:02.715Z</time>
      </trkpt>
      <trkpt lat="46.13647" lon="2.52719">
        <ele>511.694834</ele>
        <time>2024-06-27T23:38:12.518Z</time>
      </trkpt>
      <trkpt lat="46.13685" lon="2.52719">
        <ele>511.004916</ele>
        <time>2024-06-27T23:38:16.625Z</time>
      </trkpt>
      <trkpt lat="46.13695" lon="2.52718">
        <ele>510.839161</ele>
        <time>2024-06-27T23:38:17.633Z</time>
      </trkpt>
      <trkpt lat="46.13721" lon="2.5272">
        <ele>510.37533</ele>
        <time>2024-06-27T23:38:20.559Z</time>
      </trkpt>
      <trkpt lat="46.13735" lon="2.52728">
        <ele>510.118563</ele>
        <time>2024-06-27T23:38:22.164Z</time>
      </trkpt>
      <trkpt lat="46.13747" lon="2.52738">
        <ele>509.861497</ele>
        <time>2024-06-27T23:38:23.821Z</time>
      </trkpt>
      <trkpt lat="46.13757" lon="2.52738">
        <ele>509.681714</ele>
        <time>2024-06-27T23:38:24.965Z</time>
      </trkpt>
      <trkpt lat="46.13766" lon="2.5273">
        <ele>509.496598</ele>
        <time>2024-06-27T23:38:26.134Z</time>
      </trkpt>
      <trkpt lat="46.13814" lon="2.52781">
        <ele>508.452788</ele>
        <time>2024-06-27T23:38:33.088Z</time>
      </trkpt>
      <trkpt lat="46.13886" lon="2.52867">
        <ele>508.312924</ele>
        <time>2024-06-27T23:38:45.093Z</time>
      </trkpt>
      <trkpt lat="46.13919" lon="2.52902">
        <ele>508.251837</ele>
        <time>2024-06-27T23:38:51.650Z</time>
      </trkpt>
      <trkpt lat="46.14041" lon="2.52982">
        <ele>508.685505</ele>
        <time>2024-06-27T23:39:13.315Z</time>
      </trkpt>
      <trkpt lat="46.14062" lon="2.52999">
        <ele>508.817476</ele>
        <time>2024-06-27T23:39:17.184Z</time>
      </trkpt>
      <trkpt lat="46.14077" lon="2.53016">
        <ele>508.926534</ele>
        <time>2024-06-27T23:39:20.399Z</time>
      </trkpt>
      <trkpt lat="46.14103" lon="2.5305">
        <ele>509.119924</ele>
        <time>2024-06-27T23:39:25.943Z</time>
      </trkpt>
      <trkpt lat="46.14105" lon="2.53053">
        <ele>509.140064</ele>
        <time>2024-06-27T23:39:26.519Z</time>
      </trkpt>
      <trkpt lat="46.1438" lon="2.53404">
        <ele>506.71023</ele>
        <time>2024-06-27T23:40:13.176Z</time>
      </trkpt>
      <trkpt lat="46.14407" lon="2.5343">
        <ele>506.097036</ele>
        <time>2024-06-27T23:40:17.011Z</time>
      </trkpt>
      <trkpt lat="46.14431" lon="2.53424">
        <ele>505.616993</ele>
        <time>2024-06-27T23:40:19.841Z</time>
      </trkpt>
      <trkpt lat="46.14446" lon="2.53415">
        <ele>505.295576</ele>
        <time>2024-06-27T23:40:21.672Z</time>
      </trkpt>
      <trkpt lat="46.14698" lon="2.53168">
        <ele>498.512968</ele>
        <time>2024-06-27T23:40:54.030Z</time>
      </trkpt>
      <trkpt lat="46.14718" lon="2.53157">
        <ele>498.034657</ele>
        <time>2024-06-27T23:40:56.422Z</time>
      </trkpt>
      <trkpt lat="46.1482" lon="2.53115">
        <ele>495.658577</ele>
        <time>2024-06-27T23:41:08.113Z</time>
      </trkpt>
      <trkpt lat="46.14877" lon="2.53109">
        <ele>494.002456</ele>
        <time>2024-06-27T23:41:14.130Z</time>
      </trkpt>
      <trkpt lat="46.14903" lon="2.53103">
        <ele>492.919076</ele>
        <time>2024-06-27T23:41:16.846Z</time>
      </trkpt>
      <trkpt lat="46.15013" lon="2.53075">
        <ele>488.41896</ele>
        <time>2024-06-27T23:41:27.577Z</time>
      </trkpt>
      <trkpt lat="46.15042" lon="2.53071">
        <ele>487.184942</ele>
        <time>2024-06-27T23:41:30.302Z</time>
      </trkpt>
      <trkpt lat="46.15101" lon="2.5308">
        <ele>484.353516</ele>
        <time>2024-06-27T23:41:35.836Z</time>
      </trkpt>
      <trkpt lat="46.15152" lon="2.53091">
        <ele>481.891753</ele>
        <time>2024-06-27T23:41:40.736Z</time>
      </trkpt>
      <trkpt lat="46.15177" lon="2.53101">
        <ele>480.661832</ele>
        <time>2024-06-27T23:41:43.199Z</time>
      </trkpt>
      <trkpt lat="46.15194" lon="2.53121">
        <ele>479.600844</ele>
        <time>2024-06-27T23:41:45.338Z</time>
      </trkpt>
      <trkpt lat="46.15207" lon="2.53142">
        <ele>478.741399</ele>
        <time>2024-06-27T23:41:47.207Z</time>
      </trkpt>
      <trkpt lat="46.1523" lon="2.53165">
        <ele>477.717773</ele>
        <time>2024-06-27T23:41:49.935Z</time>
      </trkpt>
      <trkpt lat="46.15252" lon="2.53176">
        <ele>476.896525</ele>
        <time>2024-06-27T23:41:52.144Z</time>
      </trkpt>
      <trkpt lat="46.15284" lon="2.53183">
        <ele>475.727484</ele>
        <time>2024-06-27T23:41:55.287Z</time>
      </trkpt>
      <trkpt lat="46.15308" lon="2.53185">
        <ele>474.857948</ele>
        <time>2024-06-27T23:41:57.641Z</time>
      </trkpt>
      <trkpt lat="46.15342" lon="2.53185">
        <ele>473.628152</ele>
        <time>2024-06-27T23:42:01.043Z</time>
      </trkpt>
      <trkpt lat="46.15411" lon="2.53178">
        <ele>472.241576</ele>
        <time>2024-06-27T23:42:08.439Z</time>
      </trkpt>
      <trkpt lat="46.15424" lon="2.53182">
        <ele>472.162786</ele>
        <time>2024-06-27T23:42:09.971Z</time>
      </trkpt>
      <trkpt lat="46.15464" lon="2.53216">
        <ele>471.888144</ele>
        <time>2024-06-27T23:42:15.744Z</time>
      </trkpt>
      <trkpt lat="46.15497" lon="2.53237">
        <ele>471.672466</ele>
        <time>2024-06-27T23:42:21.177Z</time>
      </trkpt>
      <trkpt lat="46.1558" lon="2.53259">
        <ele>471.789232</ele>
        <time>2024-06-27T23:42:35.206Z</time>
      </trkpt>
      <trkpt lat="46.15668" lon="2.533">
        <ele>472.777341</ele>
        <time>2024-06-27T23:42:51.297Z</time>
      </trkpt>
      <trkpt lat="46.15681" lon="2.53302">
        <ele>472.917043</ele>
        <time>2024-06-27T23:42:53.490Z</time>
      </trkpt>
      <trkpt lat="46.15694" lon="2.53301">
        <ele>473.056155</ele>
        <time>2024-06-27T23:42:55.611Z</time>
      </trkpt>
      <trkpt lat="46.15772" lon="2.53269">
        <ele>473.153439</ele>
        <time>2024-06-27T23:43:08.586Z</time>
      </trkpt>
      <trkpt lat="46.15806" lon="2.53261">
        <ele>473.054788</ele>
        <time>2024-06-27T23:43:13.346Z</time>
      </trkpt>
      <trkpt lat="46.15914" lon="2.53266">
        <ele>472.642897</ele>
        <time>2024-06-27T23:43:26.989Z</time>
      </trkpt>
      <trkpt lat="46.1596" lon="2.53269">
        <ele>472.264954</ele>
        <time>2024-06-27T23:43:32.680Z</time>
      </trkpt>
      <trkpt lat="46.16197" lon="2.53379">
        <ele>470.892511</ele>
        <time>2024-06-27T23:44:04.152Z</time>
      </trkpt>
      <trkpt lat="46.16212" lon="2.53389">
        <ele>470.839458</ele>
        <time>2024-06-27T23:44:06.698Z</time>
      </trkpt>
      <trkpt lat="46.16229" lon="2.53405">
        <ele>470.775863</ele>
        <time>2024-06-27T23:44:09.847Z</time>
      </trkpt>
      <trkpt lat="46.16394" lon="2.53598">
        <ele>473.052382</ele>
        <time>2024-06-27T23:44:46.108Z</time>
      </trkpt>
      <trkpt lat="46.16404" lon="2.53608">
        <ele>473.174253</ele>
        <time>2024-06-27T23:44:48.285Z</time>
      </trkpt>
      <trkpt lat="46.16474" lon="2.53658">
        <ele>473.926384</ele>
        <time>2024-06-27T23:45:01.784Z</time>
      </trkpt>
      <trkpt lat="46.16485" lon="2.53664">
        <ele>474.038574</ele>
        <time>2024-06-27T23:45:03.700Z</time>
      </trkpt>
      <trkpt lat="46.16495" lon="2.5367">
        <ele>474.143481</ele>
        <time>2024-06-27T23:45:05.437Z</time>
      </trkpt>
      <trkpt lat="46.16511" lon="2.53671">
        <ele>474.301375</ele>
        <time>2024-06-27T23:45:08.132Z</time>
      </trkpt>
      <trkpt lat="46.16526" lon="2.53667">
        <ele>474.446342</ele>
        <time>2024-06-27T23:45:10.527Z</time>
      </trkpt>
      <trkpt lat="46.16577" lon="2.53642">
        <ele>473.887986</ele>
        <time>2024-06-27T23:45:18.048Z</time>
      </trkpt>
      <trkpt lat="46.16604" lon="2.53634">
        <ele>473.445058</ele>
        <time>2024-06-27T23:45:21.465Z</time>
      </trkpt>
      <trkpt lat="46.16644" lon="2.53642">
        <ele>472.80052</ele>
        <time>2024-06-27T23:45:26.060Z</time>
      </trkpt>
      <trkpt lat="46.16666" lon="2.53642">
        <ele>472.445931</ele>
        <time>2024-06-27T23:45:28.457Z</time>
      </trkpt>
      <trkpt lat="46.16675" lon="2.53636">
        <ele>472.291457</ele>
        <time>2024-06-27T23:45:29.475Z</time>
      </trkpt>
      <trkpt lat="46.16684" lon="2.53623">
        <ele>472.092733</ele>
        <time>2024-06-27T23:45:30.743Z</time>
      </trkpt>
      <trkpt lat="46.16697" lon="2.53575">
        <ele>471.261789</ele>
        <time>2024-06-27T23:45:34.365Z</time>
      </trkpt>
      <trkpt lat="46.16705" lon="2.53545">
        <ele>470.352059</ele>
        <time>2024-06-27T23:45:36.596Z</time>
      </trkpt>
      <trkpt lat="46.16717" lon="2.5352">
        <ele>469.49656</ele>
        <time>2024-06-27T23:45:38.662Z</time>
      </trkpt>
      <trkpt lat="46.16734" lon="2.53501">
        <ele>468.643688</ele>
        <time>2024-06-27T23:45:40.724Z</time>
      </trkpt>
      <trkpt lat="46.16746" lon="2.53476">
        <ele>467.772495</ele>
        <time>2024-06-27T23:45:42.824Z</time>
      </trkpt>
      <trkpt lat="46.16772" lon="2.53377">
        <ele>464.791835</ele>
        <time>2024-06-27T23:45:49.872Z</time>
      </trkpt>
      <trkpt lat="46.168" lon="2.53309">
        <ele>462.07603</ele>
        <time>2024-06-27T23:45:55.019Z</time>
      </trkpt>
      <trkpt lat="46.1682" lon="2.53271">
        <ele>460.346936</ele>
        <time>2024-06-27T23:45:58.133Z</time>
      </trkpt>
      <trkpt lat="46.16845" lon="2.53243">
        <ele>458.696002</ele>
        <time>2024-06-27T23:46:01.102Z</time>
      </trkpt>
      <trkpt lat="46.16861" lon="2.53231">
        <ele>457.752857</ele>
        <time>2024-06-27T23:46:02.785Z</time>
      </trkpt>
      <trkpt lat="46.16929" lon="2.53219">
        <ele>453.941494</ele>
        <time>2024-06-27T23:46:09.134Z</time>
      </trkpt>
      <trkpt lat="46.1696" lon="2.53206">
        <ele>451.778245</ele>
        <time>2024-06-27T23:46:12.071Z</time>
      </trkpt>
      <trkpt lat="46.16978" lon="2.53194">
        <ele>450.453516</ele>
        <time>2024-06-27T23:46:13.835Z</time>
      </trkpt>
      <trkpt lat="46.1699" lon="2.53181">
        <ele>449.39671</ele>
        <time>2024-06-27T23:46:15.253Z</time>
      </trkpt>
      <trkpt lat="46.17015" lon="2.53145">
        <ele>447.073636</ele>
        <time>2024-06-27T23:46:18.357Z</time>
      </trkpt>
      <trkpt lat="46.17034" lon="2.53131">
        <ele>445.644194</ele>
        <time>2024-06-27T23:46:20.266Z</time>
      </trkpt>
      <trkpt lat="46.17055" lon="2.53126">
        <ele>444.21791</ele>
        <time>2024-06-27T23:46:22.187Z</time>
      </trkpt>
      <trkpt lat="46.17065" lon="2.53132">
        <ele>443.444104</ele>
        <time>2024-06-27T23:46:23.221Z</time>
      </trkpt>
      <trkpt lat="46.17086" lon="2.53155">
        <ele>441.833552</ele>
        <time>2024-06-27T23:46:25.562Z</time>
      </trkpt>
      <trkpt lat="46.17092" lon="2.5317">
        <ele>441.122899</ele>
        <time>2024-06-27T23:46:26.622Z</time>
      </trkpt>
      <trkpt lat="46.17111" lon="2.53199">
        <ele>439.437612</ele>
        <time>2024-06-27T23:46:29.150Z</time>
      </trkpt>
      <trkpt lat="46.17175" lon="2.53263">
        <ele>434.780314</ele>
        <time>2024-06-27T23:46:36.188Z</time>
      </trkpt>
      <trkpt lat="46.17185" lon="2.53278">
        <ele>433.908982</ele>
        <time>2024-06-27T23:46:37.536Z</time>
      </trkpt>
      <trkpt lat="46.17186" lon="2.53293">
        <ele>433.286037</ele>
        <time>2024-06-27T23:46:38.496Z</time>
      </trkpt>
      <trkpt lat="46.17183" lon="2.53304">
        <ele>432.769875</ele>
        <time>2024-06-27T23:46:39.301Z</time>
      </trkpt>
      <trkpt lat="46.17177" lon="2.53313">
        <ele>432.241262</ele>
        <time>2024-06-27T23:46:40.140Z</time>
      </trkpt>
      <trkpt lat="46.17158" lon="2.53323">
        <ele>431.475854</ele>
        <time>2024-06-27T23:46:42.115Z</time>
      </trkpt>
      <trkpt lat="46.17078" lon="2.53325">
        <ele>428.692999</ele>
        <time>2024-06-27T23:46:50.202Z</time>
      </trkpt>
      <trkpt lat="46.17071" lon="2.53332">
        <ele>428.37762</ele>
        <time>2024-06-27T23:46:51.140Z</time>
      </trkpt>
      <trkpt lat="46.17067" lon="2.53346">
        <ele>428.008668</ele>
        <time>2024-06-27T23:46:52.238Z</time>
      </trkpt>
      <trkpt lat="46.17069" lon="2.5336">
        <ele>427.670443</ele>
        <time>2024-06-27T23:46:53.220Z</time>
      </trkpt>
      <trkpt lat="46.17079" lon="2.53371">
        <ele>427.229539</ele>
        <time>2024-06-27T23:46:54.529Z</time>
      </trkpt>
      <trkpt lat="46.17125" lon="2.53385">
        <ele>425.463063</ele>
        <time>2024-06-27T23:46:59.337Z</time>
      </trkpt>
      <trkpt lat="46.17234" lon="2.53401">
        <ele>419.529777</ele>
        <time>2024-06-27T23:47:09.852Z</time>
      </trkpt>
      <trkpt lat="46.17329" lon="2.53432">
        <ele>412.86874</ele>
        <time>2024-06-27T23:47:18.598Z</time>
      </trkpt>
      <trkpt lat="46.17432" lon="2.53483">
        <ele>402.4962</ele>
        <time>2024-06-27T23:47:27.951Z</time>
      </trkpt>
      <trkpt lat="46.17545" lon="2.53558">
        <ele>392.352414</ele>
        <time>2024-06-27T23:47:38.645Z</time>
      </trkpt>
      <trkpt lat="46.17579" lon="2.53569">
        <ele>389.690731</ele>
        <time>2024-06-27T23:47:41.811Z</time>
      </trkpt>
      <trkpt lat="46.1759" lon="2.53576">
        <ele>388.78119</ele>
        <time>2024-06-27T23:47:42.908Z</time>
      </trkpt>
      <trkpt lat="46.17605" lon="2.53596">
        <ele>387.157556</ele>
        <time>2024-06-27T23:47:44.865Z</time>
      </trkpt>
      <trkpt lat="46.17614" lon="2.53625">
        <ele>385.49431</ele>
        <time>2024-06-27T23:47:46.914Z</time>
      </trkpt>
      <trkpt lat="46.17612" lon="2.53664">
        <ele>384.266092</ele>
        <time>2024-06-27T23:47:49.459Z</time>
      </trkpt>
      <trkpt lat="46.176" lon="2.53716">
        <ele>382.68574</ele>
        <time>2024-06-27T23:47:53.155Z</time>
      </trkpt>
      <trkpt lat="46.17583" lon="2.53802">
        <ele>380.121994</ele>
        <time>2024-06-27T23:47:59.437Z</time>
      </trkpt>
      <trkpt lat="46.17573" lon="2.53834">
        <ele>379.109569</ele>
        <time>2024-06-27T23:48:01.938Z</time>
      </trkpt>
      <trkpt lat="46.17534" lon="2.53934">
        <ele>374.451368</ele>
        <time>2024-06-27T23:48:09.499Z</time>
      </trkpt>
      <trkpt lat="46.17517" lon="2.5402">
        <ele>370.161111</ele>
        <time>2024-06-27T23:48:14.954Z</time>
      </trkpt>
      <trkpt lat="46.17498" lon="2.54093">
        <ele>366.378738</ele>
        <time>2024-06-27T23:48:19.712Z</time>
      </trkpt>
      <trkpt lat="46.17476" lon="2.54149">
        <ele>362.90561</ele>
        <time>2024-06-27T23:48:23.657Z</time>
      </trkpt>
      <trkpt lat="46.17471" lon="2.54182">
        <ele>360.947973</ele>
        <time>2024-06-27T23:48:25.747Z</time>
      </trkpt>
      <trkpt lat="46.17469" lon="2.54278">
        <ele>355.468224</ele>
        <time>2024-06-27T23:48:31.554Z</time>
      </trkpt>
      <trkpt lat="46.17463" lon="2.54312">
        <ele>353.465804</ele>
        <time>2024-06-27T23:48:33.673Z</time>
      </trkpt>
      <trkpt lat="46.17458" lon="2.54336">
        <ele>351.997209</ele>
        <time>2024-06-27T23:48:35.255Z</time>
      </trkpt>
      <trkpt lat="46.1746" lon="2.54352">
        <ele>351.039783</ele>
        <time>2024-06-27T23:48:36.261Z</time>
      </trkpt>
      <trkpt lat="46.17473" lon="2.54384">
        <ele>348.789968</ele>
        <time>2024-06-27T23:48:38.537Z</time>
      </trkpt>
      <trkpt lat="46.17474" lon="2.54402">
        <ele>347.673522</ele>
        <time>2024-06-27T23:48:39.618Z</time>
      </trkpt>
      <trkpt lat="46.17453" lon="2.54552">
        <ele>338.152626</ele>
        <time>2024-06-27T23:48:48.869Z</time>
      </trkpt>
      <trkpt lat="46.17454" lon="2.54571">
        <ele>336.989149</ele>
        <time>2024-06-27T23:48:49.983Z</time>
      </trkpt>
      <trkpt lat="46.17468" lon="2.54605">
        <ele>334.547584</ele>
        <time>2024-06-27T23:48:52.309Z</time>
      </trkpt>
      <trkpt lat="46.1754" lon="2.54747">
        <ele>325.816102</ele>
        <time>2024-06-27T23:49:03.062Z</time>
      </trkpt>
      <trkpt lat="46.17553" lon="2.54771">
        <ele>324.385999</ele>
        <time>2024-06-27T23:49:04.880Z</time>
      </trkpt>
      <trkpt lat="46.17565" lon="2.5479">
        <ele>323.069004</ele>
        <time>2024-06-27T23:49:06.595Z</time>
      </trkpt>
      <trkpt lat="46.17571" lon="2.54791">
        <ele>322.687049</ele>
        <time>2024-06-27T23:49:07.098Z</time>
      </trkpt>
      <trkpt lat="46.17537" lon="2.54492">
        <ele>318.985909</ele>
        <time>2024-06-27T23:49:32.254Z</time>
      </trkpt>
      <trkpt lat="46.17536" lon="2.5443">
        <ele>319.147272</ele>
        <time>2024-06-27T23:49:39.401Z</time>
      </trkpt>
      <trkpt lat="46.17544" lon="2.5435">
        <ele>319.361077</ele>
        <time>2024-06-27T23:49:48.555Z</time>
      </trkpt>
      <trkpt lat="46.17566" lon="2.54246">
        <ele>319.584439</ele>
        <time>2024-06-27T23:50:00.585Z</time>
      </trkpt>
      <trkpt lat="46.17578" lon="2.54204">
        <ele>319.422771</ele>
        <time>2024-06-27T23:50:05.291Z</time>
      </trkpt>
      <trkpt lat="46.17589" lon="2.54173">
        <ele>319.298301</ele>
        <time>2024-06-27T23:50:08.558Z</time>
      </trkpt>
      <trkpt lat="46.17605" lon="2.5414">
        <ele>319.156636</ele>
        <time>2024-06-27T23:50:12.117Z</time>
      </trkpt>
      <trkpt lat="46.18078" lon="2.53262">
        <ele>313.283962</ele>
        <time>2024-06-27T23:51:47.791Z</time>
      </trkpt>
      <trkpt lat="46.18202" lon="2.53077">
        <ele>314.373801</ele>
        <time>2024-06-27T23:52:17.224Z</time>
      </trkpt>
      <trkpt lat="46.1822" lon="2.53044">
        <ele>314.636278</ele>
        <time>2024-06-27T23:52:22.077Z</time>
      </trkpt>
      <trkpt lat="46.18257" lon="2.5294">
        <ele>315.555023</ele>
        <time>2024-06-27T23:52:34.976Z</time>
      </trkpt>
      <trkpt lat="46.18275" lon="2.52905">
        <ele>315.913293</ele>
        <time>2024-06-27T23:52:39.839Z</time>
      </trkpt>
      <trkpt lat="46.18285" lon="2.52891">
        <ele>316.074377</ele>
        <time>2024-06-27T23:52:42.095Z</time>
      </trkpt>
      <trkpt lat="46.18335" lon="2.52844">
        <ele>316.778467</ele>
        <time>2024-06-27T23:52:52.344Z</time>
      </trkpt>
      <trkpt lat="46.18353" lon="2.52816">
        <ele>317.595239</ele>
        <time>2024-06-27T23:52:57.336Z</time>
      </trkpt>
      <trkpt lat="46.18359" lon="2.52799">
        <ele>318.057472</ele>
        <time>2024-06-27T23:52:59.802Z</time>
      </trkpt>
      <trkpt lat="46.1837" lon="2.52756">
        <ele>319.195929</ele>
        <time>2024-06-27T23:53:06.077Z</time>
      </trkpt>
      <trkpt lat="46.18373" lon="2.52708">
        <ele>320.390937</ele>
        <time>2024-06-27T23:53:13.059Z</time>
      </trkpt>
      <trkpt lat="46.18371" lon="2.5269">
        <ele>320.827145</ele>
        <time>2024-06-27T23:53:15.594Z</time>
      </trkpt>
      <trkpt lat="46.18358" lon="2.52621">
        <ele>322.600366</ele>
        <time>2024-06-27T23:53:26.285Z</time>
      </trkpt>
      <trkpt lat="46.1834" lon="2.52567">
        <ele>324.387944</ele>
        <time>2024-06-27T23:53:35.338Z</time>
      </trkpt>
      <trkpt lat="46.18328" lon="2.52515">
        <ele>326.260546</ele>
        <time>2024-06-27T23:53:43.598Z</time>
      </trkpt>
      <trkpt lat="46.18305" lon="2.5226">
        <ele>335.863729</ele>
        <time>2024-06-27T23:54:24.150Z</time>
      </trkpt>
      <trkpt lat="46.18294" lon="2.52221">
        <ele>337.67295</ele>
        <time>2024-06-27T23:54:31.168Z</time>
      </trkpt>
      <trkpt lat="46.18281" lon="2.52195">
        <ele>339.057572</ele>
        <time>2024-06-27T23:54:36.753Z</time>
      </trkpt>
      <trkpt lat="46.18264" lon="2.52168">
        <ele>340.62767</ele>
        <time>2024-06-27T23:54:43.517Z</time>
      </trkpt>
      <trkpt lat="46.18249" lon="2.52136">
        <ele>342.268182</ele>
        <time>2024-06-27T23:54:50.049Z</time>
      </trkpt>
      <trkpt lat="46.18238" lon="2.52081">
        <ele>344.684694</ele>
        <time>2024-06-27T23:55:00.402Z</time>
      </trkpt>
      <trkpt lat="46.18232" lon="2.52066">
        <ele>345.408506</ele>
        <time>2024-06-27T23:55:03.589Z</time>
      </trkpt>
      <trkpt lat="46.18232" lon="2.52066">
        <ele>345.418684</ele>
        <time>2024-06-27T23:55:03.633Z</time>
      </trkpt>
      <trkpt lat="46.18208" lon="2.52034">
        <ele>347.366062</ele>
        <time>2024-06-27T23:55:12.678Z</time>
      </trkpt>
      <trkpt lat="46.18204" lon="2.5202">
        <ele>347.988512</ele>
        <time>2024-06-27T23:55:15.419Z</time>
      </trkpt>
      <trkpt lat="46.182" lon="2.52003">
        <ele>348.725773</ele>
        <time>2024-06-27T23:55:19.060Z</time>
      </trkpt>
      <trkpt lat="46.18198" lon="2.51925">
        <ele>351.935181</ele>
        <time>2024-06-27T23:55:33.033Z</time>
      </trkpt>
      <trkpt lat="46.18194" lon="2.51904">
        <ele>352.855236</ele>
        <time>2024-06-27T23:55:36.036Z</time>
      </trkpt>
      <trkpt lat="46.18187" lon="2.51886">
        <ele>353.704839</ele>
        <time>2024-06-27T23:55:38.857Z</time>
      </trkpt>
      <trkpt lat="46.18177" lon="2.51871">
        <ele>354.13181</ele>
        <time>2024-06-27T23:55:41.435Z</time>
      </trkpt>
      <trkpt lat="46.18123" lon="2.5182">
        <ele>354.150772</ele>
        <time>2024-06-27T23:55:51.796Z</time>
      </trkpt>
      <trkpt lat="46.18113" lon="2.51796">
        <ele>354.156497</ele>
        <time>2024-06-27T23:55:54.046Z</time>
      </trkpt>
      <trkpt lat="46.18113" lon="2.5178">
        <ele>354.159688</ele>
        <time>2024-06-27T23:55:55.545Z</time>
      </trkpt>
      <trkpt lat="46.18117" lon="2.51762">
        <ele>354.16351</ele>
        <time>2024-06-27T23:55:57.027Z</time>
      </trkpt>
      <trkpt lat="46.18131" lon="2.51749">
        <ele>354.168268</ele>
        <time>2024-06-27T23:55:58.729Z</time>
      </trkpt>
      <trkpt lat="46.18139" lon="2.51749">
        <ele>354.170702</ele>
        <time>2024-06-27T23:56:00.011Z</time>
      </trkpt>
      <trkpt lat="46.18156" lon="2.51759">
        <ele>354.17607</ele>
        <time>2024-06-27T23:56:02.056Z</time>
      </trkpt>
      <trkpt lat="46.18206" lon="2.51795">
        <ele>354.926001</ele>
        <time>2024-06-27T23:56:09.821Z</time>
      </trkpt>
      <trkpt lat="46.18242" lon="2.51805">
        <ele>355.745243</ele>
        <time>2024-06-27T23:56:14.922Z</time>
      </trkpt>
      <trkpt lat="46.1827" lon="2.51806">
        <ele>356.374185</ele>
        <time>2024-06-27T23:56:18.852Z</time>
      </trkpt>
      <trkpt lat="46.18289" lon="2.51789">
        <ele>356.851374</ele>
        <time>2024-06-27T23:56:23.040Z</time>
      </trkpt>
      <trkpt lat="46.18295" lon="2.51773">
        <ele>357.14163</ele>
        <time>2024-06-27T23:56:25.900Z</time>
      </trkpt>
      <trkpt lat="46.18308" lon="2.51694">
        <ele>358.974691</ele>
        <time>2024-06-27T23:56:39.138Z</time>
      </trkpt>
      <trkpt lat="46.18316" lon="2.51643">
        <ele>361.820252</ele>
        <time>2024-06-27T23:56:48.878Z</time>
      </trkpt>
      <trkpt lat="46.18328" lon="2.51604">
        <ele>364.186824</ele>
        <time>2024-06-27T23:56:57.751Z</time>
      </trkpt>
      <trkpt lat="46.18335" lon="2.51567">
        <ele>366.335901</ele>
        <time>2024-06-27T23:57:06.257Z</time>
      </trkpt>
      <trkpt lat="46.18341" lon="2.51528">
        <ele>368.543518</ele>
        <time>2024-06-27T23:57:14.691Z</time>
      </trkpt>
      <trkpt lat="46.18362" lon="2.5145">
        <ele>373.009452</ele>
        <time>2024-06-27T23:57:30.897Z</time>
      </trkpt>
      <trkpt lat="46.18373" lon="2.51376">
        <ele>375.876388</ele>
        <time>2024-06-27T23:57:44.140Z</time>
      </trkpt>
      <trkpt lat="46.18376" lon="2.51331">
        <ele>377.597317</ele>
        <time>2024-06-27T23:57:51.828Z</time>
      </trkpt>
      <trkpt lat="46.18374" lon="2.51287">
        <ele>379.291056</ele>
        <time>2024-06-27T23:57:59.092Z</time>
      </trkpt>
      <trkpt lat="46.18376" lon="2.51192">
        <ele>382.578037</ele>
        <time>2024-06-27T23:58:12.742Z</time>
      </trkpt>
      <trkpt lat="46.18371" lon="2.5116">
        <ele>382.946943</ele>
        <time>2024-06-27T23:58:16.869Z</time>
      </trkpt>
      <trkpt lat="46.18353" lon="2.51118">
        <ele>383.504049</ele>
        <time>2024-06-27T23:58:22.400Z</time>
      </trkpt>
      <trkpt lat="46.18349" lon="2.511">
        <ele>383.718263</ele>
        <time>2024-06-27T23:58:24.504Z</time>
      </trkpt>
      <trkpt lat="46.1835" lon="2.51082">
        <ele>383.918639</ele>
        <time>2024-06-27T23:58:26.399Z</time>
      </trkpt>
      <trkpt lat="46.18354" lon="2.5107">
        <ele>384.075058</ele>
        <time>2024-06-27T23:58:27.937Z</time>
      </trkpt>
      <trkpt lat="46.18363" lon="2.51063">
        <ele>384.229177</ele>
        <time>2024-06-27T23:58:29.454Z</time>
      </trkpt>
      <trkpt lat="46.18379" lon="2.51061">
        <ele>384.502601</ele>
        <time>2024-06-27T23:58:32.157Z</time>
      </trkpt>
      <trkpt lat="46.18389" lon="2.5107">
        <ele>384.688243</ele>
        <time>2024-06-27T23:58:34.126Z</time>
      </trkpt>
      <trkpt lat="46.18395" lon="2.5108">
        <ele>384.828951</ele>
        <time>2024-06-27T23:58:35.627Z</time>
      </trkpt>
      <trkpt lat="46.18409" lon="2.51129">
        <ele>385.434371</ele>
        <time>2024-06-27T23:58:42.290Z</time>
      </trkpt>
      <trkpt lat="46.18418" lon="2.51146">
        <ele>385.695762</ele>
        <time>2024-06-27T23:58:45.034Z</time>
      </trkpt>
      <trkpt lat="46.1844" lon="2.51175">
        <ele>386.211139</ele>
        <time>2024-06-27T23:58:50.541Z</time>
      </trkpt>
      <trkpt lat="46.18452" lon="2.51187">
        <ele>386.473653</ele>
        <time>2024-06-27T23:58:53.328Z</time>
      </trkpt>
      <trkpt lat="46.18462" lon="2.51192">
        <ele>386.65611</ele>
        <time>2024-06-27T23:58:55.214Z</time>
      </trkpt>
      <trkpt lat="46.18471" lon="2.51192">
        <ele>386.82341</ele>
        <time>2024-06-27T23:58:56.850Z</time>
      </trkpt>
      <trkpt lat="46.18481" lon="2.51188">
        <ele>386.996886</ele>
        <time>2024-06-27T23:58:58.558Z</time>
      </trkpt>
      <trkpt lat="46.18551" lon="2.51142">
        <ele>388.363738</ele>
        <time>2024-06-27T23:59:11.708Z</time>
      </trkpt>
      <trkpt lat="46.18558" lon="2.51134">
        <ele>388.516678</ele>
        <time>2024-06-27T23:59:13.254Z</time>
      </trkpt>
      <trkpt lat="46.18562" lon="2.51124">
        <ele>388.775391</ele>
        <time>2024-06-27T23:59:14.686Z</time>
      </trkpt>
      <trkpt lat="46.18562" lon="2.51112">
        <ele>389.044668</ele>
        <time>2024-06-27T23:59:16.098Z</time>
      </trkpt>
      <trkpt lat="46.1856" lon="2.51101">
        <ele>389.3124</ele>
        <time>2024-06-27T23:59:17.565Z</time>
      </trkpt>
      <trkpt lat="46.18551" lon="2.51092">
        <ele>389.677263</ele>
        <time>2024-06-27T23:59:19.612Z</time>
      </trkpt>
      <trkpt lat="46.18537" lon="2.51091">
        <ele>390.169485</ele>
        <time>2024-06-27T23:59:22.403Z</time>
      </trkpt>
      <trkpt lat="46.18465" lon="2.51113">
        <ele>392.677684</ele>
        <time>2024-06-27T23:59:37.542Z</time>
      </trkpt>
      <trkpt lat="46.18451" lon="2.51115">
        <ele>393.147146</ele>
        <time>2024-06-27T23:59:40.469Z</time>
      </trkpt>
      <trkpt lat="46.1844" lon="2.51112">
        <ele>393.541003</ele>
        <time>2024-06-27T23:59:42.920Z</time>
      </trkpt>
      <trkpt lat="46.18429" lon="2.51096">
        <ele>394.088123</ele>
        <time>2024-06-27T23:59:46.312Z</time>
      </trkpt>
      <trkpt lat="46.18423" lon="2.51071">
        <ele>394.721444</ele>
        <time>2024-06-27T23:59:50.142Z</time>
      </trkpt>
      <trkpt lat="46.18423" lon="2.51044">
        <ele>395.710004</ele>
        <time>2024-06-27T23:59:54.184Z</time>
      </trkpt>
      <trkpt lat="46.18448" lon="2.509">
        <ele>401.027699</ele>
        <time>2024-06-28T00:00:17.021Z</time>
      </trkpt>
      <trkpt lat="46.18448" lon="2.50882">
        <ele>401.668769</ele>
        <time>2024-06-28T00:00:19.993Z</time>
      </trkpt>
      <trkpt lat="46.18442" lon="2.50866">
        <ele>402.289343</ele>
        <time>2024-06-28T00:00:22.879Z</time>
      </trkpt>
      <trkpt lat="46.18426" lon="2.50855">
        <ele>403.207586</ele>
        <time>2024-06-28T00:00:27.268Z</time>
      </trkpt>
      <trkpt lat="46.18413" lon="2.50855">
        <ele>403.890725</ele>
        <time>2024-06-28T00:00:30.567Z</time>
      </trkpt>
      <trkpt lat="46.18404" lon="2.50861">
        <ele>404.474486</ele>
        <time>2024-06-28T00:00:33.159Z</time>
      </trkpt>
      <trkpt lat="46.18379" lon="2.50906">
        <ele>406.703817</ele>
        <time>2024-06-28T00:00:42.940Z</time>
      </trkpt>
      <trkpt lat="46.18368" lon="2.50921">
        <ele>407.549218</ele>
        <time>2024-06-28T00:00:46.599Z</time>
      </trkpt>
      <trkpt lat="46.18357" lon="2.50927">
        <ele>408.250933</ele>
        <time>2024-06-28T00:00:49.567Z</time>
      </trkpt>
      <trkpt lat="46.18345" lon="2.50926">
        <ele>408.919404</ele>
        <time>2024-06-28T00:00:52.362Z</time>
      </trkpt>
      <trkpt lat="46.18322" lon="2.50906">
        <ele>410.447077</ele>
        <time>2024-06-28T00:00:58.517Z</time>
      </trkpt>
      <trkpt lat="46.18305" lon="2.50884">
        <ele>411.712305</ele>
        <time>2024-06-28T00:01:03.555Z</time>
      </trkpt>
      <trkpt lat="46.18293" lon="2.50861">
        <ele>412.864237</ele>
        <time>2024-06-28T00:01:08.060Z</time>
      </trkpt>
      <trkpt lat="46.18285" lon="2.50837">
        <ele>413.892922</ele>
        <time>2024-06-28T00:01:12.186Z</time>
      </trkpt>
      <trkpt lat="46.18283" lon="2.5082">
        <ele>414.543693</ele>
        <time>2024-06-28T00:01:14.914Z</time>
      </trkpt>
      <trkpt lat="46.18285" lon="2.50786">
        <ele>415.762883</ele>
        <time>2024-06-28T00:01:20.414Z</time>
      </trkpt>
      <trkpt lat="46.18284" lon="2.50778">
        <ele>416.087707</ele>
        <time>2024-06-28T00:01:21.865Z</time>
      </trkpt>
      <trkpt lat="46.18281" lon="2.50767">
        <ele>416.521875</ele>
        <time>2024-06-28T00:01:23.832Z</time>
      </trkpt>
      <trkpt lat="46.18274" lon="2.50759">
        <ele>416.965062</ele>
        <time>2024-06-28T00:01:25.883Z</time>
      </trkpt>
      <trkpt lat="46.18267" lon="2.50757">
        <ele>417.339001</ele>
        <time>2024-06-28T00:01:27.662Z</time>
      </trkpt>
      <trkpt lat="46.18233" lon="2.50762">
        <ele>419.160601</ele>
        <time>2024-06-28T00:01:36.105Z</time>
      </trkpt>
      <trkpt lat="46.18109" lon="2.50729">
        <ele>425.383636</ele>
        <time>2024-06-28T00:02:03.987Z</time>
      </trkpt>
      <trkpt lat="46.18098" lon="2.5073">
        <ele>425.872107</ele>
        <time>2024-06-28T00:02:06.323Z</time>
      </trkpt>
      <trkpt lat="46.18081" lon="2.50742">
        <ele>426.676889</ele>
        <time>2024-06-28T00:02:10.097Z</time>
      </trkpt>
      <trkpt lat="46.18059" lon="2.50789">
        <ele>428.366949</ele>
        <time>2024-06-28T00:02:18.153Z</time>
      </trkpt>
      <trkpt lat="46.18044" lon="2.50811">
        <ele>429.311974</ele>
        <time>2024-06-28T00:02:22.803Z</time>
      </trkpt>
      <trkpt lat="46.18034" lon="2.50819">
        <ele>429.791455</ele>
        <time>2024-06-28T00:02:25.167Z</time>
      </trkpt>
      <trkpt lat="46.18014" lon="2.50826">
        <ele>430.725414</ele>
        <time>2024-06-28T00:02:29.869Z</time>
      </trkpt>
      <trkpt lat="46.17998" lon="2.50826">
        <ele>431.39628</ele>
        <time>2024-06-28T00:02:33.240Z</time>
      </trkpt>
      <trkpt lat="46.17965" lon="2.50819">
        <ele>432.647839</ele>
        <time>2024-06-28T00:02:40.544Z</time>
      </trkpt>
      <trkpt lat="46.17939" lon="2.50809">
        <ele>433.65719</ele>
        <time>2024-06-28T00:02:46.415Z</time>
      </trkpt>
      <trkpt lat="46.17898" lon="2.5078">
        <ele>435.354005</ele>
        <time>2024-06-28T00:02:56.162Z</time>
      </trkpt>
      <trkpt lat="46.17888" lon="2.50763">
        <ele>435.958643</ele>
        <time>2024-06-28T00:02:59.633Z</time>
      </trkpt>
      <trkpt lat="46.17874" lon="2.50728">
        <ele>436.99775</ele>
        <time>2024-06-28T00:03:05.277Z</time>
      </trkpt>
      <trkpt lat="46.17822" lon="2.50564">
        <ele>438.899547</ele>
        <time>2024-06-28T00:03:27.618Z</time>
      </trkpt>
      <trkpt lat="46.1782" lon="2.50559">
        <ele>438.926806</ele>
        <time>2024-06-28T00:03:28.153Z</time>
      </trkpt>
      <trkpt lat="46.17802" lon="2.50493">
        <ele>439.334635</ele>
        <time>2024-06-28T00:03:35.130Z</time>
      </trkpt>
      <trkpt lat="46.17789" lon="2.50421">
        <ele>439.192936</ele>
        <time>2024-06-28T00:03:41.864Z</time>
      </trkpt>
      <trkpt lat="46.17764" lon="2.50265">
        <ele>436.991239</ele>
        <time>2024-06-28T00:03:54.324Z</time>
      </trkpt>
      <trkpt lat="46.1776" lon="2.50205">
        <ele>436.158131</ele>
        <time>2024-06-28T00:03:58.648Z</time>
      </trkpt>
      <trkpt lat="46.17758" lon="2.50162">
        <ele>435.01079</ele>
        <time>2024-06-28T00:04:01.614Z</time>
      </trkpt>
      <trkpt lat="46.1775" lon="2.50051">
        <ele>431.554087</ele>
        <time>2024-06-28T00:04:09.007Z</time>
      </trkpt>
      <trkpt lat="46.17744" lon="2.50023">
        <ele>430.625376</ele>
        <time>2024-06-28T00:04:10.975Z</time>
      </trkpt>
      <trkpt lat="46.17735" lon="2.49994">
        <ele>429.655018</ele>
        <time>2024-06-28T00:04:13.027Z</time>
      </trkpt>
      <trkpt lat="46.17723" lon="2.49968">
        <ele>428.684572</ele>
        <time>2024-06-28T00:04:15.069Z</time>
      </trkpt>
      <trkpt lat="46.17709" lon="2.49946">
        <ele>427.759302</ele>
        <time>2024-06-28T00:04:17.013Z</time>
      </trkpt>
      <trkpt lat="46.17695" lon="2.4993">
        <ele>426.986095</ele>
        <time>2024-06-28T00:04:18.656Z</time>
      </trkpt>
      <trkpt lat="46.17658" lon="2.49898">
        <ele>425.06029</ele>
        <time>2024-06-28T00:04:22.808Z</time>
      </trkpt>
      <trkpt lat="46.17618" lon="2.49858">
        <ele>422.943995</ele>
        <time>2024-06-28T00:04:27.417Z</time>
      </trkpt>
      <trkpt lat="46.17576" lon="2.4979">
        <ele>420.160611</ele>
        <time>2024-06-28T00:04:33.680Z</time>
      </trkpt>
      <trkpt lat="46.17549" lon="2.49752">
        <ele>419.070729</ele>
        <time>2024-06-28T00:04:37.446Z</time>
      </trkpt>
      <trkpt lat="46.17529" lon="2.49733">
        <ele>418.383644</ele>
        <time>2024-06-28T00:04:39.876Z</time>
      </trkpt>
      <trkpt lat="46.17388" lon="2.49635">
        <ele>415.526888</ele>
        <time>2024-06-28T00:04:56.092Z</time>
      </trkpt>
      <trkpt lat="46.17371" lon="2.49619">
        <ele>415.858792</ele>
        <time>2024-06-28T00:04:59.369Z</time>
      </trkpt>
      <trkpt lat="46.17362" lon="2.49606">
        <ele>416.065293</ele>
        <time>2024-06-28T00:05:01.007Z</time>
      </trkpt>
      <trkpt lat="46.17357" lon="2.49583">
        <ele>416.337865</ele>
        <time>2024-06-28T00:05:04.110Z</time>
      </trkpt>
      <trkpt lat="46.17354" lon="2.49551">
        <ele>416.695782</ele>
        <time>2024-06-28T00:05:07.828Z</time>
      </trkpt>
      <trkpt lat="46.17351" lon="2.49506">
        <ele>417.204506</ele>
        <time>2024-06-28T00:05:13.897Z</time>
      </trkpt>
      <trkpt lat="46.17352" lon="2.49476">
        <ele>417.543209</ele>
        <time>2024-06-28T00:05:18.564Z</time>
      </trkpt>
      <trkpt lat="46.17354" lon="2.49453">
        <ele>417.806575</ele>
        <time>2024-06-28T00:05:21.820Z</time>
      </trkpt>
      <trkpt lat="46.17412" lon="2.49252">
        <ele>428.228851</ele>
        <time>2024-06-28T00:06:01.877Z</time>
      </trkpt>
      <trkpt lat="46.17424" lon="2.49171">
        <ele>432.247017</ele>
        <time>2024-06-28T00:06:17.991Z</time>
      </trkpt>
      <trkpt lat="46.17432" lon="2.49044">
        <ele>438.436391</ele>
        <time>2024-06-28T00:06:41.206Z</time>
      </trkpt>
      <trkpt lat="46.17436" lon="2.49034">
        <ele>438.987615</ele>
        <time>2024-06-28T00:06:43.065Z</time>
      </trkpt>
      <trkpt lat="46.17443" lon="2.49028">
        <ele>439.511702</ele>
        <time>2024-06-28T00:06:44.870Z</time>
      </trkpt>
      <trkpt lat="46.1745" lon="2.49024">
        <ele>440.061949</ele>
        <time>2024-06-28T00:06:46.848Z</time>
      </trkpt>
      <trkpt lat="46.175" lon="2.49009">
        <ele>443.483932</ele>
        <time>2024-06-28T00:06:59.763Z</time>
      </trkpt>
      <trkpt lat="46.17522" lon="2.48984">
        <ele>444.835039</ele>
        <time>2024-06-28T00:07:06.697Z</time>
      </trkpt>
      <trkpt lat="46.1756" lon="2.48919">
        <ele>447.689735</ele>
        <time>2024-06-28T00:07:20.450Z</time>
      </trkpt>
      <trkpt lat="46.17584" lon="2.48878">
        <ele>449.47527</ele>
        <time>2024-06-28T00:07:28.689Z</time>
      </trkpt>
      <trkpt lat="46.17595" lon="2.48844">
        <ele>450.764618</ele>
        <time>2024-06-28T00:07:34.278Z</time>
      </trkpt>
      <trkpt lat="46.17596" lon="2.48805">
        <ele>451.791319</ele>
        <time>2024-06-28T00:07:39.317Z</time>
      </trkpt>
      <trkpt lat="46.17599" lon="2.48794">
        <ele>451.683739</ele>
        <time>2024-06-28T00:07:40.880Z</time>
      </trkpt>
      <trkpt lat="46.17609" lon="2.48783">
        <ele>451.513659</ele>
        <time>2024-06-28T00:07:43.238Z</time>
      </trkpt>
      <trkpt lat="46.17624" lon="2.48775">
        <ele>451.304502</ele>
        <time>2024-06-28T00:07:46.038Z</time>
      </trkpt>
      <trkpt lat="46.17648" lon="2.48765">
        <ele>450.984191</ele>
        <time>2024-06-28T00:07:50.146Z</time>
      </trkpt>
      <trkpt lat="46.17682" lon="2.48752">
        <ele>450.525982</ele>
        <time>2024-06-28T00:07:54.940Z</time>
      </trkpt>
      <trkpt lat="46.17692" lon="2.48748">
        <ele>450.383322</ele>
        <time>2024-06-28T00:07:56.117Z</time>
      </trkpt>
      <trkpt lat="46.17702" lon="2.48738">
        <ele>450.237638</ele>
        <time>2024-06-28T00:07:57.321Z</time>
      </trkpt>
      <trkpt lat="46.17708" lon="2.48727">
        <ele>450.10564</ele>
        <time>2024-06-28T00:07:58.352Z</time>
      </trkpt>
      <trkpt lat="46.17733" lon="2.48708">
        <ele>449.732925</ele>
        <time>2024-06-28T00:08:01.099Z</time>
      </trkpt>
      <trkpt lat="46.17741" lon="2.48702">
        <ele>449.616789</ele>
        <time>2024-06-28T00:08:01.938Z</time>
      </trkpt>
      <trkpt lat="46.17766" lon="2.48695">
        <ele>448.25203</ele>
        <time>2024-06-28T00:08:04.255Z</time>
      </trkpt>
      <trkpt lat="46.17888" lon="2.48674">
        <ele>438.917667</ele>
        <time>2024-06-28T00:08:15.161Z</time>
      </trkpt>
      <trkpt lat="46.17901" lon="2.48659">
        <ele>437.671063</ele>
        <time>2024-06-28T00:08:16.607Z</time>
      </trkpt>
      <trkpt lat="46.1791" lon="2.48646">
        <ele>436.684474</ele>
        <time>2024-06-28T00:08:17.746Z</time>
      </trkpt>
      <trkpt lat="46.17924" lon="2.48633">
        <ele>435.413636</ele>
        <time>2024-06-28T00:08:19.197Z</time>
      </trkpt>
      <trkpt lat="46.17982" lon="2.48624">
        <ele>430.888175</ele>
        <time>2024-06-28T00:08:24.329Z</time>
      </trkpt>
      <trkpt lat="46.18031" lon="2.4861">
        <ele>427.023086</ele>
        <time>2024-06-28T00:08:28.778Z</time>
      </trkpt>
      <trkpt lat="46.18049" lon="2.48609">
        <ele>425.662277</ele>
        <time>2024-06-28T00:08:30.365Z</time>
      </trkpt>
      <trkpt lat="46.18061" lon="2.48611">
        <ele>424.679091</ele>
        <time>2024-06-28T00:08:31.497Z</time>
      </trkpt>
      <trkpt lat="46.18115" lon="2.48636">
        <ele>420.22157</ele>
        <time>2024-06-28T00:08:36.477Z</time>
      </trkpt>
      <trkpt lat="46.18133" lon="2.4865">
        <ele>418.565594</ele>
        <time>2024-06-28T00:08:38.265Z</time>
      </trkpt>
      <trkpt lat="46.18142" lon="2.48663">
        <ele>417.514175</ele>
        <time>2024-06-28T00:08:39.403Z</time>
      </trkpt>
      <trkpt lat="46.18162" lon="2.48688">
        <ele>415.361147</ele>
        <time>2024-06-28T00:08:41.742Z</time>
      </trkpt>
      <trkpt lat="46.1818" lon="2.48703">
        <ele>413.674396</ele>
        <time>2024-06-28T00:08:43.604Z</time>
      </trkpt>
      <trkpt lat="46.18209" lon="2.48711">
        <ele>411.315687</ele>
        <time>2024-06-28T00:08:46.150Z</time>
      </trkpt>
      <trkpt lat="46.18227" lon="2.48713">
        <ele>409.827263</ele>
        <time>2024-06-28T00:08:48.413Z</time>
      </trkpt>
      <trkpt lat="46.18231" lon="2.48714">
        <ele>409.479756</ele>
        <time>2024-06-28T00:08:48.927Z</time>
      </trkpt>
      <trkpt lat="46.18234" lon="2.48718">
        <ele>409.13014</ele>
        <time>2024-06-28T00:08:49.450Z</time>
      </trkpt>
      <trkpt lat="46.18235" lon="2.48726">
        <ele>408.691126</ele>
        <time>2024-06-28T00:08:50.135Z</time>
      </trkpt>
      <trkpt lat="46.1823" lon="2.48741">
        <ele>407.767279</ele>
        <time>2024-06-28T00:08:51.545Z</time>
      </trkpt>
      <trkpt lat="46.18232" lon="2.4875">
        <ele>407.265476</ele>
        <time>2024-06-28T00:08:52.324Z</time>
      </trkpt>
      <trkpt lat="46.18269" lon="2.48772">
        <ele>404.999755</ele>
        <time>2024-06-28T00:08:57.521Z</time>
      </trkpt>
      <trkpt lat="46.18303" lon="2.48798">
        <ele>402.817968</ele>
        <time>2024-06-28T00:09:02.495Z</time>
      </trkpt>
      <trkpt lat="46.1832" lon="2.48799">
        <ele>401.861313</ele>
        <time>2024-06-28T00:09:04.839Z</time>
      </trkpt>
      <trkpt lat="46.18328" lon="2.48788">
        <ele>401.224274</ele>
        <time>2024-06-28T00:09:06.230Z</time>
      </trkpt>
      <trkpt lat="46.18348" lon="2.48739">
        <ele>399.024851</ele>
        <time>2024-06-28T00:09:11.610Z</time>
      </trkpt>
      <trkpt lat="46.18376" lon="2.487">
        <ele>397.115812</ele>
        <time>2024-06-28T00:09:17.393Z</time>
      </trkpt>
      <trkpt lat="46.18389" lon="2.48694">
        <ele>397.04459</ele>
        <time>2024-06-28T00:09:19.742Z</time>
      </trkpt>
      <trkpt lat="46.18394" lon="2.48696">
        <ele>397.015313</ele>
        <time>2024-06-28T00:09:20.515Z</time>
      </trkpt>
      <trkpt lat="46.18406" lon="2.48707">
        <ele>396.943911</ele>
        <time>2024-06-28T00:09:22.274Z</time>
      </trkpt>
      <trkpt lat="46.18428" lon="2.48744">
        <ele>396.767227</ele>
        <time>2024-06-28T00:09:27.281Z</time>
      </trkpt>
      <trkpt lat="46.18442" lon="2.4876">
        <ele>396.670904</ele>
        <time>2024-06-28T00:09:30.994Z</time>
      </trkpt>
      <trkpt lat="46.18484" lon="2.48784">
        <ele>396.434553</ele>
        <time>2024-06-28T00:09:40.223Z</time>
      </trkpt>
      <trkpt lat="46.18504" lon="2.48787">
        <ele>396.332269</ele>
        <time>2024-06-28T00:09:44.405Z</time>
      </trkpt>
      <trkpt lat="46.18515" lon="2.48796">
        <ele>396.264711</ele>
        <time>2024-06-28T00:09:47.333Z</time>
      </trkpt>
      <trkpt lat="46.18529" lon="2.48821">
        <ele>396.704652</ele>
        <time>2024-06-28T00:09:51.989Z</time>
      </trkpt>
      <trkpt lat="46.18543" lon="2.4884">
        <ele>397.587235</ele>
        <time>2024-06-28T00:09:56.579Z</time>
      </trkpt>
      <trkpt lat="46.18565" lon="2.48844">
        <ele>398.598965</ele>
        <time>2024-06-28T00:10:01.898Z</time>
      </trkpt>
      <trkpt lat="46.18581" lon="2.48838">
        <ele>399.376799</ele>
        <time>2024-06-28T00:10:06.124Z</time>
      </trkpt>
      <trkpt lat="46.18595" lon="2.48827">
        <ele>400.115076</ele>
        <time>2024-06-28T00:10:10.112Z</time>
      </trkpt>
      <trkpt lat="46.18611" lon="2.48775">
        <ele>401.919895</ele>
        <time>2024-06-28T00:10:20.193Z</time>
      </trkpt>
      <trkpt lat="46.18611" lon="2.48775">
        <ele>401.929508</ele>
        <time>2024-06-28T00:10:20.255Z</time>
      </trkpt>
      <trkpt lat="46.18625" lon="2.48715">
        <ele>403.966589</ele>
        <time>2024-06-28T00:10:32.098Z</time>
      </trkpt>
      <trkpt lat="46.18638" lon="2.4867">
        <ele>405.565257</ele>
        <time>2024-06-28T00:10:41.380Z</time>
      </trkpt>
      <trkpt lat="46.18652" lon="2.48652">
        <ele>406.539521</ele>
        <time>2024-06-28T00:10:46.910Z</time>
      </trkpt>
      <trkpt lat="46.18691" lon="2.48633">
        <ele>408.557329</ele>
        <time>2024-06-28T00:10:58.248Z</time>
      </trkpt>
      <trkpt lat="46.18702" lon="2.48617">
        <ele>409.317489</ele>
        <time>2024-06-28T00:11:02.294Z</time>
      </trkpt>
      <trkpt lat="46.18703" lon="2.48588">
        <ele>410.311208</ele>
        <time>2024-06-28T00:11:07.309Z</time>
      </trkpt>
      <trkpt lat="46.18694" lon="2.4856">
        <ele>411.388596</ele>
        <time>2024-06-28T00:11:12.530Z</time>
      </trkpt>
      <trkpt lat="46.1853" lon="2.48334">
        <ele>419.575183</ele>
        <time>2024-06-28T00:12:04.810Z</time>
      </trkpt>
      <trkpt lat="46.18509" lon="2.48275">
        <ele>421.458651</ele>
        <time>2024-06-28T00:12:16.146Z</time>
      </trkpt>
      <trkpt lat="46.18498" lon="2.48254">
        <ele>422.2143</ele>
        <time>2024-06-28T00:12:20.758Z</time>
      </trkpt>
      <trkpt lat="46.1844" lon="2.48207">
        <ele>424.990246</ele>
        <time>2024-06-28T00:12:37.771Z</time>
      </trkpt>
      <trkpt lat="46.18415" lon="2.48175">
        <ele>426.373915</ele>
        <time>2024-06-28T00:12:45.982Z</time>
      </trkpt>
      <trkpt lat="46.18389" lon="2.48135">
        <ele>426.564556</ele>
        <time>2024-06-28T00:12:54.799Z</time>
      </trkpt>
      <trkpt lat="46.18366" lon="2.48083">
        <ele>426.22571</ele>
        <time>2024-06-28T00:13:03.872Z</time>
      </trkpt>
      <trkpt lat="46.18349" lon="2.48095">
        <ele>426.07655</ele>
        <time>2024-06-28T00:13:06.467Z</time>
      </trkpt>
      <trkpt lat="46.18341" lon="2.48096">
        <ele>426.010198</ele>
        <time>2024-06-28T00:13:07.506Z</time>
      </trkpt>
      <trkpt lat="46.18334" lon="2.48092">
        <ele>425.954433</ele>
        <time>2024-06-28T00:13:08.379Z</time>
      </trkpt>
      <trkpt lat="46.18325" lon="2.48084">
        <ele>425.868289</ele>
        <time>2024-06-28T00:13:09.613Z</time>
      </trkpt>
      <trkpt lat="46.18306" lon="2.48051">
        <ele>425.632127</ele>
        <time>2024-06-28T00:13:12.697Z</time>
      </trkpt>
      <trkpt lat="46.183" lon="2.48015">
        <ele>425.426261</ele>
        <time>2024-06-28T00:13:15.211Z</time>
      </trkpt>
      <trkpt lat="46.183" lon="2.47976">
        <ele>423.977579</ele>
        <time>2024-06-28T00:13:17.747Z</time>
      </trkpt>
      <trkpt lat="46.18308" lon="2.47951">
        <ele>422.479583</ele>
        <time>2024-06-28T00:13:19.525Z</time>
      </trkpt>
      <trkpt lat="46.18335" lon="2.47837">
        <ele>416.074567</ele>
        <time>2024-06-28T00:13:26.839Z</time>
      </trkpt>
      <trkpt lat="46.18357" lon="2.47736">
        <ele>410.383665</ele>
        <time>2024-06-28T00:13:33.175Z</time>
      </trkpt>
      <trkpt lat="46.18373" lon="2.47635">
        <ele>404.438781</ele>
        <time>2024-06-28T00:13:39.515Z</time>
      </trkpt>
      <trkpt lat="46.18375" lon="2.47605">
        <ele>402.678765</ele>
        <time>2024-06-28T00:13:41.400Z</time>
      </trkpt>
      <trkpt lat="46.18374" lon="2.4748">
        <ele>395.562743</ele>
        <time>2024-06-28T00:13:49.003Z</time>
      </trkpt>
      <trkpt lat="46.18389" lon="2.4739">
        <ele>390.437752</ele>
        <time>2024-06-28T00:13:54.644Z</time>
      </trkpt>
      <trkpt lat="46.18399" lon="2.47298">
        <ele>385.257513</ele>
        <time>2024-06-28T00:14:00.359Z</time>
      </trkpt>
      <trkpt lat="46.18404" lon="2.47138">
        <ele>376.497594</ele>
        <time>2024-06-28T00:14:10.151Z</time>
      </trkpt>
      <trkpt lat="46.1841" lon="2.47072">
        <ele>372.906418</ele>
        <time>2024-06-28T00:14:14.238Z</time>
      </trkpt>
      <trkpt lat="46.1842" lon="2.47006">
        <ele>369.2475</ele>
        <time>2024-06-28T00:14:18.421Z</time>
      </trkpt>
      <trkpt lat="46.18406" lon="2.46899">
        <ele>363.371098</ele>
        <time>2024-06-28T00:14:25.084Z</time>
      </trkpt>
      <trkpt lat="46.18405" lon="2.46874">
        <ele>362.050571</ele>
        <time>2024-06-28T00:14:26.592Z</time>
      </trkpt>
      <trkpt lat="46.18409" lon="2.46814">
        <ele>358.79741</ele>
        <time>2024-06-28T00:14:30.338Z</time>
      </trkpt>
      <trkpt lat="46.18409" lon="2.46753">
        <ele>355.543248</ele>
        <time>2024-06-28T00:14:34.082Z</time>
      </trkpt>
      <trkpt lat="46.18411" lon="2.4673">
        <ele>354.293454</ele>
        <time>2024-06-28T00:14:35.513Z</time>
      </trkpt>
      <trkpt lat="46.18415" lon="2.46713">
        <ele>353.430488</ele>
        <time>2024-06-28T00:14:36.612Z</time>
      </trkpt>
      <trkpt lat="46.1844" lon="2.46659">
        <ele>350.323952</ele>
        <time>2024-06-28T00:14:40.565Z</time>
      </trkpt>
      <trkpt lat="46.18466" lon="2.46614">
        <ele>347.490376</ele>
        <time>2024-06-28T00:14:44.197Z</time>
      </trkpt>
      <trkpt lat="46.18475" lon="2.46585">
        <ele>345.968685</ele>
        <time>2024-06-28T00:14:46.155Z</time>
      </trkpt>
      <trkpt lat="46.18484" lon="2.46499">
        <ele>341.765794</ele>
        <time>2024-06-28T00:14:51.745Z</time>
      </trkpt>
      <trkpt lat="46.18481" lon="2.46372">
        <ele>337.768752</ele>
        <time>2024-06-28T00:14:59.890Z</time>
      </trkpt>
      <trkpt lat="46.18482" lon="2.46328">
        <ele>336.405441</ele>
        <time>2024-06-28T00:15:02.679Z</time>
      </trkpt>
      <trkpt lat="46.18485" lon="2.46286">
        <ele>335.086776</ele>
        <time>2024-06-28T00:15:05.443Z</time>
      </trkpt>
      <trkpt lat="46.18499" lon="2.46198">
        <ele>333.75568</ele>
        <time>2024-06-28T00:15:12.661Z</time>
      </trkpt>
      <trkpt lat="46.18521" lon="2.46122">
        <ele>334.086814</ele>
        <time>2024-06-28T00:15:21.178Z</time>
      </trkpt>
      <trkpt lat="46.1852" lon="2.46088">
        <ele>334.224377</ele>
        <time>2024-06-28T00:15:24.961Z</time>
      </trkpt>
      <trkpt lat="46.18515" lon="2.46068">
        <ele>334.30878</ele>
        <time>2024-06-28T00:15:27.342Z</time>
      </trkpt>
      <trkpt lat="46.18511" lon="2.46053">
        <ele>334.371151</ele>
        <time>2024-06-28T00:15:29.242Z</time>
      </trkpt>
      <trkpt lat="46.1851" lon="2.46048">
        <ele>334.391778</ele>
        <time>2024-06-28T00:15:29.813Z</time>
      </trkpt>
      <trkpt lat="46.18503" lon="2.46023">
        <ele>334.499045</ele>
        <time>2024-06-28T00:15:33.183Z</time>
      </trkpt>
      <trkpt lat="46.18464" lon="2.45883">
        <ele>337.204365</ele>
        <time>2024-06-28T00:15:54.930Z</time>
      </trkpt>
      <trkpt lat="46.18429" lon="2.4577">
        <ele>339.85695</ele>
        <time>2024-06-28T00:16:11.862Z</time>
      </trkpt>
      <trkpt lat="46.18415" lon="2.45715">
        <ele>340.554049</ele>
        <time>2024-06-28T00:16:19.205Z</time>
      </trkpt>
      <trkpt lat="46.18411" lon="2.45681">
        <ele>340.838033</ele>
        <time>2024-06-28T00:16:23.521Z</time>
      </trkpt>
      <trkpt lat="46.18411" lon="2.4562">
        <ele>341.344654</ele>
        <time>2024-06-28T00:16:30.931Z</time>
      </trkpt>
      <trkpt lat="46.1843" lon="2.45234">
        <ele>343.123863</ele>
        <time>2024-06-28T00:17:13.763Z</time>
      </trkpt>
      <trkpt lat="46.18427" lon="2.45183">
        <ele>343.606614</ele>
        <time>2024-06-28T00:17:19.723Z</time>
      </trkpt>
      <trkpt lat="46.1842" lon="2.4513">
        <ele>344.115197</ele>
        <time>2024-06-28T00:17:26.165Z</time>
      </trkpt>
      <trkpt lat="46.18373" lon="2.44815">
        <ele>347.30236</ele>
        <time>2024-06-28T00:18:05.603Z</time>
      </trkpt>
      <trkpt lat="46.18372" lon="2.44792">
        <ele>347.542013</ele>
        <time>2024-06-28T00:18:08.459Z</time>
      </trkpt>
      <trkpt lat="46.18372" lon="2.44769">
        <ele>347.781162</ele>
        <time>2024-06-28T00:18:11.320Z</time>
      </trkpt>
      <trkpt lat="46.18407" lon="2.44489">
        <ele>349.130513</ele>
        <time>2024-06-28T00:18:43.092Z</time>
      </trkpt>
      <trkpt lat="46.18426" lon="2.44399">
        <ele>348.455566</ele>
        <time>2024-06-28T00:18:50.969Z</time>
      </trkpt>
      <trkpt lat="46.18462" lon="2.44259">
        <ele>347.050005</ele>
        <time>2024-06-28T00:19:03.129Z</time>
      </trkpt>
      <trkpt lat="46.18492" lon="2.44128">
        <ele>344.664015</ele>
        <time>2024-06-28T00:19:13.008Z</time>
      </trkpt>
      <trkpt lat="46.18523" lon="2.43987">
        <ele>341.760425</ele>
        <time>2024-06-28T00:19:23.469Z</time>
      </trkpt>
      <trkpt lat="46.18532" lon="2.43931">
        <ele>341.288255</ele>
        <time>2024-06-28T00:19:27.604Z</time>
      </trkpt>
      <trkpt lat="46.18532" lon="2.43874">
        <ele>340.896289</ele>
        <time>2024-06-28T00:19:31.675Z</time>
      </trkpt>
      <trkpt lat="46.18518" lon="2.43808">
        <ele>340.412376</ele>
        <time>2024-06-28T00:19:37.361Z</time>
      </trkpt>
      <trkpt lat="46.18511" lon="2.43744">
        <ele>339.963671</ele>
        <time>2024-06-28T00:19:44.533Z</time>
      </trkpt>
      <trkpt lat="46.18511" lon="2.43385">
        <ele>344.497061</ele>
        <time>2024-06-28T00:20:32.822Z</time>
      </trkpt>
      <trkpt lat="46.1851" lon="2.43103">
        <ele>341.552118</ele>
        <time>2024-06-28T00:20:56.006Z</time>
      </trkpt>
      <trkpt lat="46.18511" lon="2.43083">
        <ele>340.960484</ele>
        <time>2024-06-28T00:20:57.256Z</time>
      </trkpt>
      <trkpt lat="46.18514" lon="2.43068">
        <ele>340.500318</ele>
        <time>2024-06-28T00:20:58.284Z</time>
      </trkpt>
      <trkpt lat="46.18519" lon="2.43056">
        <ele>340.082081</ele>
        <time>2024-06-28T00:20:59.164Z</time>
      </trkpt>
      <trkpt lat="46.18528" lon="2.43045">
        <ele>339.578718</ele>
        <time>2024-06-28T00:21:00.207Z</time>
      </trkpt>
      <trkpt lat="46.18597" lon="2.42987">
        <ele>336.12871</ele>
        <time>2024-06-28T00:21:07.435Z</time>
      </trkpt>
      <trkpt lat="46.18599" lon="2.42986">
        <ele>336.014578</ele>
        <time>2024-06-28T00:21:07.673Z</time>
      </trkpt>
      <trkpt lat="46.18698" lon="2.42904">
        <ele>330.964015</ele>
        <time>2024-06-28T00:21:18.105Z</time>
      </trkpt>
      <trkpt lat="46.18717" lon="2.42887">
        <ele>329.968864</ele>
        <time>2024-06-28T00:21:20.672Z</time>
      </trkpt>
      <trkpt lat="46.18723" lon="2.42882">
        <ele>329.670319</ele>
        <time>2024-06-28T00:21:21.453Z</time>
      </trkpt>
      <trkpt lat="46.18765" lon="2.42847">
        <ele>329.011888</ele>
        <time>2024-06-28T00:21:29.202Z</time>
      </trkpt>
      <trkpt lat="46.188" lon="2.42818">
        <ele>329.132598</ele>
        <time>2024-06-28T00:21:35.745Z</time>
      </trkpt>
      <trkpt lat="46.18811" lon="2.42802">
        <ele>329.177922</ele>
        <time>2024-06-28T00:21:38.218Z</time>
      </trkpt>
      <trkpt lat="46.18818" lon="2.42765">
        <ele>329.255531</ele>
        <time>2024-06-28T00:21:42.434Z</time>
      </trkpt>
      <trkpt lat="46.18823" lon="2.42728">
        <ele>329.332366</ele>
        <time>2024-06-28T00:21:46.607Z</time>
      </trkpt>
      <trkpt lat="46.18825" lon="2.42705">
        <ele>329.379644</ele>
        <time>2024-06-28T00:21:49.210Z</time>
      </trkpt>
      <trkpt lat="46.18829" lon="2.42669">
        <ele>329.449418</ele>
        <time>2024-06-28T00:21:53.361Z</time>
      </trkpt>
      <trkpt lat="46.18832" lon="2.42633">
        <ele>329.449418</ele>
        <time>2024-06-28T00:21:57.527Z</time>
      </trkpt>
      <trkpt lat="46.18834" lon="2.42613">
        <ele>329.449418</ele>
        <time>2024-06-28T00:21:59.751Z</time>
      </trkpt>
      <trkpt lat="46.18835" lon="2.42592">
        <ele>329.449418</ele>
        <time>2024-06-28T00:22:02.236Z</time>
      </trkpt>
      <trkpt lat="46.18836" lon="2.42589">
        <ele>329.449418</ele>
        <time>2024-06-28T00:22:02.565Z</time>
      </trkpt>
      <trkpt lat="46.18839" lon="2.42559">
        <ele>329.449418</ele>
        <time>2024-06-28T00:22:05.851Z</time>
      </trkpt>
      <trkpt lat="46.18843" lon="2.42526">
        <ele>329.449418</ele>
        <time>2024-06-28T00:22:09.610Z</time>
      </trkpt>
      <trkpt lat="46.18849" lon="2.42469">
        <ele>329.449418</ele>
        <time>2024-06-28T00:22:15.968Z</time>
      </trkpt>
      <trkpt lat="46.18852" lon="2.42441">
        <ele>329.449418</ele>
        <time>2024-06-28T00:22:19.169Z</time>
      </trkpt>
    </trkseg>
  </trk>
</gpx>